<?xml version="1.0" encoding="UTF-8" standalone="no" ?>
<gpx xmlns="http://www.topografix.com/GPX/1/1" creator="www.plotaroute.com" version="1.1"  xmlns:xsi="http://www.w3.org/2001/XMLSchema-instance" xsi:schemaLocation="http://www.topografix.com/GPX/1/1 http://www.topografix.com/GPX/1/1/gpx.xsd">
<metadata>
<desc>Route created on plotaroute.com</desc>
</metadata>
<trk>
<name>3ª Etapa_VP Futuro 2026</name>
<trkseg>
<trkpt lat="40.015716" lon="-8.370575">
<ele>207</ele>
<time>2026-05-08T00:00:00Z</time></trkpt>
<trkpt lat="40.01515" lon="-8.369329">
<ele>207</ele>
<time>2026-05-08T00:00:22Z</time></trkpt>
<trkpt lat="40.014948" lon="-8.368883">
<ele>208</ele>
<time>2026-05-08T00:00:30Z</time></trkpt>
<trkpt lat="40.014889" lon="-8.36863">
<ele>208</ele>
<time>2026-05-08T00:00:34Z</time></trkpt>
<trkpt lat="40.0148886" lon="-8.3686298">
<ele>208</ele>
<time>2026-05-08T00:00:34Z</time></trkpt>
<trkpt lat="40.014889" lon="-8.36863">
<ele>208</ele>
<time>2026-05-08T00:00:34Z</time></trkpt>
<trkpt lat="40.014854" lon="-8.368483">
<ele>208</ele>
<time>2026-05-08T00:00:37Z</time></trkpt>
<trkpt lat="40.014798" lon="-8.368008">
<ele>206</ele>
<time>2026-05-08T00:00:44Z</time></trkpt>
<trkpt lat="40.014687" lon="-8.36768">
<ele>203</ele>
<time>2026-05-08T00:00:49Z</time></trkpt>
<trkpt lat="40.014499" lon="-8.367435">
<ele>200</ele>
<time>2026-05-08T00:00:55Z</time></trkpt>
<trkpt lat="40.014438" lon="-8.367379">
<ele>200</ele>
<time>2026-05-08T00:00:56Z</time></trkpt>
<trkpt lat="40.013765" lon="-8.366797">
<ele>195</ele>
<time>2026-05-08T00:01:12Z</time></trkpt>
<trkpt lat="40.01356" lon="-8.366576">
<ele>194</ele>
<time>2026-05-08T00:01:18Z</time></trkpt>
<trkpt lat="40.013505" lon="-8.366466">
<ele>195</ele>
<time>2026-05-08T00:01:20Z</time></trkpt>
<trkpt lat="40.01348" lon="-8.36637">
<ele>195</ele>
<time>2026-05-08T00:01:21Z</time></trkpt>
<trkpt lat="40.013473" lon="-8.366247">
<ele>195</ele>
<time>2026-05-08T00:01:23Z</time></trkpt>
<trkpt lat="40.013492" lon="-8.366128">
<ele>195</ele>
<time>2026-05-08T00:01:25Z</time></trkpt>
<trkpt lat="40.013588" lon="-8.365936">
<ele>196</ele>
<time>2026-05-08T00:01:29Z</time></trkpt>
<trkpt lat="40.014061" lon="-8.365231">
<ele>197</ele>
<time>2026-05-08T00:01:43Z</time></trkpt>
<trkpt lat="40.014189" lon="-8.364929">
<ele>197</ele>
<time>2026-05-08T00:01:48Z</time></trkpt>
<trkpt lat="40.014268" lon="-8.364678">
<ele>197</ele>
<time>2026-05-08T00:01:53Z</time></trkpt>
<trkpt lat="40.014463" lon="-8.363947">
<ele>198</ele>
<time>2026-05-08T00:02:04Z</time></trkpt>
<trkpt lat="40.014491" lon="-8.363736">
<ele>198</ele>
<time>2026-05-08T00:02:08Z</time></trkpt>
<trkpt lat="40.014435" lon="-8.363447">
<ele>197</ele>
<time>2026-05-08T00:02:12Z</time></trkpt>
<trkpt lat="40.014332" lon="-8.363046">
<ele>198</ele>
<time>2026-05-08T00:02:19Z</time></trkpt>
<trkpt lat="40.01408" lon="-8.362305">
<ele>200</ele>
<time>2026-05-08T00:02:31Z</time></trkpt>
<trkpt lat="40.013899" lon="-8.361937">
<ele>202</ele>
<time>2026-05-08T00:02:38Z</time></trkpt>
<trkpt lat="40.0136" lon="-8.361583">
<ele>206</ele>
<time>2026-05-08T00:02:46Z</time></trkpt>
<trkpt lat="40.013117" lon="-8.361143">
<ele>208</ele>
<time>2026-05-08T00:02:58Z</time></trkpt>
<trkpt lat="40.012487" lon="-8.360579">
<ele>211</ele>
<time>2026-05-08T00:03:13Z</time></trkpt>
<trkpt lat="40.012381" lon="-8.360426">
<ele>212</ele>
<time>2026-05-08T00:03:16Z</time></trkpt>
<trkpt lat="40.01197" lon="-8.35963">
<ele>215</ele>
<time>2026-05-08T00:03:31Z</time></trkpt>
<trkpt lat="40.011659" lon="-8.358913">
<ele>218</ele>
<time>2026-05-08T00:03:44Z</time></trkpt>
<trkpt lat="40.011524" lon="-8.358618">
<ele>219</ele>
<time>2026-05-08T00:03:49Z</time></trkpt>
<trkpt lat="40.011325" lon="-8.358183">
<ele>220</ele>
<time>2026-05-08T00:03:57Z</time></trkpt>
<trkpt lat="40.011152" lon="-8.357885">
<ele>221</ele>
<time>2026-05-08T00:04:02Z</time></trkpt>
<trkpt lat="40.011093" lon="-8.357881">
<ele>221</ele>
<time>2026-05-08T00:04:04Z</time></trkpt>
<trkpt lat="40.011011" lon="-8.357818">
<ele>221</ele>
<time>2026-05-08T00:04:06Z</time></trkpt>
<trkpt lat="40.010985" lon="-8.357766">
<ele>221</ele>
<time>2026-05-08T00:04:06Z</time></trkpt>
<trkpt lat="40.010973" lon="-8.357634">
<ele>222</ele>
<time>2026-05-08T00:04:09Z</time></trkpt>
<trkpt lat="40.010938" lon="-8.357472">
<ele>222</ele>
<time>2026-05-08T00:04:11Z</time></trkpt>
<trkpt lat="40.010914" lon="-8.357164">
<ele>223</ele>
<time>2026-05-08T00:04:16Z</time></trkpt>
<trkpt lat="40.010686" lon="-8.355859">
<ele>228</ele>
<time>2026-05-08T00:04:36Z</time></trkpt>
<trkpt lat="40.010658" lon="-8.355506">
<ele>229</ele>
<time>2026-05-08T00:04:42Z</time></trkpt>
<trkpt lat="40.010658" lon="-8.355506">
<ele>229</ele>
<time>2026-05-08T00:04:42Z</time></trkpt>
<trkpt lat="40.010617" lon="-8.355004">
<ele>231</ele>
<time>2026-05-08T00:04:50Z</time></trkpt>
<trkpt lat="40.010599" lon="-8.354175">
<ele>235</ele>
<time>2026-05-08T00:05:02Z</time></trkpt>
<trkpt lat="40.010639" lon="-8.353366">
<ele>240</ele>
<time>2026-05-08T00:05:15Z</time></trkpt>
<trkpt lat="40.010689" lon="-8.35313">
<ele>241</ele>
<time>2026-05-08T00:05:19Z</time></trkpt>
<trkpt lat="40.010774" lon="-8.352967">
<ele>242</ele>
<time>2026-05-08T00:05:22Z</time></trkpt>
<trkpt lat="40.010503" lon="-8.352573">
<ele>242</ele>
<time>2026-05-08T00:05:30Z</time></trkpt>
<trkpt lat="40.010503" lon="-8.352573">
<ele>242</ele>
<time>2026-05-08T00:05:30Z</time></trkpt>
<trkpt lat="40.010332" lon="-8.352326">
<ele>241</ele>
<time>2026-05-08T00:05:35Z</time></trkpt>
<trkpt lat="40.010303" lon="-8.352203">
<ele>241</ele>
<time>2026-05-08T00:05:37Z</time></trkpt>
<trkpt lat="40.010287" lon="-8.352018">
<ele>241</ele>
<time>2026-05-08T00:05:40Z</time></trkpt>
<trkpt lat="40.010318" lon="-8.351836">
<ele>242</ele>
<time>2026-05-08T00:05:42Z</time></trkpt>
<trkpt lat="40.010441" lon="-8.351575">
<ele>244</ele>
<time>2026-05-08T00:05:47Z</time></trkpt>
<trkpt lat="40.010845" lon="-8.350866">
<ele>252</ele>
<time>2026-05-08T00:06:01Z</time></trkpt>
<trkpt lat="40.010903" lon="-8.350734">
<ele>252</ele>
<time>2026-05-08T00:06:03Z</time></trkpt>
<trkpt lat="40.011053" lon="-8.35062">
<ele>252</ele>
<time>2026-05-08T00:06:07Z</time></trkpt>
<trkpt lat="40.011406" lon="-8.350427">
<ele>254</ele>
<time>2026-05-08T00:06:14Z</time></trkpt>
<trkpt lat="40.011963" lon="-8.350046">
<ele>259</ele>
<time>2026-05-08T00:06:27Z</time></trkpt>
<trkpt lat="40.012101" lon="-8.349847">
<ele>260</ele>
<time>2026-05-08T00:06:31Z</time></trkpt>
<trkpt lat="40.01216" lon="-8.349519">
<ele>260</ele>
<time>2026-05-08T00:06:36Z</time></trkpt>
<trkpt lat="40.012233" lon="-8.349176">
<ele>260</ele>
<time>2026-05-08T00:06:42Z</time></trkpt>
<trkpt lat="40.012398" lon="-8.348884">
<ele>263</ele>
<time>2026-05-08T00:06:47Z</time></trkpt>
<trkpt lat="40.012578" lon="-8.348633">
<ele>266</ele>
<time>2026-05-08T00:06:52Z</time></trkpt>
<trkpt lat="40.012718" lon="-8.348518">
<ele>267</ele>
<time>2026-05-08T00:06:56Z</time></trkpt>
<trkpt lat="40.013779" lon="-8.348358">
<ele>273</ele>
<time>2026-05-08T00:07:17Z</time></trkpt>
<trkpt lat="40.013779" lon="-8.348358">
<ele>273</ele>
<time>2026-05-08T00:07:17Z</time></trkpt>
<trkpt lat="40.014818" lon="-8.348209">
<ele>278</ele>
<time>2026-05-08T00:07:38Z</time></trkpt>
<trkpt lat="40.015005" lon="-8.348103">
<ele>280</ele>
<time>2026-05-08T00:07:42Z</time></trkpt>
<trkpt lat="40.015245" lon="-8.347806">
<ele>284</ele>
<time>2026-05-08T00:07:49Z</time></trkpt>
<trkpt lat="40.015365" lon="-8.347696">
<ele>285</ele>
<time>2026-05-08T00:07:52Z</time></trkpt>
<trkpt lat="40.015484" lon="-8.34768">
<ele>285</ele>
<time>2026-05-08T00:07:54Z</time></trkpt>
<trkpt lat="40.015746" lon="-8.347715">
<ele>285</ele>
<time>2026-05-08T00:07:59Z</time></trkpt>
<trkpt lat="40.016378" lon="-8.347658">
<ele>285</ele>
<time>2026-05-08T00:08:12Z</time></trkpt>
<trkpt lat="40.016745" lon="-8.347538">
<ele>287</ele>
<time>2026-05-08T00:08:20Z</time></trkpt>
<trkpt lat="40.016909" lon="-8.347403">
<ele>288</ele>
<time>2026-05-08T00:08:24Z</time></trkpt>
<trkpt lat="40.017259" lon="-8.347049">
<ele>293</ele>
<time>2026-05-08T00:08:32Z</time></trkpt>
<trkpt lat="40.017477" lon="-8.346852">
<ele>297</ele>
<time>2026-05-08T00:08:38Z</time></trkpt>
<trkpt lat="40.017605" lon="-8.346834">
<ele>296</ele>
<time>2026-05-08T00:08:40Z</time></trkpt>
<trkpt lat="40.017779" lon="-8.346855">
<ele>295</ele>
<time>2026-05-08T00:08:44Z</time></trkpt>
<trkpt lat="40.017897" lon="-8.346924">
<ele>293</ele>
<time>2026-05-08T00:08:46Z</time></trkpt>
<trkpt lat="40.017897" lon="-8.346924">
<ele>293</ele>
<time>2026-05-08T00:08:46Z</time></trkpt>
<trkpt lat="40.01805" lon="-8.347012">
<ele>290</ele>
<time>2026-05-08T00:08:50Z</time></trkpt>
<trkpt lat="40.018142" lon="-8.34702">
<ele>290</ele>
<time>2026-05-08T00:08:52Z</time></trkpt>
<trkpt lat="40.01829" lon="-8.346969">
<ele>291</ele>
<time>2026-05-08T00:08:55Z</time></trkpt>
<trkpt lat="40.018438" lon="-8.346852">
<ele>292</ele>
<time>2026-05-08T00:08:58Z</time></trkpt>
<trkpt lat="40.018567" lon="-8.346782">
<ele>293</ele>
<time>2026-05-08T00:09:01Z</time></trkpt>
<trkpt lat="40.018745" lon="-8.346757">
<ele>292</ele>
<time>2026-05-08T00:09:05Z</time></trkpt>
<trkpt lat="40.01926" lon="-8.346487">
<ele>293</ele>
<time>2026-05-08T00:09:16Z</time></trkpt>
<trkpt lat="40.019332" lon="-8.346469">
<ele>293</ele>
<time>2026-05-08T00:09:17Z</time></trkpt>
<trkpt lat="40.019442" lon="-8.346505">
<ele>291</ele>
<time>2026-05-08T00:09:19Z</time></trkpt>
<trkpt lat="40.019489" lon="-8.346553">
<ele>290</ele>
<time>2026-05-08T00:09:21Z</time></trkpt>
<trkpt lat="40.019541" lon="-8.346672">
<ele>287</ele>
<time>2026-05-08T00:09:23Z</time></trkpt>
<trkpt lat="40.019086" lon="-8.3471">
<ele>283</ele>
<time>2026-05-08T00:09:34Z</time></trkpt>
<trkpt lat="40.018866" lon="-8.34727">
<ele>281</ele>
<time>2026-05-08T00:09:39Z</time></trkpt>
<trkpt lat="40.018511" lon="-8.347474">
<ele>279</ele>
<time>2026-05-08T00:09:47Z</time></trkpt>
<trkpt lat="40.018136" lon="-8.347638">
<ele>277</ele>
<time>2026-05-08T00:09:55Z</time></trkpt>
<trkpt lat="40.017928" lon="-8.347766">
<ele>276</ele>
<time>2026-05-08T00:09:59Z</time></trkpt>
<trkpt lat="40.017728" lon="-8.34799">
<ele>272</ele>
<time>2026-05-08T00:10:05Z</time></trkpt>
<trkpt lat="40.017629" lon="-8.348173">
<ele>269</ele>
<time>2026-05-08T00:10:08Z</time></trkpt>
<trkpt lat="40.017582" lon="-8.348294">
<ele>268</ele>
<time>2026-05-08T00:10:10Z</time></trkpt>
<trkpt lat="40.017657" lon="-8.348603">
<ele>264</ele>
<time>2026-05-08T00:10:15Z</time></trkpt>
<trkpt lat="40.017701" lon="-8.348657">
<ele>264</ele>
<time>2026-05-08T00:10:16Z</time></trkpt>
<trkpt lat="40.017728" lon="-8.348726">
<ele>263</ele>
<time>2026-05-08T00:10:18Z</time></trkpt>
<trkpt lat="40.017735" lon="-8.348804">
<ele>262</ele>
<time>2026-05-08T00:10:19Z</time></trkpt>
<trkpt lat="40.017722" lon="-8.34888">
<ele>262</ele>
<time>2026-05-08T00:10:20Z</time></trkpt>
<trkpt lat="40.01769" lon="-8.348946">
<ele>261</ele>
<time>2026-05-08T00:10:21Z</time></trkpt>
<trkpt lat="40.017643" lon="-8.349242">
<ele>258</ele>
<time>2026-05-08T00:10:26Z</time></trkpt>
<trkpt lat="40.017664" lon="-8.349561">
<ele>257</ele>
<time>2026-05-08T00:10:31Z</time></trkpt>
<trkpt lat="40.017582" lon="-8.350237">
<ele>252</ele>
<time>2026-05-08T00:10:41Z</time></trkpt>
<trkpt lat="40.017589" lon="-8.350471">
<ele>251</ele>
<time>2026-05-08T00:10:45Z</time></trkpt>
<trkpt lat="40.017632" lon="-8.35067">
<ele>250</ele>
<time>2026-05-08T00:10:48Z</time></trkpt>
<trkpt lat="40.017754" lon="-8.350913">
<ele>249</ele>
<time>2026-05-08T00:10:52Z</time></trkpt>
<trkpt lat="40.018148" lon="-8.351369">
<ele>249</ele>
<time>2026-05-08T00:11:03Z</time></trkpt>
<trkpt lat="40.018251" lon="-8.351522">
<ele>249</ele>
<time>2026-05-08T00:11:06Z</time></trkpt>
<trkpt lat="40.018322" lon="-8.351659">
<ele>248</ele>
<time>2026-05-08T00:11:09Z</time></trkpt>
<trkpt lat="40.018479" lon="-8.352009">
<ele>246</ele>
<time>2026-05-08T00:11:15Z</time></trkpt>
<trkpt lat="40.01855" lon="-8.352088">
<ele>245</ele>
<time>2026-05-08T00:11:17Z</time></trkpt>
<trkpt lat="40.01869" lon="-8.352162">
<ele>245</ele>
<time>2026-05-08T00:11:20Z</time></trkpt>
<trkpt lat="40.018818" lon="-8.352148">
<ele>245</ele>
<time>2026-05-08T00:11:22Z</time></trkpt>
<trkpt lat="40.018967" lon="-8.352068">
<ele>246</ele>
<time>2026-05-08T00:11:26Z</time></trkpt>
<trkpt lat="40.019072" lon="-8.352037">
<ele>246</ele>
<time>2026-05-08T00:11:28Z</time></trkpt>
<trkpt lat="40.01934" lon="-8.351843">
<ele>246</ele>
<time>2026-05-08T00:11:34Z</time></trkpt>
<trkpt lat="40.0196" lon="-8.351628">
<ele>246</ele>
<time>2026-05-08T00:11:40Z</time></trkpt>
<trkpt lat="40.0196" lon="-8.351628">
<ele>246</ele>
<time>2026-05-08T00:11:40Z</time></trkpt>
<trkpt lat="40.019678" lon="-8.351564">
<ele>245</ele>
<time>2026-05-08T00:11:42Z</time></trkpt>
<trkpt lat="40.020052" lon="-8.351214">
<ele>243</ele>
<time>2026-05-08T00:11:51Z</time></trkpt>
<trkpt lat="40.022745" lon="-8.347508">
<ele>258</ele>
<time>2026-05-08T00:13:09Z</time></trkpt>
<trkpt lat="40.023112" lon="-8.347113">
<ele>260</ele>
<time>2026-05-08T00:13:19Z</time></trkpt>
<trkpt lat="40.023452" lon="-8.34684">
<ele>261</ele>
<time>2026-05-08T00:13:27Z</time></trkpt>
<trkpt lat="40.023697" lon="-8.34668">
<ele>264</ele>
<time>2026-05-08T00:13:32Z</time></trkpt>
<trkpt lat="40.023891" lon="-8.346554">
<ele>267</ele>
<time>2026-05-08T00:13:37Z</time></trkpt>
<trkpt lat="40.024093" lon="-8.346433">
<ele>271</ele>
<time>2026-05-08T00:13:41Z</time></trkpt>
<trkpt lat="40.025166" lon="-8.345789">
<ele>279</ele>
<time>2026-05-08T00:14:05Z</time></trkpt>
<trkpt lat="40.02563" lon="-8.345523">
<ele>279</ele>
<time>2026-05-08T00:14:15Z</time></trkpt>
<trkpt lat="40.025878" lon="-8.345493">
<ele>277</ele>
<time>2026-05-08T00:14:20Z</time></trkpt>
<trkpt lat="40.026072" lon="-8.345506">
<ele>278</ele>
<time>2026-05-08T00:14:24Z</time></trkpt>
<trkpt lat="40.026244" lon="-8.345549">
<ele>278</ele>
<time>2026-05-08T00:14:27Z</time></trkpt>
<trkpt lat="40.02641" lon="-8.34563">
<ele>278</ele>
<time>2026-05-08T00:14:31Z</time></trkpt>
<trkpt lat="40.02663" lon="-8.3458">
<ele>277</ele>
<time>2026-05-08T00:14:36Z</time></trkpt>
<trkpt lat="40.027364" lon="-8.346594">
<ele>269</ele>
<time>2026-05-08T00:14:55Z</time></trkpt>
<trkpt lat="40.0277" lon="-8.3469">
<ele>265</ele>
<time>2026-05-08T00:15:03Z</time></trkpt>
<trkpt lat="40.027997" lon="-8.347043">
<ele>263</ele>
<time>2026-05-08T00:15:10Z</time></trkpt>
<trkpt lat="40.02947" lon="-8.3476">
<ele>258</ele>
<time>2026-05-08T00:15:41Z</time></trkpt>
<trkpt lat="40.02982" lon="-8.34783">
<ele>256</ele>
<time>2026-05-08T00:15:48Z</time></trkpt>
<trkpt lat="40.030433" lon="-8.348391">
<ele>252</ele>
<time>2026-05-08T00:16:03Z</time></trkpt>
<trkpt lat="40.030671" lon="-8.348527">
<ele>252</ele>
<time>2026-05-08T00:16:09Z</time></trkpt>
<trkpt lat="40.030841" lon="-8.348576">
<ele>252</ele>
<time>2026-05-08T00:16:12Z</time></trkpt>
<trkpt lat="40.03101" lon="-8.34861">
<ele>249</ele>
<time>2026-05-08T00:16:15Z</time></trkpt>
<trkpt lat="40.03123" lon="-8.348585">
<ele>246</ele>
<time>2026-05-08T00:16:20Z</time></trkpt>
<trkpt lat="40.031441" lon="-8.348533">
<ele>244</ele>
<time>2026-05-08T00:16:24Z</time></trkpt>
<trkpt lat="40.031719" lon="-8.348388">
<ele>241</ele>
<time>2026-05-08T00:16:30Z</time></trkpt>
<trkpt lat="40.03191" lon="-8.348184">
<ele>239</ele>
<time>2026-05-08T00:16:35Z</time></trkpt>
<trkpt lat="40.032076" lon="-8.347946">
<ele>236</ele>
<time>2026-05-08T00:16:40Z</time></trkpt>
<trkpt lat="40.032209" lon="-8.347655">
<ele>235</ele>
<time>2026-05-08T00:16:45Z</time></trkpt>
<trkpt lat="40.032347" lon="-8.347268">
<ele>232</ele>
<time>2026-05-08T00:16:52Z</time></trkpt>
<trkpt lat="40.032393" lon="-8.347093">
<ele>231</ele>
<time>2026-05-08T00:16:55Z</time></trkpt>
<trkpt lat="40.032476" lon="-8.346815">
<ele>229</ele>
<time>2026-05-08T00:16:59Z</time></trkpt>
<trkpt lat="40.032608" lon="-8.346448">
<ele>227</ele>
<time>2026-05-08T00:17:05Z</time></trkpt>
<trkpt lat="40.032766" lon="-8.346206">
<ele>226</ele>
<time>2026-05-08T00:17:10Z</time></trkpt>
<trkpt lat="40.03293" lon="-8.34608">
<ele>226</ele>
<time>2026-05-08T00:17:14Z</time></trkpt>
<trkpt lat="40.033069" lon="-8.346017">
<ele>225</ele>
<time>2026-05-08T00:17:17Z</time></trkpt>
<trkpt lat="40.03325" lon="-8.346">
<ele>224</ele>
<time>2026-05-08T00:17:21Z</time></trkpt>
<trkpt lat="40.03377" lon="-8.34602">
<ele>224</ele>
<time>2026-05-08T00:17:31Z</time></trkpt>
<trkpt lat="40.033951" lon="-8.34614">
<ele>223</ele>
<time>2026-05-08T00:17:35Z</time></trkpt>
<trkpt lat="40.03479" lon="-8.346945">
<ele>219</ele>
<time>2026-05-08T00:17:56Z</time></trkpt>
<trkpt lat="40.03507" lon="-8.3472">
<ele>216</ele>
<time>2026-05-08T00:18:03Z</time></trkpt>
<trkpt lat="40.035229" lon="-8.347269">
<ele>214</ele>
<time>2026-05-08T00:18:06Z</time></trkpt>
<trkpt lat="40.036758" lon="-8.347299">
<ele>210</ele>
<time>2026-05-08T00:18:37Z</time></trkpt>
<trkpt lat="40.036941" lon="-8.347278">
<ele>209</ele>
<time>2026-05-08T00:18:41Z</time></trkpt>
<trkpt lat="40.037112" lon="-8.347214">
<ele>207</ele>
<time>2026-05-08T00:18:44Z</time></trkpt>
<trkpt lat="40.037304" lon="-8.347103">
<ele>206</ele>
<time>2026-05-08T00:18:48Z</time></trkpt>
<trkpt lat="40.037481" lon="-8.346934">
<ele>205</ele>
<time>2026-05-08T00:18:53Z</time></trkpt>
<trkpt lat="40.03772" lon="-8.346661">
<ele>203</ele>
<time>2026-05-08T00:18:59Z</time></trkpt>
<trkpt lat="40.037871" lon="-8.346547">
<ele>202</ele>
<time>2026-05-08T00:19:03Z</time></trkpt>
<trkpt lat="40.038319" lon="-8.346371">
<ele>199</ele>
<time>2026-05-08T00:19:12Z</time></trkpt>
<trkpt lat="40.03845" lon="-8.3463">
<ele>199</ele>
<time>2026-05-08T00:19:15Z</time></trkpt>
<trkpt lat="40.038616" lon="-8.346167">
<ele>198</ele>
<time>2026-05-08T00:19:19Z</time></trkpt>
<trkpt lat="40.038745" lon="-8.346063">
<ele>198</ele>
<time>2026-05-08T00:19:22Z</time></trkpt>
<trkpt lat="40.038894" lon="-8.345933">
<ele>198</ele>
<time>2026-05-08T00:19:25Z</time></trkpt>
<trkpt lat="40.039043" lon="-8.345785">
<ele>198</ele>
<time>2026-05-08T00:19:29Z</time></trkpt>
<trkpt lat="40.039443" lon="-8.345433">
<ele>196</ele>
<time>2026-05-08T00:19:39Z</time></trkpt>
<trkpt lat="40.040872" lon="-8.344099">
<ele>193</ele>
<time>2026-05-08T00:20:14Z</time></trkpt>
<trkpt lat="40.041651" lon="-8.343373">
<ele>197</ele>
<time>2026-05-08T00:20:33Z</time></trkpt>
<trkpt lat="40.042014" lon="-8.343034">
<ele>197</ele>
<time>2026-05-08T00:20:42Z</time></trkpt>
<trkpt lat="40.042174" lon="-8.342884">
<ele>197</ele>
<time>2026-05-08T00:20:46Z</time></trkpt>
<trkpt lat="40.042368" lon="-8.342693">
<ele>196</ele>
<time>2026-05-08T00:20:51Z</time></trkpt>
<trkpt lat="40.042512" lon="-8.342499">
<ele>197</ele>
<time>2026-05-08T00:20:55Z</time></trkpt>
<trkpt lat="40.042639" lon="-8.342277">
<ele>197</ele>
<time>2026-05-08T00:20:59Z</time></trkpt>
<trkpt lat="40.042736" lon="-8.341981">
<ele>197</ele>
<time>2026-05-08T00:21:04Z</time></trkpt>
<trkpt lat="40.042936" lon="-8.341164">
<ele>202</ele>
<time>2026-05-08T00:21:17Z</time></trkpt>
<trkpt lat="40.043032" lon="-8.34084">
<ele>203</ele>
<time>2026-05-08T00:21:23Z</time></trkpt>
<trkpt lat="40.043113" lon="-8.340661">
<ele>205</ele>
<time>2026-05-08T00:21:26Z</time></trkpt>
<trkpt lat="40.043239" lon="-8.340471">
<ele>206</ele>
<time>2026-05-08T00:21:30Z</time></trkpt>
<trkpt lat="40.043447" lon="-8.340278">
<ele>207</ele>
<time>2026-05-08T00:21:35Z</time></trkpt>
<trkpt lat="40.043566" lon="-8.340208">
<ele>208</ele>
<time>2026-05-08T00:21:38Z</time></trkpt>
<trkpt lat="40.044035" lon="-8.339946">
<ele>214</ele>
<time>2026-05-08T00:21:48Z</time></trkpt>
<trkpt lat="40.044151" lon="-8.339825">
<ele>215</ele>
<time>2026-05-08T00:21:51Z</time></trkpt>
<trkpt lat="40.044253" lon="-8.339677">
<ele>216</ele>
<time>2026-05-08T00:21:54Z</time></trkpt>
<trkpt lat="40.044318" lon="-8.33953">
<ele>216</ele>
<time>2026-05-08T00:21:56Z</time></trkpt>
<trkpt lat="40.0444" lon="-8.33925">
<ele>216</ele>
<time>2026-05-08T00:22:01Z</time></trkpt>
<trkpt lat="40.044412" lon="-8.339035">
<ele>217</ele>
<time>2026-05-08T00:22:04Z</time></trkpt>
<trkpt lat="40.044364" lon="-8.338409">
<ele>220</ele>
<time>2026-05-08T00:22:14Z</time></trkpt>
<trkpt lat="40.04427" lon="-8.33758">
<ele>222</ele>
<time>2026-05-08T00:22:27Z</time></trkpt>
<trkpt lat="40.044281" lon="-8.337351">
<ele>223</ele>
<time>2026-05-08T00:22:30Z</time></trkpt>
<trkpt lat="40.04431" lon="-8.33717">
<ele>224</ele>
<time>2026-05-08T00:22:33Z</time></trkpt>
<trkpt lat="40.044402" lon="-8.336921">
<ele>224</ele>
<time>2026-05-08T00:22:37Z</time></trkpt>
<trkpt lat="40.04453" lon="-8.33668">
<ele>225</ele>
<time>2026-05-08T00:22:42Z</time></trkpt>
<trkpt lat="40.045052" lon="-8.3361">
<ele>226</ele>
<time>2026-05-08T00:22:56Z</time></trkpt>
<trkpt lat="40.045206" lon="-8.335976">
<ele>227</ele>
<time>2026-05-08T00:22:59Z</time></trkpt>
<trkpt lat="40.04541" lon="-8.3359">
<ele>229</ele>
<time>2026-05-08T00:23:04Z</time></trkpt>
<trkpt lat="40.045887" lon="-8.335821">
<ele>230</ele>
<time>2026-05-08T00:23:13Z</time></trkpt>
<trkpt lat="40.04604" lon="-8.3358">
<ele>231</ele>
<time>2026-05-08T00:23:16Z</time></trkpt>
<trkpt lat="40.04642" lon="-8.33566">
<ele>233</ele>
<time>2026-05-08T00:23:24Z</time></trkpt>
<trkpt lat="40.046531" lon="-8.335599">
<ele>234</ele>
<time>2026-05-08T00:23:27Z</time></trkpt>
<trkpt lat="40.047218" lon="-8.33522">
<ele>233</ele>
<time>2026-05-08T00:23:41Z</time></trkpt>
<trkpt lat="40.047652" lon="-8.334975">
<ele>232</ele>
<time>2026-05-08T00:23:51Z</time></trkpt>
<trkpt lat="40.047787" lon="-8.334961">
<ele>232</ele>
<time>2026-05-08T00:23:54Z</time></trkpt>
<trkpt lat="40.048145" lon="-8.335073">
<ele>229</ele>
<time>2026-05-08T00:24:01Z</time></trkpt>
<trkpt lat="40.04868" lon="-8.33526">
<ele>228</ele>
<time>2026-05-08T00:24:12Z</time></trkpt>
<trkpt lat="40.04911" lon="-8.33523">
<ele>230</ele>
<time>2026-05-08T00:24:21Z</time></trkpt>
<trkpt lat="40.049754" lon="-8.335076">
<ele>227</ele>
<time>2026-05-08T00:24:34Z</time></trkpt>
<trkpt lat="40.04988" lon="-8.334983">
<ele>225</ele>
<time>2026-05-08T00:24:37Z</time></trkpt>
<trkpt lat="40.049974" lon="-8.334858">
<ele>223</ele>
<time>2026-05-08T00:24:39Z</time></trkpt>
<trkpt lat="40.050055" lon="-8.334673">
<ele>220</ele>
<time>2026-05-08T00:24:43Z</time></trkpt>
<trkpt lat="40.050365" lon="-8.333346">
<ele>207</ele>
<time>2026-05-08T00:25:04Z</time></trkpt>
<trkpt lat="40.050475" lon="-8.333141">
<ele>208</ele>
<time>2026-05-08T00:25:08Z</time></trkpt>
<trkpt lat="40.050607" lon="-8.332964">
<ele>209</ele>
<time>2026-05-08T00:25:12Z</time></trkpt>
<trkpt lat="40.05119" lon="-8.33252">
<ele>206</ele>
<time>2026-05-08T00:25:25Z</time></trkpt>
<trkpt lat="40.051427" lon="-8.332303">
<ele>204</ele>
<time>2026-05-08T00:25:31Z</time></trkpt>
<trkpt lat="40.05153" lon="-8.33215">
<ele>202</ele>
<time>2026-05-08T00:25:34Z</time></trkpt>
<trkpt lat="40.05167" lon="-8.33181">
<ele>201</ele>
<time>2026-05-08T00:25:40Z</time></trkpt>
<trkpt lat="40.05176" lon="-8.33092">
<ele>201</ele>
<time>2026-05-08T00:25:54Z</time></trkpt>
<trkpt lat="40.05183" lon="-8.3307">
<ele>201</ele>
<time>2026-05-08T00:25:57Z</time></trkpt>
<trkpt lat="40.05199" lon="-8.33044">
<ele>200</ele>
<time>2026-05-08T00:26:03Z</time></trkpt>
<trkpt lat="40.052272" lon="-8.330256">
<ele>196</ele>
<time>2026-05-08T00:26:09Z</time></trkpt>
<trkpt lat="40.05253" lon="-8.33017">
<ele>192</ele>
<time>2026-05-08T00:26:14Z</time></trkpt>
<trkpt lat="40.053053" lon="-8.330184">
<ele>190</ele>
<time>2026-05-08T00:26:25Z</time></trkpt>
<trkpt lat="40.05329" lon="-8.330108">
<ele>190</ele>
<time>2026-05-08T00:26:30Z</time></trkpt>
<trkpt lat="40.053641" lon="-8.329873">
<ele>189</ele>
<time>2026-05-08T00:26:38Z</time></trkpt>
<trkpt lat="40.05434" lon="-8.329334">
<ele>182</ele>
<time>2026-05-08T00:26:54Z</time></trkpt>
<trkpt lat="40.054554" lon="-8.329182">
<ele>183</ele>
<time>2026-05-08T00:26:59Z</time></trkpt>
<trkpt lat="40.05476" lon="-8.32909">
<ele>182</ele>
<time>2026-05-08T00:27:03Z</time></trkpt>
<trkpt lat="40.0549" lon="-8.32908">
<ele>181</ele>
<time>2026-05-08T00:27:06Z</time></trkpt>
<trkpt lat="40.054946" lon="-8.329098">
<ele>181</ele>
<time>2026-05-08T00:27:07Z</time></trkpt>
<trkpt lat="40.055214" lon="-8.329203">
<ele>180</ele>
<time>2026-05-08T00:27:12Z</time></trkpt>
<trkpt lat="40.05554" lon="-8.32933">
<ele>178</ele>
<time>2026-05-08T00:27:19Z</time></trkpt>
<trkpt lat="40.055652" lon="-8.329333">
<ele>178</ele>
<time>2026-05-08T00:27:21Z</time></trkpt>
<trkpt lat="40.05584" lon="-8.32931">
<ele>178</ele>
<time>2026-05-08T00:27:25Z</time></trkpt>
<trkpt lat="40.056557" lon="-8.328898">
<ele>174</ele>
<time>2026-05-08T00:27:41Z</time></trkpt>
<trkpt lat="40.05678" lon="-8.3288">
<ele>173</ele>
<time>2026-05-08T00:27:46Z</time></trkpt>
<trkpt lat="40.057762" lon="-8.328562">
<ele>173</ele>
<time>2026-05-08T00:28:06Z</time></trkpt>
<trkpt lat="40.058598" lon="-8.32836">
<ele>172</ele>
<time>2026-05-08T00:28:23Z</time></trkpt>
<trkpt lat="40.058774" lon="-8.32834">
<ele>171</ele>
<time>2026-05-08T00:28:26Z</time></trkpt>
<trkpt lat="40.05895" lon="-8.328394">
<ele>171</ele>
<time>2026-05-08T00:28:30Z</time></trkpt>
<trkpt lat="40.059879" lon="-8.328929">
<ele>167</ele>
<time>2026-05-08T00:28:50Z</time></trkpt>
<trkpt lat="40.061096" lon="-8.329275">
<ele>161</ele>
<time>2026-05-08T00:29:15Z</time></trkpt>
<trkpt lat="40.061304" lon="-8.329361">
<ele>160</ele>
<time>2026-05-08T00:29:20Z</time></trkpt>
<trkpt lat="40.06152" lon="-8.32953">
<ele>160</ele>
<time>2026-05-08T00:29:25Z</time></trkpt>
<trkpt lat="40.061982" lon="-8.330115">
<ele>159</ele>
<time>2026-05-08T00:29:37Z</time></trkpt>
<trkpt lat="40.062163" lon="-8.330269">
<ele>158</ele>
<time>2026-05-08T00:29:42Z</time></trkpt>
<trkpt lat="40.06238" lon="-8.330422">
<ele>158</ele>
<time>2026-05-08T00:29:47Z</time></trkpt>
<trkpt lat="40.064245" lon="-8.331194">
<ele>157</ele>
<time>2026-05-08T00:30:26Z</time></trkpt>
<trkpt lat="40.064465" lon="-8.331243">
<ele>156</ele>
<time>2026-05-08T00:30:30Z</time></trkpt>
<trkpt lat="40.064818" lon="-8.331362">
<ele>154</ele>
<time>2026-05-08T00:30:38Z</time></trkpt>
<trkpt lat="40.065005" lon="-8.331425">
<ele>154</ele>
<time>2026-05-08T00:30:42Z</time></trkpt>
<trkpt lat="40.065246" lon="-8.331454">
<ele>155</ele>
<time>2026-05-08T00:30:46Z</time></trkpt>
<trkpt lat="40.065799" lon="-8.331516">
<ele>158</ele>
<time>2026-05-08T00:30:58Z</time></trkpt>
<trkpt lat="40.066088" lon="-8.331548">
<ele>158</ele>
<time>2026-05-08T00:31:03Z</time></trkpt>
<trkpt lat="40.066372" lon="-8.331622">
<ele>158</ele>
<time>2026-05-08T00:31:09Z</time></trkpt>
<trkpt lat="40.0667" lon="-8.331611">
<ele>158</ele>
<time>2026-05-08T00:31:16Z</time></trkpt>
<trkpt lat="40.066952" lon="-8.331531">
<ele>157</ele>
<time>2026-05-08T00:31:21Z</time></trkpt>
<trkpt lat="40.067085" lon="-8.331456">
<ele>156</ele>
<time>2026-05-08T00:31:24Z</time></trkpt>
<trkpt lat="40.067625" lon="-8.330988">
<ele>145</ele>
<time>2026-05-08T00:31:37Z</time></trkpt>
<trkpt lat="40.067903" lon="-8.330806">
<ele>141</ele>
<time>2026-05-08T00:31:43Z</time></trkpt>
<trkpt lat="40.068237" lon="-8.330706">
<ele>138</ele>
<time>2026-05-08T00:31:50Z</time></trkpt>
<trkpt lat="40.068437" lon="-8.330735">
<ele>138</ele>
<time>2026-05-08T00:31:54Z</time></trkpt>
<trkpt lat="40.068569" lon="-8.330754">
<ele>139</ele>
<time>2026-05-08T00:31:57Z</time></trkpt>
<trkpt lat="40.068666" lon="-8.330794">
<ele>139</ele>
<time>2026-05-08T00:31:59Z</time></trkpt>
<trkpt lat="40.069562" lon="-8.331401">
<ele>142</ele>
<time>2026-05-08T00:32:19Z</time></trkpt>
<trkpt lat="40.069812" lon="-8.331513">
<ele>142</ele>
<time>2026-05-08T00:32:24Z</time></trkpt>
<trkpt lat="40.070033" lon="-8.331521">
<ele>142</ele>
<time>2026-05-08T00:32:29Z</time></trkpt>
<trkpt lat="40.070272" lon="-8.331478">
<ele>143</ele>
<time>2026-05-08T00:32:33Z</time></trkpt>
<trkpt lat="40.070538" lon="-8.331341">
<ele>142</ele>
<time>2026-05-08T00:32:39Z</time></trkpt>
<trkpt lat="40.070733" lon="-8.331149">
<ele>139</ele>
<time>2026-05-08T00:32:44Z</time></trkpt>
<trkpt lat="40.071119" lon="-8.330518">
<ele>131</ele>
<time>2026-05-08T00:32:56Z</time></trkpt>
<trkpt lat="40.071856" lon="-8.329466">
<ele>119</ele>
<time>2026-05-08T00:33:18Z</time></trkpt>
<trkpt lat="40.072147" lon="-8.32917">
<ele>118</ele>
<time>2026-05-08T00:33:26Z</time></trkpt>
<trkpt lat="40.072476" lon="-8.328961">
<ele>116</ele>
<time>2026-05-08T00:33:33Z</time></trkpt>
<trkpt lat="40.072753" lon="-8.328906">
<ele>115</ele>
<time>2026-05-08T00:33:39Z</time></trkpt>
<trkpt lat="40.073371" lon="-8.328865">
<ele>115</ele>
<time>2026-05-08T00:33:51Z</time></trkpt>
<trkpt lat="40.074016" lon="-8.328854">
<ele>113</ele>
<time>2026-05-08T00:34:04Z</time></trkpt>
<trkpt lat="40.0782247" lon="-8.3286797">
<ele>114</ele>
<time>2026-05-08T00:35:28Z</time></trkpt>
<trkpt lat="40.079385" lon="-8.328625">
<ele>115</ele>
<time>2026-05-08T00:35:52Z</time></trkpt>
<trkpt lat="40.0795227" lon="-8.3285969">
<ele>116</ele>
<time>2026-05-08T00:35:54Z</time></trkpt>
<trkpt lat="40.079747" lon="-8.328551">
<ele>116</ele>
<time>2026-05-08T00:35:59Z</time></trkpt>
<trkpt lat="40.0797858" lon="-8.3285366">
<ele>116</ele>
<time>2026-05-08T00:36:00Z</time></trkpt>
<trkpt lat="40.079786" lon="-8.328537">
<ele>116</ele>
<time>2026-05-08T00:36:00Z</time></trkpt>
<trkpt lat="40.08127" lon="-8.327985">
<ele>118</ele>
<time>2026-05-08T00:36:31Z</time></trkpt>
<trkpt lat="40.081392" lon="-8.327969">
<ele>118</ele>
<time>2026-05-08T00:36:33Z</time></trkpt>
<trkpt lat="40.081684" lon="-8.327926">
<ele>117</ele>
<time>2026-05-08T00:36:39Z</time></trkpt>
<trkpt lat="40.081723" lon="-8.327887">
<ele>117</ele>
<time>2026-05-08T00:36:40Z</time></trkpt>
<trkpt lat="40.081815" lon="-8.327856">
<ele>118</ele>
<time>2026-05-08T00:36:42Z</time></trkpt>
<trkpt lat="40.081887" lon="-8.327874">
<ele>118</ele>
<time>2026-05-08T00:36:43Z</time></trkpt>
<trkpt lat="40.081936" lon="-8.327914">
<ele>117</ele>
<time>2026-05-08T00:36:45Z</time></trkpt>
<trkpt lat="40.081995" lon="-8.32804">
<ele>117</ele>
<time>2026-05-08T00:36:47Z</time></trkpt>
<trkpt lat="40.082001" lon="-8.3281">
<ele>116</ele>
<time>2026-05-08T00:36:48Z</time></trkpt>
<trkpt lat="40.082082" lon="-8.328216">
<ele>115</ele>
<time>2026-05-08T00:36:50Z</time></trkpt>
<trkpt lat="40.082229" lon="-8.328326">
<ele>114</ele>
<time>2026-05-08T00:36:54Z</time></trkpt>
<trkpt lat="40.08289" lon="-8.328621">
<ele>115</ele>
<time>2026-05-08T00:37:08Z</time></trkpt>
<trkpt lat="40.083085" lon="-8.328651">
<ele>116</ele>
<time>2026-05-08T00:37:11Z</time></trkpt>
<trkpt lat="40.083233" lon="-8.328629">
<ele>117</ele>
<time>2026-05-08T00:37:14Z</time></trkpt>
<trkpt lat="40.083338" lon="-8.328567">
<ele>118</ele>
<time>2026-05-08T00:37:17Z</time></trkpt>
<trkpt lat="40.083416" lon="-8.328481">
<ele>118</ele>
<time>2026-05-08T00:37:19Z</time></trkpt>
<trkpt lat="40.083467" lon="-8.328361">
<ele>119</ele>
<time>2026-05-08T00:37:21Z</time></trkpt>
<trkpt lat="40.083538" lon="-8.328053">
<ele>121</ele>
<time>2026-05-08T00:37:26Z</time></trkpt>
<trkpt lat="40.083576" lon="-8.32766">
<ele>123</ele>
<time>2026-05-08T00:37:32Z</time></trkpt>
<trkpt lat="40.08362" lon="-8.327089">
<ele>125</ele>
<time>2026-05-08T00:37:41Z</time></trkpt>
<trkpt lat="40.083712" lon="-8.3264">
<ele>126</ele>
<time>2026-05-08T00:37:51Z</time></trkpt>
<trkpt lat="40.083803" lon="-8.325808">
<ele>127</ele>
<time>2026-05-08T00:38:01Z</time></trkpt>
<trkpt lat="40.083899" lon="-8.32546">
<ele>127</ele>
<time>2026-05-08T00:38:06Z</time></trkpt>
<trkpt lat="40.084041" lon="-8.325133">
<ele>127</ele>
<time>2026-05-08T00:38:12Z</time></trkpt>
<trkpt lat="40.084212" lon="-8.324849">
<ele>126</ele>
<time>2026-05-08T00:38:18Z</time></trkpt>
<trkpt lat="40.084609" lon="-8.324387">
<ele>126</ele>
<time>2026-05-08T00:38:28Z</time></trkpt>
<trkpt lat="40.084829" lon="-8.324217">
<ele>126</ele>
<time>2026-05-08T00:38:33Z</time></trkpt>
<trkpt lat="40.085308" lon="-8.323923">
<ele>125</ele>
<time>2026-05-08T00:38:44Z</time></trkpt>
<trkpt lat="40.085489" lon="-8.323832">
<ele>124</ele>
<time>2026-05-08T00:38:48Z</time></trkpt>
<trkpt lat="40.085862" lon="-8.323677">
<ele>123</ele>
<time>2026-05-08T00:38:56Z</time></trkpt>
<trkpt lat="40.086223" lon="-8.323495">
<ele>123</ele>
<time>2026-05-08T00:39:04Z</time></trkpt>
<trkpt lat="40.086555" lon="-8.323308">
<ele>122</ele>
<time>2026-05-08T00:39:11Z</time></trkpt>
<trkpt lat="40.086785" lon="-8.323119">
<ele>122</ele>
<time>2026-05-08T00:39:16Z</time></trkpt>
<trkpt lat="40.086907" lon="-8.323019">
<ele>121</ele>
<time>2026-05-08T00:39:19Z</time></trkpt>
<trkpt lat="40.087115" lon="-8.322753">
<ele>120</ele>
<time>2026-05-08T00:39:25Z</time></trkpt>
<trkpt lat="40.087494" lon="-8.322193">
<ele>119</ele>
<time>2026-05-08T00:39:36Z</time></trkpt>
<trkpt lat="40.087666" lon="-8.321676">
<ele>119</ele>
<time>2026-05-08T00:39:45Z</time></trkpt>
<trkpt lat="40.088359" lon="-8.319018">
<ele>122</ele>
<time>2026-05-08T00:40:28Z</time></trkpt>
<trkpt lat="40.088524" lon="-8.318518">
<ele>123</ele>
<time>2026-05-08T00:40:36Z</time></trkpt>
<trkpt lat="40.088733" lon="-8.318084">
<ele>123</ele>
<time>2026-05-08T00:40:44Z</time></trkpt>
<trkpt lat="40.089004" lon="-8.3177">
<ele>123</ele>
<time>2026-05-08T00:40:52Z</time></trkpt>
<trkpt lat="40.089325" lon="-8.317379">
<ele>124</ele>
<time>2026-05-08T00:41:00Z</time></trkpt>
<trkpt lat="40.089638" lon="-8.317132">
<ele>124</ele>
<time>2026-05-08T00:41:08Z</time></trkpt>
<trkpt lat="40.089754" lon="-8.317045">
<ele>124</ele>
<time>2026-05-08T00:41:10Z</time></trkpt>
<trkpt lat="40.090618" lon="-8.31641">
<ele>126</ele>
<time>2026-05-08T00:41:30Z</time></trkpt>
<trkpt lat="40.091111" lon="-8.31598">
<ele>129</ele>
<time>2026-05-08T00:41:42Z</time></trkpt>
<trkpt lat="40.091596" lon="-8.31567">
<ele>131</ele>
<time>2026-05-08T00:41:53Z</time></trkpt>
<trkpt lat="40.091867" lon="-8.315557">
<ele>131</ele>
<time>2026-05-08T00:41:59Z</time></trkpt>
<trkpt lat="40.092073" lon="-8.315513">
<ele>130</ele>
<time>2026-05-08T00:42:03Z</time></trkpt>
<trkpt lat="40.092263" lon="-8.315498">
<ele>130</ele>
<time>2026-05-08T00:42:07Z</time></trkpt>
<trkpt lat="40.092417" lon="-8.315506">
<ele>129</ele>
<time>2026-05-08T00:42:10Z</time></trkpt>
<trkpt lat="40.0926" lon="-8.315542">
<ele>130</ele>
<time>2026-05-08T00:42:13Z</time></trkpt>
<trkpt lat="40.092865" lon="-8.31564">
<ele>131</ele>
<time>2026-05-08T00:42:19Z</time></trkpt>
<trkpt lat="40.093138" lon="-8.315724">
<ele>131</ele>
<time>2026-05-08T00:42:25Z</time></trkpt>
<trkpt lat="40.093638" lon="-8.315876">
<ele>134</ele>
<time>2026-05-08T00:42:35Z</time></trkpt>
<trkpt lat="40.094" lon="-8.315965">
<ele>137</ele>
<time>2026-05-08T00:42:42Z</time></trkpt>
<trkpt lat="40.09426" lon="-8.315993">
<ele>138</ele>
<time>2026-05-08T00:42:47Z</time></trkpt>
<trkpt lat="40.094392" lon="-8.315983">
<ele>138</ele>
<time>2026-05-08T00:42:50Z</time></trkpt>
<trkpt lat="40.094392" lon="-8.315983">
<ele>138</ele>
<time>2026-05-08T00:42:50Z</time></trkpt>
<trkpt lat="40.094532" lon="-8.315971">
<ele>138</ele>
<time>2026-05-08T00:42:53Z</time></trkpt>
<trkpt lat="40.094741" lon="-8.315919">
<ele>138</ele>
<time>2026-05-08T00:42:57Z</time></trkpt>
<trkpt lat="40.095011" lon="-8.315797">
<ele>139</ele>
<time>2026-05-08T00:43:03Z</time></trkpt>
<trkpt lat="40.095259" lon="-8.315621">
<ele>136</ele>
<time>2026-05-08T00:43:09Z</time></trkpt>
<trkpt lat="40.095418" lon="-8.315474">
<ele>135</ele>
<time>2026-05-08T00:43:12Z</time></trkpt>
<trkpt lat="40.095535" lon="-8.315338">
<ele>134</ele>
<time>2026-05-08T00:43:16Z</time></trkpt>
<trkpt lat="40.095707" lon="-8.315097">
<ele>133</ele>
<time>2026-05-08T00:43:21Z</time></trkpt>
<trkpt lat="40.095904" lon="-8.314739">
<ele>135</ele>
<time>2026-05-08T00:43:27Z</time></trkpt>
<trkpt lat="40.09697" lon="-8.312339">
<ele>130</ele>
<time>2026-05-08T00:44:10Z</time></trkpt>
<trkpt lat="40.097187" lon="-8.311929">
<ele>129</ele>
<time>2026-05-08T00:44:18Z</time></trkpt>
<trkpt lat="40.09737" lon="-8.311673">
<ele>129</ele>
<time>2026-05-08T00:44:23Z</time></trkpt>
<trkpt lat="40.09757" lon="-8.311446">
<ele>130</ele>
<time>2026-05-08T00:44:28Z</time></trkpt>
<trkpt lat="40.097769" lon="-8.311269">
<ele>132</ele>
<time>2026-05-08T00:44:33Z</time></trkpt>
<trkpt lat="40.098128" lon="-8.311018">
<ele>134</ele>
<time>2026-05-08T00:44:41Z</time></trkpt>
<trkpt lat="40.098994" lon="-8.310471">
<ele>134</ele>
<time>2026-05-08T00:45:01Z</time></trkpt>
<trkpt lat="40.099286" lon="-8.310254">
<ele>134</ele>
<time>2026-05-08T00:45:07Z</time></trkpt>
<trkpt lat="40.099511" lon="-8.310048">
<ele>133</ele>
<time>2026-05-08T00:45:13Z</time></trkpt>
<trkpt lat="40.100654" lon="-8.308732">
<ele>133</ele>
<time>2026-05-08T00:45:43Z</time></trkpt>
<trkpt lat="40.101037" lon="-8.308237">
<ele>133</ele>
<time>2026-05-08T00:45:54Z</time></trkpt>
<trkpt lat="40.101305" lon="-8.307843">
<ele>134</ele>
<time>2026-05-08T00:46:02Z</time></trkpt>
<trkpt lat="40.102941" lon="-8.305206">
<ele>136</ele>
<time>2026-05-08T00:46:54Z</time></trkpt>
<trkpt lat="40.103254" lon="-8.30469">
<ele>140</ele>
<time>2026-05-08T00:47:04Z</time></trkpt>
<trkpt lat="40.103498" lon="-8.304247">
<ele>143</ele>
<time>2026-05-08T00:47:13Z</time></trkpt>
<trkpt lat="40.103894" lon="-8.303405">
<ele>143</ele>
<time>2026-05-08T00:47:28Z</time></trkpt>
<trkpt lat="40.1047" lon="-8.301364">
<ele>141</ele>
<time>2026-05-08T00:48:03Z</time></trkpt>
<trkpt lat="40.104996" lon="-8.300474">
<ele>146</ele>
<time>2026-05-08T00:48:18Z</time></trkpt>
<trkpt lat="40.105818" lon="-8.298404">
<ele>157</ele>
<time>2026-05-08T00:48:54Z</time></trkpt>
<trkpt lat="40.106092" lon="-8.29779">
<ele>162</ele>
<time>2026-05-08T00:49:05Z</time></trkpt>
<trkpt lat="40.106438" lon="-8.296933">
<ele>164</ele>
<time>2026-05-08T00:49:19Z</time></trkpt>
<trkpt lat="40.10662" lon="-8.296577">
<ele>162</ele>
<time>2026-05-08T00:49:26Z</time></trkpt>
<trkpt lat="40.10696" lon="-8.296075">
<ele>160</ele>
<time>2026-05-08T00:49:36Z</time></trkpt>
<trkpt lat="40.107302" lon="-8.295706">
<ele>159</ele>
<time>2026-05-08T00:49:45Z</time></trkpt>
<trkpt lat="40.107382" lon="-8.295634">
<ele>160</ele>
<time>2026-05-08T00:49:47Z</time></trkpt>
<trkpt lat="40.109021" lon="-8.29429">
<ele>166</ele>
<time>2026-05-08T00:50:26Z</time></trkpt>
<trkpt lat="40.109245" lon="-8.294067">
<ele>165</ele>
<time>2026-05-08T00:50:31Z</time></trkpt>
<trkpt lat="40.109461" lon="-8.29379">
<ele>166</ele>
<time>2026-05-08T00:50:38Z</time></trkpt>
<trkpt lat="40.109651" lon="-8.293473">
<ele>165</ele>
<time>2026-05-08T00:50:44Z</time></trkpt>
<trkpt lat="40.110032" lon="-8.29262">
<ele>165</ele>
<time>2026-05-08T00:50:59Z</time></trkpt>
<trkpt lat="40.110217" lon="-8.292287">
<ele>166</ele>
<time>2026-05-08T00:51:05Z</time></trkpt>
<trkpt lat="40.110355" lon="-8.292113">
<ele>167</ele>
<time>2026-05-08T00:51:09Z</time></trkpt>
<trkpt lat="40.110517" lon="-8.291959">
<ele>166</ele>
<time>2026-05-08T00:51:13Z</time></trkpt>
<trkpt lat="40.110696" lon="-8.29184">
<ele>165</ele>
<time>2026-05-08T00:51:17Z</time></trkpt>
<trkpt lat="40.110946" lon="-8.291733">
<ele>164</ele>
<time>2026-05-08T00:51:22Z</time></trkpt>
<trkpt lat="40.111168" lon="-8.291694">
<ele>165</ele>
<time>2026-05-08T00:51:27Z</time></trkpt>
<trkpt lat="40.111359" lon="-8.291671">
<ele>165</ele>
<time>2026-05-08T00:51:31Z</time></trkpt>
<trkpt lat="40.1114077" lon="-8.2916754">
<ele>165</ele>
<time>2026-05-08T00:51:32Z</time></trkpt>
<trkpt lat="40.111538" lon="-8.291687">
<ele>166</ele>
<time>2026-05-08T00:51:34Z</time></trkpt>
<trkpt lat="40.112243" lon="-8.291846">
<ele>172</ele>
<time>2026-05-08T00:51:49Z</time></trkpt>
<trkpt lat="40.11263" lon="-8.291907">
<ele>174</ele>
<time>2026-05-08T00:51:56Z</time></trkpt>
<trkpt lat="40.112886" lon="-8.291899">
<ele>173</ele>
<time>2026-05-08T00:52:01Z</time></trkpt>
<trkpt lat="40.113114" lon="-8.291858">
<ele>173</ele>
<time>2026-05-08T00:52:06Z</time></trkpt>
<trkpt lat="40.113416" lon="-8.291742">
<ele>171</ele>
<time>2026-05-08T00:52:12Z</time></trkpt>
<trkpt lat="40.113594" lon="-8.291645">
<ele>170</ele>
<time>2026-05-08T00:52:16Z</time></trkpt>
<trkpt lat="40.113735" lon="-8.291544">
<ele>169</ele>
<time>2026-05-08T00:52:20Z</time></trkpt>
<trkpt lat="40.11396" lon="-8.29134">
<ele>167</ele>
<time>2026-05-08T00:52:25Z</time></trkpt>
<trkpt lat="40.11413" lon="-8.291152">
<ele>166</ele>
<time>2026-05-08T00:52:29Z</time></trkpt>
<trkpt lat="40.114419" lon="-8.290782">
<ele>164</ele>
<time>2026-05-08T00:52:38Z</time></trkpt>
<trkpt lat="40.116151" lon="-8.288059">
<ele>149</ele>
<time>2026-05-08T00:53:32Z</time></trkpt>
<trkpt lat="40.116536" lon="-8.28754">
<ele>150</ele>
<time>2026-05-08T00:53:43Z</time></trkpt>
<trkpt lat="40.116815" lon="-8.287251">
<ele>150</ele>
<time>2026-05-08T00:53:50Z</time></trkpt>
<trkpt lat="40.117144" lon="-8.287011">
<ele>149</ele>
<time>2026-05-08T00:53:58Z</time></trkpt>
<trkpt lat="40.118126" lon="-8.286435">
<ele>146</ele>
<time>2026-05-08T00:54:19Z</time></trkpt>
<trkpt lat="40.119412" lon="-8.285668">
<ele>143</ele>
<time>2026-05-08T00:54:47Z</time></trkpt>
<trkpt lat="40.119838" lon="-8.285284">
<ele>143</ele>
<time>2026-05-08T00:54:58Z</time></trkpt>
<trkpt lat="40.120206" lon="-8.284728">
<ele>144</ele>
<time>2026-05-08T00:55:09Z</time></trkpt>
<trkpt lat="40.120455" lon="-8.284118">
<ele>145</ele>
<time>2026-05-08T00:55:20Z</time></trkpt>
<trkpt lat="40.120707" lon="-8.283224">
<ele>140</ele>
<time>2026-05-08T00:55:34Z</time></trkpt>
<trkpt lat="40.120929" lon="-8.28274">
<ele>138</ele>
<time>2026-05-08T00:55:43Z</time></trkpt>
<trkpt lat="40.12124" lon="-8.282331">
<ele>136</ele>
<time>2026-05-08T00:55:52Z</time></trkpt>
<trkpt lat="40.12164" lon="-8.282071">
<ele>133</ele>
<time>2026-05-08T00:56:01Z</time></trkpt>
<trkpt lat="40.122489" lon="-8.281772">
<ele>130</ele>
<time>2026-05-08T00:56:18Z</time></trkpt>
<trkpt lat="40.122844" lon="-8.281561">
<ele>132</ele>
<time>2026-05-08T00:56:26Z</time></trkpt>
<trkpt lat="40.123039" lon="-8.281393">
<ele>133</ele>
<time>2026-05-08T00:56:31Z</time></trkpt>
<trkpt lat="40.123273" lon="-8.281121">
<ele>133</ele>
<time>2026-05-08T00:56:37Z</time></trkpt>
<trkpt lat="40.12353" lon="-8.280715">
<ele>133</ele>
<time>2026-05-08T00:56:45Z</time></trkpt>
<trkpt lat="40.124593" lon="-8.278423">
<ele>127</ele>
<time>2026-05-08T00:57:26Z</time></trkpt>
<trkpt lat="40.124837" lon="-8.277799">
<ele>125</ele>
<time>2026-05-08T00:57:37Z</time></trkpt>
<trkpt lat="40.125189" lon="-8.2767">
<ele>120</ele>
<time>2026-05-08T00:57:55Z</time></trkpt>
<trkpt lat="40.125223" lon="-8.276596">
<ele>120</ele>
<time>2026-05-08T00:57:57Z</time></trkpt>
<trkpt lat="40.125431" lon="-8.275947">
<ele>121</ele>
<time>2026-05-08T00:58:08Z</time></trkpt>
<trkpt lat="40.125616" lon="-8.275299">
<ele>122</ele>
<time>2026-05-08T00:58:18Z</time></trkpt>
<trkpt lat="40.1256501" lon="-8.2751969">
<ele>122</ele>
<time>2026-05-08T00:58:20Z</time></trkpt>
<trkpt lat="40.125924" lon="-8.274378">
<ele>125</ele>
<time>2026-05-08T00:58:34Z</time></trkpt>
<trkpt lat="40.125989" lon="-8.274205">
<ele>127</ele>
<time>2026-05-08T00:58:37Z</time></trkpt>
<trkpt lat="40.126092" lon="-8.273993">
<ele>129</ele>
<time>2026-05-08T00:58:41Z</time></trkpt>
<trkpt lat="40.126395" lon="-8.273499">
<ele>131</ele>
<time>2026-05-08T00:58:50Z</time></trkpt>
<trkpt lat="40.126696" lon="-8.273141">
<ele>130</ele>
<time>2026-05-08T00:58:58Z</time></trkpt>
<trkpt lat="40.12745" lon="-8.272162">
<ele>118</ele>
<time>2026-05-08T00:59:20Z</time></trkpt>
<trkpt lat="40.12772" lon="-8.27174">
<ele>113</ele>
<time>2026-05-08T00:59:28Z</time></trkpt>
<trkpt lat="40.12793" lon="-8.271298">
<ele>110</ele>
<time>2026-05-08T00:59:36Z</time></trkpt>
<trkpt lat="40.12801" lon="-8.271104">
<ele>108</ele>
<time>2026-05-08T00:59:40Z</time></trkpt>
<trkpt lat="40.128068" lon="-8.270897">
<ele>107</ele>
<time>2026-05-08T00:59:43Z</time></trkpt>
<trkpt lat="40.128108" lon="-8.27067">
<ele>105</ele>
<time>2026-05-08T00:59:46Z</time></trkpt>
<trkpt lat="40.128159" lon="-8.269854">
<ele>103</ele>
<time>2026-05-08T00:59:59Z</time></trkpt>
<trkpt lat="40.128167" lon="-8.269666">
<ele>102</ele>
<time>2026-05-08T01:00:02Z</time></trkpt>
<trkpt lat="40.128234" lon="-8.267947">
<ele>102</ele>
<time>2026-05-08T01:00:28Z</time></trkpt>
<trkpt lat="40.128234" lon="-8.26732">
<ele>102</ele>
<time>2026-05-08T01:00:38Z</time></trkpt>
<trkpt lat="40.128273" lon="-8.265973">
<ele>103</ele>
<time>2026-05-08T01:00:59Z</time></trkpt>
<trkpt lat="40.12828" lon="-8.265758">
<ele>104</ele>
<time>2026-05-08T01:01:02Z</time></trkpt>
<trkpt lat="40.128293" lon="-8.265308">
<ele>106</ele>
<time>2026-05-08T01:01:09Z</time></trkpt>
<trkpt lat="40.128384" lon="-8.263508">
<ele>109</ele>
<time>2026-05-08T01:01:36Z</time></trkpt>
<trkpt lat="40.128492" lon="-8.260216">
<ele>116</ele>
<time>2026-05-08T01:02:27Z</time></trkpt>
<trkpt lat="40.128492" lon="-8.260216">
<ele>116</ele>
<time>2026-05-08T01:02:27Z</time></trkpt>
<trkpt lat="40.128536" lon="-8.258907">
<ele>116</ele>
<time>2026-05-08T01:02:47Z</time></trkpt>
<trkpt lat="40.128649" lon="-8.257711">
<ele>116</ele>
<time>2026-05-08T01:03:05Z</time></trkpt>
<trkpt lat="40.128939" lon="-8.255114">
<ele>121</ele>
<time>2026-05-08T01:03:46Z</time></trkpt>
<trkpt lat="40.12899" lon="-8.254376">
<ele>125</ele>
<time>2026-05-08T01:03:57Z</time></trkpt>
<trkpt lat="40.128995" lon="-8.253547">
<ele>129</ele>
<time>2026-05-08T01:04:10Z</time></trkpt>
<trkpt lat="40.128971" lon="-8.252913">
<ele>130</ele>
<time>2026-05-08T01:04:19Z</time></trkpt>
<trkpt lat="40.128909" lon="-8.25216">
<ele>131</ele>
<time>2026-05-08T01:04:31Z</time></trkpt>
<trkpt lat="40.128821" lon="-8.25164">
<ele>131</ele>
<time>2026-05-08T01:04:39Z</time></trkpt>
<trkpt lat="40.1287" lon="-8.250746">
<ele>134</ele>
<time>2026-05-08T01:04:53Z</time></trkpt>
<trkpt lat="40.128608" lon="-8.250373">
<ele>135</ele>
<time>2026-05-08T01:04:59Z</time></trkpt>
<trkpt lat="40.128427" lon="-8.249385">
<ele>137</ele>
<time>2026-05-08T01:05:15Z</time></trkpt>
<trkpt lat="40.12836" lon="-8.249163">
<ele>137</ele>
<time>2026-05-08T01:05:18Z</time></trkpt>
<trkpt lat="40.128286" lon="-8.248989">
<ele>137</ele>
<time>2026-05-08T01:05:21Z</time></trkpt>
<trkpt lat="40.12812" lon="-8.248743">
<ele>138</ele>
<time>2026-05-08T01:05:26Z</time></trkpt>
<trkpt lat="40.127964" lon="-8.248672">
<ele>138</ele>
<time>2026-05-08T01:05:30Z</time></trkpt>
<trkpt lat="40.127875" lon="-8.248682">
<ele>138</ele>
<time>2026-05-08T01:05:31Z</time></trkpt>
<trkpt lat="40.127761" lon="-8.248622">
<ele>138</ele>
<time>2026-05-08T01:05:34Z</time></trkpt>
<trkpt lat="40.127687" lon="-8.248494">
<ele>139</ele>
<time>2026-05-08T01:05:36Z</time></trkpt>
<trkpt lat="40.127674" lon="-8.248432">
<ele>139</ele>
<time>2026-05-08T01:05:37Z</time></trkpt>
<trkpt lat="40.127687" lon="-8.248277">
<ele>139</ele>
<time>2026-05-08T01:05:40Z</time></trkpt>
<trkpt lat="40.127758" lon="-8.248151">
<ele>139</ele>
<time>2026-05-08T01:05:42Z</time></trkpt>
<trkpt lat="40.127809" lon="-8.248111">
<ele>139</ele>
<time>2026-05-08T01:05:43Z</time></trkpt>
<trkpt lat="40.127926" lon="-8.248089">
<ele>139</ele>
<time>2026-05-08T01:05:46Z</time></trkpt>
<trkpt lat="40.128035" lon="-8.248146">
<ele>139</ele>
<time>2026-05-08T01:05:48Z</time></trkpt>
<trkpt lat="40.128078" lon="-8.2482">
<ele>139</ele>
<time>2026-05-08T01:05:49Z</time></trkpt>
<trkpt lat="40.128218" lon="-8.248302">
<ele>138</ele>
<time>2026-05-08T01:05:52Z</time></trkpt>
<trkpt lat="40.128317" lon="-8.248312">
<ele>138</ele>
<time>2026-05-08T01:05:54Z</time></trkpt>
<trkpt lat="40.128533" lon="-8.248304">
<ele>138</ele>
<time>2026-05-08T01:05:59Z</time></trkpt>
<trkpt lat="40.128739" lon="-8.248271">
<ele>139</ele>
<time>2026-05-08T01:06:03Z</time></trkpt>
<trkpt lat="40.128803" lon="-8.248241">
<ele>139</ele>
<time>2026-05-08T01:06:04Z</time></trkpt>
<trkpt lat="40.12888" lon="-8.248124">
<ele>139</ele>
<time>2026-05-08T01:06:07Z</time></trkpt>
<trkpt lat="40.128934" lon="-8.24809">
<ele>139</ele>
<time>2026-05-08T01:06:08Z</time></trkpt>
<trkpt lat="40.129007" lon="-8.248073">
<ele>139</ele>
<time>2026-05-08T01:06:09Z</time></trkpt>
<trkpt lat="40.12908" lon="-8.248089">
<ele>139</ele>
<time>2026-05-08T01:06:11Z</time></trkpt>
<trkpt lat="40.129145" lon="-8.248135">
<ele>139</ele>
<time>2026-05-08T01:06:12Z</time></trkpt>
<trkpt lat="40.129196" lon="-8.248205">
<ele>139</ele>
<time>2026-05-08T01:06:14Z</time></trkpt>
<trkpt lat="40.129227" lon="-8.248294">
<ele>139</ele>
<time>2026-05-08T01:06:15Z</time></trkpt>
<trkpt lat="40.129235" lon="-8.24839">
<ele>139</ele>
<time>2026-05-08T01:06:17Z</time></trkpt>
<trkpt lat="40.129253" lon="-8.248542">
<ele>138</ele>
<time>2026-05-08T01:06:19Z</time></trkpt>
<trkpt lat="40.129294" lon="-8.248665">
<ele>138</ele>
<time>2026-05-08T01:06:21Z</time></trkpt>
<trkpt lat="40.13019" lon="-8.249622">
<ele>136</ele>
<time>2026-05-08T01:06:44Z</time></trkpt>
<trkpt lat="40.130404" lon="-8.249758">
<ele>136</ele>
<time>2026-05-08T01:06:49Z</time></trkpt>
<trkpt lat="40.130723" lon="-8.249868">
<ele>136</ele>
<time>2026-05-08T01:06:56Z</time></trkpt>
<trkpt lat="40.131175" lon="-8.249917">
<ele>136</ele>
<time>2026-05-08T01:07:05Z</time></trkpt>
<trkpt lat="40.131916" lon="-8.249999">
<ele>135</ele>
<time>2026-05-08T01:07:20Z</time></trkpt>
<trkpt lat="40.132098" lon="-8.25005">
<ele>134</ele>
<time>2026-05-08T01:07:23Z</time></trkpt>
<trkpt lat="40.132896" lon="-8.250126">
<ele>131</ele>
<time>2026-05-08T01:07:39Z</time></trkpt>
<trkpt lat="40.133784" lon="-8.250215">
<ele>130</ele>
<time>2026-05-08T01:07:57Z</time></trkpt>
<trkpt lat="40.135535" lon="-8.250372">
<ele>128</ele>
<time>2026-05-08T01:08:32Z</time></trkpt>
<trkpt lat="40.135733" lon="-8.250309">
<ele>128</ele>
<time>2026-05-08T01:08:37Z</time></trkpt>
<trkpt lat="40.135906" lon="-8.25021">
<ele>129</ele>
<time>2026-05-08T01:08:40Z</time></trkpt>
<trkpt lat="40.135937" lon="-8.25017">
<ele>129</ele>
<time>2026-05-08T01:08:41Z</time></trkpt>
<trkpt lat="40.136003" lon="-8.250119">
<ele>130</ele>
<time>2026-05-08T01:08:43Z</time></trkpt>
<trkpt lat="40.136078" lon="-8.250096">
<ele>131</ele>
<time>2026-05-08T01:08:44Z</time></trkpt>
<trkpt lat="40.136175" lon="-8.250111">
<ele>133</ele>
<time>2026-05-08T01:08:46Z</time></trkpt>
<trkpt lat="40.136241" lon="-8.250155">
<ele>134</ele>
<time>2026-05-08T01:08:48Z</time></trkpt>
<trkpt lat="40.136295" lon="-8.250221">
<ele>135</ele>
<time>2026-05-08T01:08:49Z</time></trkpt>
<trkpt lat="40.136331" lon="-8.250306">
<ele>135</ele>
<time>2026-05-08T01:08:51Z</time></trkpt>
<trkpt lat="40.136348" lon="-8.25043">
<ele>135</ele>
<time>2026-05-08T01:08:53Z</time></trkpt>
<trkpt lat="40.136443" lon="-8.250697">
<ele>137</ele>
<time>2026-05-08T01:08:57Z</time></trkpt>
<trkpt lat="40.136639" lon="-8.251077">
<ele>136</ele>
<time>2026-05-08T01:09:04Z</time></trkpt>
<trkpt lat="40.136894" lon="-8.25133">
<ele>134</ele>
<time>2026-05-08T01:09:11Z</time></trkpt>
<trkpt lat="40.13717" lon="-8.25155">
<ele>134</ele>
<time>2026-05-08T01:09:17Z</time></trkpt>
<trkpt lat="40.13755" lon="-8.25178">
<ele>134</ele>
<time>2026-05-08T01:09:25Z</time></trkpt>
<trkpt lat="40.13864" lon="-8.25227">
<ele>120</ele>
<time>2026-05-08T01:09:49Z</time></trkpt>
<trkpt lat="40.13909" lon="-8.25258">
<ele>116</ele>
<time>2026-05-08T01:09:59Z</time></trkpt>
<trkpt lat="40.139476" lon="-8.252887">
<ele>115</ele>
<time>2026-05-08T01:10:08Z</time></trkpt>
<trkpt lat="40.140343" lon="-8.253774">
<ele>112</ele>
<time>2026-05-08T01:10:30Z</time></trkpt>
<trkpt lat="40.140679" lon="-8.25407">
<ele>111</ele>
<time>2026-05-08T01:10:38Z</time></trkpt>
<trkpt lat="40.140939" lon="-8.254246">
<ele>111</ele>
<time>2026-05-08T01:10:44Z</time></trkpt>
<trkpt lat="40.141261" lon="-8.254434">
<ele>111</ele>
<time>2026-05-08T01:10:51Z</time></trkpt>
<trkpt lat="40.144898" lon="-8.255926">
<ele>130</ele>
<time>2026-05-08T01:12:07Z</time></trkpt>
<trkpt lat="40.14541" lon="-8.256155">
<ele>131</ele>
<time>2026-05-08T01:12:18Z</time></trkpt>
<trkpt lat="40.14593" lon="-8.25645">
<ele>133</ele>
<time>2026-05-08T01:12:29Z</time></trkpt>
<trkpt lat="40.14628" lon="-8.25672">
<ele>129</ele>
<time>2026-05-08T01:12:38Z</time></trkpt>
<trkpt lat="40.146636" lon="-8.257027">
<ele>120</ele>
<time>2026-05-08T01:12:46Z</time></trkpt>
<trkpt lat="40.146985" lon="-8.257415">
<ele>114</ele>
<time>2026-05-08T01:12:55Z</time></trkpt>
<trkpt lat="40.14743" lon="-8.25811">
<ele>118</ele>
<time>2026-05-08T01:13:09Z</time></trkpt>
<trkpt lat="40.147753" lon="-8.25868">
<ele>121</ele>
<time>2026-05-08T01:13:20Z</time></trkpt>
<trkpt lat="40.147948" lon="-8.258981">
<ele>122</ele>
<time>2026-05-08T01:13:26Z</time></trkpt>
<trkpt lat="40.14819" lon="-8.259301">
<ele>122</ele>
<time>2026-05-08T01:13:33Z</time></trkpt>
<trkpt lat="40.14852" lon="-8.25965">
<ele>122</ele>
<time>2026-05-08T01:13:42Z</time></trkpt>
<trkpt lat="40.149055" lon="-8.260135">
<ele>119</ele>
<time>2026-05-08T01:13:55Z</time></trkpt>
<trkpt lat="40.149356" lon="-8.260496">
<ele>111</ele>
<time>2026-05-08T01:14:03Z</time></trkpt>
<trkpt lat="40.149575" lon="-8.260853">
<ele>105</ele>
<time>2026-05-08T01:14:10Z</time></trkpt>
<trkpt lat="40.149763" lon="-8.261243">
<ele>104</ele>
<time>2026-05-08T01:14:17Z</time></trkpt>
<trkpt lat="40.150135" lon="-8.262227">
<ele>104</ele>
<time>2026-05-08T01:14:34Z</time></trkpt>
<trkpt lat="40.150337" lon="-8.262685">
<ele>102</ele>
<time>2026-05-08T01:14:42Z</time></trkpt>
<trkpt lat="40.150485" lon="-8.262956">
<ele>101</ele>
<time>2026-05-08T01:14:47Z</time></trkpt>
<trkpt lat="40.150621" lon="-8.263181">
<ele>100</ele>
<time>2026-05-08T01:14:51Z</time></trkpt>
<trkpt lat="40.1508" lon="-8.263433">
<ele>99</ele>
<time>2026-05-08T01:14:57Z</time></trkpt>
<trkpt lat="40.151072" lon="-8.263677">
<ele>101</ele>
<time>2026-05-08T01:15:03Z</time></trkpt>
<trkpt lat="40.151308" lon="-8.26386">
<ele>105</ele>
<time>2026-05-08T01:15:09Z</time></trkpt>
<trkpt lat="40.151554" lon="-8.263989">
<ele>108</ele>
<time>2026-05-08T01:15:14Z</time></trkpt>
<trkpt lat="40.151798" lon="-8.264072">
<ele>111</ele>
<time>2026-05-08T01:15:19Z</time></trkpt>
<trkpt lat="40.152033" lon="-8.264125">
<ele>114</ele>
<time>2026-05-08T01:15:24Z</time></trkpt>
<trkpt lat="40.152341" lon="-8.264144">
<ele>116</ele>
<time>2026-05-08T01:15:30Z</time></trkpt>
<trkpt lat="40.152662" lon="-8.264097">
<ele>116</ele>
<time>2026-05-08T01:15:36Z</time></trkpt>
<trkpt lat="40.152991" lon="-8.264014">
<ele>115</ele>
<time>2026-05-08T01:15:43Z</time></trkpt>
<trkpt lat="40.154008" lon="-8.26363">
<ele>106</ele>
<time>2026-05-08T01:16:04Z</time></trkpt>
<trkpt lat="40.156069" lon="-8.262801">
<ele>86</ele>
<time>2026-05-08T01:16:48Z</time></trkpt>
<trkpt lat="40.157304" lon="-8.262353">
<ele>112</ele>
<time>2026-05-08T01:17:13Z</time></trkpt>
<trkpt lat="40.157554" lon="-8.262271">
<ele>117</ele>
<time>2026-05-08T01:17:18Z</time></trkpt>
<trkpt lat="40.15775" lon="-8.26223">
<ele>120</ele>
<time>2026-05-08T01:17:22Z</time></trkpt>
<trkpt lat="40.158012" lon="-8.262206">
<ele>123</ele>
<time>2026-05-08T01:17:28Z</time></trkpt>
<trkpt lat="40.158231" lon="-8.262206">
<ele>125</ele>
<time>2026-05-08T01:17:32Z</time></trkpt>
<trkpt lat="40.158479" lon="-8.262255">
<ele>124</ele>
<time>2026-05-08T01:17:37Z</time></trkpt>
<trkpt lat="40.160777" lon="-8.262917">
<ele>113</ele>
<time>2026-05-08T01:18:24Z</time></trkpt>
<trkpt lat="40.16118" lon="-8.263089">
<ele>115</ele>
<time>2026-05-08T01:18:33Z</time></trkpt>
<trkpt lat="40.162651" lon="-8.263828">
<ele>132</ele>
<time>2026-05-08T01:19:04Z</time></trkpt>
<trkpt lat="40.164054" lon="-8.26433">
<ele>139</ele>
<time>2026-05-08T01:19:33Z</time></trkpt>
<trkpt lat="40.164771" lon="-8.264598">
<ele>139</ele>
<time>2026-05-08T01:19:48Z</time></trkpt>
<trkpt lat="40.165267" lon="-8.264786">
<ele>137</ele>
<time>2026-05-08T01:19:59Z</time></trkpt>
<trkpt lat="40.165913" lon="-8.265011">
<ele>132</ele>
<time>2026-05-08T01:20:12Z</time></trkpt>
<trkpt lat="40.166608" lon="-8.265277">
<ele>130</ele>
<time>2026-05-08T01:20:27Z</time></trkpt>
<trkpt lat="40.167033" lon="-8.265439">
<ele>126</ele>
<time>2026-05-08T01:20:35Z</time></trkpt>
<trkpt lat="40.16748" lon="-8.265641">
<ele>122</ele>
<time>2026-05-08T01:20:45Z</time></trkpt>
<trkpt lat="40.16921" lon="-8.26628">
<ele>115</ele>
<time>2026-05-08T01:21:21Z</time></trkpt>
<trkpt lat="40.171971" lon="-8.267106">
<ele>101</ele>
<time>2026-05-08T01:22:18Z</time></trkpt>
<trkpt lat="40.172236" lon="-8.267149">
<ele>102</ele>
<time>2026-05-08T01:22:23Z</time></trkpt>
<trkpt lat="40.173152" lon="-8.267409">
<ele>99</ele>
<time>2026-05-08T01:22:42Z</time></trkpt>
<trkpt lat="40.173858" lon="-8.267604">
<ele>99</ele>
<time>2026-05-08T01:22:56Z</time></trkpt>
<trkpt lat="40.174914" lon="-8.267898">
<ele>97</ele>
<time>2026-05-08T01:23:18Z</time></trkpt>
<trkpt lat="40.175434" lon="-8.2681">
<ele>94</ele>
<time>2026-05-08T01:23:29Z</time></trkpt>
<trkpt lat="40.175544" lon="-8.268098">
<ele>94</ele>
<time>2026-05-08T01:23:31Z</time></trkpt>
<trkpt lat="40.175614" lon="-8.268054">
<ele>95</ele>
<time>2026-05-08T01:23:33Z</time></trkpt>
<trkpt lat="40.17569" lon="-8.268034">
<ele>96</ele>
<time>2026-05-08T01:23:34Z</time></trkpt>
<trkpt lat="40.175767" lon="-8.268038">
<ele>96</ele>
<time>2026-05-08T01:23:36Z</time></trkpt>
<trkpt lat="40.17736" lon="-8.267083">
<ele>107</ele>
<time>2026-05-08T01:24:11Z</time></trkpt>
<trkpt lat="40.177811" lon="-8.266665">
<ele>107</ele>
<time>2026-05-08T01:24:22Z</time></trkpt>
<trkpt lat="40.1783884" lon="-8.2657255">
<ele>98</ele>
<time>2026-05-08T01:24:40Z</time></trkpt>
<trkpt lat="40.1784897" lon="-8.2655421">
<ele>97</ele>
<time>2026-05-08T01:24:44Z</time></trkpt>
<trkpt lat="40.178492" lon="-8.265538">
<ele>97</ele>
<time>2026-05-08T01:24:44Z</time></trkpt>
<trkpt lat="40.178579" lon="-8.2654206">
<ele>96</ele>
<time>2026-05-08T01:24:46Z</time></trkpt>
<trkpt lat="40.178724" lon="-8.265225">
<ele>95</ele>
<time>2026-05-08T01:24:51Z</time></trkpt>
<trkpt lat="40.17906" lon="-8.264898">
<ele>93</ele>
<time>2026-05-08T01:24:59Z</time></trkpt>
<trkpt lat="40.179866" lon="-8.264321">
<ele>95</ele>
<time>2026-05-08T01:25:17Z</time></trkpt>
<trkpt lat="40.18004" lon="-8.264196">
<ele>95</ele>
<time>2026-05-08T01:25:21Z</time></trkpt>
<trkpt lat="40.180215" lon="-8.264049">
<ele>97</ele>
<time>2026-05-08T01:25:25Z</time></trkpt>
<trkpt lat="40.180416" lon="-8.263836">
<ele>98</ele>
<time>2026-05-08T01:25:31Z</time></trkpt>
<trkpt lat="40.180581" lon="-8.263628">
<ele>99</ele>
<time>2026-05-08T01:25:35Z</time></trkpt>
<trkpt lat="40.180754" lon="-8.263348">
<ele>100</ele>
<time>2026-05-08T01:25:41Z</time></trkpt>
<trkpt lat="40.181158" lon="-8.262599">
<ele>103</ele>
<time>2026-05-08T01:25:55Z</time></trkpt>
<trkpt lat="40.181411" lon="-8.262133">
<ele>103</ele>
<time>2026-05-08T01:26:04Z</time></trkpt>
<trkpt lat="40.181681" lon="-8.261812">
<ele>103</ele>
<time>2026-05-08T01:26:11Z</time></trkpt>
<trkpt lat="40.181935" lon="-8.261608">
<ele>103</ele>
<time>2026-05-08T01:26:17Z</time></trkpt>
<trkpt lat="40.182269" lon="-8.261416">
<ele>103</ele>
<time>2026-05-08T01:26:24Z</time></trkpt>
<trkpt lat="40.182861" lon="-8.261154">
<ele>105</ele>
<time>2026-05-08T01:26:37Z</time></trkpt>
<trkpt lat="40.183084" lon="-8.261006">
<ele>104</ele>
<time>2026-05-08T01:26:42Z</time></trkpt>
<trkpt lat="40.183216" lon="-8.260917">
<ele>104</ele>
<time>2026-05-08T01:26:45Z</time></trkpt>
<trkpt lat="40.183738" lon="-8.260336">
<ele>103</ele>
<time>2026-05-08T01:26:58Z</time></trkpt>
<trkpt lat="40.184329" lon="-8.259655">
<ele>103</ele>
<time>2026-05-08T01:27:14Z</time></trkpt>
<trkpt lat="40.185082" lon="-8.258787">
<ele>105</ele>
<time>2026-05-08T01:27:34Z</time></trkpt>
<trkpt lat="40.185194" lon="-8.258656">
<ele>105</ele>
<time>2026-05-08T01:27:37Z</time></trkpt>
<trkpt lat="40.186208" lon="-8.257458">
<ele>110</ele>
<time>2026-05-08T01:28:05Z</time></trkpt>
<trkpt lat="40.187127" lon="-8.256407">
<ele>112</ele>
<time>2026-05-08T01:28:29Z</time></trkpt>
<trkpt lat="40.187214" lon="-8.256295">
<ele>113</ele>
<time>2026-05-08T01:28:32Z</time></trkpt>
<trkpt lat="40.187376" lon="-8.25612">
<ele>113</ele>
<time>2026-05-08T01:28:36Z</time></trkpt>
<trkpt lat="40.187678" lon="-8.255699">
<ele>114</ele>
<time>2026-05-08T01:28:45Z</time></trkpt>
<trkpt lat="40.187857" lon="-8.255237">
<ele>112</ele>
<time>2026-05-08T01:28:52Z</time></trkpt>
<trkpt lat="40.187914" lon="-8.254998">
<ele>110</ele>
<time>2026-05-08T01:28:56Z</time></trkpt>
<trkpt lat="40.188" lon="-8.254638">
<ele>111</ele>
<time>2026-05-08T01:29:02Z</time></trkpt>
<trkpt lat="40.188345" lon="-8.252965">
<ele>117</ele>
<time>2026-05-08T01:29:29Z</time></trkpt>
<trkpt lat="40.188509" lon="-8.252241">
<ele>119</ele>
<time>2026-05-08T01:29:40Z</time></trkpt>
<trkpt lat="40.188745" lon="-8.251677">
<ele>123</ele>
<time>2026-05-08T01:29:50Z</time></trkpt>
<trkpt lat="40.189781" lon="-8.249765">
<ele>133</ele>
<time>2026-05-08T01:30:26Z</time></trkpt>
<trkpt lat="40.190767" lon="-8.24864">
<ele>137</ele>
<time>2026-05-08T01:30:52Z</time></trkpt>
<trkpt lat="40.191456" lon="-8.248118">
<ele>140</ele>
<time>2026-05-08T01:31:08Z</time></trkpt>
<trkpt lat="40.193478" lon="-8.246645">
<ele>154</ele>
<time>2026-05-08T01:31:54Z</time></trkpt>
<trkpt lat="40.194908" lon="-8.245596">
<ele>157</ele>
<time>2026-05-08T01:32:27Z</time></trkpt>
<trkpt lat="40.195157" lon="-8.245413">
<ele>158</ele>
<time>2026-05-08T01:32:33Z</time></trkpt>
<trkpt lat="40.195853" lon="-8.244902">
<ele>158</ele>
<time>2026-05-08T01:32:49Z</time></trkpt>
<trkpt lat="40.196471" lon="-8.244408">
<ele>158</ele>
<time>2026-05-08T01:33:03Z</time></trkpt>
<trkpt lat="40.196911" lon="-8.243996">
<ele>157</ele>
<time>2026-05-08T01:33:14Z</time></trkpt>
<trkpt lat="40.196972" lon="-8.243778">
<ele>157</ele>
<time>2026-05-08T01:33:18Z</time></trkpt>
<trkpt lat="40.196972" lon="-8.243695">
<ele>157</ele>
<time>2026-05-08T01:33:19Z</time></trkpt>
<trkpt lat="40.197" lon="-8.243615">
<ele>157</ele>
<time>2026-05-08T01:33:21Z</time></trkpt>
<trkpt lat="40.197056" lon="-8.243558">
<ele>158</ele>
<time>2026-05-08T01:33:22Z</time></trkpt>
<trkpt lat="40.197103" lon="-8.243541">
<ele>158</ele>
<time>2026-05-08T01:33:23Z</time></trkpt>
<trkpt lat="40.197183" lon="-8.243558">
<ele>158</ele>
<time>2026-05-08T01:33:25Z</time></trkpt>
<trkpt lat="40.197218" lon="-8.243589">
<ele>158</ele>
<time>2026-05-08T01:33:25Z</time></trkpt>
<trkpt lat="40.197313" lon="-8.243616">
<ele>158</ele>
<time>2026-05-08T01:33:27Z</time></trkpt>
<trkpt lat="40.19753" lon="-8.243635">
<ele>159</ele>
<time>2026-05-08T01:33:32Z</time></trkpt>
<trkpt lat="40.198507" lon="-8.24292">
<ele>156</ele>
<time>2026-05-08T01:33:54Z</time></trkpt>
<trkpt lat="40.198507" lon="-8.24292">
<ele>156</ele>
<time>2026-05-08T01:33:54Z</time></trkpt>
<trkpt lat="40.200167" lon="-8.241714">
<ele>152</ele>
<time>2026-05-08T01:34:32Z</time></trkpt>
<trkpt lat="40.201738" lon="-8.240541">
<ele>145</ele>
<time>2026-05-08T01:35:08Z</time></trkpt>
<trkpt lat="40.201972" lon="-8.240299">
<ele>143</ele>
<time>2026-05-08T01:35:14Z</time></trkpt>
<trkpt lat="40.20209" lon="-8.240115">
<ele>143</ele>
<time>2026-05-08T01:35:18Z</time></trkpt>
<trkpt lat="40.202104" lon="-8.240076">
<ele>142</ele>
<time>2026-05-08T01:35:19Z</time></trkpt>
<trkpt lat="40.202142" lon="-8.24002">
<ele>142</ele>
<time>2026-05-08T01:35:20Z</time></trkpt>
<trkpt lat="40.202192" lon="-8.239984">
<ele>142</ele>
<time>2026-05-08T01:35:21Z</time></trkpt>
<trkpt lat="40.202248" lon="-8.239972">
<ele>142</ele>
<time>2026-05-08T01:35:22Z</time></trkpt>
<trkpt lat="40.202293" lon="-8.239981">
<ele>141</ele>
<time>2026-05-08T01:35:23Z</time></trkpt>
<trkpt lat="40.202344" lon="-8.240013">
<ele>141</ele>
<time>2026-05-08T01:35:24Z</time></trkpt>
<trkpt lat="40.202383" lon="-8.240065">
<ele>141</ele>
<time>2026-05-08T01:35:25Z</time></trkpt>
<trkpt lat="40.202407" lon="-8.240132">
<ele>141</ele>
<time>2026-05-08T01:35:26Z</time></trkpt>
<trkpt lat="40.202413" lon="-8.240204">
<ele>141</ele>
<time>2026-05-08T01:35:28Z</time></trkpt>
<trkpt lat="40.202409" lon="-8.240238">
<ele>141</ele>
<time>2026-05-08T01:35:28Z</time></trkpt>
<trkpt lat="40.202416" lon="-8.240441">
<ele>141</ele>
<time>2026-05-08T01:35:31Z</time></trkpt>
<trkpt lat="40.202449" lon="-8.240633">
<ele>141</ele>
<time>2026-05-08T01:35:34Z</time></trkpt>
<trkpt lat="40.202789" lon="-8.241373">
<ele>140</ele>
<time>2026-05-08T01:35:47Z</time></trkpt>
<trkpt lat="40.202892" lon="-8.241488">
<ele>139</ele>
<time>2026-05-08T01:35:50Z</time></trkpt>
<trkpt lat="40.202948" lon="-8.241515">
<ele>139</ele>
<time>2026-05-08T01:35:51Z</time></trkpt>
<trkpt lat="40.202972" lon="-8.241557">
<ele>139</ele>
<time>2026-05-08T01:35:52Z</time></trkpt>
<trkpt lat="40.202979" lon="-8.241609">
<ele>139</ele>
<time>2026-05-08T01:35:53Z</time></trkpt>
<trkpt lat="40.202976" lon="-8.241636">
<ele>139</ele>
<time>2026-05-08T01:35:53Z</time></trkpt>
<trkpt lat="40.202968" lon="-8.24166">
<ele>139</ele>
<time>2026-05-08T01:35:54Z</time></trkpt>
<trkpt lat="40.203001" lon="-8.241855">
<ele>140</ele>
<time>2026-05-08T01:35:57Z</time></trkpt>
<trkpt lat="40.203468" lon="-8.242855">
<ele>144</ele>
<time>2026-05-08T01:36:15Z</time></trkpt>
<trkpt lat="40.204484" lon="-8.245157">
<ele>140</ele>
<time>2026-05-08T01:36:55Z</time></trkpt>
<trkpt lat="40.204693" lon="-8.245608">
<ele>139</ele>
<time>2026-05-08T01:37:03Z</time></trkpt>
<trkpt lat="40.204753" lon="-8.245645">
<ele>139</ele>
<time>2026-05-08T01:37:05Z</time></trkpt>
<trkpt lat="40.204813" lon="-8.245753">
<ele>139</ele>
<time>2026-05-08T01:37:07Z</time></trkpt>
<trkpt lat="40.204868" lon="-8.245778">
<ele>138</ele>
<time>2026-05-08T01:37:08Z</time></trkpt>
<trkpt lat="40.2049" lon="-8.245841">
<ele>138</ele>
<time>2026-05-08T01:37:09Z</time></trkpt>
<trkpt lat="40.204898" lon="-8.245907">
<ele>138</ele>
<time>2026-05-08T01:37:10Z</time></trkpt>
<trkpt lat="40.204972" lon="-8.246204">
<ele>136</ele>
<time>2026-05-08T01:37:15Z</time></trkpt>
<trkpt lat="40.206067" lon="-8.248668">
<ele>134</ele>
<time>2026-05-08T01:37:59Z</time></trkpt>
<trkpt lat="40.206811" lon="-8.250287">
<ele>132</ele>
<time>2026-05-08T01:38:28Z</time></trkpt>
<trkpt lat="40.206934" lon="-8.250441">
<ele>130</ele>
<time>2026-05-08T01:38:31Z</time></trkpt>
<trkpt lat="40.206976" lon="-8.250477">
<ele>130</ele>
<time>2026-05-08T01:38:32Z</time></trkpt>
<trkpt lat="40.206992" lon="-8.250534">
<ele>129</ele>
<time>2026-05-08T01:38:33Z</time></trkpt>
<trkpt lat="40.206988" lon="-8.250567">
<ele>129</ele>
<time>2026-05-08T01:38:33Z</time></trkpt>
<trkpt lat="40.20702" lon="-8.25076">
<ele>129</ele>
<time>2026-05-08T01:38:36Z</time></trkpt>
<trkpt lat="40.209245" lon="-8.255689">
<ele>130</ele>
<time>2026-05-08T01:40:04Z</time></trkpt>
<trkpt lat="40.209415" lon="-8.255998">
<ele>130</ele>
<time>2026-05-08T01:40:10Z</time></trkpt>
<trkpt lat="40.209569" lon="-8.256139">
<ele>130</ele>
<time>2026-05-08T01:40:14Z</time></trkpt>
<trkpt lat="40.209823" lon="-8.25626">
<ele>129</ele>
<time>2026-05-08T01:40:19Z</time></trkpt>
<trkpt lat="40.212188" lon="-8.257145">
<ele>128</ele>
<time>2026-05-08T01:41:08Z</time></trkpt>
<trkpt lat="40.212732" lon="-8.257407">
<ele>127</ele>
<time>2026-05-08T01:41:20Z</time></trkpt>
<trkpt lat="40.2127363" lon="-8.2574106">
<ele>127</ele>
<time>2026-05-08T01:41:20Z</time></trkpt>
<trkpt lat="40.212859" lon="-8.257513">
<ele>127</ele>
<time>2026-05-08T01:41:23Z</time></trkpt>
<trkpt lat="40.213031" lon="-8.257785">
<ele>126</ele>
<time>2026-05-08T01:41:28Z</time></trkpt>
<trkpt lat="40.213282" lon="-8.258476">
<ele>128</ele>
<time>2026-05-08T01:41:40Z</time></trkpt>
<trkpt lat="40.2134" lon="-8.258569">
<ele>127</ele>
<time>2026-05-08T01:41:43Z</time></trkpt>
<trkpt lat="40.213423" lon="-8.258595">
<ele>127</ele>
<time>2026-05-08T01:41:43Z</time></trkpt>
<trkpt lat="40.213438" lon="-8.258694">
<ele>127</ele>
<time>2026-05-08T01:41:45Z</time></trkpt>
<trkpt lat="40.213431" lon="-8.25872">
<ele>127</ele>
<time>2026-05-08T01:41:45Z</time></trkpt>
<trkpt lat="40.213413" lon="-8.258865">
<ele>128</ele>
<time>2026-05-08T01:41:48Z</time></trkpt>
<trkpt lat="40.213862" lon="-8.260666">
<ele>122</ele>
<time>2026-05-08T01:42:17Z</time></trkpt>
<trkpt lat="40.213915" lon="-8.260832">
<ele>122</ele>
<time>2026-05-08T01:42:19Z</time></trkpt>
<trkpt lat="40.214086" lon="-8.261138">
<ele>123</ele>
<time>2026-05-08T01:42:25Z</time></trkpt>
<trkpt lat="40.214256" lon="-8.261333">
<ele>124</ele>
<time>2026-05-08T01:42:30Z</time></trkpt>
<trkpt lat="40.214622" lon="-8.261506">
<ele>125</ele>
<time>2026-05-08T01:42:38Z</time></trkpt>
<trkpt lat="40.216241" lon="-8.261943">
<ele>125</ele>
<time>2026-05-08T01:43:11Z</time></trkpt>
<trkpt lat="40.216338" lon="-8.261982">
<ele>124</ele>
<time>2026-05-08T01:43:13Z</time></trkpt>
<trkpt lat="40.216537" lon="-8.262159">
<ele>123</ele>
<time>2026-05-08T01:43:17Z</time></trkpt>
<trkpt lat="40.21675" lon="-8.26247">
<ele>122</ele>
<time>2026-05-08T01:43:24Z</time></trkpt>
<trkpt lat="40.217033" lon="-8.262995">
<ele>121</ele>
<time>2026-05-08T01:43:34Z</time></trkpt>
<trkpt lat="40.217133" lon="-8.263188">
<ele>121</ele>
<time>2026-05-08T01:43:37Z</time></trkpt>
<trkpt lat="40.21717" lon="-8.263205">
<ele>120</ele>
<time>2026-05-08T01:43:38Z</time></trkpt>
<trkpt lat="40.217199" lon="-8.263281">
<ele>120</ele>
<time>2026-05-08T01:43:39Z</time></trkpt>
<trkpt lat="40.217182" lon="-8.263338">
<ele>120</ele>
<time>2026-05-08T01:43:40Z</time></trkpt>
<trkpt lat="40.217205" lon="-8.263526">
<ele>121</ele>
<time>2026-05-08T01:43:43Z</time></trkpt>
<trkpt lat="40.217446" lon="-8.264263">
<ele>125</ele>
<time>2026-05-08T01:43:55Z</time></trkpt>
<trkpt lat="40.217555" lon="-8.264421">
<ele>126</ele>
<time>2026-05-08T01:43:59Z</time></trkpt>
<trkpt lat="40.217627" lon="-8.264487">
<ele>127</ele>
<time>2026-05-08T01:44:00Z</time></trkpt>
<trkpt lat="40.218184" lon="-8.264777">
<ele>126</ele>
<time>2026-05-08T01:44:13Z</time></trkpt>
<trkpt lat="40.218364" lon="-8.26482">
<ele>125</ele>
<time>2026-05-08T01:44:16Z</time></trkpt>
<trkpt lat="40.218536" lon="-8.264809">
<ele>124</ele>
<time>2026-05-08T01:44:20Z</time></trkpt>
<trkpt lat="40.219118" lon="-8.2646">
<ele>120</ele>
<time>2026-05-08T01:44:32Z</time></trkpt>
<trkpt lat="40.219213" lon="-8.264583">
<ele>119</ele>
<time>2026-05-08T01:44:34Z</time></trkpt>
<trkpt lat="40.21937" lon="-8.264613">
<ele>119</ele>
<time>2026-05-08T01:44:37Z</time></trkpt>
<trkpt lat="40.219494" lon="-8.264707">
<ele>119</ele>
<time>2026-05-08T01:44:40Z</time></trkpt>
<trkpt lat="40.219738" lon="-8.264937">
<ele>119</ele>
<time>2026-05-08T01:44:46Z</time></trkpt>
<trkpt lat="40.220105" lon="-8.265413">
<ele>123</ele>
<time>2026-05-08T01:44:56Z</time></trkpt>
<trkpt lat="40.220237" lon="-8.265549">
<ele>123</ele>
<time>2026-05-08T01:44:59Z</time></trkpt>
<trkpt lat="40.220822" lon="-8.265963">
<ele>118</ele>
<time>2026-05-08T01:45:13Z</time></trkpt>
<trkpt lat="40.221023" lon="-8.266147">
<ele>119</ele>
<time>2026-05-08T01:45:18Z</time></trkpt>
<trkpt lat="40.221123" lon="-8.266241">
<ele>119</ele>
<time>2026-05-08T01:45:20Z</time></trkpt>
<trkpt lat="40.221911" lon="-8.266955">
<ele>118</ele>
<time>2026-05-08T01:45:39Z</time></trkpt>
<trkpt lat="40.222422" lon="-8.26758">
<ele>120</ele>
<time>2026-05-08T01:45:53Z</time></trkpt>
<trkpt lat="40.222625" lon="-8.267853">
<ele>122</ele>
<time>2026-05-08T01:45:59Z</time></trkpt>
<trkpt lat="40.222698" lon="-8.26804">
<ele>123</ele>
<time>2026-05-08T01:46:02Z</time></trkpt>
<trkpt lat="40.222714" lon="-8.26813">
<ele>123</ele>
<time>2026-05-08T01:46:04Z</time></trkpt>
<trkpt lat="40.22278" lon="-8.268843">
<ele>125</ele>
<time>2026-05-08T01:46:15Z</time></trkpt>
<trkpt lat="40.222845" lon="-8.269229">
<ele>126</ele>
<time>2026-05-08T01:46:21Z</time></trkpt>
<trkpt lat="40.223087" lon="-8.270146">
<ele>129</ele>
<time>2026-05-08T01:46:36Z</time></trkpt>
<trkpt lat="40.223175" lon="-8.270335">
<ele>129</ele>
<time>2026-05-08T01:46:39Z</time></trkpt>
<trkpt lat="40.223379" lon="-8.270642">
<ele>130</ele>
<time>2026-05-08T01:46:45Z</time></trkpt>
<trkpt lat="40.223998" lon="-8.271269">
<ele>136</ele>
<time>2026-05-08T01:47:01Z</time></trkpt>
<trkpt lat="40.224156" lon="-8.271439">
<ele>137</ele>
<time>2026-05-08T01:47:05Z</time></trkpt>
<trkpt lat="40.224271" lon="-8.271643">
<ele>136</ele>
<time>2026-05-08T01:47:09Z</time></trkpt>
<trkpt lat="40.224672" lon="-8.272866">
<ele>139</ele>
<time>2026-05-08T01:47:29Z</time></trkpt>
<trkpt lat="40.22469" lon="-8.272987">
<ele>139</ele>
<time>2026-05-08T01:47:31Z</time></trkpt>
<trkpt lat="40.224689" lon="-8.273102">
<ele>140</ele>
<time>2026-05-08T01:47:33Z</time></trkpt>
<trkpt lat="40.224659" lon="-8.273217">
<ele>140</ele>
<time>2026-05-08T01:47:35Z</time></trkpt>
<trkpt lat="40.224611" lon="-8.273308">
<ele>140</ele>
<time>2026-05-08T01:47:37Z</time></trkpt>
<trkpt lat="40.224507" lon="-8.273437">
<ele>141</ele>
<time>2026-05-08T01:47:39Z</time></trkpt>
<trkpt lat="40.224429" lon="-8.273521">
<ele>141</ele>
<time>2026-05-08T01:47:41Z</time></trkpt>
<trkpt lat="40.22432" lon="-8.273639">
<ele>141</ele>
<time>2026-05-08T01:47:44Z</time></trkpt>
<trkpt lat="40.224224" lon="-8.273775">
<ele>142</ele>
<time>2026-05-08T01:47:47Z</time></trkpt>
<trkpt lat="40.224192" lon="-8.273877">
<ele>142</ele>
<time>2026-05-08T01:47:49Z</time></trkpt>
<trkpt lat="40.224192" lon="-8.273956">
<ele>142</ele>
<time>2026-05-08T01:47:50Z</time></trkpt>
<trkpt lat="40.224336" lon="-8.274894">
<ele>145</ele>
<time>2026-05-08T01:48:05Z</time></trkpt>
<trkpt lat="40.224402" lon="-8.275151">
<ele>147</ele>
<time>2026-05-08T01:48:09Z</time></trkpt>
<trkpt lat="40.224474" lon="-8.27534">
<ele>148</ele>
<time>2026-05-08T01:48:12Z</time></trkpt>
<trkpt lat="40.224656" lon="-8.275814">
<ele>152</ele>
<time>2026-05-08T01:48:20Z</time></trkpt>
<trkpt lat="40.225107" lon="-8.276937">
<ele>154</ele>
<time>2026-05-08T01:48:40Z</time></trkpt>
<trkpt lat="40.225493" lon="-8.277656">
<ele>158</ele>
<time>2026-05-08T01:48:53Z</time></trkpt>
<trkpt lat="40.225794" lon="-8.278404">
<ele>162</ele>
<time>2026-05-08T01:49:06Z</time></trkpt>
<trkpt lat="40.225826" lon="-8.278484">
<ele>162</ele>
<time>2026-05-08T01:49:07Z</time></trkpt>
<trkpt lat="40.225884" lon="-8.278628">
<ele>162</ele>
<time>2026-05-08T01:49:10Z</time></trkpt>
<trkpt lat="40.226007" lon="-8.278821">
<ele>163</ele>
<time>2026-05-08T01:49:14Z</time></trkpt>
<trkpt lat="40.226291" lon="-8.279059">
<ele>165</ele>
<time>2026-05-08T01:49:20Z</time></trkpt>
<trkpt lat="40.226291" lon="-8.279059">
<ele>165</ele>
<time>2026-05-08T01:49:20Z</time></trkpt>
<trkpt lat="40.226736" lon="-8.279432">
<ele>168</ele>
<time>2026-05-08T01:49:31Z</time></trkpt>
<trkpt lat="40.2269" lon="-8.27955">
<ele>168</ele>
<time>2026-05-08T01:49:35Z</time></trkpt>
<trkpt lat="40.227348" lon="-8.279771">
<ele>171</ele>
<time>2026-05-08T01:49:44Z</time></trkpt>
<trkpt lat="40.227837" lon="-8.280012">
<ele>173</ele>
<time>2026-05-08T01:49:55Z</time></trkpt>
<trkpt lat="40.228486" lon="-8.280332">
<ele>175</ele>
<time>2026-05-08T01:50:09Z</time></trkpt>
<trkpt lat="40.228751" lon="-8.280462">
<ele>175</ele>
<time>2026-05-08T01:50:14Z</time></trkpt>
<trkpt lat="40.228923" lon="-8.280484">
<ele>174</ele>
<time>2026-05-08T01:50:18Z</time></trkpt>
<trkpt lat="40.229069" lon="-8.280404">
<ele>174</ele>
<time>2026-05-08T01:50:21Z</time></trkpt>
<trkpt lat="40.229702" lon="-8.279926">
<ele>174</ele>
<time>2026-05-08T01:50:36Z</time></trkpt>
<trkpt lat="40.229833" lon="-8.279797">
<ele>174</ele>
<time>2026-05-08T01:50:39Z</time></trkpt>
<trkpt lat="40.230335" lon="-8.279027">
<ele>175</ele>
<time>2026-05-08T01:50:54Z</time></trkpt>
<trkpt lat="40.230562" lon="-8.278799">
<ele>175</ele>
<time>2026-05-08T01:51:00Z</time></trkpt>
<trkpt lat="40.230704" lon="-8.278719">
<ele>175</ele>
<time>2026-05-08T01:51:03Z</time></trkpt>
<trkpt lat="40.231003" lon="-8.278661">
<ele>174</ele>
<time>2026-05-08T01:51:09Z</time></trkpt>
<trkpt lat="40.23126" lon="-8.278599">
<ele>173</ele>
<time>2026-05-08T01:51:14Z</time></trkpt>
<trkpt lat="40.231346" lon="-8.278551">
<ele>173</ele>
<time>2026-05-08T01:51:16Z</time></trkpt>
<trkpt lat="40.231624" lon="-8.278338">
<ele>173</ele>
<time>2026-05-08T01:51:23Z</time></trkpt>
<trkpt lat="40.231738" lon="-8.278254">
<ele>173</ele>
<time>2026-05-08T01:51:25Z</time></trkpt>
<trkpt lat="40.231806" lon="-8.278203">
<ele>174</ele>
<time>2026-05-08T01:51:27Z</time></trkpt>
<trkpt lat="40.231871" lon="-8.278197">
<ele>174</ele>
<time>2026-05-08T01:51:28Z</time></trkpt>
<trkpt lat="40.231924" lon="-8.278204">
<ele>174</ele>
<time>2026-05-08T01:51:29Z</time></trkpt>
<trkpt lat="40.23198" lon="-8.278238">
<ele>175</ele>
<time>2026-05-08T01:51:31Z</time></trkpt>
<trkpt lat="40.232057" lon="-8.278317">
<ele>175</ele>
<time>2026-05-08T01:51:33Z</time></trkpt>
<trkpt lat="40.232274" lon="-8.278756">
<ele>175</ele>
<time>2026-05-08T01:51:41Z</time></trkpt>
<trkpt lat="40.232728" lon="-8.279432">
<ele>173</ele>
<time>2026-05-08T01:51:54Z</time></trkpt>
<trkpt lat="40.232814" lon="-8.279499">
<ele>173</ele>
<time>2026-05-08T01:51:56Z</time></trkpt>
<trkpt lat="40.232903" lon="-8.279536">
<ele>173</ele>
<time>2026-05-08T01:51:58Z</time></trkpt>
<trkpt lat="40.233082" lon="-8.279538">
<ele>176</ele>
<time>2026-05-08T01:52:02Z</time></trkpt>
<trkpt lat="40.233233" lon="-8.279492">
<ele>179</ele>
<time>2026-05-08T01:52:05Z</time></trkpt>
<trkpt lat="40.23341" lon="-8.279409">
<ele>181</ele>
<time>2026-05-08T01:52:09Z</time></trkpt>
<trkpt lat="40.233519" lon="-8.279325">
<ele>181</ele>
<time>2026-05-08T01:52:11Z</time></trkpt>
<trkpt lat="40.233748" lon="-8.279089">
<ele>181</ele>
<time>2026-05-08T01:52:17Z</time></trkpt>
<trkpt lat="40.233928" lon="-8.279014">
<ele>180</ele>
<time>2026-05-08T01:52:21Z</time></trkpt>
<trkpt lat="40.234288" lon="-8.27896">
<ele>177</ele>
<time>2026-05-08T01:52:28Z</time></trkpt>
<trkpt lat="40.23436" lon="-8.278913">
<ele>178</ele>
<time>2026-05-08T01:52:30Z</time></trkpt>
<trkpt lat="40.234641" lon="-8.278553">
<ele>180</ele>
<time>2026-05-08T01:52:38Z</time></trkpt>
<trkpt lat="40.234735" lon="-8.278458">
<ele>180</ele>
<time>2026-05-08T01:52:40Z</time></trkpt>
<trkpt lat="40.234796" lon="-8.278435">
<ele>179</ele>
<time>2026-05-08T01:52:41Z</time></trkpt>
<trkpt lat="40.234889" lon="-8.278447">
<ele>178</ele>
<time>2026-05-08T01:52:43Z</time></trkpt>
<trkpt lat="40.235004" lon="-8.278509">
<ele>176</ele>
<time>2026-05-08T01:52:46Z</time></trkpt>
<trkpt lat="40.235258" lon="-8.27873">
<ele>174</ele>
<time>2026-05-08T01:52:52Z</time></trkpt>
<trkpt lat="40.235411" lon="-8.278908">
<ele>174</ele>
<time>2026-05-08T01:52:56Z</time></trkpt>
<trkpt lat="40.235486" lon="-8.279088">
<ele>173</ele>
<time>2026-05-08T01:52:59Z</time></trkpt>
<trkpt lat="40.235622" lon="-8.279726">
<ele>166</ele>
<time>2026-05-08T01:53:09Z</time></trkpt>
<trkpt lat="40.235707" lon="-8.280044">
<ele>164</ele>
<time>2026-05-08T01:53:14Z</time></trkpt>
<trkpt lat="40.235905" lon="-8.280601">
<ele>159</ele>
<time>2026-05-08T01:53:24Z</time></trkpt>
<trkpt lat="40.236437" lon="-8.28167">
<ele>153</ele>
<time>2026-05-08T01:53:43Z</time></trkpt>
<trkpt lat="40.236552" lon="-8.281842">
<ele>152</ele>
<time>2026-05-08T01:53:47Z</time></trkpt>
<trkpt lat="40.23678" lon="-8.282018">
<ele>151</ele>
<time>2026-05-08T01:53:52Z</time></trkpt>
<trkpt lat="40.237055" lon="-8.282087">
<ele>146</ele>
<time>2026-05-08T01:53:58Z</time></trkpt>
<trkpt lat="40.237131" lon="-8.28209">
<ele>145</ele>
<time>2026-05-08T01:53:59Z</time></trkpt>
<trkpt lat="40.237273" lon="-8.282053">
<ele>144</ele>
<time>2026-05-08T01:54:02Z</time></trkpt>
<trkpt lat="40.237431" lon="-8.281894">
<ele>146</ele>
<time>2026-05-08T01:54:06Z</time></trkpt>
<trkpt lat="40.237602" lon="-8.281634">
<ele>149</ele>
<time>2026-05-08T01:54:11Z</time></trkpt>
<trkpt lat="40.237772" lon="-8.281429">
<ele>147</ele>
<time>2026-05-08T01:54:16Z</time></trkpt>
<trkpt lat="40.237875" lon="-8.281358">
<ele>145</ele>
<time>2026-05-08T01:54:18Z</time></trkpt>
<trkpt lat="40.237875" lon="-8.281358">
<ele>145</ele>
<time>2026-05-08T01:54:18Z</time></trkpt>
<trkpt lat="40.238688" lon="-8.280797">
<ele>129</ele>
<time>2026-05-08T01:54:37Z</time></trkpt>
<trkpt lat="40.238769" lon="-8.280777">
<ele>128</ele>
<time>2026-05-08T01:54:38Z</time></trkpt>
<trkpt lat="40.238841" lon="-8.280793">
<ele>126</ele>
<time>2026-05-08T01:54:40Z</time></trkpt>
<trkpt lat="40.23899" lon="-8.280892">
<ele>121</ele>
<time>2026-05-08T01:54:43Z</time></trkpt>
<trkpt lat="40.239173" lon="-8.281121">
<ele>113</ele>
<time>2026-05-08T01:54:48Z</time></trkpt>
<trkpt lat="40.239274" lon="-8.281289">
<ele>108</ele>
<time>2026-05-08T01:54:51Z</time></trkpt>
<trkpt lat="40.239293" lon="-8.281345">
<ele>106</ele>
<time>2026-05-08T01:54:52Z</time></trkpt>
<trkpt lat="40.239288" lon="-8.28151">
<ele>105</ele>
<time>2026-05-08T01:54:55Z</time></trkpt>
<trkpt lat="40.23925" lon="-8.281612">
<ele>105</ele>
<time>2026-05-08T01:54:57Z</time></trkpt>
<trkpt lat="40.238904" lon="-8.282152">
<ele>98</ele>
<time>2026-05-08T01:55:07Z</time></trkpt>
<trkpt lat="40.23882" lon="-8.282247">
<ele>98</ele>
<time>2026-05-08T01:55:10Z</time></trkpt>
<trkpt lat="40.23876" lon="-8.282291">
<ele>98</ele>
<time>2026-05-08T01:55:11Z</time></trkpt>
<trkpt lat="40.238663" lon="-8.282329">
<ele>99</ele>
<time>2026-05-08T01:55:13Z</time></trkpt>
<trkpt lat="40.238529" lon="-8.282357">
<ele>102</ele>
<time>2026-05-08T01:55:16Z</time></trkpt>
<trkpt lat="40.23826" lon="-8.282425">
<ele>108</ele>
<time>2026-05-08T01:55:21Z</time></trkpt>
<trkpt lat="40.238123" lon="-8.282518">
<ele>109</ele>
<time>2026-05-08T01:55:24Z</time></trkpt>
<trkpt lat="40.238054" lon="-8.282611">
<ele>109</ele>
<time>2026-05-08T01:55:26Z</time></trkpt>
<trkpt lat="40.238012" lon="-8.282723">
<ele>107</ele>
<time>2026-05-08T01:55:28Z</time></trkpt>
<trkpt lat="40.237925" lon="-8.283189">
<ele>96</ele>
<time>2026-05-08T01:55:36Z</time></trkpt>
<trkpt lat="40.237792" lon="-8.283446">
<ele>93</ele>
<time>2026-05-08T01:55:40Z</time></trkpt>
<trkpt lat="40.237597" lon="-8.283669">
<ele>91</ele>
<time>2026-05-08T01:55:46Z</time></trkpt>
<trkpt lat="40.237391" lon="-8.283787">
<ele>89</ele>
<time>2026-05-08T01:55:50Z</time></trkpt>
<trkpt lat="40.237286" lon="-8.283804">
<ele>88</ele>
<time>2026-05-08T01:55:52Z</time></trkpt>
<trkpt lat="40.237176" lon="-8.283796">
<ele>88</ele>
<time>2026-05-08T01:55:54Z</time></trkpt>
<trkpt lat="40.236447" lon="-8.283615">
<ele>89</ele>
<time>2026-05-08T01:56:09Z</time></trkpt>
<trkpt lat="40.236335" lon="-8.283567">
<ele>88</ele>
<time>2026-05-08T01:56:12Z</time></trkpt>
<trkpt lat="40.236233" lon="-8.283499">
<ele>87</ele>
<time>2026-05-08T01:56:14Z</time></trkpt>
<trkpt lat="40.235646" lon="-8.282846">
<ele>95</ele>
<time>2026-05-08T01:56:29Z</time></trkpt>
<trkpt lat="40.235418" lon="-8.28263">
<ele>95</ele>
<time>2026-05-08T01:56:35Z</time></trkpt>
<trkpt lat="40.235022" lon="-8.282374">
<ele>89</ele>
<time>2026-05-08T01:56:44Z</time></trkpt>
<trkpt lat="40.234806" lon="-8.28228">
<ele>90</ele>
<time>2026-05-08T01:56:48Z</time></trkpt>
<trkpt lat="40.234348" lon="-8.28223">
<ele>89</ele>
<time>2026-05-08T01:56:58Z</time></trkpt>
<trkpt lat="40.234023" lon="-8.282245">
<ele>90</ele>
<time>2026-05-08T01:57:04Z</time></trkpt>
<trkpt lat="40.233938" lon="-8.28229">
<ele>90</ele>
<time>2026-05-08T01:57:06Z</time></trkpt>
<trkpt lat="40.233891" lon="-8.282395">
<ele>88</ele>
<time>2026-05-08T01:57:08Z</time></trkpt>
<trkpt lat="40.233893" lon="-8.282552">
<ele>87</ele>
<time>2026-05-08T01:57:10Z</time></trkpt>
<trkpt lat="40.233929" lon="-8.282672">
<ele>89</ele>
<time>2026-05-08T01:57:12Z</time></trkpt>
<trkpt lat="40.234013" lon="-8.282758">
<ele>89</ele>
<time>2026-05-08T01:57:14Z</time></trkpt>
<trkpt lat="40.23439" lon="-8.282846">
<ele>86</ele>
<time>2026-05-08T01:57:22Z</time></trkpt>
<trkpt lat="40.234698" lon="-8.282952">
<ele>84</ele>
<time>2026-05-08T01:57:28Z</time></trkpt>
<trkpt lat="40.234829" lon="-8.283065">
<ele>82</ele>
<time>2026-05-08T01:57:31Z</time></trkpt>
<trkpt lat="40.23495" lon="-8.283229">
<ele>80</ele>
<time>2026-05-08T01:57:35Z</time></trkpt>
<trkpt lat="40.235133" lon="-8.283587">
<ele>80</ele>
<time>2026-05-08T01:57:42Z</time></trkpt>
<trkpt lat="40.235347" lon="-8.283793">
<ele>77</ele>
<time>2026-05-08T01:57:47Z</time></trkpt>
<trkpt lat="40.235423" lon="-8.283892">
<ele>76</ele>
<time>2026-05-08T01:57:49Z</time></trkpt>
<trkpt lat="40.235423" lon="-8.283892">
<ele>76</ele>
<time>2026-05-08T01:57:49Z</time></trkpt>
<trkpt lat="40.23561" lon="-8.28414">
<ele>69</ele>
<time>2026-05-08T01:57:54Z</time></trkpt>
<trkpt lat="40.235708" lon="-8.284291">
<ele>69</ele>
<time>2026-05-08T01:57:57Z</time></trkpt>
<trkpt lat="40.235867" lon="-8.284479">
<ele>71</ele>
<time>2026-05-08T01:58:02Z</time></trkpt>
<trkpt lat="40.236082" lon="-8.284638">
<ele>74</ele>
<time>2026-05-08T01:58:07Z</time></trkpt>
<trkpt lat="40.236376" lon="-8.284814">
<ele>74</ele>
<time>2026-05-08T01:58:13Z</time></trkpt>
<trkpt lat="40.236609" lon="-8.284925">
<ele>73</ele>
<time>2026-05-08T01:58:18Z</time></trkpt>
<trkpt lat="40.237306" lon="-8.285043">
<ele>62</ele>
<time>2026-05-08T01:58:32Z</time></trkpt>
<trkpt lat="40.237515" lon="-8.285035">
<ele>58</ele>
<time>2026-05-08T01:58:36Z</time></trkpt>
<trkpt lat="40.2377062" lon="-8.2849478">
<ele>54</ele>
<time>2026-05-08T01:58:40Z</time></trkpt>
<trkpt lat="40.237706" lon="-8.284948">
<ele>54</ele>
<time>2026-05-08T01:58:40Z</time></trkpt>
<trkpt lat="40.237708" lon="-8.284947">
<ele>54</ele>
<time>2026-05-08T01:58:40Z</time></trkpt>
<trkpt lat="40.237968" lon="-8.284699">
<ele>53</ele>
<time>2026-05-08T01:58:47Z</time></trkpt>
<trkpt lat="40.238066" lon="-8.284595">
<ele>53</ele>
<time>2026-05-08T01:58:49Z</time></trkpt>
<trkpt lat="40.238253" lon="-8.284785">
<ele>46</ele>
<time>2026-05-08T01:58:54Z</time></trkpt>
<trkpt lat="40.238416" lon="-8.284859">
<ele>43</ele>
<time>2026-05-08T01:58:58Z</time></trkpt>
<trkpt lat="40.2388" lon="-8.284935">
<ele>40</ele>
<time>2026-05-08T01:59:05Z</time></trkpt>
<trkpt lat="40.238964" lon="-8.285037">
<ele>39</ele>
<time>2026-05-08T01:59:09Z</time></trkpt>
<trkpt lat="40.239492" lon="-8.285611">
<ele>37</ele>
<time>2026-05-08T01:59:23Z</time></trkpt>
<trkpt lat="40.239611" lon="-8.285812">
<ele>36</ele>
<time>2026-05-08T01:59:27Z</time></trkpt>
<trkpt lat="40.239645" lon="-8.286013">
<ele>37</ele>
<time>2026-05-08T01:59:30Z</time></trkpt>
<trkpt lat="40.239647" lon="-8.28686">
<ele>39</ele>
<time>2026-05-08T01:59:43Z</time></trkpt>
<trkpt lat="40.239662" lon="-8.287033">
<ele>39</ele>
<time>2026-05-08T01:59:45Z</time></trkpt>
<trkpt lat="40.239721" lon="-8.287187">
<ele>39</ele>
<time>2026-05-08T01:59:48Z</time></trkpt>
<trkpt lat="40.239772" lon="-8.287253">
<ele>40</ele>
<time>2026-05-08T01:59:50Z</time></trkpt>
<trkpt lat="40.24021" lon="-8.287868">
<ele>45</ele>
<time>2026-05-08T02:00:02Z</time></trkpt>
<trkpt lat="40.240265" lon="-8.288086">
<ele>46</ele>
<time>2026-05-08T02:00:06Z</time></trkpt>
<trkpt lat="40.240302" lon="-8.288396">
<ele>46</ele>
<time>2026-05-08T02:00:11Z</time></trkpt>
<trkpt lat="40.24041" lon="-8.288798">
<ele>45</ele>
<time>2026-05-08T02:00:17Z</time></trkpt>
<trkpt lat="40.240586" lon="-8.289084">
<ele>46</ele>
<time>2026-05-08T02:00:23Z</time></trkpt>
<trkpt lat="40.241161" lon="-8.289694">
<ele>48</ele>
<time>2026-05-08T02:00:38Z</time></trkpt>
<trkpt lat="40.24128" lon="-8.289791">
<ele>48</ele>
<time>2026-05-08T02:00:40Z</time></trkpt>
<trkpt lat="40.241349" lon="-8.289783">
<ele>50</ele>
<time>2026-05-08T02:00:42Z</time></trkpt>
<trkpt lat="40.241455" lon="-8.28971">
<ele>54</ele>
<time>2026-05-08T02:00:44Z</time></trkpt>
<trkpt lat="40.240886" lon="-8.288962">
<ele>55</ele>
<time>2026-05-08T02:01:00Z</time></trkpt>
<trkpt lat="40.24069" lon="-8.288557">
<ele>55</ele>
<time>2026-05-08T02:01:08Z</time></trkpt>
<trkpt lat="40.240619" lon="-8.288324">
<ele>56</ele>
<time>2026-05-08T02:01:12Z</time></trkpt>
<trkpt lat="40.240568" lon="-8.288043">
<ele>56</ele>
<time>2026-05-08T02:01:16Z</time></trkpt>
<trkpt lat="40.240564" lon="-8.287785">
<ele>56</ele>
<time>2026-05-08T02:01:20Z</time></trkpt>
<trkpt lat="40.240638" lon="-8.287439">
<ele>58</ele>
<time>2026-05-08T02:01:25Z</time></trkpt>
<trkpt lat="40.240716" lon="-8.287258">
<ele>57</ele>
<time>2026-05-08T02:01:29Z</time></trkpt>
<trkpt lat="40.240824" lon="-8.287134">
<ele>58</ele>
<time>2026-05-08T02:01:31Z</time></trkpt>
<trkpt lat="40.240957" lon="-8.287068">
<ele>61</ele>
<time>2026-05-08T02:01:34Z</time></trkpt>
<trkpt lat="40.241373" lon="-8.287034">
<ele>74</ele>
<time>2026-05-08T02:01:43Z</time></trkpt>
<trkpt lat="40.241498" lon="-8.286946">
<ele>75</ele>
<time>2026-05-08T02:01:46Z</time></trkpt>
<trkpt lat="40.242091" lon="-8.286086">
<ele>70</ele>
<time>2026-05-08T02:02:03Z</time></trkpt>
<trkpt lat="40.242601" lon="-8.2852">
<ele>63</ele>
<time>2026-05-08T02:02:20Z</time></trkpt>
<trkpt lat="40.242793" lon="-8.284957">
<ele>61</ele>
<time>2026-05-08T02:02:26Z</time></trkpt>
<trkpt lat="40.242905" lon="-8.284873">
<ele>63</ele>
<time>2026-05-08T02:02:28Z</time></trkpt>
<trkpt lat="40.243259" lon="-8.284699">
<ele>67</ele>
<time>2026-05-08T02:02:36Z</time></trkpt>
<trkpt lat="40.243517" lon="-8.284444">
<ele>65</ele>
<time>2026-05-08T02:02:42Z</time></trkpt>
<trkpt lat="40.243728" lon="-8.284304">
<ele>64</ele>
<time>2026-05-08T02:02:47Z</time></trkpt>
<trkpt lat="40.243875" lon="-8.284251">
<ele>65</ele>
<time>2026-05-08T02:02:50Z</time></trkpt>
<trkpt lat="40.244161" lon="-8.284183">
<ele>68</ele>
<time>2026-05-08T02:02:56Z</time></trkpt>
<trkpt lat="40.244521" lon="-8.284138">
<ele>68</ele>
<time>2026-05-08T02:03:03Z</time></trkpt>
<trkpt lat="40.244965" lon="-8.284167">
<ele>70</ele>
<time>2026-05-08T02:03:12Z</time></trkpt>
<trkpt lat="40.245746" lon="-8.284412">
<ele>73</ele>
<time>2026-05-08T02:03:28Z</time></trkpt>
<trkpt lat="40.245891" lon="-8.284401">
<ele>73</ele>
<time>2026-05-08T02:03:31Z</time></trkpt>
<trkpt lat="40.246069" lon="-8.284272">
<ele>71</ele>
<time>2026-05-08T02:03:35Z</time></trkpt>
<trkpt lat="40.246195" lon="-8.284243">
<ele>71</ele>
<time>2026-05-08T02:03:38Z</time></trkpt>
<trkpt lat="40.246556" lon="-8.28416">
<ele>70</ele>
<time>2026-05-08T02:03:45Z</time></trkpt>
<trkpt lat="40.246796" lon="-8.284155">
<ele>70</ele>
<time>2026-05-08T02:03:50Z</time></trkpt>
<trkpt lat="40.247361" lon="-8.28423">
<ele>70</ele>
<time>2026-05-08T02:04:01Z</time></trkpt>
<trkpt lat="40.247551" lon="-8.284244">
<ele>70</ele>
<time>2026-05-08T02:04:05Z</time></trkpt>
<trkpt lat="40.249792" lon="-8.284149">
<ele>73</ele>
<time>2026-05-08T02:04:50Z</time></trkpt>
<trkpt lat="40.24993" lon="-8.284175">
<ele>74</ele>
<time>2026-05-08T02:04:53Z</time></trkpt>
<trkpt lat="40.250037" lon="-8.28424">
<ele>77</ele>
<time>2026-05-08T02:04:55Z</time></trkpt>
<trkpt lat="40.25022" lon="-8.284418">
<ele>88</ele>
<time>2026-05-08T02:05:00Z</time></trkpt>
<trkpt lat="40.250332" lon="-8.284463">
<ele>92</ele>
<time>2026-05-08T02:05:02Z</time></trkpt>
<trkpt lat="40.250433" lon="-8.284451">
<ele>94</ele>
<time>2026-05-08T02:05:04Z</time></trkpt>
<trkpt lat="40.250534" lon="-8.284398">
<ele>95</ele>
<time>2026-05-08T02:05:06Z</time></trkpt>
<trkpt lat="40.250665" lon="-8.284222">
<ele>94</ele>
<time>2026-05-08T02:05:10Z</time></trkpt>
<trkpt lat="40.250752" lon="-8.283989">
<ele>89</ele>
<time>2026-05-08T02:05:14Z</time></trkpt>
<trkpt lat="40.250834" lon="-8.283672">
<ele>82</ele>
<time>2026-05-08T02:05:19Z</time></trkpt>
<trkpt lat="40.250912" lon="-8.283504">
<ele>77</ele>
<time>2026-05-08T02:05:22Z</time></trkpt>
<trkpt lat="40.251032" lon="-8.283421">
<ele>75</ele>
<time>2026-05-08T02:05:25Z</time></trkpt>
<trkpt lat="40.251188" lon="-8.283386">
<ele>74</ele>
<time>2026-05-08T02:05:28Z</time></trkpt>
<trkpt lat="40.251342" lon="-8.283422">
<ele>76</ele>
<time>2026-05-08T02:05:31Z</time></trkpt>
<trkpt lat="40.251707" lon="-8.283587">
<ele>86</ele>
<time>2026-05-08T02:05:39Z</time></trkpt>
<trkpt lat="40.252335" lon="-8.283817">
<ele>90</ele>
<time>2026-05-08T02:05:52Z</time></trkpt>
<trkpt lat="40.252757" lon="-8.283795">
<ele>81</ele>
<time>2026-05-08T02:06:00Z</time></trkpt>
<trkpt lat="40.252938" lon="-8.283815">
<ele>78</ele>
<time>2026-05-08T02:06:04Z</time></trkpt>
<trkpt lat="40.253104" lon="-8.283883">
<ele>77</ele>
<time>2026-05-08T02:06:07Z</time></trkpt>
<trkpt lat="40.253227" lon="-8.283999">
<ele>80</ele>
<time>2026-05-08T02:06:10Z</time></trkpt>
<trkpt lat="40.253384" lon="-8.284228">
<ele>87</ele>
<time>2026-05-08T02:06:15Z</time></trkpt>
<trkpt lat="40.253529" lon="-8.284309">
<ele>90</ele>
<time>2026-05-08T02:06:18Z</time></trkpt>
<trkpt lat="40.25363" lon="-8.284294">
<ele>90</ele>
<time>2026-05-08T02:06:20Z</time></trkpt>
<trkpt lat="40.253715" lon="-8.284244">
<ele>89</ele>
<time>2026-05-08T02:06:22Z</time></trkpt>
<trkpt lat="40.253885" lon="-8.284005">
<ele>79</ele>
<time>2026-05-08T02:06:27Z</time></trkpt>
<trkpt lat="40.253975" lon="-8.283941">
<ele>76</ele>
<time>2026-05-08T02:06:29Z</time></trkpt>
<trkpt lat="40.254121" lon="-8.283894">
<ele>74</ele>
<time>2026-05-08T02:06:32Z</time></trkpt>
<trkpt lat="40.254536" lon="-8.283834">
<ele>70</ele>
<time>2026-05-08T02:06:41Z</time></trkpt>
<trkpt lat="40.25476" lon="-8.283865">
<ele>71</ele>
<time>2026-05-08T02:06:45Z</time></trkpt>
<trkpt lat="40.255145" lon="-8.284111">
<ele>81</ele>
<time>2026-05-08T02:06:54Z</time></trkpt>
<trkpt lat="40.255236" lon="-8.284112">
<ele>85</ele>
<time>2026-05-08T02:06:56Z</time></trkpt>
<trkpt lat="40.255535" lon="-8.284011">
<ele>91</ele>
<time>2026-05-08T02:07:02Z</time></trkpt>
<trkpt lat="40.255659" lon="-8.28386">
<ele>89</ele>
<time>2026-05-08T02:07:05Z</time></trkpt>
<trkpt lat="40.255837" lon="-8.283475">
<ele>76</ele>
<time>2026-05-08T02:07:12Z</time></trkpt>
<trkpt lat="40.255937" lon="-8.283171">
<ele>68</ele>
<time>2026-05-08T02:07:17Z</time></trkpt>
<trkpt lat="40.256048" lon="-8.283038">
<ele>67</ele>
<time>2026-05-08T02:07:20Z</time></trkpt>
<trkpt lat="40.256241" lon="-8.282909">
<ele>69</ele>
<time>2026-05-08T02:07:24Z</time></trkpt>
<trkpt lat="40.256576" lon="-8.282764">
<ele>74</ele>
<time>2026-05-08T02:07:32Z</time></trkpt>
<trkpt lat="40.256658" lon="-8.282704">
<ele>74</ele>
<time>2026-05-08T02:07:33Z</time></trkpt>
<trkpt lat="40.256858" lon="-8.282381">
<ele>70</ele>
<time>2026-05-08T02:07:40Z</time></trkpt>
<trkpt lat="40.256942" lon="-8.282292">
<ele>70</ele>
<time>2026-05-08T02:07:42Z</time></trkpt>
<trkpt lat="40.257077" lon="-8.282221">
<ele>72</ele>
<time>2026-05-08T02:07:45Z</time></trkpt>
<trkpt lat="40.257634" lon="-8.282023">
<ele>77</ele>
<time>2026-05-08T02:07:56Z</time></trkpt>
<trkpt lat="40.257941" lon="-8.281757">
<ele>69</ele>
<time>2026-05-08T02:08:04Z</time></trkpt>
<trkpt lat="40.258117" lon="-8.281684">
<ele>68</ele>
<time>2026-05-08T02:08:08Z</time></trkpt>
<trkpt lat="40.258703" lon="-8.281558">
<ele>61</ele>
<time>2026-05-08T02:08:19Z</time></trkpt>
<trkpt lat="40.258787" lon="-8.281576">
<ele>60</ele>
<time>2026-05-08T02:08:21Z</time></trkpt>
<trkpt lat="40.258893" lon="-8.281635">
<ele>60</ele>
<time>2026-05-08T02:08:23Z</time></trkpt>
<trkpt lat="40.258985" lon="-8.281737">
<ele>61</ele>
<time>2026-05-08T02:08:26Z</time></trkpt>
<trkpt lat="40.25903" lon="-8.281869">
<ele>63</ele>
<time>2026-05-08T02:08:28Z</time></trkpt>
<trkpt lat="40.259086" lon="-8.28224">
<ele>70</ele>
<time>2026-05-08T02:08:34Z</time></trkpt>
<trkpt lat="40.259147" lon="-8.282436">
<ele>71</ele>
<time>2026-05-08T02:08:37Z</time></trkpt>
<trkpt lat="40.259261" lon="-8.282627">
<ele>73</ele>
<time>2026-05-08T02:08:41Z</time></trkpt>
<trkpt lat="40.259411" lon="-8.282829">
<ele>74</ele>
<time>2026-05-08T02:08:45Z</time></trkpt>
<trkpt lat="40.259727" lon="-8.283271">
<ele>69</ele>
<time>2026-05-08T02:08:54Z</time></trkpt>
<trkpt lat="40.259834" lon="-8.28338">
<ele>65</ele>
<time>2026-05-08T02:08:57Z</time></trkpt>
<trkpt lat="40.259938" lon="-8.283454">
<ele>61</ele>
<time>2026-05-08T02:08:59Z</time></trkpt>
<trkpt lat="40.260074" lon="-8.283466">
<ele>59</ele>
<time>2026-05-08T02:09:02Z</time></trkpt>
<trkpt lat="40.260179" lon="-8.283393">
<ele>60</ele>
<time>2026-05-08T02:09:05Z</time></trkpt>
<trkpt lat="40.260249" lon="-8.28328">
<ele>60</ele>
<time>2026-05-08T02:09:07Z</time></trkpt>
<trkpt lat="40.260281" lon="-8.283137">
<ele>60</ele>
<time>2026-05-08T02:09:09Z</time></trkpt>
<trkpt lat="40.260278" lon="-8.282986">
<ele>58</ele>
<time>2026-05-08T02:09:11Z</time></trkpt>
<trkpt lat="40.260175" lon="-8.282562">
<ele>52</ele>
<time>2026-05-08T02:09:18Z</time></trkpt>
<trkpt lat="40.260173" lon="-8.28238">
<ele>51</ele>
<time>2026-05-08T02:09:21Z</time></trkpt>
<trkpt lat="40.260214" lon="-8.282249">
<ele>50</ele>
<time>2026-05-08T02:09:23Z</time></trkpt>
<trkpt lat="40.260321" lon="-8.282143">
<ele>50</ele>
<time>2026-05-08T02:09:26Z</time></trkpt>
<trkpt lat="40.260442" lon="-8.28211">
<ele>51</ele>
<time>2026-05-08T02:09:28Z</time></trkpt>
<trkpt lat="40.260708" lon="-8.282154">
<ele>55</ele>
<time>2026-05-08T02:09:34Z</time></trkpt>
<trkpt lat="40.260842" lon="-8.28215">
<ele>56</ele>
<time>2026-05-08T02:09:36Z</time></trkpt>
<trkpt lat="40.261066" lon="-8.282073">
<ele>57</ele>
<time>2026-05-08T02:09:41Z</time></trkpt>
<trkpt lat="40.261403" lon="-8.282092">
<ele>62</ele>
<time>2026-05-08T02:09:48Z</time></trkpt>
<trkpt lat="40.261583" lon="-8.282041">
<ele>63</ele>
<time>2026-05-08T02:09:51Z</time></trkpt>
<trkpt lat="40.261728" lon="-8.281927">
<ele>63</ele>
<time>2026-05-08T02:09:55Z</time></trkpt>
<trkpt lat="40.262121" lon="-8.281383">
<ele>61</ele>
<time>2026-05-08T02:10:06Z</time></trkpt>
<trkpt lat="40.26235" lon="-8.281021">
<ele>58</ele>
<time>2026-05-08T02:10:13Z</time></trkpt>
<trkpt lat="40.262517" lon="-8.280879">
<ele>58</ele>
<time>2026-05-08T02:10:17Z</time></trkpt>
<trkpt lat="40.262691" lon="-8.280815">
<ele>56</ele>
<time>2026-05-08T02:10:21Z</time></trkpt>
<trkpt lat="40.262833" lon="-8.280826">
<ele>56</ele>
<time>2026-05-08T02:10:24Z</time></trkpt>
<trkpt lat="40.262986" lon="-8.28088">
<ele>57</ele>
<time>2026-05-08T02:10:27Z</time></trkpt>
<trkpt lat="40.263187" lon="-8.281029">
<ele>60</ele>
<time>2026-05-08T02:10:32Z</time></trkpt>
<trkpt lat="40.263852" lon="-8.28167">
<ele>68</ele>
<time>2026-05-08T02:10:48Z</time></trkpt>
<trkpt lat="40.263986" lon="-8.281746">
<ele>68</ele>
<time>2026-05-08T02:10:51Z</time></trkpt>
<trkpt lat="40.264168" lon="-8.281793">
<ele>65</ele>
<time>2026-05-08T02:10:55Z</time></trkpt>
<trkpt lat="40.265682" lon="-8.281862">
<ele>72</ele>
<time>2026-05-08T02:11:25Z</time></trkpt>
<trkpt lat="40.265878" lon="-8.281862">
<ele>74</ele>
<time>2026-05-08T02:11:29Z</time></trkpt>
<trkpt lat="40.265989" lon="-8.281797">
<ele>74</ele>
<time>2026-05-08T02:11:32Z</time></trkpt>
<trkpt lat="40.266053" lon="-8.281721">
<ele>73</ele>
<time>2026-05-08T02:11:33Z</time></trkpt>
<trkpt lat="40.266408" lon="-8.281158">
<ele>66</ele>
<time>2026-05-08T02:11:45Z</time></trkpt>
<trkpt lat="40.266511" lon="-8.281064">
<ele>64</ele>
<time>2026-05-08T02:11:47Z</time></trkpt>
<trkpt lat="40.266561" lon="-8.281051">
<ele>65</ele>
<time>2026-05-08T02:11:48Z</time></trkpt>
<trkpt lat="40.266561" lon="-8.281051">
<ele>65</ele>
<time>2026-05-08T02:11:48Z</time></trkpt>
<trkpt lat="40.266656" lon="-8.281028">
<ele>65</ele>
<time>2026-05-08T02:11:50Z</time></trkpt>
<trkpt lat="40.266774" lon="-8.281038">
<ele>65</ele>
<time>2026-05-08T02:11:52Z</time></trkpt>
<trkpt lat="40.266892" lon="-8.281088">
<ele>66</ele>
<time>2026-05-08T02:11:55Z</time></trkpt>
<trkpt lat="40.267409" lon="-8.281513">
<ele>81</ele>
<time>2026-05-08T02:12:07Z</time></trkpt>
<trkpt lat="40.267525" lon="-8.281546">
<ele>83</ele>
<time>2026-05-08T02:12:09Z</time></trkpt>
<trkpt lat="40.267641" lon="-8.281514">
<ele>84</ele>
<time>2026-05-08T02:12:12Z</time></trkpt>
<trkpt lat="40.267909" lon="-8.281252">
<ele>77</ele>
<time>2026-05-08T02:12:19Z</time></trkpt>
<trkpt lat="40.268516" lon="-8.280879">
<ele>76</ele>
<time>2026-05-08T02:12:32Z</time></trkpt>
<trkpt lat="40.269454" lon="-8.279874">
<ele>82</ele>
<time>2026-05-08T02:12:56Z</time></trkpt>
<trkpt lat="40.269547" lon="-8.279733">
<ele>85</ele>
<time>2026-05-08T02:12:59Z</time></trkpt>
<trkpt lat="40.269583" lon="-8.279604">
<ele>86</ele>
<time>2026-05-08T02:13:01Z</time></trkpt>
<trkpt lat="40.269575" lon="-8.279497">
<ele>84</ele>
<time>2026-05-08T02:13:03Z</time></trkpt>
<trkpt lat="40.269496" lon="-8.279109">
<ele>79</ele>
<time>2026-05-08T02:13:09Z</time></trkpt>
<trkpt lat="40.269432" lon="-8.278953">
<ele>77</ele>
<time>2026-05-08T02:13:12Z</time></trkpt>
<trkpt lat="40.269212" lon="-8.278649">
<ele>69</ele>
<time>2026-05-08T02:13:18Z</time></trkpt>
<trkpt lat="40.269136" lon="-8.27846">
<ele>67</ele>
<time>2026-05-08T02:13:21Z</time></trkpt>
<trkpt lat="40.269013" lon="-8.277885">
<ele>63</ele>
<time>2026-05-08T02:13:30Z</time></trkpt>
<trkpt lat="40.268995" lon="-8.27769">
<ele>62</ele>
<time>2026-05-08T02:13:33Z</time></trkpt>
<trkpt lat="40.269013" lon="-8.277522">
<ele>62</ele>
<time>2026-05-08T02:13:36Z</time></trkpt>
<trkpt lat="40.269186" lon="-8.277032">
<ele>61</ele>
<time>2026-05-08T02:13:44Z</time></trkpt>
<trkpt lat="40.269355" lon="-8.276243">
<ele>58</ele>
<time>2026-05-08T02:13:57Z</time></trkpt>
<trkpt lat="40.269494" lon="-8.275919">
<ele>59</ele>
<time>2026-05-08T02:14:03Z</time></trkpt>
<trkpt lat="40.270156" lon="-8.275128">
<ele>55</ele>
<time>2026-05-08T02:14:20Z</time></trkpt>
<trkpt lat="40.270304" lon="-8.274897">
<ele>49</ele>
<time>2026-05-08T02:14:25Z</time></trkpt>
<trkpt lat="40.270211" lon="-8.274604">
<ele>44</ele>
<time>2026-05-08T02:14:30Z</time></trkpt>
<trkpt lat="40.269595" lon="-8.273002">
<ele>52</ele>
<time>2026-05-08T02:14:57Z</time></trkpt>
<trkpt lat="40.269595" lon="-8.273002">
<ele>52</ele>
<time>2026-05-08T02:14:57Z</time></trkpt>
<trkpt lat="40.26959" lon="-8.272987">
<ele>53</ele>
<time>2026-05-08T02:14:58Z</time></trkpt>
<trkpt lat="40.269549" lon="-8.272845">
<ele>57</ele>
<time>2026-05-08T02:15:00Z</time></trkpt>
<trkpt lat="40.269556" lon="-8.272654">
<ele>60</ele>
<time>2026-05-08T02:15:03Z</time></trkpt>
<trkpt lat="40.269883" lon="-8.2716083">
<ele>58</ele>
<time>2026-05-08T02:15:20Z</time></trkpt>
<trkpt lat="40.269895" lon="-8.27157">
<ele>58</ele>
<time>2026-05-08T02:15:21Z</time></trkpt>
<trkpt lat="40.270116" lon="-8.270384">
<ele>60</ele>
<time>2026-05-08T02:15:39Z</time></trkpt>
<trkpt lat="40.270219" lon="-8.269269">
<ele>62</ele>
<time>2026-05-08T02:15:57Z</time></trkpt>
<trkpt lat="40.270337" lon="-8.268941">
<ele>58</ele>
<time>2026-05-08T02:16:02Z</time></trkpt>
<trkpt lat="40.270379" lon="-8.268877">
<ele>57</ele>
<time>2026-05-08T02:16:03Z</time></trkpt>
<trkpt lat="40.270442" lon="-8.268812">
<ele>56</ele>
<time>2026-05-08T02:16:05Z</time></trkpt>
<trkpt lat="40.270514" lon="-8.268737">
<ele>54</ele>
<time>2026-05-08T02:16:07Z</time></trkpt>
<trkpt lat="40.271141" lon="-8.268333">
<ele>48</ele>
<time>2026-05-08T02:16:21Z</time></trkpt>
<trkpt lat="40.271812" lon="-8.268226">
<ele>51</ele>
<time>2026-05-08T02:16:34Z</time></trkpt>
<trkpt lat="40.272047" lon="-8.268101">
<ele>52</ele>
<time>2026-05-08T02:16:40Z</time></trkpt>
<trkpt lat="40.272047" lon="-8.268101">
<ele>52</ele>
<time>2026-05-08T02:16:40Z</time></trkpt>
<trkpt lat="40.272696" lon="-8.267757">
<ele>50</ele>
<time>2026-05-08T02:16:54Z</time></trkpt>
<trkpt lat="40.272788" lon="-8.26772">
<ele>49</ele>
<time>2026-05-08T02:16:55Z</time></trkpt>
<trkpt lat="40.274838" lon="-8.267357">
<ele>51</ele>
<time>2026-05-08T02:17:37Z</time></trkpt>
<trkpt lat="40.275552" lon="-8.267228">
<ele>52</ele>
<time>2026-05-08T02:17:51Z</time></trkpt>
<trkpt lat="40.277534" lon="-8.266944">
<ele>52</ele>
<time>2026-05-08T02:18:31Z</time></trkpt>
<trkpt lat="40.27776" lon="-8.266913">
<ele>52</ele>
<time>2026-05-08T02:18:36Z</time></trkpt>
<trkpt lat="40.278472" lon="-8.266796">
<ele>53</ele>
<time>2026-05-08T02:18:50Z</time></trkpt>
<trkpt lat="40.278598" lon="-8.266776">
<ele>53</ele>
<time>2026-05-08T02:18:53Z</time></trkpt>
<trkpt lat="40.27929" lon="-8.26666">
<ele>54</ele>
<time>2026-05-08T02:19:07Z</time></trkpt>
<trkpt lat="40.279629" lon="-8.266703">
<ele>54</ele>
<time>2026-05-08T02:19:14Z</time></trkpt>
<trkpt lat="40.280127" lon="-8.266802">
<ele>53</ele>
<time>2026-05-08T02:19:24Z</time></trkpt>
<trkpt lat="40.280362" lon="-8.266788">
<ele>51</ele>
<time>2026-05-08T02:19:28Z</time></trkpt>
<trkpt lat="40.28053" lon="-8.266717">
<ele>50</ele>
<time>2026-05-08T02:19:32Z</time></trkpt>
<trkpt lat="40.280605" lon="-8.266655">
<ele>51</ele>
<time>2026-05-08T02:19:34Z</time></trkpt>
<trkpt lat="40.280787" lon="-8.266452">
<ele>57</ele>
<time>2026-05-08T02:19:39Z</time></trkpt>
<trkpt lat="40.280854" lon="-8.266404">
<ele>59</ele>
<time>2026-05-08T02:19:40Z</time></trkpt>
<trkpt lat="40.281443" lon="-8.266215">
<ele>58</ele>
<time>2026-05-08T02:19:52Z</time></trkpt>
<trkpt lat="40.281523" lon="-8.266146">
<ele>59</ele>
<time>2026-05-08T02:19:54Z</time></trkpt>
<trkpt lat="40.281707" lon="-8.265835">
<ele>64</ele>
<time>2026-05-08T02:20:00Z</time></trkpt>
<trkpt lat="40.281835" lon="-8.265691">
<ele>65</ele>
<time>2026-05-08T02:20:04Z</time></trkpt>
<trkpt lat="40.281978" lon="-8.265608">
<ele>63</ele>
<time>2026-05-08T02:20:07Z</time></trkpt>
<trkpt lat="40.282412" lon="-8.265435">
<ele>54</ele>
<time>2026-05-08T02:20:16Z</time></trkpt>
<trkpt lat="40.282543" lon="-8.265353">
<ele>52</ele>
<time>2026-05-08T02:20:19Z</time></trkpt>
<trkpt lat="40.282638" lon="-8.265243">
<ele>54</ele>
<time>2026-05-08T02:20:21Z</time></trkpt>
<trkpt lat="40.282773" lon="-8.264987">
<ele>57</ele>
<time>2026-05-08T02:20:26Z</time></trkpt>
<trkpt lat="40.283069" lon="-8.264718">
<ele>58</ele>
<time>2026-05-08T02:20:33Z</time></trkpt>
<trkpt lat="40.28336" lon="-8.264338">
<ele>58</ele>
<time>2026-05-08T02:20:41Z</time></trkpt>
<trkpt lat="40.283456" lon="-8.264241">
<ele>59</ele>
<time>2026-05-08T02:20:44Z</time></trkpt>
<trkpt lat="40.283663" lon="-8.264088">
<ele>60</ele>
<time>2026-05-08T02:20:49Z</time></trkpt>
<trkpt lat="40.283948" lon="-8.263971">
<ele>58</ele>
<time>2026-05-08T02:20:55Z</time></trkpt>
<trkpt lat="40.284089" lon="-8.263844">
<ele>57</ele>
<time>2026-05-08T02:20:58Z</time></trkpt>
<trkpt lat="40.284144" lon="-8.263769">
<ele>57</ele>
<time>2026-05-08T02:21:00Z</time></trkpt>
<trkpt lat="40.284232" lon="-8.263555">
<ele>60</ele>
<time>2026-05-08T02:21:03Z</time></trkpt>
<trkpt lat="40.284369" lon="-8.26336">
<ele>60</ele>
<time>2026-05-08T02:21:07Z</time></trkpt>
<trkpt lat="40.284498" lon="-8.263237">
<ele>60</ele>
<time>2026-05-08T02:21:11Z</time></trkpt>
<trkpt lat="40.284737" lon="-8.263067">
<ele>58</ele>
<time>2026-05-08T02:21:16Z</time></trkpt>
<trkpt lat="40.285008" lon="-8.262684">
<ele>58</ele>
<time>2026-05-08T02:21:24Z</time></trkpt>
<trkpt lat="40.285362" lon="-8.262369">
<ele>61</ele>
<time>2026-05-08T02:21:33Z</time></trkpt>
<trkpt lat="40.286148" lon="-8.261598">
<ele>64</ele>
<time>2026-05-08T02:21:52Z</time></trkpt>
<trkpt lat="40.286326" lon="-8.261467">
<ele>64</ele>
<time>2026-05-08T02:21:56Z</time></trkpt>
<trkpt lat="40.287082" lon="-8.261">
<ele>54</ele>
<time>2026-05-08T02:22:13Z</time></trkpt>
<trkpt lat="40.287226" lon="-8.260885">
<ele>51</ele>
<time>2026-05-08T02:22:16Z</time></trkpt>
<trkpt lat="40.287696" lon="-8.260401">
<ele>45</ele>
<time>2026-05-08T02:22:28Z</time></trkpt>
<trkpt lat="40.287775" lon="-8.260299">
<ele>45</ele>
<time>2026-05-08T02:22:31Z</time></trkpt>
<trkpt lat="40.287845" lon="-8.26019">
<ele>45</ele>
<time>2026-05-08T02:22:33Z</time></trkpt>
<trkpt lat="40.288359" lon="-8.259181">
<ele>44</ele>
<time>2026-05-08T02:22:51Z</time></trkpt>
<trkpt lat="40.288532" lon="-8.258937">
<ele>46</ele>
<time>2026-05-08T02:22:56Z</time></trkpt>
<trkpt lat="40.288658" lon="-8.258796">
<ele>47</ele>
<time>2026-05-08T02:23:00Z</time></trkpt>
<trkpt lat="40.288909" lon="-8.25857">
<ele>48</ele>
<time>2026-05-08T02:23:06Z</time></trkpt>
<trkpt lat="40.289857" lon="-8.257947">
<ele>52</ele>
<time>2026-05-08T02:23:27Z</time></trkpt>
<trkpt lat="40.290309" lon="-8.25768">
<ele>54</ele>
<time>2026-05-08T02:23:37Z</time></trkpt>
<trkpt lat="40.291842" lon="-8.257233">
<ele>51</ele>
<time>2026-05-08T02:24:09Z</time></trkpt>
<trkpt lat="40.291842" lon="-8.257233">
<ele>51</ele>
<time>2026-05-08T02:24:09Z</time></trkpt>
<trkpt lat="40.292416" lon="-8.257065">
<ele>49</ele>
<time>2026-05-08T02:24:20Z</time></trkpt>
<trkpt lat="40.292705" lon="-8.25693">
<ele>49</ele>
<time>2026-05-08T02:24:26Z</time></trkpt>
<trkpt lat="40.293117" lon="-8.256682">
<ele>48</ele>
<time>2026-05-08T02:24:36Z</time></trkpt>
<trkpt lat="40.293563" lon="-8.256266">
<ele>49</ele>
<time>2026-05-08T02:24:47Z</time></trkpt>
<trkpt lat="40.294212" lon="-8.25549">
<ele>48</ele>
<time>2026-05-08T02:25:04Z</time></trkpt>
<trkpt lat="40.294307" lon="-8.255365">
<ele>48</ele>
<time>2026-05-08T02:25:07Z</time></trkpt>
<trkpt lat="40.294653" lon="-8.2549">
<ele>49</ele>
<time>2026-05-08T02:25:17Z</time></trkpt>
<trkpt lat="40.294847" lon="-8.254537">
<ele>50</ele>
<time>2026-05-08T02:25:24Z</time></trkpt>
<trkpt lat="40.29548" lon="-8.253058">
<ele>52</ele>
<time>2026-05-08T02:25:49Z</time></trkpt>
<trkpt lat="40.295639" lon="-8.252594">
<ele>53</ele>
<time>2026-05-08T02:25:57Z</time></trkpt>
<trkpt lat="40.295717" lon="-8.252114">
<ele>51</ele>
<time>2026-05-08T02:26:05Z</time></trkpt>
<trkpt lat="40.295771" lon="-8.251653">
<ele>50</ele>
<time>2026-05-08T02:26:12Z</time></trkpt>
<trkpt lat="40.295789" lon="-8.25069">
<ele>52</ele>
<time>2026-05-08T02:26:27Z</time></trkpt>
<trkpt lat="40.295811" lon="-8.250561">
<ele>52</ele>
<time>2026-05-08T02:26:29Z</time></trkpt>
<trkpt lat="40.296002" lon="-8.249873">
<ele>52</ele>
<time>2026-05-08T02:26:40Z</time></trkpt>
<trkpt lat="40.29603" lon="-8.24972">
<ele>53</ele>
<time>2026-05-08T02:26:42Z</time></trkpt>
<trkpt lat="40.29604" lon="-8.24941">
<ele>54</ele>
<time>2026-05-08T02:26:47Z</time></trkpt>
<trkpt lat="40.296022" lon="-8.248775">
<ele>54</ele>
<time>2026-05-08T02:26:57Z</time></trkpt>
<trkpt lat="40.295979" lon="-8.248411">
<ele>52</ele>
<time>2026-05-08T02:27:02Z</time></trkpt>
<trkpt lat="40.295956" lon="-8.248273">
<ele>51</ele>
<time>2026-05-08T02:27:04Z</time></trkpt>
<trkpt lat="40.295633" lon="-8.24718">
<ele>50</ele>
<time>2026-05-08T02:27:22Z</time></trkpt>
<trkpt lat="40.295585" lon="-8.246933">
<ele>50</ele>
<time>2026-05-08T02:27:26Z</time></trkpt>
<trkpt lat="40.295574" lon="-8.246624">
<ele>49</ele>
<time>2026-05-08T02:27:31Z</time></trkpt>
<trkpt lat="40.295606" lon="-8.246129">
<ele>45</ele>
<time>2026-05-08T02:27:39Z</time></trkpt>
<trkpt lat="40.295646" lon="-8.245441">
<ele>43</ele>
<time>2026-05-08T02:27:49Z</time></trkpt>
<trkpt lat="40.295669" lon="-8.245163">
<ele>44</ele>
<time>2026-05-08T02:27:53Z</time></trkpt>
<trkpt lat="40.295718" lon="-8.244798">
<ele>46</ele>
<time>2026-05-08T02:27:59Z</time></trkpt>
<trkpt lat="40.295764" lon="-8.244618">
<ele>47</ele>
<time>2026-05-08T02:28:02Z</time></trkpt>
<trkpt lat="40.295809" lon="-8.244481">
<ele>48</ele>
<time>2026-05-08T02:28:04Z</time></trkpt>
<trkpt lat="40.295922" lon="-8.244243">
<ele>49</ele>
<time>2026-05-08T02:28:08Z</time></trkpt>
<trkpt lat="40.296353" lon="-8.243532">
<ele>52</ele>
<time>2026-05-08T02:28:22Z</time></trkpt>
<trkpt lat="40.29653" lon="-8.243286">
<ele>51</ele>
<time>2026-05-08T02:28:28Z</time></trkpt>
<trkpt lat="40.297569" lon="-8.242018">
<ele>48</ele>
<time>2026-05-08T02:28:56Z</time></trkpt>
<trkpt lat="40.297681" lon="-8.241838">
<ele>50</ele>
<time>2026-05-08T02:29:00Z</time></trkpt>
<trkpt lat="40.297895" lon="-8.241436">
<ele>55</ele>
<time>2026-05-08T02:29:07Z</time></trkpt>
<trkpt lat="40.298308" lon="-8.240471">
<ele>55</ele>
<time>2026-05-08T02:29:24Z</time></trkpt>
<trkpt lat="40.299431" lon="-8.238263">
<ele>49</ele>
<time>2026-05-08T02:30:04Z</time></trkpt>
<trkpt lat="40.299697" lon="-8.237557">
<ele>49</ele>
<time>2026-05-08T02:30:17Z</time></trkpt>
<trkpt lat="40.299857" lon="-8.237009">
<ele>48</ele>
<time>2026-05-08T02:30:25Z</time></trkpt>
<trkpt lat="40.299993" lon="-8.236301">
<ele>46</ele>
<time>2026-05-08T02:30:37Z</time></trkpt>
<trkpt lat="40.300033" lon="-8.23588">
<ele>48</ele>
<time>2026-05-08T02:30:43Z</time></trkpt>
<trkpt lat="40.300218" lon="-8.233707">
<ele>58</ele>
<time>2026-05-08T02:31:17Z</time></trkpt>
<trkpt lat="40.300294" lon="-8.233155">
<ele>60</ele>
<time>2026-05-08T02:31:25Z</time></trkpt>
<trkpt lat="40.300398" lon="-8.232651">
<ele>60</ele>
<time>2026-05-08T02:31:33Z</time></trkpt>
<trkpt lat="40.300517" lon="-8.232206">
<ele>59</ele>
<time>2026-05-08T02:31:40Z</time></trkpt>
<trkpt lat="40.300626" lon="-8.231915">
<ele>57</ele>
<time>2026-05-08T02:31:45Z</time></trkpt>
<trkpt lat="40.300814" lon="-8.231528">
<ele>56</ele>
<time>2026-05-08T02:31:52Z</time></trkpt>
<trkpt lat="40.300985" lon="-8.231294">
<ele>58</ele>
<time>2026-05-08T02:31:57Z</time></trkpt>
<trkpt lat="40.30179" lon="-8.230508">
<ele>60</ele>
<time>2026-05-08T02:32:17Z</time></trkpt>
<trkpt lat="40.302086" lon="-8.230274">
<ele>59</ele>
<time>2026-05-08T02:32:24Z</time></trkpt>
<trkpt lat="40.302314" lon="-8.230147">
<ele>57</ele>
<time>2026-05-08T02:32:29Z</time></trkpt>
<trkpt lat="40.302886" lon="-8.229933">
<ele>53</ele>
<time>2026-05-08T02:32:41Z</time></trkpt>
<trkpt lat="40.303408" lon="-8.229764">
<ele>52</ele>
<time>2026-05-08T02:32:52Z</time></trkpt>
<trkpt lat="40.303567" lon="-8.229762">
<ele>54</ele>
<time>2026-05-08T02:32:55Z</time></trkpt>
<trkpt lat="40.304073" lon="-8.229973">
<ele>53</ele>
<time>2026-05-08T02:33:06Z</time></trkpt>
<trkpt lat="40.304183" lon="-8.230004">
<ele>53</ele>
<time>2026-05-08T02:33:08Z</time></trkpt>
<trkpt lat="40.304385" lon="-8.23002">
<ele>53</ele>
<time>2026-05-08T02:33:12Z</time></trkpt>
<trkpt lat="40.3047576" lon="-8.230043">
<ele>53</ele>
<time>2026-05-08T02:33:20Z</time></trkpt>
<trkpt lat="40.305487" lon="-8.230088">
<ele>57</ele>
<time>2026-05-08T02:33:34Z</time></trkpt>
<trkpt lat="40.305646" lon="-8.230045">
<ele>59</ele>
<time>2026-05-08T02:33:37Z</time></trkpt>
<trkpt lat="40.305852" lon="-8.229925">
<ele>63</ele>
<time>2026-05-08T02:33:42Z</time></trkpt>
<trkpt lat="40.305996" lon="-8.229918">
<ele>66</ele>
<time>2026-05-08T02:33:45Z</time></trkpt>
<trkpt lat="40.306086" lon="-8.229962">
<ele>67</ele>
<time>2026-05-08T02:33:47Z</time></trkpt>
<trkpt lat="40.306165" lon="-8.230048">
<ele>67</ele>
<time>2026-05-08T02:33:49Z</time></trkpt>
<trkpt lat="40.306213" lon="-8.230182">
<ele>67</ele>
<time>2026-05-08T02:33:51Z</time></trkpt>
<trkpt lat="40.306216" lon="-8.230294">
<ele>67</ele>
<time>2026-05-08T02:33:53Z</time></trkpt>
<trkpt lat="40.30618" lon="-8.230568">
<ele>64</ele>
<time>2026-05-08T02:33:57Z</time></trkpt>
<trkpt lat="40.306234" lon="-8.230741">
<ele>65</ele>
<time>2026-05-08T02:34:00Z</time></trkpt>
<trkpt lat="40.306483" lon="-8.231136">
<ele>67</ele>
<time>2026-05-08T02:34:08Z</time></trkpt>
<trkpt lat="40.306591" lon="-8.231348">
<ele>67</ele>
<time>2026-05-08T02:34:12Z</time></trkpt>
<trkpt lat="40.306591" lon="-8.231348">
<ele>67</ele>
<time>2026-05-08T02:34:12Z</time></trkpt>
<trkpt lat="40.30672" lon="-8.231602">
<ele>66</ele>
<time>2026-05-08T02:34:16Z</time></trkpt>
<trkpt lat="40.306905" lon="-8.2318">
<ele>69</ele>
<time>2026-05-08T02:34:21Z</time></trkpt>
<trkpt lat="40.307044" lon="-8.231726">
<ele>73</ele>
<time>2026-05-08T02:34:24Z</time></trkpt>
<trkpt lat="40.307579" lon="-8.231791">
<ele>86</ele>
<time>2026-05-08T02:34:35Z</time></trkpt>
<trkpt lat="40.308132" lon="-8.231743">
<ele>92</ele>
<time>2026-05-08T02:34:46Z</time></trkpt>
<trkpt lat="40.308215" lon="-8.23178">
<ele>92</ele>
<time>2026-05-08T02:34:48Z</time></trkpt>
<trkpt lat="40.308329" lon="-8.231903">
<ele>92</ele>
<time>2026-05-08T02:34:51Z</time></trkpt>
<trkpt lat="40.308394" lon="-8.232049">
<ele>92</ele>
<time>2026-05-08T02:34:53Z</time></trkpt>
<trkpt lat="40.308402" lon="-8.23225">
<ele>91</ele>
<time>2026-05-08T02:34:56Z</time></trkpt>
<trkpt lat="40.308389" lon="-8.232341">
<ele>90</ele>
<time>2026-05-08T02:34:58Z</time></trkpt>
<trkpt lat="40.30835" lon="-8.232439">
<ele>89</ele>
<time>2026-05-08T02:34:59Z</time></trkpt>
<trkpt lat="40.308136" lon="-8.232759">
<ele>87</ele>
<time>2026-05-08T02:35:06Z</time></trkpt>
<trkpt lat="40.308182" lon="-8.232904">
<ele>89</ele>
<time>2026-05-08T02:35:08Z</time></trkpt>
<trkpt lat="40.308245" lon="-8.233041">
<ele>90</ele>
<time>2026-05-08T02:35:11Z</time></trkpt>
<trkpt lat="40.308575" lon="-8.232845">
<ele>94</ele>
<time>2026-05-08T02:35:18Z</time></trkpt>
<trkpt lat="40.308669" lon="-8.232759">
<ele>96</ele>
<time>2026-05-08T02:35:20Z</time></trkpt>
<trkpt lat="40.308747" lon="-8.232668">
<ele>97</ele>
<time>2026-05-08T02:35:22Z</time></trkpt>
<trkpt lat="40.308863" lon="-8.232367">
<ele>100</ele>
<time>2026-05-08T02:35:28Z</time></trkpt>
<trkpt lat="40.308877" lon="-8.232271">
<ele>100</ele>
<time>2026-05-08T02:35:29Z</time></trkpt>
<trkpt lat="40.308871" lon="-8.232027">
<ele>100</ele>
<time>2026-05-08T02:35:33Z</time></trkpt>
<trkpt lat="40.308697" lon="-8.231439">
<ele>102</ele>
<time>2026-05-08T02:35:42Z</time></trkpt>
<trkpt lat="40.308616" lon="-8.231099">
<ele>105</ele>
<time>2026-05-08T02:35:48Z</time></trkpt>
<trkpt lat="40.308616" lon="-8.23097">
<ele>107</ele>
<time>2026-05-08T02:35:50Z</time></trkpt>
<trkpt lat="40.308671" lon="-8.230715">
<ele>109</ele>
<time>2026-05-08T02:35:54Z</time></trkpt>
<trkpt lat="40.308671" lon="-8.230715">
<ele>109</ele>
<time>2026-05-08T02:35:54Z</time></trkpt>
<trkpt lat="40.308779" lon="-8.230452">
<ele>109</ele>
<time>2026-05-08T02:35:58Z</time></trkpt>
<trkpt lat="40.308854" lon="-8.230364">
<ele>109</ele>
<time>2026-05-08T02:36:00Z</time></trkpt>
<trkpt lat="40.309086" lon="-8.230176">
<ele>112</ele>
<time>2026-05-08T02:36:06Z</time></trkpt>
<trkpt lat="40.309538" lon="-8.229948">
<ele>121</ele>
<time>2026-05-08T02:36:16Z</time></trkpt>
<trkpt lat="40.309618" lon="-8.229884">
<ele>123</ele>
<time>2026-05-08T02:36:18Z</time></trkpt>
<trkpt lat="40.309743" lon="-8.22969">
<ele>126</ele>
<time>2026-05-08T02:36:21Z</time></trkpt>
<trkpt lat="40.309798" lon="-8.229516">
<ele>128</ele>
<time>2026-05-08T02:36:24Z</time></trkpt>
<trkpt lat="40.309826" lon="-8.229315">
<ele>129</ele>
<time>2026-05-08T02:36:27Z</time></trkpt>
<trkpt lat="40.309855" lon="-8.228776">
<ele>131</ele>
<time>2026-05-08T02:36:36Z</time></trkpt>
<trkpt lat="40.309906" lon="-8.228465">
<ele>132</ele>
<time>2026-05-08T02:36:41Z</time></trkpt>
<trkpt lat="40.309953" lon="-8.228347">
<ele>132</ele>
<time>2026-05-08T02:36:43Z</time></trkpt>
<trkpt lat="40.31006" lon="-8.22817">
<ele>135</ele>
<time>2026-05-08T02:36:46Z</time></trkpt>
<trkpt lat="40.310499" lon="-8.227502">
<ele>142</ele>
<time>2026-05-08T02:36:59Z</time></trkpt>
<trkpt lat="40.310565" lon="-8.22737">
<ele>142</ele>
<time>2026-05-08T02:37:02Z</time></trkpt>
<trkpt lat="40.310665" lon="-8.227075">
<ele>143</ele>
<time>2026-05-08T02:37:07Z</time></trkpt>
<trkpt lat="40.310712" lon="-8.226813">
<ele>143</ele>
<time>2026-05-08T02:37:11Z</time></trkpt>
<trkpt lat="40.310701" lon="-8.226467">
<ele>143</ele>
<time>2026-05-08T02:37:16Z</time></trkpt>
<trkpt lat="40.310647" lon="-8.226131">
<ele>143</ele>
<time>2026-05-08T02:37:21Z</time></trkpt>
<trkpt lat="40.310565" lon="-8.225669">
<ele>144</ele>
<time>2026-05-08T02:37:29Z</time></trkpt>
<trkpt lat="40.310368" lon="-8.224339">
<ele>150</ele>
<time>2026-05-08T02:37:49Z</time></trkpt>
<trkpt lat="40.310291" lon="-8.2239049">
<ele>152</ele>
<time>2026-05-08T02:37:56Z</time></trkpt>
<trkpt lat="40.310272" lon="-8.223798">
<ele>152</ele>
<time>2026-05-08T02:37:58Z</time></trkpt>
<trkpt lat="40.310232" lon="-8.223483">
<ele>153</ele>
<time>2026-05-08T02:38:03Z</time></trkpt>
<trkpt lat="40.310232" lon="-8.223284">
<ele>153</ele>
<time>2026-05-08T02:38:06Z</time></trkpt>
<trkpt lat="40.310273" lon="-8.222951">
<ele>155</ele>
<time>2026-05-08T02:38:11Z</time></trkpt>
<trkpt lat="40.310291" lon="-8.222759">
<ele>155</ele>
<time>2026-05-08T02:38:14Z</time></trkpt>
<trkpt lat="40.310285" lon="-8.222419">
<ele>158</ele>
<time>2026-05-08T02:38:19Z</time></trkpt>
<trkpt lat="40.310314" lon="-8.222338">
<ele>158</ele>
<time>2026-05-08T02:38:20Z</time></trkpt>
<trkpt lat="40.310247" lon="-8.222199">
<ele>161</ele>
<time>2026-05-08T02:38:23Z</time></trkpt>
<trkpt lat="40.310221" lon="-8.222107">
<ele>162</ele>
<time>2026-05-08T02:38:25Z</time></trkpt>
<trkpt lat="40.310215" lon="-8.222013">
<ele>164</ele>
<time>2026-05-08T02:38:26Z</time></trkpt>
<trkpt lat="40.310228" lon="-8.221906">
<ele>165</ele>
<time>2026-05-08T02:38:28Z</time></trkpt>
<trkpt lat="40.310262" lon="-8.221818">
<ele>165</ele>
<time>2026-05-08T02:38:29Z</time></trkpt>
<trkpt lat="40.310515" lon="-8.221453">
<ele>164</ele>
<time>2026-05-08T02:38:37Z</time></trkpt>
<trkpt lat="40.310925" lon="-8.220906">
<ele>163</ele>
<time>2026-05-08T02:38:48Z</time></trkpt>
<trkpt lat="40.311097" lon="-8.220616">
<ele>162</ele>
<time>2026-05-08T02:38:54Z</time></trkpt>
<trkpt lat="40.311434" lon="-8.219653">
<ele>159</ele>
<time>2026-05-08T02:39:10Z</time></trkpt>
<trkpt lat="40.311688" lon="-8.219183">
<ele>157</ele>
<time>2026-05-08T02:39:19Z</time></trkpt>
<trkpt lat="40.312543" lon="-8.217595">
<ele>156</ele>
<time>2026-05-08T02:39:49Z</time></trkpt>
<trkpt lat="40.312614" lon="-8.217434">
<ele>157</ele>
<time>2026-05-08T02:39:52Z</time></trkpt>
<trkpt lat="40.312692" lon="-8.217161">
<ele>160</ele>
<time>2026-05-08T02:39:56Z</time></trkpt>
<trkpt lat="40.312731" lon="-8.216812">
<ele>163</ele>
<time>2026-05-08T02:40:01Z</time></trkpt>
<trkpt lat="40.312745" lon="-8.216536">
<ele>165</ele>
<time>2026-05-08T02:40:06Z</time></trkpt>
<trkpt lat="40.312774" lon="-8.216378">
<ele>166</ele>
<time>2026-05-08T02:40:08Z</time></trkpt>
<trkpt lat="40.312958" lon="-8.215712">
<ele>172</ele>
<time>2026-05-08T02:40:19Z</time></trkpt>
<trkpt lat="40.312989" lon="-8.215541">
<ele>172</ele>
<time>2026-05-08T02:40:22Z</time></trkpt>
<trkpt lat="40.312995" lon="-8.215391">
<ele>173</ele>
<time>2026-05-08T02:40:24Z</time></trkpt>
<trkpt lat="40.312981" lon="-8.215302">
<ele>173</ele>
<time>2026-05-08T02:40:25Z</time></trkpt>
<trkpt lat="40.312899" lon="-8.214999">
<ele>173</ele>
<time>2026-05-08T02:40:30Z</time></trkpt>
<trkpt lat="40.312852" lon="-8.214881">
<ele>174</ele>
<time>2026-05-08T02:40:32Z</time></trkpt>
<trkpt lat="40.312454" lon="-8.21434">
<ele>176</ele>
<time>2026-05-08T02:40:44Z</time></trkpt>
<trkpt lat="40.31236" lon="-8.214113">
<ele>177</ele>
<time>2026-05-08T02:40:48Z</time></trkpt>
<trkpt lat="40.312307" lon="-8.213986">
<ele>177</ele>
<time>2026-05-08T02:40:50Z</time></trkpt>
<trkpt lat="40.31234" lon="-8.213611">
<ele>177</ele>
<time>2026-05-08T02:40:56Z</time></trkpt>
<trkpt lat="40.312461" lon="-8.213148">
<ele>175</ele>
<time>2026-05-08T02:41:03Z</time></trkpt>
<trkpt lat="40.31259" lon="-8.212786">
<ele>172</ele>
<time>2026-05-08T02:41:09Z</time></trkpt>
<trkpt lat="40.312607" lon="-8.212677">
<ele>171</ele>
<time>2026-05-08T02:41:11Z</time></trkpt>
<trkpt lat="40.312607" lon="-8.212677">
<ele>171</ele>
<time>2026-05-08T02:41:11Z</time></trkpt>
<trkpt lat="40.312604" lon="-8.212435">
<ele>170</ele>
<time>2026-05-08T02:41:15Z</time></trkpt>
<trkpt lat="40.312584" lon="-8.212287">
<ele>171</ele>
<time>2026-05-08T02:41:17Z</time></trkpt>
<trkpt lat="40.312484" lon="-8.211944">
<ele>172</ele>
<time>2026-05-08T02:41:23Z</time></trkpt>
<trkpt lat="40.312312" lon="-8.211493">
<ele>172</ele>
<time>2026-05-08T02:41:30Z</time></trkpt>
<trkpt lat="40.311866" lon="-8.21063">
<ele>171</ele>
<time>2026-05-08T02:41:46Z</time></trkpt>
<trkpt lat="40.311665" lon="-8.210305">
<ele>172</ele>
<time>2026-05-08T02:41:53Z</time></trkpt>
<trkpt lat="40.311453" lon="-8.210077">
<ele>171</ele>
<time>2026-05-08T02:41:58Z</time></trkpt>
<trkpt lat="40.310268" lon="-8.208563">
<ele>168</ele>
<time>2026-05-08T02:42:31Z</time></trkpt>
<trkpt lat="40.309337" lon="-8.207388">
<ele>166</ele>
<time>2026-05-08T02:42:57Z</time></trkpt>
<trkpt lat="40.308887" lon="-8.206433">
<ele>171</ele>
<time>2026-05-08T02:43:14Z</time></trkpt>
<trkpt lat="40.308577" lon="-8.205693">
<ele>170</ele>
<time>2026-05-08T02:43:27Z</time></trkpt>
<trkpt lat="40.308517" lon="-8.205455">
<ele>169</ele>
<time>2026-05-08T02:43:31Z</time></trkpt>
<trkpt lat="40.308372" lon="-8.204877">
<ele>167</ele>
<time>2026-05-08T02:43:40Z</time></trkpt>
<trkpt lat="40.308291" lon="-8.204732">
<ele>167</ele>
<time>2026-05-08T02:43:43Z</time></trkpt>
<trkpt lat="40.307924" lon="-8.204337">
<ele>165</ele>
<time>2026-05-08T02:43:53Z</time></trkpt>
<trkpt lat="40.307827" lon="-8.204211">
<ele>164</ele>
<time>2026-05-08T02:43:55Z</time></trkpt>
<trkpt lat="40.307758" lon="-8.204077">
<ele>163</ele>
<time>2026-05-08T02:43:58Z</time></trkpt>
<trkpt lat="40.307721" lon="-8.203929">
<ele>163</ele>
<time>2026-05-08T02:44:00Z</time></trkpt>
<trkpt lat="40.307703" lon="-8.203776">
<ele>163</ele>
<time>2026-05-08T02:44:02Z</time></trkpt>
<trkpt lat="40.307692" lon="-8.203492">
<ele>163</ele>
<time>2026-05-08T02:44:07Z</time></trkpt>
<trkpt lat="40.307709" lon="-8.203171">
<ele>164</ele>
<time>2026-05-08T02:44:12Z</time></trkpt>
<trkpt lat="40.307788" lon="-8.202937">
<ele>164</ele>
<time>2026-05-08T02:44:16Z</time></trkpt>
<trkpt lat="40.307836" lon="-8.202845">
<ele>165</ele>
<time>2026-05-08T02:44:17Z</time></trkpt>
<trkpt lat="40.307911" lon="-8.202636">
<ele>165</ele>
<time>2026-05-08T02:44:21Z</time></trkpt>
<trkpt lat="40.307924" lon="-8.202518">
<ele>165</ele>
<time>2026-05-08T02:44:23Z</time></trkpt>
<trkpt lat="40.30795" lon="-8.201582">
<ele>162</ele>
<time>2026-05-08T02:44:37Z</time></trkpt>
<trkpt lat="40.307987" lon="-8.200944">
<ele>160</ele>
<time>2026-05-08T02:44:47Z</time></trkpt>
<trkpt lat="40.307979" lon="-8.200725">
<ele>160</ele>
<time>2026-05-08T02:44:50Z</time></trkpt>
<trkpt lat="40.307956" lon="-8.200582">
<ele>160</ele>
<time>2026-05-08T02:44:52Z</time></trkpt>
<trkpt lat="40.307901" lon="-8.20041">
<ele>161</ele>
<time>2026-05-08T02:44:55Z</time></trkpt>
<trkpt lat="40.307848" lon="-8.200311">
<ele>161</ele>
<time>2026-05-08T02:44:57Z</time></trkpt>
<trkpt lat="40.307617" lon="-8.2">
<ele>160</ele>
<time>2026-05-08T02:45:04Z</time></trkpt>
<trkpt lat="40.307578" lon="-8.199911">
<ele>160</ele>
<time>2026-05-08T02:45:05Z</time></trkpt>
<trkpt lat="40.307531" lon="-8.199723">
<ele>160</ele>
<time>2026-05-08T02:45:08Z</time></trkpt>
<trkpt lat="40.307529" lon="-8.19953">
<ele>160</ele>
<time>2026-05-08T02:45:11Z</time></trkpt>
<trkpt lat="40.307566" lon="-8.199348">
<ele>161</ele>
<time>2026-05-08T02:45:14Z</time></trkpt>
<trkpt lat="40.307598" lon="-8.199262">
<ele>161</ele>
<time>2026-05-08T02:45:16Z</time></trkpt>
<trkpt lat="40.30768" lon="-8.199123">
<ele>161</ele>
<time>2026-05-08T02:45:18Z</time></trkpt>
<trkpt lat="40.307764" lon="-8.199034">
<ele>162</ele>
<time>2026-05-08T02:45:20Z</time></trkpt>
<trkpt lat="40.308012" lon="-8.19888">
<ele>162</ele>
<time>2026-05-08T02:45:26Z</time></trkpt>
<trkpt lat="40.30839" lon="-8.198743">
<ele>161</ele>
<time>2026-05-08T02:45:34Z</time></trkpt>
<trkpt lat="40.308597" lon="-8.198612">
<ele>161</ele>
<time>2026-05-08T02:45:38Z</time></trkpt>
<trkpt lat="40.308729" lon="-8.198476">
<ele>161</ele>
<time>2026-05-08T02:45:42Z</time></trkpt>
<trkpt lat="40.308782" lon="-8.198393">
<ele>161</ele>
<time>2026-05-08T02:45:43Z</time></trkpt>
<trkpt lat="40.308838" lon="-8.198288">
<ele>161</ele>
<time>2026-05-08T02:45:45Z</time></trkpt>
<trkpt lat="40.308912" lon="-8.198058">
<ele>162</ele>
<time>2026-05-08T02:45:49Z</time></trkpt>
<trkpt lat="40.308932" lon="-8.197927">
<ele>162</ele>
<time>2026-05-08T02:45:51Z</time></trkpt>
<trkpt lat="40.308991" lon="-8.196125">
<ele>160</ele>
<time>2026-05-08T02:46:19Z</time></trkpt>
<trkpt lat="40.308961" lon="-8.195897">
<ele>160</ele>
<time>2026-05-08T02:46:22Z</time></trkpt>
<trkpt lat="40.308923" lon="-8.195759">
<ele>160</ele>
<time>2026-05-08T02:46:25Z</time></trkpt>
<trkpt lat="40.308711" lon="-8.195257">
<ele>160</ele>
<time>2026-05-08T02:46:33Z</time></trkpt>
<trkpt lat="40.308683" lon="-8.19516">
<ele>160</ele>
<time>2026-05-08T02:46:35Z</time></trkpt>
<trkpt lat="40.308652" lon="-8.194947">
<ele>160</ele>
<time>2026-05-08T02:46:38Z</time></trkpt>
<trkpt lat="40.308655" lon="-8.19482">
<ele>160</ele>
<time>2026-05-08T02:46:40Z</time></trkpt>
<trkpt lat="40.30868" lon="-8.194682">
<ele>160</ele>
<time>2026-05-08T02:46:42Z</time></trkpt>
<trkpt lat="40.308747" lon="-8.194486">
<ele>160</ele>
<time>2026-05-08T02:46:46Z</time></trkpt>
<trkpt lat="40.308926" lon="-8.194124">
<ele>159</ele>
<time>2026-05-08T02:46:52Z</time></trkpt>
<trkpt lat="40.308987" lon="-8.193965">
<ele>159</ele>
<time>2026-05-08T02:46:55Z</time></trkpt>
<trkpt lat="40.309059" lon="-8.193677">
<ele>158</ele>
<time>2026-05-08T02:47:00Z</time></trkpt>
<trkpt lat="40.309073" lon="-8.193528">
<ele>157</ele>
<time>2026-05-08T02:47:02Z</time></trkpt>
<trkpt lat="40.309067" lon="-8.193247">
<ele>157</ele>
<time>2026-05-08T02:47:06Z</time></trkpt>
<trkpt lat="40.308986" lon="-8.192432">
<ele>158</ele>
<time>2026-05-08T02:47:19Z</time></trkpt>
<trkpt lat="40.308978" lon="-8.192197">
<ele>159</ele>
<time>2026-05-08T02:47:22Z</time></trkpt>
<trkpt lat="40.308969" lon="-8.191949">
<ele>160</ele>
<time>2026-05-08T02:47:26Z</time></trkpt>
<trkpt lat="40.309021" lon="-8.191448">
<ele>161</ele>
<time>2026-05-08T02:47:34Z</time></trkpt>
<trkpt lat="40.309048" lon="-8.190844">
<ele>164</ele>
<time>2026-05-08T02:47:43Z</time></trkpt>
<trkpt lat="40.309022" lon="-8.190657">
<ele>167</ele>
<time>2026-05-08T02:47:46Z</time></trkpt>
<trkpt lat="40.308964" lon="-8.190436">
<ele>169</ele>
<time>2026-05-08T02:47:50Z</time></trkpt>
<trkpt lat="40.308822" lon="-8.190029">
<ele>174</ele>
<time>2026-05-08T02:47:56Z</time></trkpt>
<trkpt lat="40.30864" lon="-8.189453">
<ele>179</ele>
<time>2026-05-08T02:48:06Z</time></trkpt>
<trkpt lat="40.308607" lon="-8.189311">
<ele>181</ele>
<time>2026-05-08T02:48:08Z</time></trkpt>
<trkpt lat="40.30859" lon="-8.18918">
<ele>182</ele>
<time>2026-05-08T02:48:10Z</time></trkpt>
<trkpt lat="40.308595" lon="-8.189005">
<ele>182</ele>
<time>2026-05-08T02:48:13Z</time></trkpt>
<trkpt lat="40.308652" lon="-8.18878">
<ele>182</ele>
<time>2026-05-08T02:48:16Z</time></trkpt>
<trkpt lat="40.308809" lon="-8.188611">
<ele>183</ele>
<time>2026-05-08T02:48:21Z</time></trkpt>
<trkpt lat="40.308891" lon="-8.188568">
<ele>184</ele>
<time>2026-05-08T02:48:22Z</time></trkpt>
<trkpt lat="40.309052" lon="-8.188546">
<ele>185</ele>
<time>2026-05-08T02:48:26Z</time></trkpt>
<trkpt lat="40.309052" lon="-8.188546">
<ele>185</ele>
<time>2026-05-08T02:48:26Z</time></trkpt>
<trkpt lat="40.309237" lon="-8.188541">
<ele>186</ele>
<time>2026-05-08T02:48:29Z</time></trkpt>
<trkpt lat="40.30931" lon="-8.188547">
<ele>186</ele>
<time>2026-05-08T02:48:31Z</time></trkpt>
<trkpt lat="40.309848" lon="-8.188601">
<ele>186</ele>
<time>2026-05-08T02:48:42Z</time></trkpt>
<trkpt lat="40.310046" lon="-8.188679">
<ele>185</ele>
<time>2026-05-08T02:48:46Z</time></trkpt>
<trkpt lat="40.310301" lon="-8.188849">
<ele>182</ele>
<time>2026-05-08T02:48:51Z</time></trkpt>
<trkpt lat="40.310585" lon="-8.189013">
<ele>179</ele>
<time>2026-05-08T02:48:58Z</time></trkpt>
<trkpt lat="40.310759" lon="-8.188957">
<ele>180</ele>
<time>2026-05-08T02:49:01Z</time></trkpt>
<trkpt lat="40.310861" lon="-8.188818">
<ele>182</ele>
<time>2026-05-08T02:49:04Z</time></trkpt>
<trkpt lat="40.310887" lon="-8.188721">
<ele>184</ele>
<time>2026-05-08T02:49:06Z</time></trkpt>
<trkpt lat="40.310957" lon="-8.187926">
<ele>191</ele>
<time>2026-05-08T02:49:18Z</time></trkpt>
<trkpt lat="40.311137" lon="-8.186874">
<ele>191</ele>
<time>2026-05-08T02:49:34Z</time></trkpt>
<trkpt lat="40.311151" lon="-8.186708">
<ele>191</ele>
<time>2026-05-08T02:49:37Z</time></trkpt>
<trkpt lat="40.311143" lon="-8.186502">
<ele>190</ele>
<time>2026-05-08T02:49:40Z</time></trkpt>
<trkpt lat="40.311121" lon="-8.186341">
<ele>189</ele>
<time>2026-05-08T02:49:43Z</time></trkpt>
<trkpt lat="40.311088" lon="-8.186209">
<ele>189</ele>
<time>2026-05-08T02:49:45Z</time></trkpt>
<trkpt lat="40.310957" lon="-8.185893">
<ele>188</ele>
<time>2026-05-08T02:49:50Z</time></trkpt>
<trkpt lat="40.310838" lon="-8.185584">
<ele>190</ele>
<time>2026-05-08T02:49:56Z</time></trkpt>
<trkpt lat="40.310761" lon="-8.185383">
<ele>190</ele>
<time>2026-05-08T02:49:59Z</time></trkpt>
<trkpt lat="40.310736" lon="-8.185273">
<ele>190</ele>
<time>2026-05-08T02:50:01Z</time></trkpt>
<trkpt lat="40.310716" lon="-8.185088">
<ele>191</ele>
<time>2026-05-08T02:50:04Z</time></trkpt>
<trkpt lat="40.310743" lon="-8.183507">
<ele>191</ele>
<time>2026-05-08T02:50:28Z</time></trkpt>
<trkpt lat="40.310761" lon="-8.182519">
<ele>192</ele>
<time>2026-05-08T02:50:43Z</time></trkpt>
<trkpt lat="40.310728" lon="-8.182027">
<ele>194</ele>
<time>2026-05-08T02:50:50Z</time></trkpt>
<trkpt lat="40.310694" lon="-8.181766">
<ele>195</ele>
<time>2026-05-08T02:50:54Z</time></trkpt>
<trkpt lat="40.310793" lon="-8.181692">
<ele>196</ele>
<time>2026-05-08T02:50:57Z</time></trkpt>
<trkpt lat="40.310863" lon="-8.181692">
<ele>196</ele>
<time>2026-05-08T02:50:58Z</time></trkpt>
<trkpt lat="40.311023" lon="-8.181757">
<ele>196</ele>
<time>2026-05-08T02:51:02Z</time></trkpt>
<trkpt lat="40.31143" lon="-8.181793">
<ele>197</ele>
<time>2026-05-08T02:51:10Z</time></trkpt>
<trkpt lat="40.311849" lon="-8.181916">
<ele>200</ele>
<time>2026-05-08T02:51:18Z</time></trkpt>
<trkpt lat="40.311934" lon="-8.181959">
<ele>201</ele>
<time>2026-05-08T02:51:20Z</time></trkpt>
<trkpt lat="40.312221" lon="-8.182173">
<ele>204</ele>
<time>2026-05-08T02:51:27Z</time></trkpt>
<trkpt lat="40.312653" lon="-8.182544">
<ele>208</ele>
<time>2026-05-08T02:51:37Z</time></trkpt>
<trkpt lat="40.313628" lon="-8.183395">
<ele>206</ele>
<time>2026-05-08T02:52:01Z</time></trkpt>
<trkpt lat="40.313903" lon="-8.183632">
<ele>207</ele>
<time>2026-05-08T02:52:07Z</time></trkpt>
<trkpt lat="40.313903" lon="-8.183632">
<ele>207</ele>
<time>2026-05-08T02:52:07Z</time></trkpt>
<trkpt lat="40.315245" lon="-8.184789">
<ele>206</ele>
<time>2026-05-08T02:52:39Z</time></trkpt>
<trkpt lat="40.315415" lon="-8.184907">
<ele>206</ele>
<time>2026-05-08T02:52:43Z</time></trkpt>
<trkpt lat="40.315607" lon="-8.185008">
<ele>208</ele>
<time>2026-05-08T02:52:47Z</time></trkpt>
<trkpt lat="40.315884" lon="-8.185099">
<ele>210</ele>
<time>2026-05-08T02:52:53Z</time></trkpt>
<trkpt lat="40.315946" lon="-8.18511">
<ele>210</ele>
<time>2026-05-08T02:52:54Z</time></trkpt>
<trkpt lat="40.316073" lon="-8.185121">
<ele>210</ele>
<time>2026-05-08T02:52:57Z</time></trkpt>
<trkpt lat="40.316237" lon="-8.185108">
<ele>210</ele>
<time>2026-05-08T02:53:00Z</time></trkpt>
<trkpt lat="40.316607" lon="-8.185031">
<ele>209</ele>
<time>2026-05-08T02:53:08Z</time></trkpt>
<trkpt lat="40.316932" lon="-8.184897">
<ele>207</ele>
<time>2026-05-08T02:53:14Z</time></trkpt>
<trkpt lat="40.317725" lon="-8.184506">
<ele>208</ele>
<time>2026-05-08T02:53:31Z</time></trkpt>
<trkpt lat="40.318637" lon="-8.183997">
<ele>218</ele>
<time>2026-05-08T02:53:51Z</time></trkpt>
<trkpt lat="40.3198646" lon="-8.1832662">
<ele>216</ele>
<time>2026-05-08T02:54:18Z</time></trkpt>
<trkpt lat="40.319932" lon="-8.183226">
<ele>215</ele>
<time>2026-05-08T02:54:20Z</time></trkpt>
<trkpt lat="40.320491" lon="-8.182902">
<ele>214</ele>
<time>2026-05-08T02:54:32Z</time></trkpt>
<trkpt lat="40.320843" lon="-8.182779">
<ele>214</ele>
<time>2026-05-08T02:54:39Z</time></trkpt>
<trkpt lat="40.321241" lon="-8.182741">
<ele>215</ele>
<time>2026-05-08T02:54:47Z</time></trkpt>
<trkpt lat="40.321458" lon="-8.182765">
<ele>216</ele>
<time>2026-05-08T02:54:52Z</time></trkpt>
<trkpt lat="40.321694" lon="-8.182829">
<ele>218</ele>
<time>2026-05-08T02:54:57Z</time></trkpt>
<trkpt lat="40.322016" lon="-8.182995">
<ele>218</ele>
<time>2026-05-08T02:55:03Z</time></trkpt>
<trkpt lat="40.322337" lon="-8.183274">
<ele>219</ele>
<time>2026-05-08T02:55:11Z</time></trkpt>
<trkpt lat="40.322601" lon="-8.183573">
<ele>216</ele>
<time>2026-05-08T02:55:18Z</time></trkpt>
<trkpt lat="40.322682" lon="-8.183672">
<ele>214</ele>
<time>2026-05-08T02:55:20Z</time></trkpt>
<trkpt lat="40.323972" lon="-8.185276">
<ele>197</ele>
<time>2026-05-08T02:55:56Z</time></trkpt>
<trkpt lat="40.324127" lon="-8.185454">
<ele>196</ele>
<time>2026-05-08T02:56:00Z</time></trkpt>
<trkpt lat="40.324381" lon="-8.185705">
<ele>194</ele>
<time>2026-05-08T02:56:07Z</time></trkpt>
<trkpt lat="40.32459" lon="-8.185856">
<ele>194</ele>
<time>2026-05-08T02:56:11Z</time></trkpt>
<trkpt lat="40.324782" lon="-8.185995">
<ele>195</ele>
<time>2026-05-08T02:56:16Z</time></trkpt>
<trkpt lat="40.325052" lon="-8.186133">
<ele>195</ele>
<time>2026-05-08T02:56:22Z</time></trkpt>
<trkpt lat="40.325547" lon="-8.186298">
<ele>197</ele>
<time>2026-05-08T02:56:32Z</time></trkpt>
<trkpt lat="40.32667" lon="-8.186528">
<ele>202</ele>
<time>2026-05-08T02:56:55Z</time></trkpt>
<trkpt lat="40.328837" lon="-8.186919">
<ele>203</ele>
<time>2026-05-08T02:57:38Z</time></trkpt>
<trkpt lat="40.32958" lon="-8.187039">
<ele>205</ele>
<time>2026-05-08T02:57:53Z</time></trkpt>
<trkpt lat="40.330043" lon="-8.187159">
<ele>207</ele>
<time>2026-05-08T02:58:03Z</time></trkpt>
<trkpt lat="40.330406" lon="-8.18728">
<ele>205</ele>
<time>2026-05-08T02:58:10Z</time></trkpt>
<trkpt lat="40.330605" lon="-8.187382">
<ele>205</ele>
<time>2026-05-08T02:58:15Z</time></trkpt>
<trkpt lat="40.330791" lon="-8.187508">
<ele>205</ele>
<time>2026-05-08T02:58:19Z</time></trkpt>
<trkpt lat="40.331085" lon="-8.187755">
<ele>201</ele>
<time>2026-05-08T02:58:26Z</time></trkpt>
<trkpt lat="40.331445" lon="-8.188111">
<ele>198</ele>
<time>2026-05-08T02:58:35Z</time></trkpt>
<trkpt lat="40.33282" lon="-8.189599">
<ele>177</ele>
<time>2026-05-08T02:59:11Z</time></trkpt>
<trkpt lat="40.333214" lon="-8.189939">
<ele>176</ele>
<time>2026-05-08T02:59:20Z</time></trkpt>
<trkpt lat="40.333575" lon="-8.190151">
<ele>171</ele>
<time>2026-05-08T02:59:28Z</time></trkpt>
<trkpt lat="40.334038" lon="-8.19029">
<ele>165</ele>
<time>2026-05-08T02:59:37Z</time></trkpt>
<trkpt lat="40.334322" lon="-8.19032">
<ele>164</ele>
<time>2026-05-08T02:59:43Z</time></trkpt>
<trkpt lat="40.334482" lon="-8.190318">
<ele>164</ele>
<time>2026-05-08T02:59:46Z</time></trkpt>
<trkpt lat="40.334766" lon="-8.190272">
<ele>163</ele>
<time>2026-05-08T02:59:52Z</time></trkpt>
<trkpt lat="40.335152" lon="-8.190182">
<ele>164</ele>
<time>2026-05-08T03:00:00Z</time></trkpt>
<trkpt lat="40.336067" lon="-8.189857">
<ele>167</ele>
<time>2026-05-08T03:00:19Z</time></trkpt>
<trkpt lat="40.336469" lon="-8.189734">
<ele>165</ele>
<time>2026-05-08T03:00:27Z</time></trkpt>
<trkpt lat="40.336769" lon="-8.189737">
<ele>164</ele>
<time>2026-05-08T03:00:33Z</time></trkpt>
<trkpt lat="40.337059" lon="-8.189843">
<ele>162</ele>
<time>2026-05-08T03:00:39Z</time></trkpt>
<trkpt lat="40.337328" lon="-8.190042">
<ele>161</ele>
<time>2026-05-08T03:00:45Z</time></trkpt>
<trkpt lat="40.337568" lon="-8.190304">
<ele>158</ele>
<time>2026-05-08T03:00:52Z</time></trkpt>
<trkpt lat="40.337882" lon="-8.190735">
<ele>156</ele>
<time>2026-05-08T03:01:01Z</time></trkpt>
<trkpt lat="40.337958" lon="-8.190851">
<ele>156</ele>
<time>2026-05-08T03:01:03Z</time></trkpt>
<trkpt lat="40.33841" lon="-8.191581">
<ele>149</ele>
<time>2026-05-08T03:01:17Z</time></trkpt>
<trkpt lat="40.338518" lon="-8.191782">
<ele>149</ele>
<time>2026-05-08T03:01:21Z</time></trkpt>
<trkpt lat="40.338693" lon="-8.192168">
<ele>149</ele>
<time>2026-05-08T03:01:28Z</time></trkpt>
<trkpt lat="40.339669" lon="-8.194359">
<ele>125</ele>
<time>2026-05-08T03:02:07Z</time></trkpt>
<trkpt lat="40.3398108" lon="-8.1947598">
<ele>120</ele>
<time>2026-05-08T03:02:14Z</time></trkpt>
<trkpt lat="40.339842" lon="-8.194848">
<ele>119</ele>
<time>2026-05-08T03:02:15Z</time></trkpt>
<trkpt lat="40.339991" lon="-8.1962">
<ele>98</ele>
<time>2026-05-08T03:02:36Z</time></trkpt>
<trkpt lat="40.340058" lon="-8.196412">
<ele>92</ele>
<time>2026-05-08T03:02:39Z</time></trkpt>
<trkpt lat="40.340465" lon="-8.197052">
<ele>91</ele>
<time>2026-05-08T03:02:52Z</time></trkpt>
<trkpt lat="40.340613" lon="-8.197186">
<ele>94</ele>
<time>2026-05-08T03:02:56Z</time></trkpt>
<trkpt lat="40.341587" lon="-8.197665">
<ele>122</ele>
<time>2026-05-08T03:03:17Z</time></trkpt>
<trkpt lat="40.341851" lon="-8.197773">
<ele>129</ele>
<time>2026-05-08T03:03:22Z</time></trkpt>
<trkpt lat="40.342027" lon="-8.197766">
<ele>131</ele>
<time>2026-05-08T03:03:26Z</time></trkpt>
<trkpt lat="40.342092" lon="-8.197757">
<ele>132</ele>
<time>2026-05-08T03:03:27Z</time></trkpt>
<trkpt lat="40.342738" lon="-8.197627">
<ele>139</ele>
<time>2026-05-08T03:03:40Z</time></trkpt>
<trkpt lat="40.343016" lon="-8.197535">
<ele>142</ele>
<time>2026-05-08T03:03:46Z</time></trkpt>
<trkpt lat="40.343369" lon="-8.197343">
<ele>145</ele>
<time>2026-05-08T03:03:54Z</time></trkpt>
<trkpt lat="40.343863" lon="-8.197005">
<ele>146</ele>
<time>2026-05-08T03:04:05Z</time></trkpt>
<trkpt lat="40.343863" lon="-8.197005">
<ele>146</ele>
<time>2026-05-08T03:04:05Z</time></trkpt>
<trkpt lat="40.344273" lon="-8.196724">
<ele>147</ele>
<time>2026-05-08T03:04:14Z</time></trkpt>
<trkpt lat="40.344553" lon="-8.196604">
<ele>148</ele>
<time>2026-05-08T03:04:20Z</time></trkpt>
<trkpt lat="40.344769" lon="-8.196563">
<ele>151</ele>
<time>2026-05-08T03:04:24Z</time></trkpt>
<trkpt lat="40.34491" lon="-8.196573">
<ele>153</ele>
<time>2026-05-08T03:04:27Z</time></trkpt>
<trkpt lat="40.345164" lon="-8.196628">
<ele>156</ele>
<time>2026-05-08T03:04:32Z</time></trkpt>
<trkpt lat="40.34527" lon="-8.196676">
<ele>157</ele>
<time>2026-05-08T03:04:34Z</time></trkpt>
<trkpt lat="40.345442" lon="-8.196777">
<ele>160</ele>
<time>2026-05-08T03:04:38Z</time></trkpt>
<trkpt lat="40.345718" lon="-8.197002">
<ele>165</ele>
<time>2026-05-08T03:04:45Z</time></trkpt>
<trkpt lat="40.347976" lon="-8.199216">
<ele>186</ele>
<time>2026-05-08T03:05:41Z</time></trkpt>
<trkpt lat="40.34832" lon="-8.199636">
<ele>187</ele>
<time>2026-05-08T03:05:51Z</time></trkpt>
<trkpt lat="40.348426" lon="-8.199787">
<ele>188</ele>
<time>2026-05-08T03:05:54Z</time></trkpt>
<trkpt lat="40.349605" lon="-8.20173">
<ele>181</ele>
<time>2026-05-08T03:06:32Z</time></trkpt>
<trkpt lat="40.350001" lon="-8.202366">
<ele>178</ele>
<time>2026-05-08T03:06:44Z</time></trkpt>
<trkpt lat="40.350172" lon="-8.202567">
<ele>177</ele>
<time>2026-05-08T03:06:49Z</time></trkpt>
<trkpt lat="40.350317" lon="-8.202659">
<ele>178</ele>
<time>2026-05-08T03:06:52Z</time></trkpt>
<trkpt lat="40.350557" lon="-8.202717">
<ele>178</ele>
<time>2026-05-08T03:06:57Z</time></trkpt>
<trkpt lat="40.350583" lon="-8.202462">
<ele>180</ele>
<time>2026-05-08T03:07:01Z</time></trkpt>
<trkpt lat="40.350648" lon="-8.202201">
<ele>183</ele>
<time>2026-05-08T03:07:05Z</time></trkpt>
<trkpt lat="40.350738" lon="-8.201992">
<ele>185</ele>
<time>2026-05-08T03:07:09Z</time></trkpt>
<trkpt lat="40.350878" lon="-8.201869">
<ele>187</ele>
<time>2026-05-08T03:07:12Z</time></trkpt>
<trkpt lat="40.351445" lon="-8.201127">
<ele>184</ele>
<time>2026-05-08T03:07:28Z</time></trkpt>
<trkpt lat="40.35181" lon="-8.200668">
<ele>179</ele>
<time>2026-05-08T03:07:38Z</time></trkpt>
<trkpt lat="40.352469" lon="-8.199926">
<ele>177</ele>
<time>2026-05-08T03:07:56Z</time></trkpt>
<trkpt lat="40.353327" lon="-8.199071">
<ele>176</ele>
<time>2026-05-08T03:08:17Z</time></trkpt>
<trkpt lat="40.35429" lon="-8.198155">
<ele>182</ele>
<time>2026-05-08T03:08:41Z</time></trkpt>
<trkpt lat="40.354837" lon="-8.197576">
<ele>188</ele>
<time>2026-05-08T03:08:55Z</time></trkpt>
<trkpt lat="40.355383" lon="-8.196943">
<ele>191</ele>
<time>2026-05-08T03:09:10Z</time></trkpt>
<trkpt lat="40.355574" lon="-8.196629">
<ele>190</ele>
<time>2026-05-08T03:09:16Z</time></trkpt>
<trkpt lat="40.355828" lon="-8.196343">
<ele>186</ele>
<time>2026-05-08T03:09:23Z</time></trkpt>
<trkpt lat="40.355951" lon="-8.196205">
<ele>186</ele>
<time>2026-05-08T03:09:26Z</time></trkpt>
<trkpt lat="40.356141" lon="-8.195997">
<ele>186</ele>
<time>2026-05-08T03:09:31Z</time></trkpt>
<trkpt lat="40.356323" lon="-8.195822">
<ele>187</ele>
<time>2026-05-08T03:09:35Z</time></trkpt>
<trkpt lat="40.356622" lon="-8.195592">
<ele>189</ele>
<time>2026-05-08T03:09:42Z</time></trkpt>
<trkpt lat="40.356928" lon="-8.195412">
<ele>192</ele>
<time>2026-05-08T03:09:49Z</time></trkpt>
<trkpt lat="40.357167" lon="-8.195345">
<ele>194</ele>
<time>2026-05-08T03:09:54Z</time></trkpt>
<trkpt lat="40.358475" lon="-8.194613">
<ele>191</ele>
<time>2026-05-08T03:10:22Z</time></trkpt>
<trkpt lat="40.358475" lon="-8.194613">
<ele>191</ele>
<time>2026-05-08T03:10:22Z</time></trkpt>
<trkpt lat="40.358831" lon="-8.194423">
<ele>192</ele>
<time>2026-05-08T03:10:30Z</time></trkpt>
<trkpt lat="40.35909" lon="-8.194322">
<ele>193</ele>
<time>2026-05-08T03:10:36Z</time></trkpt>
<trkpt lat="40.359219" lon="-8.194287">
<ele>194</ele>
<time>2026-05-08T03:10:38Z</time></trkpt>
<trkpt lat="40.359669" lon="-8.194209">
<ele>199</ele>
<time>2026-05-08T03:10:47Z</time></trkpt>
<trkpt lat="40.359875" lon="-8.194206">
<ele>201</ele>
<time>2026-05-08T03:10:51Z</time></trkpt>
<trkpt lat="40.360384" lon="-8.194295">
<ele>196</ele>
<time>2026-05-08T03:11:02Z</time></trkpt>
<trkpt lat="40.360668" lon="-8.194391">
<ele>191</ele>
<time>2026-05-08T03:11:08Z</time></trkpt>
<trkpt lat="40.360904" lon="-8.194506">
<ele>188</ele>
<time>2026-05-08T03:11:13Z</time></trkpt>
<trkpt lat="40.361177" lon="-8.194684">
<ele>187</ele>
<time>2026-05-08T03:11:19Z</time></trkpt>
<trkpt lat="40.362234" lon="-8.195495">
<ele>196</ele>
<time>2026-05-08T03:11:43Z</time></trkpt>
<trkpt lat="40.362315" lon="-8.195557">
<ele>197</ele>
<time>2026-05-08T03:11:45Z</time></trkpt>
<trkpt lat="40.363649" lon="-8.196573">
<ele>199</ele>
<time>2026-05-08T03:12:16Z</time></trkpt>
<trkpt lat="40.363908" lon="-8.196741">
<ele>198</ele>
<time>2026-05-08T03:12:22Z</time></trkpt>
<trkpt lat="40.364273" lon="-8.196937">
<ele>197</ele>
<time>2026-05-08T03:12:30Z</time></trkpt>
<trkpt lat="40.364643" lon="-8.197066">
<ele>199</ele>
<time>2026-05-08T03:12:37Z</time></trkpt>
<trkpt lat="40.364859" lon="-8.197111">
<ele>201</ele>
<time>2026-05-08T03:12:42Z</time></trkpt>
<trkpt lat="40.365072" lon="-8.197141">
<ele>202</ele>
<time>2026-05-08T03:12:46Z</time></trkpt>
<trkpt lat="40.36552" lon="-8.197143">
<ele>199</ele>
<time>2026-05-08T03:12:55Z</time></trkpt>
<trkpt lat="40.365874" lon="-8.197084">
<ele>196</ele>
<time>2026-05-08T03:13:02Z</time></trkpt>
<trkpt lat="40.366352" lon="-8.196915">
<ele>193</ele>
<time>2026-05-08T03:13:12Z</time></trkpt>
<trkpt lat="40.366705" lon="-8.196725">
<ele>192</ele>
<time>2026-05-08T03:13:20Z</time></trkpt>
<trkpt lat="40.368299" lon="-8.195719">
<ele>201</ele>
<time>2026-05-08T03:13:55Z</time></trkpt>
<trkpt lat="40.368906" lon="-8.195337">
<ele>198</ele>
<time>2026-05-08T03:14:09Z</time></trkpt>
<trkpt lat="40.368945" lon="-8.195312">
<ele>198</ele>
<time>2026-05-08T03:14:10Z</time></trkpt>
<trkpt lat="40.369122" lon="-8.1952">
<ele>196</ele>
<time>2026-05-08T03:14:13Z</time></trkpt>
<trkpt lat="40.369509" lon="-8.194963">
<ele>195</ele>
<time>2026-05-08T03:14:22Z</time></trkpt>
<trkpt lat="40.370302" lon="-8.194458">
<ele>193</ele>
<time>2026-05-08T03:14:40Z</time></trkpt>
<trkpt lat="40.370525" lon="-8.194343">
<ele>192</ele>
<time>2026-05-08T03:14:45Z</time></trkpt>
<trkpt lat="40.370868" lon="-8.194201">
<ele>191</ele>
<time>2026-05-08T03:14:52Z</time></trkpt>
<trkpt lat="40.371226" lon="-8.194126">
<ele>190</ele>
<time>2026-05-08T03:14:59Z</time></trkpt>
<trkpt lat="40.371626" lon="-8.194099">
<ele>190</ele>
<time>2026-05-08T03:15:07Z</time></trkpt>
<trkpt lat="40.371921" lon="-8.194115">
<ele>188</ele>
<time>2026-05-08T03:15:13Z</time></trkpt>
<trkpt lat="40.372238" lon="-8.194158">
<ele>186</ele>
<time>2026-05-08T03:15:19Z</time></trkpt>
<trkpt lat="40.374886" lon="-8.194517">
<ele>183</ele>
<time>2026-05-08T03:16:13Z</time></trkpt>
<trkpt lat="40.376148" lon="-8.194682">
<ele>178</ele>
<time>2026-05-08T03:16:38Z</time></trkpt>
<trkpt lat="40.377163" lon="-8.194819">
<ele>185</ele>
<time>2026-05-08T03:16:59Z</time></trkpt>
<trkpt lat="40.377812" lon="-8.194909">
<ele>191</ele>
<time>2026-05-08T03:17:12Z</time></trkpt>
<trkpt lat="40.378467" lon="-8.195083">
<ele>194</ele>
<time>2026-05-08T03:17:25Z</time></trkpt>
<trkpt lat="40.378959" lon="-8.195332">
<ele>193</ele>
<time>2026-05-08T03:17:36Z</time></trkpt>
<trkpt lat="40.379228" lon="-8.195515">
<ele>192</ele>
<time>2026-05-08T03:17:42Z</time></trkpt>
<trkpt lat="40.379454" lon="-8.195706">
<ele>191</ele>
<time>2026-05-08T03:17:47Z</time></trkpt>
<trkpt lat="40.380128" lon="-8.196318">
<ele>193</ele>
<time>2026-05-08T03:18:03Z</time></trkpt>
<trkpt lat="40.380789" lon="-8.196936">
<ele>189</ele>
<time>2026-05-08T03:18:20Z</time></trkpt>
<trkpt lat="40.380816" lon="-8.196953">
<ele>189</ele>
<time>2026-05-08T03:18:20Z</time></trkpt>
<trkpt lat="40.382661" lon="-8.198655">
<ele>197</ele>
<time>2026-05-08T03:19:05Z</time></trkpt>
<trkpt lat="40.382881" lon="-8.198828">
<ele>197</ele>
<time>2026-05-08T03:19:11Z</time></trkpt>
<trkpt lat="40.383056" lon="-8.198943">
<ele>196</ele>
<time>2026-05-08T03:19:15Z</time></trkpt>
<trkpt lat="40.383481" lon="-8.199171">
<ele>195</ele>
<time>2026-05-08T03:19:24Z</time></trkpt>
<trkpt lat="40.383886" lon="-8.199316">
<ele>193</ele>
<time>2026-05-08T03:19:32Z</time></trkpt>
<trkpt lat="40.384086" lon="-8.199367">
<ele>192</ele>
<time>2026-05-08T03:19:36Z</time></trkpt>
<trkpt lat="40.385342" lon="-8.199608">
<ele>193</ele>
<time>2026-05-08T03:20:02Z</time></trkpt>
<trkpt lat="40.385464" lon="-8.199636">
<ele>194</ele>
<time>2026-05-08T03:20:04Z</time></trkpt>
<trkpt lat="40.386636" lon="-8.199862">
<ele>200</ele>
<time>2026-05-08T03:20:28Z</time></trkpt>
<trkpt lat="40.390428" lon="-8.20059">
<ele>184</ele>
<time>2026-05-08T03:21:45Z</time></trkpt>
<trkpt lat="40.390884" lon="-8.200802">
<ele>182</ele>
<time>2026-05-08T03:21:54Z</time></trkpt>
<trkpt lat="40.391371" lon="-8.201134">
<ele>174</ele>
<time>2026-05-08T03:22:05Z</time></trkpt>
<trkpt lat="40.391708" lon="-8.201519">
<ele>168</ele>
<time>2026-05-08T03:22:14Z</time></trkpt>
<trkpt lat="40.391948" lon="-8.201909">
<ele>168</ele>
<time>2026-05-08T03:22:22Z</time></trkpt>
<trkpt lat="40.392022" lon="-8.202071">
<ele>168</ele>
<time>2026-05-08T03:22:25Z</time></trkpt>
<trkpt lat="40.392099" lon="-8.202238">
<ele>168</ele>
<time>2026-05-08T03:22:28Z</time></trkpt>
<trkpt lat="40.392552" lon="-8.203614">
<ele>165</ele>
<time>2026-05-08T03:22:51Z</time></trkpt>
<trkpt lat="40.392727" lon="-8.204148">
<ele>164</ele>
<time>2026-05-08T03:23:00Z</time></trkpt>
<trkpt lat="40.392877" lon="-8.204602">
<ele>163</ele>
<time>2026-05-08T03:23:07Z</time></trkpt>
<trkpt lat="40.393635" lon="-8.206714">
<ele>162</ele>
<time>2026-05-08T03:23:43Z</time></trkpt>
<trkpt lat="40.393954" lon="-8.207377">
<ele>162</ele>
<time>2026-05-08T03:23:55Z</time></trkpt>
<trkpt lat="40.394256" lon="-8.207785">
<ele>161</ele>
<time>2026-05-08T03:24:03Z</time></trkpt>
<trkpt lat="40.394991" lon="-8.208697">
<ele>159</ele>
<time>2026-05-08T03:24:24Z</time></trkpt>
<trkpt lat="40.3965314" lon="-8.2105406">
<ele>138</ele>
<time>2026-05-08T03:25:05Z</time></trkpt>
<trkpt lat="40.396531" lon="-8.21054">
<ele>138</ele>
<time>2026-05-08T03:25:05Z</time></trkpt>
<trkpt lat="40.396952" lon="-8.211044">
<ele>132</ele>
<time>2026-05-08T03:25:17Z</time></trkpt>
<trkpt lat="40.39707" lon="-8.211186">
<ele>132</ele>
<time>2026-05-08T03:25:20Z</time></trkpt>
<trkpt lat="40.397675" lon="-8.211907">
<ele>139</ele>
<time>2026-05-08T03:25:36Z</time></trkpt>
<trkpt lat="40.397778" lon="-8.21203">
<ele>139</ele>
<time>2026-05-08T03:25:39Z</time></trkpt>
<trkpt lat="40.399385" lon="-8.213949">
<ele>128</ele>
<time>2026-05-08T03:26:23Z</time></trkpt>
<trkpt lat="40.399568" lon="-8.214115">
<ele>125</ele>
<time>2026-05-08T03:26:27Z</time></trkpt>
<trkpt lat="40.399625" lon="-8.214144">
<ele>125</ele>
<time>2026-05-08T03:26:28Z</time></trkpt>
<trkpt lat="40.399715" lon="-8.214158">
<ele>124</ele>
<time>2026-05-08T03:26:30Z</time></trkpt>
<trkpt lat="40.399758" lon="-8.214136">
<ele>125</ele>
<time>2026-05-08T03:26:31Z</time></trkpt>
<trkpt lat="40.399828" lon="-8.21398">
<ele>127</ele>
<time>2026-05-08T03:26:34Z</time></trkpt>
<trkpt lat="40.400138" lon="-8.212628">
<ele>140</ele>
<time>2026-05-08T03:26:55Z</time></trkpt>
<trkpt lat="40.400328" lon="-8.211577">
<ele>142</ele>
<time>2026-05-08T03:27:12Z</time></trkpt>
<trkpt lat="40.400564" lon="-8.210446">
<ele>141</ele>
<time>2026-05-08T03:27:30Z</time></trkpt>
<trkpt lat="40.400643" lon="-8.210149">
<ele>141</ele>
<time>2026-05-08T03:27:35Z</time></trkpt>
<trkpt lat="40.400722" lon="-8.209922">
<ele>141</ele>
<time>2026-05-08T03:27:38Z</time></trkpt>
<trkpt lat="40.400904" lon="-8.209534">
<ele>142</ele>
<time>2026-05-08T03:27:45Z</time></trkpt>
<trkpt lat="40.401221" lon="-8.209054">
<ele>144</ele>
<time>2026-05-08T03:27:55Z</time></trkpt>
<trkpt lat="40.401753" lon="-8.208387">
<ele>147</ele>
<time>2026-05-08T03:28:10Z</time></trkpt>
<trkpt lat="40.402579" lon="-8.207321">
<ele>149</ele>
<time>2026-05-08T03:28:33Z</time></trkpt>
<trkpt lat="40.402663" lon="-8.207211">
<ele>149</ele>
<time>2026-05-08T03:28:35Z</time></trkpt>
<trkpt lat="40.402734" lon="-8.207124">
<ele>149</ele>
<time>2026-05-08T03:28:37Z</time></trkpt>
<trkpt lat="40.403061" lon="-8.206714">
<ele>149</ele>
<time>2026-05-08T03:28:46Z</time></trkpt>
<trkpt lat="40.403061" lon="-8.206714">
<ele>149</ele>
<time>2026-05-08T03:28:46Z</time></trkpt>
<trkpt lat="40.403816" lon="-8.205768">
<ele>152</ele>
<time>2026-05-08T03:29:07Z</time></trkpt>
<trkpt lat="40.40424" lon="-8.205017">
<ele>157</ele>
<time>2026-05-08T03:29:22Z</time></trkpt>
<trkpt lat="40.404387" lon="-8.204502">
<ele>157</ele>
<time>2026-05-08T03:29:30Z</time></trkpt>
<trkpt lat="40.404476" lon="-8.204071">
<ele>156</ele>
<time>2026-05-08T03:29:37Z</time></trkpt>
<trkpt lat="40.404498" lon="-8.203752">
<ele>156</ele>
<time>2026-05-08T03:29:42Z</time></trkpt>
<trkpt lat="40.404488" lon="-8.203305">
<ele>156</ele>
<time>2026-05-08T03:29:49Z</time></trkpt>
<trkpt lat="40.404436" lon="-8.202828">
<ele>156</ele>
<time>2026-05-08T03:29:56Z</time></trkpt>
<trkpt lat="40.404176" lon="-8.200704">
<ele>155</ele>
<time>2026-05-08T03:30:29Z</time></trkpt>
<trkpt lat="40.404168" lon="-8.200628">
<ele>155</ele>
<time>2026-05-08T03:30:30Z</time></trkpt>
<trkpt lat="40.404036" lon="-8.199406">
<ele>161</ele>
<time>2026-05-08T03:30:49Z</time></trkpt>
<trkpt lat="40.403464" lon="-8.194578">
<ele>182</ele>
<time>2026-05-08T03:32:03Z</time></trkpt>
<trkpt lat="40.403437" lon="-8.193936">
<ele>184</ele>
<time>2026-05-08T03:32:13Z</time></trkpt>
<trkpt lat="40.403514" lon="-8.193385">
<ele>188</ele>
<time>2026-05-08T03:32:22Z</time></trkpt>
<trkpt lat="40.403831" lon="-8.191705">
<ele>181</ele>
<time>2026-05-08T03:32:48Z</time></trkpt>
<trkpt lat="40.403914" lon="-8.190876">
<ele>180</ele>
<time>2026-05-08T03:33:01Z</time></trkpt>
<trkpt lat="40.403873" lon="-8.190136">
<ele>186</ele>
<time>2026-05-08T03:33:12Z</time></trkpt>
<trkpt lat="40.403742" lon="-8.189578">
<ele>190</ele>
<time>2026-05-08T03:33:21Z</time></trkpt>
<trkpt lat="40.403481" lon="-8.188967">
<ele>194</ele>
<time>2026-05-08T03:33:32Z</time></trkpt>
<trkpt lat="40.402933" lon="-8.188071">
<ele>196</ele>
<time>2026-05-08T03:33:49Z</time></trkpt>
<trkpt lat="40.402083" lon="-8.1868">
<ele>198</ele>
<time>2026-05-08T03:34:15Z</time></trkpt>
<trkpt lat="40.401626" lon="-8.185737">
<ele>197</ele>
<time>2026-05-08T03:34:34Z</time></trkpt>
<trkpt lat="40.401446" lon="-8.185072">
<ele>190</ele>
<time>2026-05-08T03:34:44Z</time></trkpt>
<trkpt lat="40.400932" lon="-8.182497">
<ele>189</ele>
<time>2026-05-08T03:35:25Z</time></trkpt>
<trkpt lat="40.400744" lon="-8.181875">
<ele>187</ele>
<time>2026-05-08T03:35:35Z</time></trkpt>
<trkpt lat="40.400433" lon="-8.181328">
<ele>182</ele>
<time>2026-05-08T03:35:46Z</time></trkpt>
<trkpt lat="40.399485" lon="-8.180298">
<ele>171</ele>
<time>2026-05-08T03:36:10Z</time></trkpt>
<trkpt lat="40.399134" lon="-8.179815">
<ele>170</ele>
<time>2026-05-08T03:36:21Z</time></trkpt>
<trkpt lat="40.398965" lon="-8.179551">
<ele>167</ele>
<time>2026-05-08T03:36:26Z</time></trkpt>
<trkpt lat="40.398077" lon="-8.177814">
<ele>153</ele>
<time>2026-05-08T03:36:58Z</time></trkpt>
<trkpt lat="40.39787" lon="-8.177484">
<ele>148</ele>
<time>2026-05-08T03:37:04Z</time></trkpt>
<trkpt lat="40.39684" lon="-8.175535">
<ele>149</ele>
<time>2026-05-08T03:37:40Z</time></trkpt>
<trkpt lat="40.396732" lon="-8.175338">
<ele>153</ele>
<time>2026-05-08T03:37:44Z</time></trkpt>
<trkpt lat="40.396675" lon="-8.175234">
<ele>155</ele>
<time>2026-05-08T03:37:46Z</time></trkpt>
<trkpt lat="40.396225" lon="-8.174611">
<ele>157</ele>
<time>2026-05-08T03:37:59Z</time></trkpt>
<trkpt lat="40.395531" lon="-8.174043">
<ele>151</ele>
<time>2026-05-08T03:38:16Z</time></trkpt>
<trkpt lat="40.394387" lon="-8.172938">
<ele>147</ele>
<time>2026-05-08T03:38:44Z</time></trkpt>
<trkpt lat="40.39397" lon="-8.172401">
<ele>149</ele>
<time>2026-05-08T03:38:56Z</time></trkpt>
<trkpt lat="40.393463" lon="-8.171511">
<ele>152</ele>
<time>2026-05-08T03:39:13Z</time></trkpt>
<trkpt lat="40.392597" lon="-8.169816">
<ele>150</ele>
<time>2026-05-08T03:39:44Z</time></trkpt>
<trkpt lat="40.392393" lon="-8.169161">
<ele>151</ele>
<time>2026-05-08T03:39:55Z</time></trkpt>
<trkpt lat="40.392295" lon="-8.168603">
<ele>150</ele>
<time>2026-05-08T03:40:03Z</time></trkpt>
<trkpt lat="40.392246" lon="-8.167938">
<ele>152</ele>
<time>2026-05-08T03:40:14Z</time></trkpt>
<trkpt lat="40.392239" lon="-8.167445">
<ele>153</ele>
<time>2026-05-08T03:40:21Z</time></trkpt>
<trkpt lat="40.392237" lon="-8.167253">
<ele>152</ele>
<time>2026-05-08T03:40:24Z</time></trkpt>
<trkpt lat="40.392218" lon="-8.165898">
<ele>148</ele>
<time>2026-05-08T03:40:45Z</time></trkpt>
<trkpt lat="40.392211" lon="-8.165182">
<ele>142</ele>
<time>2026-05-08T03:40:56Z</time></trkpt>
<trkpt lat="40.392168" lon="-8.164441">
<ele>131</ele>
<time>2026-05-08T03:41:07Z</time></trkpt>
<trkpt lat="40.392093" lon="-8.16387">
<ele>126</ele>
<time>2026-05-08T03:41:16Z</time></trkpt>
<trkpt lat="40.392007" lon="-8.163396">
<ele>124</ele>
<time>2026-05-08T03:41:23Z</time></trkpt>
<trkpt lat="40.39178" lon="-8.162522">
<ele>130</ele>
<time>2026-05-08T03:41:37Z</time></trkpt>
<trkpt lat="40.391514" lon="-8.161789">
<ele>150</ele>
<time>2026-05-08T03:41:50Z</time></trkpt>
<trkpt lat="40.391319" lon="-8.161341">
<ele>160</ele>
<time>2026-05-08T03:41:58Z</time></trkpt>
<trkpt lat="40.391064" lon="-8.160805">
<ele>167</ele>
<time>2026-05-08T03:42:07Z</time></trkpt>
<trkpt lat="40.389953" lon="-8.158586">
<ele>177</ele>
<time>2026-05-08T03:42:48Z</time></trkpt>
<trkpt lat="40.38931" lon="-8.157288">
<ele>186</ele>
<time>2026-05-08T03:43:11Z</time></trkpt>
<trkpt lat="40.389052" lon="-8.156668">
<ele>190</ele>
<time>2026-05-08T03:43:22Z</time></trkpt>
<trkpt lat="40.388955" lon="-8.156293">
<ele>194</ele>
<time>2026-05-08T03:43:28Z</time></trkpt>
<trkpt lat="40.388913" lon="-8.15601">
<ele>196</ele>
<time>2026-05-08T03:43:33Z</time></trkpt>
<trkpt lat="40.388892" lon="-8.155708">
<ele>198</ele>
<time>2026-05-08T03:43:37Z</time></trkpt>
<trkpt lat="40.388905" lon="-8.155316">
<ele>201</ele>
<time>2026-05-08T03:43:43Z</time></trkpt>
<trkpt lat="40.389102" lon="-8.153862">
<ele>205</ele>
<time>2026-05-08T03:44:06Z</time></trkpt>
<trkpt lat="40.389143" lon="-8.153572">
<ele>205</ele>
<time>2026-05-08T03:44:10Z</time></trkpt>
<trkpt lat="40.389167" lon="-8.153398">
<ele>204</ele>
<time>2026-05-08T03:44:13Z</time></trkpt>
<trkpt lat="40.389181" lon="-8.153297">
<ele>204</ele>
<time>2026-05-08T03:44:15Z</time></trkpt>
<trkpt lat="40.389292" lon="-8.15247">
<ele>203</ele>
<time>2026-05-08T03:44:27Z</time></trkpt>
<trkpt lat="40.389319" lon="-8.152165">
<ele>207</ele>
<time>2026-05-08T03:44:32Z</time></trkpt>
<trkpt lat="40.389318" lon="-8.151837">
<ele>211</ele>
<time>2026-05-08T03:44:37Z</time></trkpt>
<trkpt lat="40.38927" lon="-8.151429">
<ele>215</ele>
<time>2026-05-08T03:44:43Z</time></trkpt>
<trkpt lat="40.389206" lon="-8.151137">
<ele>218</ele>
<time>2026-05-08T03:44:48Z</time></trkpt>
<trkpt lat="40.389085" lon="-8.150794">
<ele>221</ele>
<time>2026-05-08T03:44:54Z</time></trkpt>
<trkpt lat="40.388966" lon="-8.150544">
<ele>220</ele>
<time>2026-05-08T03:44:58Z</time></trkpt>
<trkpt lat="40.388416" lon="-8.149548">
<ele>217</ele>
<time>2026-05-08T03:45:17Z</time></trkpt>
<trkpt lat="40.388036" lon="-8.148835">
<ele>217</ele>
<time>2026-05-08T03:45:30Z</time></trkpt>
<trkpt lat="40.387912" lon="-8.148549">
<ele>218</ele>
<time>2026-05-08T03:45:35Z</time></trkpt>
<trkpt lat="40.387833" lon="-8.148315">
<ele>219</ele>
<time>2026-05-08T03:45:39Z</time></trkpt>
<trkpt lat="40.387761" lon="-8.148033">
<ele>219</ele>
<time>2026-05-08T03:45:44Z</time></trkpt>
<trkpt lat="40.387711" lon="-8.147736">
<ele>219</ele>
<time>2026-05-08T03:45:48Z</time></trkpt>
<trkpt lat="40.387694" lon="-8.147231">
<ele>219</ele>
<time>2026-05-08T03:45:56Z</time></trkpt>
<trkpt lat="40.387709" lon="-8.146934">
<ele>219</ele>
<time>2026-05-08T03:46:01Z</time></trkpt>
<trkpt lat="40.387802" lon="-8.146387">
<ele>218</ele>
<time>2026-05-08T03:46:09Z</time></trkpt>
<trkpt lat="40.387897" lon="-8.146067">
<ele>218</ele>
<time>2026-05-08T03:46:15Z</time></trkpt>
<trkpt lat="40.388129" lon="-8.145512">
<ele>217</ele>
<time>2026-05-08T03:46:24Z</time></trkpt>
<trkpt lat="40.388475" lon="-8.144917">
<ele>216</ele>
<time>2026-05-08T03:46:36Z</time></trkpt>
<trkpt lat="40.390174" lon="-8.14231">
<ele>215</ele>
<time>2026-05-08T03:47:28Z</time></trkpt>
<trkpt lat="40.390815" lon="-8.141339">
<ele>213</ele>
<time>2026-05-08T03:47:48Z</time></trkpt>
<trkpt lat="40.390908" lon="-8.141192">
<ele>213</ele>
<time>2026-05-08T03:47:51Z</time></trkpt>
<trkpt lat="40.39137" lon="-8.140441">
<ele>209</ele>
<time>2026-05-08T03:48:05Z</time></trkpt>
<trkpt lat="40.39155" lon="-8.140029">
<ele>208</ele>
<time>2026-05-08T03:48:12Z</time></trkpt>
<trkpt lat="40.391728" lon="-8.139433">
<ele>207</ele>
<time>2026-05-08T03:48:22Z</time></trkpt>
<trkpt lat="40.391844" lon="-8.138769">
<ele>209</ele>
<time>2026-05-08T03:48:33Z</time></trkpt>
<trkpt lat="40.391844" lon="-8.138769">
<ele>209</ele>
<time>2026-05-08T03:48:33Z</time></trkpt>
<trkpt lat="40.391882" lon="-8.138478">
<ele>210</ele>
<time>2026-05-08T03:48:37Z</time></trkpt>
<trkpt lat="40.391931" lon="-8.137284">
<ele>214</ele>
<time>2026-05-08T03:48:55Z</time></trkpt>
<trkpt lat="40.391982" lon="-8.136928">
<ele>213</ele>
<time>2026-05-08T03:49:01Z</time></trkpt>
<trkpt lat="40.392066" lon="-8.136567">
<ele>213</ele>
<time>2026-05-08T03:49:07Z</time></trkpt>
<trkpt lat="40.392217" lon="-8.136169">
<ele>213</ele>
<time>2026-05-08T03:49:13Z</time></trkpt>
<trkpt lat="40.393014" lon="-8.134775">
<ele>208</ele>
<time>2026-05-08T03:49:40Z</time></trkpt>
<trkpt lat="40.3930149" lon="-8.1347737">
<ele>208</ele>
<time>2026-05-08T03:49:40Z</time></trkpt>
<trkpt lat="40.395053" lon="-8.131719">
<ele>181</ele>
<time>2026-05-08T03:50:42Z</time></trkpt>
<trkpt lat="40.395819" lon="-8.130593">
<ele>186</ele>
<time>2026-05-08T03:51:05Z</time></trkpt>
<trkpt lat="40.395908" lon="-8.130528">
<ele>186</ele>
<time>2026-05-08T03:51:07Z</time></trkpt>
<trkpt lat="40.396035" lon="-8.130472">
<ele>187</ele>
<time>2026-05-08T03:51:10Z</time></trkpt>
<trkpt lat="40.396554" lon="-8.130368">
<ele>189</ele>
<time>2026-05-08T03:51:20Z</time></trkpt>
<trkpt lat="40.396612" lon="-8.130321">
<ele>189</ele>
<time>2026-05-08T03:51:22Z</time></trkpt>
<trkpt lat="40.396645" lon="-8.13026">
<ele>189</ele>
<time>2026-05-08T03:51:23Z</time></trkpt>
<trkpt lat="40.396622" lon="-8.130187">
<ele>188</ele>
<time>2026-05-08T03:51:24Z</time></trkpt>
<trkpt lat="40.396627" lon="-8.130148">
<ele>188</ele>
<time>2026-05-08T03:51:25Z</time></trkpt>
<trkpt lat="40.39667" lon="-8.130092">
<ele>188</ele>
<time>2026-05-08T03:51:26Z</time></trkpt>
<trkpt lat="40.396729" lon="-8.130092">
<ele>189</ele>
<time>2026-05-08T03:51:27Z</time></trkpt>
<trkpt lat="40.396772" lon="-8.130147">
<ele>189</ele>
<time>2026-05-08T03:51:28Z</time></trkpt>
<trkpt lat="40.396991" lon="-8.129955">
<ele>190</ele>
<time>2026-05-08T03:51:34Z</time></trkpt>
<trkpt lat="40.397178" lon="-8.129806">
<ele>190</ele>
<time>2026-05-08T03:51:38Z</time></trkpt>
<trkpt lat="40.397371" lon="-8.129725">
<ele>191</ele>
<time>2026-05-08T03:51:42Z</time></trkpt>
<trkpt lat="40.397577" lon="-8.129692">
<ele>192</ele>
<time>2026-05-08T03:51:46Z</time></trkpt>
<trkpt lat="40.399005" lon="-8.129877">
<ele>189</ele>
<time>2026-05-08T03:52:15Z</time></trkpt>
<trkpt lat="40.400134" lon="-8.129999">
<ele>197</ele>
<time>2026-05-08T03:52:38Z</time></trkpt>
<trkpt lat="40.400134" lon="-8.129999">
<ele>197</ele>
<time>2026-05-08T03:52:38Z</time></trkpt>
<trkpt lat="40.402312" lon="-8.130277">
<ele>209</ele>
<time>2026-05-08T03:53:21Z</time></trkpt>
<trkpt lat="40.402421" lon="-8.13027">
<ele>210</ele>
<time>2026-05-08T03:53:24Z</time></trkpt>
<trkpt lat="40.402489" lon="-8.130293">
<ele>210</ele>
<time>2026-05-08T03:53:25Z</time></trkpt>
<trkpt lat="40.402535" lon="-8.130299">
<ele>210</ele>
<time>2026-05-08T03:53:26Z</time></trkpt>
<trkpt lat="40.402715" lon="-8.130277">
<ele>211</ele>
<time>2026-05-08T03:53:30Z</time></trkpt>
<trkpt lat="40.403006" lon="-8.13009">
<ele>212</ele>
<time>2026-05-08T03:53:36Z</time></trkpt>
<trkpt lat="40.403671" lon="-8.129545">
<ele>215</ele>
<time>2026-05-08T03:53:52Z</time></trkpt>
<trkpt lat="40.403872" lon="-8.12938">
<ele>216</ele>
<time>2026-05-08T03:53:57Z</time></trkpt>
<trkpt lat="40.404633" lon="-8.128756">
<ele>218</ele>
<time>2026-05-08T03:54:15Z</time></trkpt>
<trkpt lat="40.404737" lon="-8.128708">
<ele>219</ele>
<time>2026-05-08T03:54:17Z</time></trkpt>
<trkpt lat="40.404955" lon="-8.128592">
<ele>219</ele>
<time>2026-05-08T03:54:21Z</time></trkpt>
<trkpt lat="40.405222" lon="-8.128481">
<ele>219</ele>
<time>2026-05-08T03:54:27Z</time></trkpt>
<trkpt lat="40.405744" lon="-8.128253">
<ele>221</ele>
<time>2026-05-08T03:54:38Z</time></trkpt>
<trkpt lat="40.406534" lon="-8.127925">
<ele>223</ele>
<time>2026-05-08T03:54:55Z</time></trkpt>
<trkpt lat="40.406538" lon="-8.127826">
<ele>222</ele>
<time>2026-05-08T03:54:56Z</time></trkpt>
<trkpt lat="40.406595" lon="-8.127759">
<ele>222</ele>
<time>2026-05-08T03:54:58Z</time></trkpt>
<trkpt lat="40.406671" lon="-8.127765">
<ele>223</ele>
<time>2026-05-08T03:54:59Z</time></trkpt>
<trkpt lat="40.406721" lon="-8.127839">
<ele>223</ele>
<time>2026-05-08T03:55:01Z</time></trkpt>
<trkpt lat="40.40824" lon="-8.127211">
<ele>233</ele>
<time>2026-05-08T03:55:33Z</time></trkpt>
<trkpt lat="40.409416" lon="-8.126719">
<ele>242</ele>
<time>2026-05-08T03:55:57Z</time></trkpt>
<trkpt lat="40.410918" lon="-8.126061">
<ele>243</ele>
<time>2026-05-08T03:56:29Z</time></trkpt>
<trkpt lat="40.411943" lon="-8.125639">
<ele>244</ele>
<time>2026-05-08T03:56:51Z</time></trkpt>
<trkpt lat="40.412416" lon="-8.125502">
<ele>243</ele>
<time>2026-05-08T03:57:00Z</time></trkpt>
<trkpt lat="40.412547" lon="-8.125361">
<ele>242</ele>
<time>2026-05-08T03:57:04Z</time></trkpt>
<trkpt lat="40.412605" lon="-8.125317">
<ele>241</ele>
<time>2026-05-08T03:57:05Z</time></trkpt>
<trkpt lat="40.412666" lon="-8.125245">
<ele>241</ele>
<time>2026-05-08T03:57:07Z</time></trkpt>
<trkpt lat="40.412691" lon="-8.125235">
<ele>241</ele>
<time>2026-05-08T03:57:07Z</time></trkpt>
<trkpt lat="40.412745" lon="-8.125238">
<ele>241</ele>
<time>2026-05-08T03:57:08Z</time></trkpt>
<trkpt lat="40.413009" lon="-8.12514">
<ele>241</ele>
<time>2026-05-08T03:57:14Z</time></trkpt>
<trkpt lat="40.413121" lon="-8.125149">
<ele>242</ele>
<time>2026-05-08T03:57:16Z</time></trkpt>
<trkpt lat="40.413176" lon="-8.1251">
<ele>241</ele>
<time>2026-05-08T03:57:17Z</time></trkpt>
<trkpt lat="40.414515" lon="-8.124349">
<ele>243</ele>
<time>2026-05-08T03:57:47Z</time></trkpt>
<trkpt lat="40.415027" lon="-8.124082">
<ele>244</ele>
<time>2026-05-08T03:57:58Z</time></trkpt>
<trkpt lat="40.415325" lon="-8.123981">
<ele>243</ele>
<time>2026-05-08T03:58:04Z</time></trkpt>
<trkpt lat="40.4156" lon="-8.123942">
<ele>242</ele>
<time>2026-05-08T03:58:09Z</time></trkpt>
<trkpt lat="40.415888" lon="-8.123948">
<ele>241</ele>
<time>2026-05-08T03:58:15Z</time></trkpt>
<trkpt lat="40.416383" lon="-8.124068">
<ele>240</ele>
<time>2026-05-08T03:58:25Z</time></trkpt>
<trkpt lat="40.417673" lon="-8.12448">
<ele>243</ele>
<time>2026-05-08T03:58:52Z</time></trkpt>
<trkpt lat="40.417764" lon="-8.124513">
<ele>244</ele>
<time>2026-05-08T03:58:54Z</time></trkpt>
<trkpt lat="40.419122" lon="-8.124986">
<ele>254</ele>
<time>2026-05-08T03:59:22Z</time></trkpt>
<trkpt lat="40.420089" lon="-8.125297">
<ele>254</ele>
<time>2026-05-08T03:59:42Z</time></trkpt>
<trkpt lat="40.420089" lon="-8.125297">
<ele>254</ele>
<time>2026-05-08T03:59:42Z</time></trkpt>
<trkpt lat="40.421476" lon="-8.125743">
<ele>264</ele>
<time>2026-05-08T04:00:10Z</time></trkpt>
<trkpt lat="40.421889" lon="-8.125795">
<ele>268</ele>
<time>2026-05-08T04:00:19Z</time></trkpt>
<trkpt lat="40.422409" lon="-8.125637">
<ele>273</ele>
<time>2026-05-08T04:00:29Z</time></trkpt>
<trkpt lat="40.423717" lon="-8.125044">
<ele>279</ele>
<time>2026-05-08T04:00:57Z</time></trkpt>
<trkpt lat="40.425035" lon="-8.124705">
<ele>281</ele>
<time>2026-05-08T04:01:24Z</time></trkpt>
<trkpt lat="40.427253" lon="-8.124163">
<ele>294</ele>
<time>2026-05-08T04:02:09Z</time></trkpt>
<trkpt lat="40.428551" lon="-8.123851">
<ele>298</ele>
<time>2026-05-08T04:02:36Z</time></trkpt>
<trkpt lat="40.429142" lon="-8.123684">
<ele>299</ele>
<time>2026-05-08T04:02:48Z</time></trkpt>
<trkpt lat="40.429261" lon="-8.12363">
<ele>298</ele>
<time>2026-05-08T04:02:50Z</time></trkpt>
<trkpt lat="40.42948" lon="-8.123458">
<ele>295</ele>
<time>2026-05-08T04:02:55Z</time></trkpt>
<trkpt lat="40.42965" lon="-8.123284">
<ele>293</ele>
<time>2026-05-08T04:03:00Z</time></trkpt>
<trkpt lat="40.429766" lon="-8.123131">
<ele>293</ele>
<time>2026-05-08T04:03:03Z</time></trkpt>
<trkpt lat="40.430787" lon="-8.121675">
<ele>290</ele>
<time>2026-05-08T04:03:33Z</time></trkpt>
<trkpt lat="40.431446" lon="-8.121002">
<ele>286</ele>
<time>2026-05-08T04:03:50Z</time></trkpt>
<trkpt lat="40.431464" lon="-8.120984">
<ele>286</ele>
<time>2026-05-08T04:03:50Z</time></trkpt>
<trkpt lat="40.432404" lon="-8.120023">
<ele>283</ele>
<time>2026-05-08T04:04:14Z</time></trkpt>
<trkpt lat="40.433037" lon="-8.119417">
<ele>285</ele>
<time>2026-05-08T04:04:30Z</time></trkpt>
<trkpt lat="40.433076" lon="-8.119379">
<ele>285</ele>
<time>2026-05-08T04:04:31Z</time></trkpt>
<trkpt lat="40.433417" lon="-8.119039">
<ele>286</ele>
<time>2026-05-08T04:04:40Z</time></trkpt>
<trkpt lat="40.433624" lon="-8.118833">
<ele>287</ele>
<time>2026-05-08T04:04:45Z</time></trkpt>
<trkpt lat="40.434405" lon="-8.117985">
<ele>292</ele>
<time>2026-05-08T04:05:05Z</time></trkpt>
<trkpt lat="40.434814" lon="-8.117352">
<ele>296</ele>
<time>2026-05-08T04:05:18Z</time></trkpt>
<trkpt lat="40.43524" lon="-8.116164">
<ele>296</ele>
<time>2026-05-08T04:05:38Z</time></trkpt>
<trkpt lat="40.435721" lon="-8.114824">
<ele>301</ele>
<time>2026-05-08T04:06:00Z</time></trkpt>
<trkpt lat="40.435899" lon="-8.114428">
<ele>303</ele>
<time>2026-05-08T04:06:07Z</time></trkpt>
<trkpt lat="40.436224" lon="-8.113701">
<ele>306</ele>
<time>2026-05-08T04:06:20Z</time></trkpt>
<trkpt lat="40.436402" lon="-8.113211">
<ele>306</ele>
<time>2026-05-08T04:06:29Z</time></trkpt>
<trkpt lat="40.436523" lon="-8.112881">
<ele>306</ele>
<time>2026-05-08T04:06:34Z</time></trkpt>
<trkpt lat="40.436791" lon="-8.111842">
<ele>304</ele>
<time>2026-05-08T04:06:51Z</time></trkpt>
<trkpt lat="40.436882" lon="-8.111299">
<ele>302</ele>
<time>2026-05-08T04:06:59Z</time></trkpt>
<trkpt lat="40.436988" lon="-8.11056">
<ele>298</ele>
<time>2026-05-08T04:07:11Z</time></trkpt>
<trkpt lat="40.437093" lon="-8.109879">
<ele>296</ele>
<time>2026-05-08T04:07:21Z</time></trkpt>
<trkpt lat="40.437165" lon="-8.109377">
<ele>294</ele>
<time>2026-05-08T04:07:29Z</time></trkpt>
<trkpt lat="40.437232" lon="-8.108974">
<ele>293</ele>
<time>2026-05-08T04:07:35Z</time></trkpt>
<trkpt lat="40.437312" lon="-8.108689">
<ele>294</ele>
<time>2026-05-08T04:07:40Z</time></trkpt>
<trkpt lat="40.437445" lon="-8.108426">
<ele>295</ele>
<time>2026-05-08T04:07:45Z</time></trkpt>
<trkpt lat="40.437568" lon="-8.108253">
<ele>295</ele>
<time>2026-05-08T04:07:49Z</time></trkpt>
<trkpt lat="40.437717" lon="-8.108111">
<ele>296</ele>
<time>2026-05-08T04:07:52Z</time></trkpt>
<trkpt lat="40.438298" lon="-8.107717">
<ele>300</ele>
<time>2026-05-08T04:08:05Z</time></trkpt>
<trkpt lat="40.438514" lon="-8.107527">
<ele>303</ele>
<time>2026-05-08T04:08:11Z</time></trkpt>
<trkpt lat="40.438841" lon="-8.106887">
<ele>303</ele>
<time>2026-05-08T04:08:22Z</time></trkpt>
<trkpt lat="40.438936" lon="-8.106729">
<ele>303</ele>
<time>2026-05-08T04:08:25Z</time></trkpt>
<trkpt lat="40.439035" lon="-8.106565">
<ele>303</ele>
<time>2026-05-08T04:08:29Z</time></trkpt>
<trkpt lat="40.439131" lon="-8.106456">
<ele>303</ele>
<time>2026-05-08T04:08:31Z</time></trkpt>
<trkpt lat="40.4391687" lon="-8.1064147">
<ele>303</ele>
<time>2026-05-08T04:08:32Z</time></trkpt>
<trkpt lat="40.44013" lon="-8.105363">
<ele>307</ele>
<time>2026-05-08T04:08:57Z</time></trkpt>
<trkpt lat="40.44024" lon="-8.105246">
<ele>306</ele>
<time>2026-05-08T04:09:00Z</time></trkpt>
<trkpt lat="40.441441" lon="-8.103983">
<ele>304</ele>
<time>2026-05-08T04:09:31Z</time></trkpt>
<trkpt lat="40.441441" lon="-8.103983">
<ele>304</ele>
<time>2026-05-08T04:09:31Z</time></trkpt>
<trkpt lat="40.44152" lon="-8.1039">
<ele>304</ele>
<time>2026-05-08T04:09:33Z</time></trkpt>
<trkpt lat="40.44181" lon="-8.103667">
<ele>304</ele>
<time>2026-05-08T04:09:40Z</time></trkpt>
<trkpt lat="40.442072" lon="-8.103532">
<ele>304</ele>
<time>2026-05-08T04:09:45Z</time></trkpt>
<trkpt lat="40.444329" lon="-8.102196">
<ele>302</ele>
<time>2026-05-08T04:10:35Z</time></trkpt>
<trkpt lat="40.445084" lon="-8.101752">
<ele>306</ele>
<time>2026-05-08T04:10:51Z</time></trkpt>
<trkpt lat="40.445808" lon="-8.101326">
<ele>310</ele>
<time>2026-05-08T04:11:07Z</time></trkpt>
<trkpt lat="40.446133" lon="-8.101136">
<ele>311</ele>
<time>2026-05-08T04:11:14Z</time></trkpt>
<trkpt lat="40.446541" lon="-8.100992">
<ele>314</ele>
<time>2026-05-08T04:11:23Z</time></trkpt>
<trkpt lat="40.446963" lon="-8.100984">
<ele>314</ele>
<time>2026-05-08T04:11:31Z</time></trkpt>
<trkpt lat="40.447259" lon="-8.101081">
<ele>312</ele>
<time>2026-05-08T04:11:37Z</time></trkpt>
<trkpt lat="40.448895" lon="-8.101621">
<ele>312</ele>
<time>2026-05-08T04:12:11Z</time></trkpt>
<trkpt lat="40.449144" lon="-8.101721">
<ele>312</ele>
<time>2026-05-08T04:12:17Z</time></trkpt>
<trkpt lat="40.449511" lon="-8.101903">
<ele>314</ele>
<time>2026-05-08T04:12:24Z</time></trkpt>
<trkpt lat="40.450616" lon="-8.102749">
<ele>318</ele>
<time>2026-05-08T04:12:50Z</time></trkpt>
<trkpt lat="40.451017" lon="-8.102969">
<ele>318</ele>
<time>2026-05-08T04:12:59Z</time></trkpt>
<trkpt lat="40.451364" lon="-8.10306">
<ele>317</ele>
<time>2026-05-08T04:13:06Z</time></trkpt>
<trkpt lat="40.45166" lon="-8.103073">
<ele>317</ele>
<time>2026-05-08T04:13:12Z</time></trkpt>
<trkpt lat="40.452946" lon="-8.103127">
<ele>324</ele>
<time>2026-05-08T04:13:37Z</time></trkpt>
<trkpt lat="40.45354" lon="-8.103127">
<ele>327</ele>
<time>2026-05-08T04:13:49Z</time></trkpt>
<trkpt lat="40.45516" lon="-8.103211">
<ele>332</ele>
<time>2026-05-08T04:14:22Z</time></trkpt>
<trkpt lat="40.455645" lon="-8.103184">
<ele>331</ele>
<time>2026-05-08T04:14:32Z</time></trkpt>
<trkpt lat="40.456322" lon="-8.103034">
<ele>329</ele>
<time>2026-05-08T04:14:45Z</time></trkpt>
<trkpt lat="40.457621" lon="-8.102568">
<ele>325</ele>
<time>2026-05-08T04:15:12Z</time></trkpt>
<trkpt lat="40.458477" lon="-8.102261">
<ele>323</ele>
<time>2026-05-08T04:15:30Z</time></trkpt>
<trkpt lat="40.46336" lon="-8.100359">
<ele>334</ele>
<time>2026-05-08T04:17:12Z</time></trkpt>
<trkpt lat="40.464542" lon="-8.09989">
<ele>340</ele>
<time>2026-05-08T04:17:37Z</time></trkpt>
<trkpt lat="40.465046" lon="-8.099573">
<ele>343</ele>
<time>2026-05-08T04:17:48Z</time></trkpt>
<trkpt lat="40.46596" lon="-8.098758">
<ele>349</ele>
<time>2026-05-08T04:18:10Z</time></trkpt>
<trkpt lat="40.467273" lon="-8.09755">
<ele>351</ele>
<time>2026-05-08T04:18:42Z</time></trkpt>
<trkpt lat="40.469317" lon="-8.095675">
<ele>347</ele>
<time>2026-05-08T04:19:32Z</time></trkpt>
<trkpt lat="40.469367" lon="-8.095629">
<ele>347</ele>
<time>2026-05-08T04:19:34Z</time></trkpt>
<trkpt lat="40.4701177" lon="-8.0950385">
<ele>354</ele>
<time>2026-05-08T04:19:51Z</time></trkpt>
<trkpt lat="40.4711018" lon="-8.094293">
<ele>353</ele>
<time>2026-05-08T04:20:14Z</time></trkpt>
<trkpt lat="40.4712" lon="-8.09422">
<ele>353</ele>
<time>2026-05-08T04:20:16Z</time></trkpt>
<trkpt lat="40.471428" lon="-8.094085">
<ele>352</ele>
<time>2026-05-08T04:20:21Z</time></trkpt>
<trkpt lat="40.472065" lon="-8.093801">
<ele>349</ele>
<time>2026-05-08T04:20:35Z</time></trkpt>
<trkpt lat="40.472718" lon="-8.093541">
<ele>343</ele>
<time>2026-05-08T04:20:48Z</time></trkpt>
<trkpt lat="40.472932" lon="-8.093534">
<ele>342</ele>
<time>2026-05-08T04:20:53Z</time></trkpt>
<trkpt lat="40.473102" lon="-8.093555">
<ele>340</ele>
<time>2026-05-08T04:20:56Z</time></trkpt>
<trkpt lat="40.474104" lon="-8.093787">
<ele>333</ele>
<time>2026-05-08T04:21:16Z</time></trkpt>
<trkpt lat="40.474647" lon="-8.093939">
<ele>330</ele>
<time>2026-05-08T04:21:27Z</time></trkpt>
<trkpt lat="40.474838" lon="-8.093938">
<ele>329</ele>
<time>2026-05-08T04:21:31Z</time></trkpt>
<trkpt lat="40.475028" lon="-8.093887">
<ele>328</ele>
<time>2026-05-08T04:21:35Z</time></trkpt>
<trkpt lat="40.475638" lon="-8.093505">
<ele>329</ele>
<time>2026-05-08T04:21:49Z</time></trkpt>
<trkpt lat="40.475769" lon="-8.093458">
<ele>329</ele>
<time>2026-05-08T04:21:51Z</time></trkpt>
<trkpt lat="40.476165" lon="-8.093431">
<ele>328</ele>
<time>2026-05-08T04:21:59Z</time></trkpt>
<trkpt lat="40.476361" lon="-8.093405">
<ele>328</ele>
<time>2026-05-08T04:22:03Z</time></trkpt>
<trkpt lat="40.476584" lon="-8.093349">
<ele>328</ele>
<time>2026-05-08T04:22:08Z</time></trkpt>
<trkpt lat="40.47681" lon="-8.093238">
<ele>328</ele>
<time>2026-05-08T04:22:13Z</time></trkpt>
<trkpt lat="40.477468" lon="-8.09282">
<ele>326</ele>
<time>2026-05-08T04:22:27Z</time></trkpt>
<trkpt lat="40.478106" lon="-8.092414">
<ele>328</ele>
<time>2026-05-08T04:22:42Z</time></trkpt>
<trkpt lat="40.480566" lon="-8.090848">
<ele>333</ele>
<time>2026-05-08T04:23:36Z</time></trkpt>
<trkpt lat="40.480798" lon="-8.090682">
<ele>335</ele>
<time>2026-05-08T04:23:42Z</time></trkpt>
<trkpt lat="40.480945" lon="-8.090534">
<ele>336</ele>
<time>2026-05-08T04:23:45Z</time></trkpt>
<trkpt lat="40.480975" lon="-8.090433">
<ele>336</ele>
<time>2026-05-08T04:23:47Z</time></trkpt>
<trkpt lat="40.481049" lon="-8.090373">
<ele>336</ele>
<time>2026-05-08T04:23:49Z</time></trkpt>
<trkpt lat="40.481136" lon="-8.090387">
<ele>336</ele>
<time>2026-05-08T04:23:50Z</time></trkpt>
<trkpt lat="40.481194" lon="-8.090458">
<ele>336</ele>
<time>2026-05-08T04:23:52Z</time></trkpt>
<trkpt lat="40.48132" lon="-8.090516">
<ele>337</ele>
<time>2026-05-08T04:23:55Z</time></trkpt>
<trkpt lat="40.481521" lon="-8.090516">
<ele>337</ele>
<time>2026-05-08T04:23:59Z</time></trkpt>
<trkpt lat="40.481656" lon="-8.090488">
<ele>338</ele>
<time>2026-05-08T04:24:02Z</time></trkpt>
<trkpt lat="40.483348" lon="-8.090157">
<ele>334</ele>
<time>2026-05-08T04:24:36Z</time></trkpt>
<trkpt lat="40.483561" lon="-8.090099">
<ele>335</ele>
<time>2026-05-08T04:24:40Z</time></trkpt>
<trkpt lat="40.483692" lon="-8.090012">
<ele>336</ele>
<time>2026-05-08T04:24:43Z</time></trkpt>
<trkpt lat="40.483748" lon="-8.089902">
<ele>337</ele>
<time>2026-05-08T04:24:45Z</time></trkpt>
<trkpt lat="40.483843" lon="-8.089856">
<ele>337</ele>
<time>2026-05-08T04:24:47Z</time></trkpt>
<trkpt lat="40.483899" lon="-8.089867">
<ele>337</ele>
<time>2026-05-08T04:24:48Z</time></trkpt>
<trkpt lat="40.483948" lon="-8.089901">
<ele>337</ele>
<time>2026-05-08T04:24:49Z</time></trkpt>
<trkpt lat="40.483986" lon="-8.089955">
<ele>337</ele>
<time>2026-05-08T04:24:50Z</time></trkpt>
<trkpt lat="40.484114" lon="-8.089989">
<ele>338</ele>
<time>2026-05-08T04:24:53Z</time></trkpt>
<trkpt lat="40.484308" lon="-8.089988">
<ele>338</ele>
<time>2026-05-08T04:24:57Z</time></trkpt>
<trkpt lat="40.484392" lon="-8.089972">
<ele>338</ele>
<time>2026-05-08T04:24:59Z</time></trkpt>
<trkpt lat="40.48552" lon="-8.089766">
<ele>342</ele>
<time>2026-05-08T04:25:22Z</time></trkpt>
<trkpt lat="40.487591" lon="-8.089379">
<ele>348</ele>
<time>2026-05-08T04:26:03Z</time></trkpt>
<trkpt lat="40.489089" lon="-8.089101">
<ele>355</ele>
<time>2026-05-08T04:26:34Z</time></trkpt>
<trkpt lat="40.489089" lon="-8.089031">
<ele>355</ele>
<time>2026-05-08T04:26:35Z</time></trkpt>
<trkpt lat="40.489106" lon="-8.088965">
<ele>355</ele>
<time>2026-05-08T04:26:36Z</time></trkpt>
<trkpt lat="40.48914" lon="-8.088911">
<ele>355</ele>
<time>2026-05-08T04:26:37Z</time></trkpt>
<trkpt lat="40.489179" lon="-8.088879">
<ele>355</ele>
<time>2026-05-08T04:26:38Z</time></trkpt>
<trkpt lat="40.489271" lon="-8.088867">
<ele>355</ele>
<time>2026-05-08T04:26:40Z</time></trkpt>
<trkpt lat="40.489351" lon="-8.088926">
<ele>355</ele>
<time>2026-05-08T04:26:42Z</time></trkpt>
<trkpt lat="40.489391" lon="-8.089035">
<ele>356</ele>
<time>2026-05-08T04:26:43Z</time></trkpt>
<trkpt lat="40.490988" lon="-8.088729">
<ele>353</ele>
<time>2026-05-08T04:27:16Z</time></trkpt>
<trkpt lat="40.490988" lon="-8.088729">
<ele>353</ele>
<time>2026-05-08T04:27:16Z</time></trkpt>
<trkpt lat="40.491871" lon="-8.08856">
<ele>351</ele>
<time>2026-05-08T04:27:34Z</time></trkpt>
<trkpt lat="40.49267" lon="-8.088417">
<ele>351</ele>
<time>2026-05-08T04:27:50Z</time></trkpt>
<trkpt lat="40.492875" lon="-8.08837">
<ele>352</ele>
<time>2026-05-08T04:27:54Z</time></trkpt>
<trkpt lat="40.493078" lon="-8.088293">
<ele>352</ele>
<time>2026-05-08T04:27:58Z</time></trkpt>
<trkpt lat="40.49312" lon="-8.088271">
<ele>352</ele>
<time>2026-05-08T04:27:59Z</time></trkpt>
<trkpt lat="40.493266" lon="-8.088174">
<ele>352</ele>
<time>2026-05-08T04:28:02Z</time></trkpt>
<trkpt lat="40.494206" lon="-8.087273">
<ele>350</ele>
<time>2026-05-08T04:28:26Z</time></trkpt>
<trkpt lat="40.494327" lon="-8.087153">
<ele>350</ele>
<time>2026-05-08T04:28:29Z</time></trkpt>
<trkpt lat="40.495333" lon="-8.086116">
<ele>351</ele>
<time>2026-05-08T04:28:54Z</time></trkpt>
<trkpt lat="40.49578" lon="-8.085666">
<ele>354</ele>
<time>2026-05-08T04:29:06Z</time></trkpt>
<trkpt lat="40.496485" lon="-8.084969">
<ele>357</ele>
<time>2026-05-08T04:29:23Z</time></trkpt>
<trkpt lat="40.497173" lon="-8.08438">
<ele>360</ele>
<time>2026-05-08T04:29:40Z</time></trkpt>
<trkpt lat="40.497863" lon="-8.083952">
<ele>359</ele>
<time>2026-05-08T04:29:55Z</time></trkpt>
<trkpt lat="40.498509" lon="-8.083555">
<ele>359</ele>
<time>2026-05-08T04:30:09Z</time></trkpt>
<trkpt lat="40.498616" lon="-8.08347">
<ele>359</ele>
<time>2026-05-08T04:30:12Z</time></trkpt>
<trkpt lat="40.498739" lon="-8.083301">
<ele>358</ele>
<time>2026-05-08T04:30:15Z</time></trkpt>
<trkpt lat="40.498906" lon="-8.082994">
<ele>357</ele>
<time>2026-05-08T04:30:21Z</time></trkpt>
<trkpt lat="40.499075" lon="-8.082656">
<ele>355</ele>
<time>2026-05-08T04:30:27Z</time></trkpt>
<trkpt lat="40.499339" lon="-8.082048">
<ele>354</ele>
<time>2026-05-08T04:30:38Z</time></trkpt>
<trkpt lat="40.499455" lon="-8.081825">
<ele>354</ele>
<time>2026-05-08T04:30:42Z</time></trkpt>
<trkpt lat="40.499638" lon="-8.08159">
<ele>354</ele>
<time>2026-05-08T04:30:47Z</time></trkpt>
<trkpt lat="40.499792" lon="-8.08145">
<ele>354</ele>
<time>2026-05-08T04:30:51Z</time></trkpt>
<trkpt lat="40.500002" lon="-8.081453">
<ele>355</ele>
<time>2026-05-08T04:30:55Z</time></trkpt>
<trkpt lat="40.500194" lon="-8.081547">
<ele>356</ele>
<time>2026-05-08T04:30:59Z</time></trkpt>
<trkpt lat="40.500477" lon="-8.081738">
<ele>358</ele>
<time>2026-05-08T04:31:06Z</time></trkpt>
<trkpt lat="40.501052" lon="-8.082071">
<ele>359</ele>
<time>2026-05-08T04:31:18Z</time></trkpt>
<trkpt lat="40.501203" lon="-8.082141">
<ele>360</ele>
<time>2026-05-08T04:31:21Z</time></trkpt>
<trkpt lat="40.501332" lon="-8.082191">
<ele>360</ele>
<time>2026-05-08T04:31:24Z</time></trkpt>
<trkpt lat="40.501441" lon="-8.08218">
<ele>360</ele>
<time>2026-05-08T04:31:26Z</time></trkpt>
<trkpt lat="40.501547" lon="-8.082171">
<ele>361</ele>
<time>2026-05-08T04:31:28Z</time></trkpt>
<trkpt lat="40.501712" lon="-8.082083">
<ele>361</ele>
<time>2026-05-08T04:31:32Z</time></trkpt>
<trkpt lat="40.501796" lon="-8.082005">
<ele>361</ele>
<time>2026-05-08T04:31:34Z</time></trkpt>
<trkpt lat="40.501834" lon="-8.081932">
<ele>361</ele>
<time>2026-05-08T04:31:35Z</time></trkpt>
<trkpt lat="40.501873" lon="-8.081802">
<ele>361</ele>
<time>2026-05-08T04:31:38Z</time></trkpt>
<trkpt lat="40.501895" lon="-8.081778">
<ele>361</ele>
<time>2026-05-08T04:31:38Z</time></trkpt>
<trkpt lat="40.502105" lon="-8.081551">
<ele>362</ele>
<time>2026-05-08T04:31:44Z</time></trkpt>
<trkpt lat="40.502177" lon="-8.081526">
<ele>362</ele>
<time>2026-05-08T04:31:45Z</time></trkpt>
<trkpt lat="40.50227" lon="-8.081564">
<ele>363</ele>
<time>2026-05-08T04:31:47Z</time></trkpt>
<trkpt lat="40.502304" lon="-8.081666">
<ele>364</ele>
<time>2026-05-08T04:31:49Z</time></trkpt>
<trkpt lat="40.502312" lon="-8.081729">
<ele>364</ele>
<time>2026-05-08T04:31:50Z</time></trkpt>
<trkpt lat="40.502301" lon="-8.081788">
<ele>364</ele>
<time>2026-05-08T04:31:51Z</time></trkpt>
<trkpt lat="40.502315" lon="-8.081939">
<ele>364</ele>
<time>2026-05-08T04:31:53Z</time></trkpt>
<trkpt lat="40.502374" lon="-8.082036">
<ele>364</ele>
<time>2026-05-08T04:31:55Z</time></trkpt>
<trkpt lat="40.5023801" lon="-8.0820415">
<ele>364</ele>
<time>2026-05-08T04:31:55Z</time></trkpt>
<trkpt lat="40.502456" lon="-8.08211">
<ele>364</ele>
<time>2026-05-08T04:31:57Z</time></trkpt>
<trkpt lat="40.506681" lon="-8.083835">
<ele>335</ele>
<time>2026-05-08T04:33:25Z</time></trkpt>
<trkpt lat="40.506804" lon="-8.083869">
<ele>333</ele>
<time>2026-05-08T04:33:28Z</time></trkpt>
<trkpt lat="40.5069" lon="-8.083859">
<ele>333</ele>
<time>2026-05-08T04:33:30Z</time></trkpt>
<trkpt lat="40.506943" lon="-8.083826">
<ele>332</ele>
<time>2026-05-08T04:33:31Z</time></trkpt>
<trkpt lat="40.507041" lon="-8.08382">
<ele>331</ele>
<time>2026-05-08T04:33:33Z</time></trkpt>
<trkpt lat="40.507086" lon="-8.083848">
<ele>331</ele>
<time>2026-05-08T04:33:34Z</time></trkpt>
<trkpt lat="40.507144" lon="-8.083953">
<ele>330</ele>
<time>2026-05-08T04:33:36Z</time></trkpt>
<trkpt lat="40.507316" lon="-8.084076">
<ele>327</ele>
<time>2026-05-08T04:33:40Z</time></trkpt>
<trkpt lat="40.508071" lon="-8.084366">
<ele>323</ele>
<time>2026-05-08T04:33:56Z</time></trkpt>
<trkpt lat="40.509038" lon="-8.084721">
<ele>321</ele>
<time>2026-05-08T04:34:16Z</time></trkpt>
<trkpt lat="40.509261" lon="-8.084753">
<ele>321</ele>
<time>2026-05-08T04:34:20Z</time></trkpt>
<trkpt lat="40.509353" lon="-8.084698">
<ele>322</ele>
<time>2026-05-08T04:34:22Z</time></trkpt>
<trkpt lat="40.509451" lon="-8.084733">
<ele>322</ele>
<time>2026-05-08T04:34:24Z</time></trkpt>
<trkpt lat="40.509509" lon="-8.084841">
<ele>322</ele>
<time>2026-05-08T04:34:26Z</time></trkpt>
<trkpt lat="40.509509" lon="-8.084936">
<ele>321</ele>
<time>2026-05-08T04:34:28Z</time></trkpt>
<trkpt lat="40.509676" lon="-8.085118">
<ele>320</ele>
<time>2026-05-08T04:34:32Z</time></trkpt>
<trkpt lat="40.509798" lon="-8.085203">
<ele>319</ele>
<time>2026-05-08T04:34:35Z</time></trkpt>
<trkpt lat="40.51007" lon="-8.085344">
<ele>318</ele>
<time>2026-05-08T04:34:41Z</time></trkpt>
<trkpt lat="40.51018" lon="-8.085376">
<ele>316</ele>
<time>2026-05-08T04:34:43Z</time></trkpt>
<trkpt lat="40.51018" lon="-8.085376">
<ele>316</ele>
<time>2026-05-08T04:34:43Z</time></trkpt>
<trkpt lat="40.510693" lon="-8.085528">
<ele>310</ele>
<time>2026-05-08T04:34:53Z</time></trkpt>
<trkpt lat="40.510936" lon="-8.085648">
<ele>308</ele>
<time>2026-05-08T04:34:59Z</time></trkpt>
<trkpt lat="40.511169" lon="-8.0858">
<ele>307</ele>
<time>2026-05-08T04:35:04Z</time></trkpt>
<trkpt lat="40.511287" lon="-8.085808">
<ele>306</ele>
<time>2026-05-08T04:35:06Z</time></trkpt>
<trkpt lat="40.511322" lon="-8.085778">
<ele>306</ele>
<time>2026-05-08T04:35:07Z</time></trkpt>
<trkpt lat="40.511388" lon="-8.085762">
<ele>306</ele>
<time>2026-05-08T04:35:08Z</time></trkpt>
<trkpt lat="40.511428" lon="-8.085772">
<ele>305</ele>
<time>2026-05-08T04:35:09Z</time></trkpt>
<trkpt lat="40.511488" lon="-8.085826">
<ele>305</ele>
<time>2026-05-08T04:35:11Z</time></trkpt>
<trkpt lat="40.511518" lon="-8.085906">
<ele>305</ele>
<time>2026-05-08T04:35:12Z</time></trkpt>
<trkpt lat="40.511515" lon="-8.085996">
<ele>304</ele>
<time>2026-05-08T04:35:13Z</time></trkpt>
<trkpt lat="40.511552" lon="-8.086202">
<ele>304</ele>
<time>2026-05-08T04:35:17Z</time></trkpt>
<trkpt lat="40.512082" lon="-8.087145">
<ele>299</ele>
<time>2026-05-08T04:35:34Z</time></trkpt>
<trkpt lat="40.51249" lon="-8.087772">
<ele>297</ele>
<time>2026-05-08T04:35:47Z</time></trkpt>
<trkpt lat="40.51278" lon="-8.088178">
<ele>296</ele>
<time>2026-05-08T04:35:56Z</time></trkpt>
<trkpt lat="40.512914" lon="-8.088295">
<ele>296</ele>
<time>2026-05-08T04:35:59Z</time></trkpt>
<trkpt lat="40.512975" lon="-8.088268">
<ele>296</ele>
<time>2026-05-08T04:36:00Z</time></trkpt>
<trkpt lat="40.513017" lon="-8.088288">
<ele>296</ele>
<time>2026-05-08T04:36:01Z</time></trkpt>
<trkpt lat="40.51305" lon="-8.088371">
<ele>296</ele>
<time>2026-05-08T04:36:02Z</time></trkpt>
<trkpt lat="40.513046" lon="-8.088405">
<ele>296</ele>
<time>2026-05-08T04:36:03Z</time></trkpt>
<trkpt lat="40.513348" lon="-8.088653">
<ele>295</ele>
<time>2026-05-08T04:36:10Z</time></trkpt>
<trkpt lat="40.513817" lon="-8.088924">
<ele>294</ele>
<time>2026-05-08T04:36:20Z</time></trkpt>
<trkpt lat="40.513905" lon="-8.08899">
<ele>294</ele>
<time>2026-05-08T04:36:22Z</time></trkpt>
<trkpt lat="40.514002" lon="-8.089096">
<ele>293</ele>
<time>2026-05-08T04:36:25Z</time></trkpt>
<trkpt lat="40.514724" lon="-8.090164">
<ele>295</ele>
<time>2026-05-08T04:36:47Z</time></trkpt>
<trkpt lat="40.514925" lon="-8.090324">
<ele>296</ele>
<time>2026-05-08T04:36:51Z</time></trkpt>
<trkpt lat="40.514981" lon="-8.090322">
<ele>296</ele>
<time>2026-05-08T04:36:52Z</time></trkpt>
<trkpt lat="40.515081" lon="-8.090386">
<ele>296</ele>
<time>2026-05-08T04:36:55Z</time></trkpt>
<trkpt lat="40.515133" lon="-8.090515">
<ele>297</ele>
<time>2026-05-08T04:36:57Z</time></trkpt>
<trkpt lat="40.515134" lon="-8.090589">
<ele>298</ele>
<time>2026-05-08T04:36:58Z</time></trkpt>
<trkpt lat="40.515171" lon="-8.090739">
<ele>298</ele>
<time>2026-05-08T04:37:00Z</time></trkpt>
<trkpt lat="40.515764" lon="-8.091475">
<ele>301</ele>
<time>2026-05-08T04:37:17Z</time></trkpt>
<trkpt lat="40.516002" lon="-8.091723">
<ele>301</ele>
<time>2026-05-08T04:37:23Z</time></trkpt>
<trkpt lat="40.516304" lon="-8.091961">
<ele>300</ele>
<time>2026-05-08T04:37:30Z</time></trkpt>
<trkpt lat="40.516473" lon="-8.092069">
<ele>299</ele>
<time>2026-05-08T04:37:34Z</time></trkpt>
<trkpt lat="40.516742" lon="-8.092192">
<ele>297</ele>
<time>2026-05-08T04:37:39Z</time></trkpt>
<trkpt lat="40.517037" lon="-8.092289">
<ele>294</ele>
<time>2026-05-08T04:37:45Z</time></trkpt>
<trkpt lat="40.517454" lon="-8.092341">
<ele>290</ele>
<time>2026-05-08T04:37:54Z</time></trkpt>
<trkpt lat="40.517737" lon="-8.092327">
<ele>288</ele>
<time>2026-05-08T04:38:00Z</time></trkpt>
<trkpt lat="40.518123" lon="-8.092249">
<ele>286</ele>
<time>2026-05-08T04:38:07Z</time></trkpt>
<trkpt lat="40.518494" lon="-8.09211">
<ele>283</ele>
<time>2026-05-08T04:38:15Z</time></trkpt>
<trkpt lat="40.519095" lon="-8.091816">
<ele>281</ele>
<time>2026-05-08T04:38:28Z</time></trkpt>
<trkpt lat="40.51935" lon="-8.091616">
<ele>281</ele>
<time>2026-05-08T04:38:34Z</time></trkpt>
<trkpt lat="40.519473" lon="-8.091463">
<ele>281</ele>
<time>2026-05-08T04:38:37Z</time></trkpt>
<trkpt lat="40.519473" lon="-8.091463">
<ele>281</ele>
<time>2026-05-08T04:38:37Z</time></trkpt>
<trkpt lat="40.519628" lon="-8.091216">
<ele>281</ele>
<time>2026-05-08T04:38:42Z</time></trkpt>
<trkpt lat="40.519714" lon="-8.091035">
<ele>281</ele>
<time>2026-05-08T04:38:45Z</time></trkpt>
<trkpt lat="40.5198" lon="-8.09074">
<ele>281</ele>
<time>2026-05-08T04:38:50Z</time></trkpt>
<trkpt lat="40.519843" lon="-8.090509">
<ele>281</ele>
<time>2026-05-08T04:38:54Z</time></trkpt>
<trkpt lat="40.519862" lon="-8.090191">
<ele>281</ele>
<time>2026-05-08T04:38:59Z</time></trkpt>
<trkpt lat="40.519837" lon="-8.089729">
<ele>281</ele>
<time>2026-05-08T04:39:06Z</time></trkpt>
<trkpt lat="40.519812" lon="-8.08942">
<ele>281</ele>
<time>2026-05-08T04:39:10Z</time></trkpt>
<trkpt lat="40.519764" lon="-8.089088">
<ele>281</ele>
<time>2026-05-08T04:39:16Z</time></trkpt>
<trkpt lat="40.519697" lon="-8.088834">
<ele>282</ele>
<time>2026-05-08T04:39:20Z</time></trkpt>
<trkpt lat="40.51927" lon="-8.087727">
<ele>283</ele>
<time>2026-05-08T04:39:39Z</time></trkpt>
<trkpt lat="40.519207" lon="-8.087628">
<ele>282</ele>
<time>2026-05-08T04:39:41Z</time></trkpt>
<trkpt lat="40.519209" lon="-8.087533">
<ele>282</ele>
<time>2026-05-08T04:39:42Z</time></trkpt>
<trkpt lat="40.51883" lon="-8.086511">
<ele>285</ele>
<time>2026-05-08T04:39:59Z</time></trkpt>
<trkpt lat="40.518734" lon="-8.086154">
<ele>286</ele>
<time>2026-05-08T04:40:05Z</time></trkpt>
<trkpt lat="40.518599" lon="-8.084735">
<ele>291</ele>
<time>2026-05-08T04:40:27Z</time></trkpt>
<trkpt lat="40.518609" lon="-8.083997">
<ele>294</ele>
<time>2026-05-08T04:40:38Z</time></trkpt>
<trkpt lat="40.518585" lon="-8.083822">
<ele>295</ele>
<time>2026-05-08T04:40:41Z</time></trkpt>
<trkpt lat="40.518547" lon="-8.083714">
<ele>295</ele>
<time>2026-05-08T04:40:43Z</time></trkpt>
<trkpt lat="40.518582" lon="-8.083623">
<ele>296</ele>
<time>2026-05-08T04:40:44Z</time></trkpt>
<trkpt lat="40.518605" lon="-8.083603">
<ele>296</ele>
<time>2026-05-08T04:40:45Z</time></trkpt>
<trkpt lat="40.518652" lon="-8.08344">
<ele>297</ele>
<time>2026-05-08T04:40:47Z</time></trkpt>
<trkpt lat="40.518664" lon="-8.083191">
<ele>298</ele>
<time>2026-05-08T04:40:51Z</time></trkpt>
<trkpt lat="40.518653" lon="-8.08317">
<ele>298</ele>
<time>2026-05-08T04:40:52Z</time></trkpt>
<trkpt lat="40.518642" lon="-8.083122">
<ele>298</ele>
<time>2026-05-08T04:40:52Z</time></trkpt>
<trkpt lat="40.518654" lon="-8.083072">
<ele>298</ele>
<time>2026-05-08T04:40:53Z</time></trkpt>
<trkpt lat="40.518691" lon="-8.083032">
<ele>298</ele>
<time>2026-05-08T04:40:54Z</time></trkpt>
<trkpt lat="40.518738" lon="-8.083029">
<ele>298</ele>
<time>2026-05-08T04:40:55Z</time></trkpt>
<trkpt lat="40.518776" lon="-8.083062">
<ele>298</ele>
<time>2026-05-08T04:40:56Z</time></trkpt>
<trkpt lat="40.518792" lon="-8.083118">
<ele>298</ele>
<time>2026-05-08T04:40:57Z</time></trkpt>
<trkpt lat="40.520453" lon="-8.083249">
<ele>299</ele>
<time>2026-05-08T04:41:30Z</time></trkpt>
<trkpt lat="40.520453" lon="-8.083249">
<ele>299</ele>
<time>2026-05-08T04:41:30Z</time></trkpt>
<trkpt lat="40.5206432" lon="-8.0832634">
<ele>298</ele>
<time>2026-05-08T04:41:34Z</time></trkpt>
<trkpt lat="40.52118" lon="-8.083304">
<ele>298</ele>
<time>2026-05-08T04:41:45Z</time></trkpt>
<trkpt lat="40.521292" lon="-8.083192">
<ele>298</ele>
<time>2026-05-08T04:41:48Z</time></trkpt>
<trkpt lat="40.521317" lon="-8.083127">
<ele>298</ele>
<time>2026-05-08T04:41:49Z</time></trkpt>
<trkpt lat="40.521395" lon="-8.083096">
<ele>297</ele>
<time>2026-05-08T04:41:50Z</time></trkpt>
<trkpt lat="40.521444" lon="-8.083131">
<ele>297</ele>
<time>2026-05-08T04:41:52Z</time></trkpt>
<trkpt lat="40.52146" lon="-8.083164">
<ele>298</ele>
<time>2026-05-08T04:41:52Z</time></trkpt>
<trkpt lat="40.521577" lon="-8.083325">
<ele>298</ele>
<time>2026-05-08T04:41:56Z</time></trkpt>
<trkpt lat="40.522185" lon="-8.0834">
<ele>295</ele>
<time>2026-05-08T04:42:08Z</time></trkpt>
<trkpt lat="40.522396" lon="-8.083473">
<ele>294</ele>
<time>2026-05-08T04:42:12Z</time></trkpt>
<trkpt lat="40.522472" lon="-8.083535">
<ele>293</ele>
<time>2026-05-08T04:42:14Z</time></trkpt>
<trkpt lat="40.522574" lon="-8.083559">
<ele>293</ele>
<time>2026-05-08T04:42:16Z</time></trkpt>
<trkpt lat="40.522652" lon="-8.083612">
<ele>293</ele>
<time>2026-05-08T04:42:18Z</time></trkpt>
<trkpt lat="40.522713" lon="-8.083681">
<ele>293</ele>
<time>2026-05-08T04:42:19Z</time></trkpt>
<trkpt lat="40.522737" lon="-8.083668">
<ele>293</ele>
<time>2026-05-08T04:42:20Z</time></trkpt>
<trkpt lat="40.522789" lon="-8.083672">
<ele>293</ele>
<time>2026-05-08T04:42:21Z</time></trkpt>
<trkpt lat="40.522831" lon="-8.083714">
<ele>293</ele>
<time>2026-05-08T04:42:22Z</time></trkpt>
<trkpt lat="40.522846" lon="-8.083764">
<ele>293</ele>
<time>2026-05-08T04:42:23Z</time></trkpt>
<trkpt lat="40.52306" lon="-8.084084">
<ele>291</ele>
<time>2026-05-08T04:42:29Z</time></trkpt>
<trkpt lat="40.523304" lon="-8.084308">
<ele>290</ele>
<time>2026-05-08T04:42:35Z</time></trkpt>
<trkpt lat="40.524641" lon="-8.085168">
<ele>282</ele>
<time>2026-05-08T04:43:05Z</time></trkpt>
<trkpt lat="40.524994" lon="-8.085442">
<ele>281</ele>
<time>2026-05-08T04:43:13Z</time></trkpt>
<trkpt lat="40.525217" lon="-8.085657">
<ele>281</ele>
<time>2026-05-08T04:43:19Z</time></trkpt>
<trkpt lat="40.525307" lon="-8.085779">
<ele>281</ele>
<time>2026-05-08T04:43:21Z</time></trkpt>
<trkpt lat="40.52546" lon="-8.086086">
<ele>281</ele>
<time>2026-05-08T04:43:27Z</time></trkpt>
<trkpt lat="40.525572" lon="-8.086212">
<ele>281</ele>
<time>2026-05-08T04:43:30Z</time></trkpt>
<trkpt lat="40.525655" lon="-8.086261">
<ele>281</ele>
<time>2026-05-08T04:43:32Z</time></trkpt>
<trkpt lat="40.52571" lon="-8.086376">
<ele>281</ele>
<time>2026-05-08T04:43:34Z</time></trkpt>
<trkpt lat="40.525705" lon="-8.086505">
<ele>281</ele>
<time>2026-05-08T04:43:36Z</time></trkpt>
<trkpt lat="40.525625" lon="-8.086627">
<ele>281</ele>
<time>2026-05-08T04:43:38Z</time></trkpt>
<trkpt lat="40.525549" lon="-8.086946">
<ele>281</ele>
<time>2026-05-08T04:43:43Z</time></trkpt>
<trkpt lat="40.525623" lon="-8.087442">
<ele>283</ele>
<time>2026-05-08T04:43:51Z</time></trkpt>
<trkpt lat="40.525709" lon="-8.087875">
<ele>284</ele>
<time>2026-05-08T04:43:58Z</time></trkpt>
<trkpt lat="40.525855" lon="-8.08824">
<ele>286</ele>
<time>2026-05-08T04:44:04Z</time></trkpt>
<trkpt lat="40.526029" lon="-8.088524">
<ele>288</ele>
<time>2026-05-08T04:44:10Z</time></trkpt>
<trkpt lat="40.52615" lon="-8.08866">
<ele>290</ele>
<time>2026-05-08T04:44:13Z</time></trkpt>
<trkpt lat="40.526378" lon="-8.088849">
<ele>291</ele>
<time>2026-05-08T04:44:18Z</time></trkpt>
<trkpt lat="40.526646" lon="-8.088989">
<ele>293</ele>
<time>2026-05-08T04:44:24Z</time></trkpt>
<trkpt lat="40.526809" lon="-8.089031">
<ele>293</ele>
<time>2026-05-08T04:44:27Z</time></trkpt>
<trkpt lat="40.527137" lon="-8.08906">
<ele>292</ele>
<time>2026-05-08T04:44:34Z</time></trkpt>
<trkpt lat="40.527333" lon="-8.088923">
<ele>292</ele>
<time>2026-05-08T04:44:38Z</time></trkpt>
<trkpt lat="40.527341" lon="-8.088881">
<ele>292</ele>
<time>2026-05-08T04:44:39Z</time></trkpt>
<trkpt lat="40.5274" lon="-8.088778">
<ele>292</ele>
<time>2026-05-08T04:44:41Z</time></trkpt>
<trkpt lat="40.527492" lon="-8.088735">
<ele>293</ele>
<time>2026-05-08T04:44:43Z</time></trkpt>
<trkpt lat="40.527557" lon="-8.088747">
<ele>293</ele>
<time>2026-05-08T04:44:44Z</time></trkpt>
<trkpt lat="40.527711" lon="-8.088729">
<ele>293</ele>
<time>2026-05-08T04:44:47Z</time></trkpt>
<trkpt lat="40.527841" lon="-8.088668">
<ele>293</ele>
<time>2026-05-08T04:44:50Z</time></trkpt>
<trkpt lat="40.528801" lon="-8.088002">
<ele>298</ele>
<time>2026-05-08T04:45:12Z</time></trkpt>
<trkpt lat="40.529392" lon="-8.087577">
<ele>302</ele>
<time>2026-05-08T04:45:25Z</time></trkpt>
<trkpt lat="40.530454" lon="-8.086722">
<ele>298</ele>
<time>2026-05-08T04:45:50Z</time></trkpt>
<trkpt lat="40.530539" lon="-8.086576">
<ele>298</ele>
<time>2026-05-08T04:45:53Z</time></trkpt>
<trkpt lat="40.530547" lon="-8.086505">
<ele>298</ele>
<time>2026-05-08T04:45:54Z</time></trkpt>
<trkpt lat="40.530611" lon="-8.086391">
<ele>298</ele>
<time>2026-05-08T04:45:56Z</time></trkpt>
<trkpt lat="40.530715" lon="-8.086351">
<ele>298</ele>
<time>2026-05-08T04:45:59Z</time></trkpt>
<trkpt lat="40.530769" lon="-8.086366">
<ele>298</ele>
<time>2026-05-08T04:46:00Z</time></trkpt>
<trkpt lat="40.530901" lon="-8.086348">
<ele>298</ele>
<time>2026-05-08T04:46:02Z</time></trkpt>
<trkpt lat="40.531772" lon="-8.085726">
<ele>301</ele>
<time>2026-05-08T04:46:22Z</time></trkpt>
<trkpt lat="40.532226" lon="-8.085471">
<ele>304</ele>
<time>2026-05-08T04:46:32Z</time></trkpt>
<trkpt lat="40.53249" lon="-8.085388">
<ele>305</ele>
<time>2026-05-08T04:46:38Z</time></trkpt>
<trkpt lat="40.532685" lon="-8.085359">
<ele>305</ele>
<time>2026-05-08T04:46:42Z</time></trkpt>
<trkpt lat="40.53284" lon="-8.085257">
<ele>305</ele>
<time>2026-05-08T04:46:45Z</time></trkpt>
<trkpt lat="40.532857" lon="-8.085242">
<ele>305</ele>
<time>2026-05-08T04:46:45Z</time></trkpt>
<trkpt lat="40.532929" lon="-8.0852">
<ele>305</ele>
<time>2026-05-08T04:46:47Z</time></trkpt>
<trkpt lat="40.533028" lon="-8.085217">
<ele>305</ele>
<time>2026-05-08T04:46:49Z</time></trkpt>
<trkpt lat="40.53323" lon="-8.085211">
<ele>306</ele>
<time>2026-05-08T04:46:53Z</time></trkpt>
<trkpt lat="40.533381" lon="-8.085137">
<ele>306</ele>
<time>2026-05-08T04:46:56Z</time></trkpt>
<trkpt lat="40.533664" lon="-8.085036">
<ele>306</ele>
<time>2026-05-08T04:47:02Z</time></trkpt>
<trkpt lat="40.533964" lon="-8.085">
<ele>305</ele>
<time>2026-05-08T04:47:08Z</time></trkpt>
<trkpt lat="40.534538" lon="-8.085015">
<ele>305</ele>
<time>2026-05-08T04:47:20Z</time></trkpt>
<trkpt lat="40.538703" lon="-8.085698">
<ele>326</ele>
<time>2026-05-08T04:48:44Z</time></trkpt>
<trkpt lat="40.538758" lon="-8.085707">
<ele>326</ele>
<time>2026-05-08T04:48:45Z</time></trkpt>
<trkpt lat="40.539007" lon="-8.085732">
<ele>328</ele>
<time>2026-05-08T04:48:50Z</time></trkpt>
<trkpt lat="40.539119" lon="-8.085728">
<ele>328</ele>
<time>2026-05-08T04:48:52Z</time></trkpt>
<trkpt lat="40.539243" lon="-8.085697">
<ele>328</ele>
<time>2026-05-08T04:48:55Z</time></trkpt>
<trkpt lat="40.539275" lon="-8.085671">
<ele>328</ele>
<time>2026-05-08T04:48:55Z</time></trkpt>
<trkpt lat="40.53934" lon="-8.085656">
<ele>328</ele>
<time>2026-05-08T04:48:57Z</time></trkpt>
<trkpt lat="40.539401" lon="-8.08569">
<ele>328</ele>
<time>2026-05-08T04:48:58Z</time></trkpt>
<trkpt lat="40.539416" lon="-8.085709">
<ele>329</ele>
<time>2026-05-08T04:48:58Z</time></trkpt>
<trkpt lat="40.539592" lon="-8.085811">
<ele>329</ele>
<time>2026-05-08T04:49:02Z</time></trkpt>
<trkpt lat="40.539988" lon="-8.085923">
<ele>330</ele>
<time>2026-05-08T04:49:10Z</time></trkpt>
<trkpt lat="40.540596" lon="-8.086024">
<ele>335</ele>
<time>2026-05-08T04:49:23Z</time></trkpt>
<trkpt lat="40.542311" lon="-8.086308">
<ele>337</ele>
<time>2026-05-08T04:49:57Z</time></trkpt>
<trkpt lat="40.542311" lon="-8.086308">
<ele>337</ele>
<time>2026-05-08T04:49:57Z</time></trkpt>
<trkpt lat="40.543833" lon="-8.08656">
<ele>342</ele>
<time>2026-05-08T04:50:28Z</time></trkpt>
<trkpt lat="40.544285" lon="-8.086562">
<ele>343</ele>
<time>2026-05-08T04:50:37Z</time></trkpt>
<trkpt lat="40.544591" lon="-8.086495">
<ele>343</ele>
<time>2026-05-08T04:50:43Z</time></trkpt>
<trkpt lat="40.547917" lon="-8.085547">
<ele>348</ele>
<time>2026-05-08T04:51:52Z</time></trkpt>
<trkpt lat="40.548582" lon="-8.085354">
<ele>348</ele>
<time>2026-05-08T04:52:05Z</time></trkpt>
<trkpt lat="40.548842" lon="-8.085282">
<ele>349</ele>
<time>2026-05-08T04:52:11Z</time></trkpt>
<trkpt lat="40.550828" lon="-8.084729">
<ele>355</ele>
<time>2026-05-08T04:52:51Z</time></trkpt>
<trkpt lat="40.551158" lon="-8.084689">
<ele>357</ele>
<time>2026-05-08T04:52:58Z</time></trkpt>
<trkpt lat="40.551595" lon="-8.084705">
<ele>359</ele>
<time>2026-05-08T04:53:07Z</time></trkpt>
<trkpt lat="40.553484" lon="-8.084984">
<ele>357</ele>
<time>2026-05-08T04:53:45Z</time></trkpt>
<trkpt lat="40.554988" lon="-8.08518">
<ele>356</ele>
<time>2026-05-08T04:54:15Z</time></trkpt>
<trkpt lat="40.555365" lon="-8.085193">
<ele>358</ele>
<time>2026-05-08T04:54:23Z</time></trkpt>
<trkpt lat="40.556115" lon="-8.085101">
<ele>360</ele>
<time>2026-05-08T04:54:38Z</time></trkpt>
<trkpt lat="40.556705" lon="-8.08503">
<ele>358</ele>
<time>2026-05-08T04:54:50Z</time></trkpt>
<trkpt lat="40.556961" lon="-8.085044">
<ele>359</ele>
<time>2026-05-08T04:54:55Z</time></trkpt>
<trkpt lat="40.557214" lon="-8.085088">
<ele>359</ele>
<time>2026-05-08T04:55:00Z</time></trkpt>
<trkpt lat="40.558169" lon="-8.085344">
<ele>364</ele>
<time>2026-05-08T04:55:19Z</time></trkpt>
<trkpt lat="40.55854" lon="-8.085362">
<ele>364</ele>
<time>2026-05-08T04:55:27Z</time></trkpt>
<trkpt lat="40.558776" lon="-8.085317">
<ele>364</ele>
<time>2026-05-08T04:55:32Z</time></trkpt>
<trkpt lat="40.559147" lon="-8.085203">
<ele>363</ele>
<time>2026-05-08T04:55:39Z</time></trkpt>
<trkpt lat="40.559714" lon="-8.084981">
<ele>367</ele>
<time>2026-05-08T04:55:51Z</time></trkpt>
<trkpt lat="40.56024" lon="-8.084776">
<ele>369</ele>
<time>2026-05-08T04:56:02Z</time></trkpt>
<trkpt lat="40.560536" lon="-8.084719">
<ele>369</ele>
<time>2026-05-08T04:56:08Z</time></trkpt>
<trkpt lat="40.560953" lon="-8.084745">
<ele>371</ele>
<time>2026-05-08T04:56:16Z</time></trkpt>
<trkpt lat="40.562413" lon="-8.084893">
<ele>376</ele>
<time>2026-05-08T04:56:46Z</time></trkpt>
<trkpt lat="40.562735" lon="-8.084855">
<ele>375</ele>
<time>2026-05-08T04:56:52Z</time></trkpt>
<trkpt lat="40.562842" lon="-8.084814">
<ele>375</ele>
<time>2026-05-08T04:56:54Z</time></trkpt>
<trkpt lat="40.563008" lon="-8.084751">
<ele>375</ele>
<time>2026-05-08T04:56:58Z</time></trkpt>
<trkpt lat="40.563229" lon="-8.084606">
<ele>375</ele>
<time>2026-05-08T04:57:03Z</time></trkpt>
<trkpt lat="40.563475" lon="-8.084326">
<ele>375</ele>
<time>2026-05-08T04:57:09Z</time></trkpt>
<trkpt lat="40.563509" lon="-8.084265">
<ele>375</ele>
<time>2026-05-08T04:57:10Z</time></trkpt>
<trkpt lat="40.56363" lon="-8.084055">
<ele>376</ele>
<time>2026-05-08T04:57:14Z</time></trkpt>
<trkpt lat="40.564422" lon="-8.082051">
<ele>379</ele>
<time>2026-05-08T04:57:49Z</time></trkpt>
<trkpt lat="40.565093" lon="-8.080285">
<ele>385</ele>
<time>2026-05-08T04:58:19Z</time></trkpt>
<trkpt lat="40.56524" lon="-8.079955">
<ele>385</ele>
<time>2026-05-08T04:58:25Z</time></trkpt>
<trkpt lat="40.565549" lon="-8.079518">
<ele>383</ele>
<time>2026-05-08T04:58:34Z</time></trkpt>
<trkpt lat="40.565756" lon="-8.079319">
<ele>381</ele>
<time>2026-05-08T04:58:39Z</time></trkpt>
<trkpt lat="40.567787" lon="-8.077893">
<ele>380</ele>
<time>2026-05-08T04:59:25Z</time></trkpt>
<trkpt lat="40.567976" lon="-8.077701">
<ele>380</ele>
<time>2026-05-08T04:59:30Z</time></trkpt>
<trkpt lat="40.56819" lon="-8.077433">
<ele>380</ele>
<time>2026-05-08T04:59:36Z</time></trkpt>
<trkpt lat="40.56838" lon="-8.07713">
<ele>380</ele>
<time>2026-05-08T04:59:42Z</time></trkpt>
<trkpt lat="40.569745" lon="-8.074945">
<ele>376</ele>
<time>2026-05-08T05:00:25Z</time></trkpt>
<trkpt lat="40.570634" lon="-8.07356">
<ele>374</ele>
<time>2026-05-08T05:00:52Z</time></trkpt>
<trkpt lat="40.570856" lon="-8.073324">
<ele>373</ele>
<time>2026-05-08T05:00:58Z</time></trkpt>
<trkpt lat="40.571058" lon="-8.073203">
<ele>372</ele>
<time>2026-05-08T05:01:03Z</time></trkpt>
<trkpt lat="40.571306" lon="-8.073123">
<ele>372</ele>
<time>2026-05-08T05:01:08Z</time></trkpt>
<trkpt lat="40.571443" lon="-8.07313">
<ele>372</ele>
<time>2026-05-08T05:01:10Z</time></trkpt>
<trkpt lat="40.571592" lon="-8.073137">
<ele>372</ele>
<time>2026-05-08T05:01:13Z</time></trkpt>
<trkpt lat="40.571875" lon="-8.073233">
<ele>370</ele>
<time>2026-05-08T05:01:19Z</time></trkpt>
<trkpt lat="40.572863" lon="-8.073829">
<ele>364</ele>
<time>2026-05-08T05:01:41Z</time></trkpt>
<trkpt lat="40.574043" lon="-8.074542">
<ele>356</ele>
<time>2026-05-08T05:02:07Z</time></trkpt>
<trkpt lat="40.574126" lon="-8.074592">
<ele>356</ele>
<time>2026-05-08T05:02:09Z</time></trkpt>
<trkpt lat="40.574423" lon="-8.074661">
<ele>354</ele>
<time>2026-05-08T05:02:15Z</time></trkpt>
<trkpt lat="40.574458" lon="-8.074619">
<ele>354</ele>
<time>2026-05-08T05:02:16Z</time></trkpt>
<trkpt lat="40.574542" lon="-8.074591">
<ele>353</ele>
<time>2026-05-08T05:02:18Z</time></trkpt>
<trkpt lat="40.574585" lon="-8.074605">
<ele>353</ele>
<time>2026-05-08T05:02:19Z</time></trkpt>
<trkpt lat="40.574615" lon="-8.074629">
<ele>353</ele>
<time>2026-05-08T05:02:19Z</time></trkpt>
<trkpt lat="40.574656" lon="-8.074703">
<ele>353</ele>
<time>2026-05-08T05:02:21Z</time></trkpt>
<trkpt lat="40.574899" lon="-8.074984">
<ele>354</ele>
<time>2026-05-08T05:02:27Z</time></trkpt>
<trkpt lat="40.575155" lon="-8.075136">
<ele>354</ele>
<time>2026-05-08T05:02:33Z</time></trkpt>
<trkpt lat="40.57533" lon="-8.075285">
<ele>354</ele>
<time>2026-05-08T05:02:37Z</time></trkpt>
<trkpt lat="40.57551" lon="-8.075532">
<ele>354</ele>
<time>2026-05-08T05:02:42Z</time></trkpt>
<trkpt lat="40.575946" lon="-8.076268">
<ele>357</ele>
<time>2026-05-08T05:02:56Z</time></trkpt>
<trkpt lat="40.576222" lon="-8.076733">
<ele>357</ele>
<time>2026-05-08T05:03:05Z</time></trkpt>
<trkpt lat="40.576526" lon="-8.077099">
<ele>357</ele>
<time>2026-05-08T05:03:14Z</time></trkpt>
<trkpt lat="40.576778" lon="-8.077303">
<ele>356</ele>
<time>2026-05-08T05:03:20Z</time></trkpt>
<trkpt lat="40.577468" lon="-8.077696">
<ele>356</ele>
<time>2026-05-08T05:03:35Z</time></trkpt>
<trkpt lat="40.578665" lon="-8.078077">
<ele>355</ele>
<time>2026-05-08T05:03:59Z</time></trkpt>
<trkpt lat="40.578988" lon="-8.078175">
<ele>356</ele>
<time>2026-05-08T05:04:06Z</time></trkpt>
<trkpt lat="40.579498" lon="-8.078319">
<ele>358</ele>
<time>2026-05-08T05:04:16Z</time></trkpt>
<trkpt lat="40.579783" lon="-8.07845">
<ele>358</ele>
<time>2026-05-08T05:04:22Z</time></trkpt>
<trkpt lat="40.579983" lon="-8.078621">
<ele>358</ele>
<time>2026-05-08T05:04:27Z</time></trkpt>
<trkpt lat="40.580266" lon="-8.078931">
<ele>358</ele>
<time>2026-05-08T05:04:35Z</time></trkpt>
<trkpt lat="40.581368" lon="-8.080215">
<ele>364</ele>
<time>2026-05-08T05:05:04Z</time></trkpt>
<trkpt lat="40.581823" lon="-8.080762">
<ele>363</ele>
<time>2026-05-08T05:05:16Z</time></trkpt>
<trkpt lat="40.581899" lon="-8.080905">
<ele>363</ele>
<time>2026-05-08T05:05:19Z</time></trkpt>
<trkpt lat="40.582032" lon="-8.081174">
<ele>363</ele>
<time>2026-05-08T05:05:24Z</time></trkpt>
<trkpt lat="40.582153" lon="-8.081356">
<ele>362</ele>
<time>2026-05-08T05:05:28Z</time></trkpt>
<trkpt lat="40.582308" lon="-8.08153">
<ele>362</ele>
<time>2026-05-08T05:05:32Z</time></trkpt>
<trkpt lat="40.582347" lon="-8.081566">
<ele>362</ele>
<time>2026-05-08T05:05:33Z</time></trkpt>
<trkpt lat="40.582379" lon="-8.08168">
<ele>362</ele>
<time>2026-05-08T05:05:34Z</time></trkpt>
<trkpt lat="40.582446" lon="-8.081883">
<ele>364</ele>
<time>2026-05-08T05:05:38Z</time></trkpt>
<trkpt lat="40.582524" lon="-8.082033">
<ele>365</ele>
<time>2026-05-08T05:05:41Z</time></trkpt>
<trkpt lat="40.5831" lon="-8.082635">
<ele>366</ele>
<time>2026-05-08T05:05:55Z</time></trkpt>
<trkpt lat="40.583257" lon="-8.082835">
<ele>366</ele>
<time>2026-05-08T05:06:00Z</time></trkpt>
<trkpt lat="40.583404" lon="-8.083084">
<ele>366</ele>
<time>2026-05-08T05:06:05Z</time></trkpt>
<trkpt lat="40.583754" lon="-8.08387">
<ele>365</ele>
<time>2026-05-08T05:06:18Z</time></trkpt>
<trkpt lat="40.584247" lon="-8.084952">
<ele>366</ele>
<time>2026-05-08T05:06:38Z</time></trkpt>
<trkpt lat="40.584562" lon="-8.085488">
<ele>366</ele>
<time>2026-05-08T05:06:48Z</time></trkpt>
<trkpt lat="40.5849" lon="-8.085889">
<ele>366</ele>
<time>2026-05-08T05:06:57Z</time></trkpt>
<trkpt lat="40.585193" lon="-8.086154">
<ele>366</ele>
<time>2026-05-08T05:07:04Z</time></trkpt>
<trkpt lat="40.585811" lon="-8.086507">
<ele>368</ele>
<time>2026-05-08T05:07:18Z</time></trkpt>
<trkpt lat="40.586337" lon="-8.08677">
<ele>371</ele>
<time>2026-05-08T05:07:29Z</time></trkpt>
<trkpt lat="40.588067" lon="-8.087638">
<ele>375</ele>
<time>2026-05-08T05:08:06Z</time></trkpt>
<trkpt lat="40.589378" lon="-8.088302">
<ele>373</ele>
<time>2026-05-08T05:08:34Z</time></trkpt>
<trkpt lat="40.591733" lon="-8.089485">
<ele>381</ele>
<time>2026-05-08T05:09:25Z</time></trkpt>
<trkpt lat="40.593174" lon="-8.090218">
<ele>391</ele>
<time>2026-05-08T05:09:56Z</time></trkpt>
<trkpt lat="40.593961" lon="-8.090661">
<ele>393</ele>
<time>2026-05-08T05:10:13Z</time></trkpt>
<trkpt lat="40.595952" lon="-8.091909">
<ele>410</ele>
<time>2026-05-08T05:10:57Z</time></trkpt>
<trkpt lat="40.597747" lon="-8.09303">
<ele>411</ele>
<time>2026-05-08T05:11:37Z</time></trkpt>
<trkpt lat="40.598429" lon="-8.093456">
<ele>409</ele>
<time>2026-05-08T05:11:52Z</time></trkpt>
<trkpt lat="40.599489" lon="-8.094015">
<ele>408</ele>
<time>2026-05-08T05:12:15Z</time></trkpt>
<trkpt lat="40.600045" lon="-8.094249">
<ele>410</ele>
<time>2026-05-08T05:12:26Z</time></trkpt>
<trkpt lat="40.603156" lon="-8.095444">
<ele>417</ele>
<time>2026-05-08T05:13:31Z</time></trkpt>
<trkpt lat="40.603736" lon="-8.095624">
<ele>418</ele>
<time>2026-05-08T05:13:43Z</time></trkpt>
<trkpt lat="40.604066" lon="-8.095729">
<ele>418</ele>
<time>2026-05-08T05:13:50Z</time></trkpt>
<trkpt lat="40.604346" lon="-8.095804">
<ele>419</ele>
<time>2026-05-08T05:13:56Z</time></trkpt>
<trkpt lat="40.604593" lon="-8.095844">
<ele>420</ele>
<time>2026-05-08T05:14:01Z</time></trkpt>
<trkpt lat="40.604916" lon="-8.095872">
<ele>421</ele>
<time>2026-05-08T05:14:07Z</time></trkpt>
<trkpt lat="40.605681" lon="-8.095824">
<ele>427</ele>
<time>2026-05-08T05:14:23Z</time></trkpt>
<trkpt lat="40.607804" lon="-8.09556">
<ele>425</ele>
<time>2026-05-08T05:15:05Z</time></trkpt>
<trkpt lat="40.608154" lon="-8.095401">
<ele>429</ele>
<time>2026-05-08T05:15:13Z</time></trkpt>
<trkpt lat="40.608521" lon="-8.09512">
<ele>432</ele>
<time>2026-05-08T05:15:21Z</time></trkpt>
<trkpt lat="40.608705" lon="-8.09483">
<ele>432</ele>
<time>2026-05-08T05:15:27Z</time></trkpt>
<trkpt lat="40.608902" lon="-8.094456">
<ele>432</ele>
<time>2026-05-08T05:15:34Z</time></trkpt>
<trkpt lat="40.609717" lon="-8.092708">
<ele>428</ele>
<time>2026-05-08T05:16:05Z</time></trkpt>
<trkpt lat="40.610059" lon="-8.092182">
<ele>423</ele>
<time>2026-05-08T05:16:16Z</time></trkpt>
<trkpt lat="40.610442" lon="-8.091828">
<ele>416</ele>
<time>2026-05-08T05:16:25Z</time></trkpt>
<trkpt lat="40.61093" lon="-8.091624">
<ele>410</ele>
<time>2026-05-08T05:16:35Z</time></trkpt>
<trkpt lat="40.611444" lon="-8.091613">
<ele>410</ele>
<time>2026-05-08T05:16:46Z</time></trkpt>
<trkpt lat="40.612095" lon="-8.091817">
<ele>415</ele>
<time>2026-05-08T05:16:59Z</time></trkpt>
<trkpt lat="40.612543" lon="-8.092075">
<ele>419</ele>
<time>2026-05-08T05:17:09Z</time></trkpt>
<trkpt lat="40.613306" lon="-8.092761">
<ele>422</ele>
<time>2026-05-08T05:17:27Z</time></trkpt>
<trkpt lat="40.614747" lon="-8.094302">
<ele>414</ele>
<time>2026-05-08T05:18:05Z</time></trkpt>
<trkpt lat="40.614747" lon="-8.094302">
<ele>414</ele>
<time>2026-05-08T05:18:05Z</time></trkpt>
<trkpt lat="40.615333" lon="-8.094929">
<ele>415</ele>
<time>2026-05-08T05:18:20Z</time></trkpt>
<trkpt lat="40.615406" lon="-8.095007">
<ele>416</ele>
<time>2026-05-08T05:18:22Z</time></trkpt>
<trkpt lat="40.615672" lon="-8.095215">
<ele>419</ele>
<time>2026-05-08T05:18:28Z</time></trkpt>
<trkpt lat="40.615906" lon="-8.095307">
<ele>422</ele>
<time>2026-05-08T05:18:33Z</time></trkpt>
<trkpt lat="40.616129" lon="-8.09535">
<ele>425</ele>
<time>2026-05-08T05:18:37Z</time></trkpt>
<trkpt lat="40.616423" lon="-8.09534">
<ele>429</ele>
<time>2026-05-08T05:18:43Z</time></trkpt>
<trkpt lat="40.617276" lon="-8.095116">
<ele>436</ele>
<time>2026-05-08T05:19:01Z</time></trkpt>
<trkpt lat="40.617419" lon="-8.095101">
<ele>437</ele>
<time>2026-05-08T05:19:03Z</time></trkpt>
<trkpt lat="40.617556" lon="-8.095119">
<ele>437</ele>
<time>2026-05-08T05:19:06Z</time></trkpt>
<trkpt lat="40.617701" lon="-8.095198">
<ele>435</ele>
<time>2026-05-08T05:19:09Z</time></trkpt>
<trkpt lat="40.617941" lon="-8.095358">
<ele>433</ele>
<time>2026-05-08T05:19:15Z</time></trkpt>
<trkpt lat="40.618023" lon="-8.095366">
<ele>432</ele>
<time>2026-05-08T05:19:16Z</time></trkpt>
<trkpt lat="40.61831" lon="-8.095268">
<ele>429</ele>
<time>2026-05-08T05:19:22Z</time></trkpt>
<trkpt lat="40.618683" lon="-8.094988">
<ele>425</ele>
<time>2026-05-08T05:19:31Z</time></trkpt>
<trkpt lat="40.619831" lon="-8.094059">
<ele>423</ele>
<time>2026-05-08T05:19:58Z</time></trkpt>
<trkpt lat="40.620378" lon="-8.093621">
<ele>424</ele>
<time>2026-05-08T05:20:11Z</time></trkpt>
<trkpt lat="40.620554" lon="-8.093462">
<ele>424</ele>
<time>2026-05-08T05:20:15Z</time></trkpt>
<trkpt lat="40.620727" lon="-8.093302">
<ele>424</ele>
<time>2026-05-08T05:20:19Z</time></trkpt>
<trkpt lat="40.621044" lon="-8.09301">
<ele>423</ele>
<time>2026-05-08T05:20:27Z</time></trkpt>
<trkpt lat="40.6226658" lon="-8.0913656">
<ele>405</ele>
<time>2026-05-08T05:21:08Z</time></trkpt>
<trkpt lat="40.622909" lon="-8.091119">
<ele>405</ele>
<time>2026-05-08T05:21:14Z</time></trkpt>
<trkpt lat="40.623492" lon="-8.090578">
<ele>408</ele>
<time>2026-05-08T05:21:28Z</time></trkpt>
<trkpt lat="40.623492" lon="-8.090578">
<ele>408</ele>
<time>2026-05-08T05:21:28Z</time></trkpt>
<trkpt lat="40.623743" lon="-8.090381">
<ele>409</ele>
<time>2026-05-08T05:21:34Z</time></trkpt>
<trkpt lat="40.624246" lon="-8.090111">
<ele>412</ele>
<time>2026-05-08T05:21:45Z</time></trkpt>
<trkpt lat="40.62469" lon="-8.089945">
<ele>415</ele>
<time>2026-05-08T05:21:54Z</time></trkpt>
<trkpt lat="40.624821" lon="-8.089813">
<ele>416</ele>
<time>2026-05-08T05:21:58Z</time></trkpt>
<trkpt lat="40.624905" lon="-8.089693">
<ele>416</ele>
<time>2026-05-08T05:22:00Z</time></trkpt>
<trkpt lat="40.624939" lon="-8.089621">
<ele>416</ele>
<time>2026-05-08T05:22:01Z</time></trkpt>
<trkpt lat="40.624997" lon="-8.089584">
<ele>416</ele>
<time>2026-05-08T05:22:03Z</time></trkpt>
<trkpt lat="40.62512" lon="-8.089331">
<ele>416</ele>
<time>2026-05-08T05:22:07Z</time></trkpt>
<trkpt lat="40.625273" lon="-8.088809">
<ele>416</ele>
<time>2026-05-08T05:22:16Z</time></trkpt>
<trkpt lat="40.625419" lon="-8.088126">
<ele>417</ele>
<time>2026-05-08T05:22:27Z</time></trkpt>
<trkpt lat="40.625619" lon="-8.087071">
<ele>423</ele>
<time>2026-05-08T05:22:43Z</time></trkpt>
<trkpt lat="40.625808" lon="-8.086485">
<ele>428</ele>
<time>2026-05-08T05:22:53Z</time></trkpt>
<trkpt lat="40.625924" lon="-8.086197">
<ele>429</ele>
<time>2026-05-08T05:22:58Z</time></trkpt>
<trkpt lat="40.626227" lon="-8.08567">
<ele>432</ele>
<time>2026-05-08T05:23:08Z</time></trkpt>
<trkpt lat="40.626323" lon="-8.085455">
<ele>434</ele>
<time>2026-05-08T05:23:12Z</time></trkpt>
<trkpt lat="40.626514" lon="-8.084673">
<ele>436</ele>
<time>2026-05-08T05:23:24Z</time></trkpt>
<trkpt lat="40.626514" lon="-8.084673">
<ele>436</ele>
<time>2026-05-08T05:23:24Z</time></trkpt>
<trkpt lat="40.626556" lon="-8.084503">
<ele>437</ele>
<time>2026-05-08T05:23:27Z</time></trkpt>
<trkpt lat="40.62739" lon="-8.082655">
<ele>441</ele>
<time>2026-05-08T05:24:00Z</time></trkpt>
<trkpt lat="40.627976" lon="-8.081839">
<ele>445</ele>
<time>2026-05-08T05:24:17Z</time></trkpt>
<trkpt lat="40.628155" lon="-8.081442">
<ele>445</ele>
<time>2026-05-08T05:24:24Z</time></trkpt>
<trkpt lat="40.628253" lon="-8.081013">
<ele>445</ele>
<time>2026-05-08T05:24:30Z</time></trkpt>
<trkpt lat="40.628345" lon="-8.079599">
<ele>443</ele>
<time>2026-05-08T05:24:52Z</time></trkpt>
<trkpt lat="40.628399" lon="-8.07876">
<ele>440</ele>
<time>2026-05-08T05:25:05Z</time></trkpt>
<trkpt lat="40.628587" lon="-8.077988">
<ele>435</ele>
<time>2026-05-08T05:25:17Z</time></trkpt>
<trkpt lat="40.628635" lon="-8.075627">
<ele>421</ele>
<time>2026-05-08T05:25:53Z</time></trkpt>
<trkpt lat="40.628701" lon="-8.075198">
<ele>416</ele>
<time>2026-05-08T05:26:00Z</time></trkpt>
<trkpt lat="40.629108" lon="-8.074072">
<ele>402</ele>
<time>2026-05-08T05:26:19Z</time></trkpt>
<trkpt lat="40.629319" lon="-8.073782">
<ele>400</ele>
<time>2026-05-08T05:26:25Z</time></trkpt>
<trkpt lat="40.629474" lon="-8.073621">
<ele>400</ele>
<time>2026-05-08T05:26:29Z</time></trkpt>
<trkpt lat="40.629694" lon="-8.073428">
<ele>399</ele>
<time>2026-05-08T05:26:34Z</time></trkpt>
<trkpt lat="40.629854" lon="-8.072977">
<ele>398</ele>
<time>2026-05-08T05:26:42Z</time></trkpt>
<trkpt lat="40.62993" lon="-8.072688">
<ele>397</ele>
<time>2026-05-08T05:26:46Z</time></trkpt>
<trkpt lat="40.630003" lon="-8.072216">
<ele>396</ele>
<time>2026-05-08T05:26:54Z</time></trkpt>
<trkpt lat="40.630266" lon="-8.071595">
<ele>395</ele>
<time>2026-05-08T05:27:04Z</time></trkpt>
<trkpt lat="40.63034" lon="-8.071353">
<ele>396</ele>
<time>2026-05-08T05:27:08Z</time></trkpt>
<trkpt lat="40.630508" lon="-8.070692">
<ele>399</ele>
<time>2026-05-08T05:27:19Z</time></trkpt>
<trkpt lat="40.630508" lon="-8.070145">
<ele>402</ele>
<time>2026-05-08T05:27:27Z</time></trkpt>
<trkpt lat="40.630557" lon="-8.069845">
<ele>404</ele>
<time>2026-05-08T05:27:32Z</time></trkpt>
<trkpt lat="40.630752" lon="-8.069533">
<ele>407</ele>
<time>2026-05-08T05:27:38Z</time></trkpt>
<trkpt lat="40.631078" lon="-8.068761">
<ele>415</ele>
<time>2026-05-08T05:27:52Z</time></trkpt>
<trkpt lat="40.631151" lon="-8.068514">
<ele>417</ele>
<time>2026-05-08T05:27:56Z</time></trkpt>
<trkpt lat="40.631192" lon="-8.068246">
<ele>419</ele>
<time>2026-05-08T05:28:00Z</time></trkpt>
<trkpt lat="40.631103" lon="-8.067881">
<ele>421</ele>
<time>2026-05-08T05:28:06Z</time></trkpt>
<trkpt lat="40.631078" lon="-8.067645">
<ele>422</ele>
<time>2026-05-08T05:28:09Z</time></trkpt>
<trkpt lat="40.631143" lon="-8.067377">
<ele>423</ele>
<time>2026-05-08T05:28:14Z</time></trkpt>
<trkpt lat="40.631274" lon="-8.067087">
<ele>423</ele>
<time>2026-05-08T05:28:19Z</time></trkpt>
<trkpt lat="40.631304" lon="-8.066964">
<ele>423</ele>
<time>2026-05-08T05:28:21Z</time></trkpt>
<trkpt lat="40.631575" lon="-8.065757">
<ele>418</ele>
<time>2026-05-08T05:28:40Z</time></trkpt>
<trkpt lat="40.631769" lon="-8.065299">
<ele>419</ele>
<time>2026-05-08T05:28:48Z</time></trkpt>
<trkpt lat="40.632108" lon="-8.064647">
<ele>419</ele>
<time>2026-05-08T05:29:00Z</time></trkpt>
<trkpt lat="40.632386" lon="-8.064201">
<ele>418</ele>
<time>2026-05-08T05:29:09Z</time></trkpt>
<trkpt lat="40.632692" lon="-8.06371">
<ele>419</ele>
<time>2026-05-08T05:29:18Z</time></trkpt>
<trkpt lat="40.632843" lon="-8.063406">
<ele>418</ele>
<time>2026-05-08T05:29:24Z</time></trkpt>
<trkpt lat="40.632931" lon="-8.063181">
<ele>418</ele>
<time>2026-05-08T05:29:28Z</time></trkpt>
<trkpt lat="40.633048" lon="-8.0627">
<ele>417</ele>
<time>2026-05-08T05:29:35Z</time></trkpt>
<trkpt lat="40.633162" lon="-8.062024">
<ele>415</ele>
<time>2026-05-08T05:29:46Z</time></trkpt>
<trkpt lat="40.633191" lon="-8.061737">
<ele>414</ele>
<time>2026-05-08T05:29:50Z</time></trkpt>
<trkpt lat="40.633203" lon="-8.061616">
<ele>413</ele>
<time>2026-05-08T05:29:52Z</time></trkpt>
<trkpt lat="40.633263" lon="-8.061421">
<ele>413</ele>
<time>2026-05-08T05:29:55Z</time></trkpt>
<trkpt lat="40.633415" lon="-8.061142">
<ele>413</ele>
<time>2026-05-08T05:30:00Z</time></trkpt>
<trkpt lat="40.63343" lon="-8.061006">
<ele>413</ele>
<time>2026-05-08T05:30:03Z</time></trkpt>
<trkpt lat="40.633406" lon="-8.06087">
<ele>413</ele>
<time>2026-05-08T05:30:05Z</time></trkpt>
<trkpt lat="40.633327" lon="-8.060701">
<ele>413</ele>
<time>2026-05-08T05:30:08Z</time></trkpt>
<trkpt lat="40.633229" lon="-8.060552">
<ele>414</ele>
<time>2026-05-08T05:30:11Z</time></trkpt>
<trkpt lat="40.632853" lon="-8.060264">
<ele>413</ele>
<time>2026-05-08T05:30:19Z</time></trkpt>
<trkpt lat="40.632727" lon="-8.060016">
<ele>414</ele>
<time>2026-05-08T05:30:24Z</time></trkpt>
<trkpt lat="40.632611" lon="-8.059715">
<ele>414</ele>
<time>2026-05-08T05:30:29Z</time></trkpt>
<trkpt lat="40.632409" lon="-8.058888">
<ele>414</ele>
<time>2026-05-08T05:30:42Z</time></trkpt>
<trkpt lat="40.631879" lon="-8.05672">
<ele>420</ele>
<time>2026-05-08T05:31:17Z</time></trkpt>
<trkpt lat="40.631655" lon="-8.055522">
<ele>429</ele>
<time>2026-05-08T05:31:36Z</time></trkpt>
<trkpt lat="40.631536" lon="-8.055112">
<ele>431</ele>
<time>2026-05-08T05:31:42Z</time></trkpt>
<trkpt lat="40.631462" lon="-8.054928">
<ele>432</ele>
<time>2026-05-08T05:31:46Z</time></trkpt>
<trkpt lat="40.631342" lon="-8.054774">
<ele>433</ele>
<time>2026-05-08T05:31:49Z</time></trkpt>
<trkpt lat="40.631235" lon="-8.054667">
<ele>434</ele>
<time>2026-05-08T05:31:52Z</time></trkpt>
<trkpt lat="40.631195" lon="-8.054627">
<ele>434</ele>
<time>2026-05-08T05:31:53Z</time></trkpt>
<trkpt lat="40.630944" lon="-8.054377">
<ele>436</ele>
<time>2026-05-08T05:31:59Z</time></trkpt>
<trkpt lat="40.630443" lon="-8.053719">
<ele>443</ele>
<time>2026-05-08T05:32:13Z</time></trkpt>
<trkpt lat="40.630303" lon="-8.053598">
<ele>445</ele>
<time>2026-05-08T05:32:16Z</time></trkpt>
<trkpt lat="40.629708" lon="-8.053372">
<ele>450</ele>
<time>2026-05-08T05:32:29Z</time></trkpt>
<trkpt lat="40.629601" lon="-8.053265">
<ele>451</ele>
<time>2026-05-08T05:32:32Z</time></trkpt>
<trkpt lat="40.629532" lon="-8.053127">
<ele>452</ele>
<time>2026-05-08T05:32:34Z</time></trkpt>
<trkpt lat="40.629518" lon="-8.053057">
<ele>452</ele>
<time>2026-05-08T05:32:35Z</time></trkpt>
<trkpt lat="40.629501" lon="-8.05297">
<ele>453</ele>
<time>2026-05-08T05:32:36Z</time></trkpt>
<trkpt lat="40.62945" lon="-8.051997">
<ele>457</ele>
<time>2026-05-08T05:32:51Z</time></trkpt>
<trkpt lat="40.629458" lon="-8.051759">
<ele>458</ele>
<time>2026-05-08T05:32:55Z</time></trkpt>
<trkpt lat="40.629622" lon="-8.05086">
<ele>463</ele>
<time>2026-05-08T05:33:09Z</time></trkpt>
<trkpt lat="40.62962" lon="-8.05064">
<ele>466</ele>
<time>2026-05-08T05:33:12Z</time></trkpt>
<trkpt lat="40.629598" lon="-8.050443">
<ele>468</ele>
<time>2026-05-08T05:33:15Z</time></trkpt>
<trkpt lat="40.629077" lon="-8.048275">
<ele>480</ele>
<time>2026-05-08T05:33:50Z</time></trkpt>
<trkpt lat="40.628813" lon="-8.047183">
<ele>477</ele>
<time>2026-05-08T05:34:07Z</time></trkpt>
<trkpt lat="40.628747" lon="-8.046806">
<ele>476</ele>
<time>2026-05-08T05:34:13Z</time></trkpt>
<trkpt lat="40.628747" lon="-8.046806">
<ele>476</ele>
<time>2026-05-08T05:34:13Z</time></trkpt>
<trkpt lat="40.628723" lon="-8.046457">
<ele>475</ele>
<time>2026-05-08T05:34:19Z</time></trkpt>
<trkpt lat="40.628632" lon="-8.045617">
<ele>476</ele>
<time>2026-05-08T05:34:32Z</time></trkpt>
<trkpt lat="40.628453" lon="-8.044746">
<ele>473</ele>
<time>2026-05-08T05:34:45Z</time></trkpt>
<trkpt lat="40.628432" lon="-8.044435">
<ele>473</ele>
<time>2026-05-08T05:34:50Z</time></trkpt>
<trkpt lat="40.628442" lon="-8.04407">
<ele>472</ele>
<time>2026-05-08T05:34:56Z</time></trkpt>
<trkpt lat="40.628432" lon="-8.043761">
<ele>472</ele>
<time>2026-05-08T05:35:00Z</time></trkpt>
<trkpt lat="40.628267" lon="-8.042373">
<ele>470</ele>
<time>2026-05-08T05:35:22Z</time></trkpt>
<trkpt lat="40.627877" lon="-8.040192">
<ele>460</ele>
<time>2026-05-08T05:35:56Z</time></trkpt>
<trkpt lat="40.62767" lon="-8.039215">
<ele>459</ele>
<time>2026-05-08T05:36:11Z</time></trkpt>
<trkpt lat="40.627133" lon="-8.036757">
<ele>458</ele>
<time>2026-05-08T05:36:50Z</time></trkpt>
<trkpt lat="40.627049" lon="-8.036489">
<ele>458</ele>
<time>2026-05-08T05:36:54Z</time></trkpt>
<trkpt lat="40.626965" lon="-8.036292">
<ele>459</ele>
<time>2026-05-08T05:36:58Z</time></trkpt>
<trkpt lat="40.626942" lon="-8.036256">
<ele>459</ele>
<time>2026-05-08T05:36:59Z</time></trkpt>
<trkpt lat="40.626925" lon="-8.036166">
<ele>459</ele>
<time>2026-05-08T05:37:00Z</time></trkpt>
<trkpt lat="40.626952" lon="-8.036074">
<ele>459</ele>
<time>2026-05-08T05:37:01Z</time></trkpt>
<trkpt lat="40.627017" lon="-8.036023">
<ele>459</ele>
<time>2026-05-08T05:37:03Z</time></trkpt>
<trkpt lat="40.627055" lon="-8.036021">
<ele>459</ele>
<time>2026-05-08T05:37:04Z</time></trkpt>
<trkpt lat="40.627151" lon="-8.036009">
<ele>458</ele>
<time>2026-05-08T05:37:06Z</time></trkpt>
<trkpt lat="40.627218" lon="-8.035978">
<ele>458</ele>
<time>2026-05-08T05:37:07Z</time></trkpt>
<trkpt lat="40.627407" lon="-8.035826">
<ele>457</ele>
<time>2026-05-08T05:37:12Z</time></trkpt>
<trkpt lat="40.630055" lon="-8.032409">
<ele>440</ele>
<time>2026-05-08T05:38:26Z</time></trkpt>
<trkpt lat="40.630984" lon="-8.03121">
<ele>437</ele>
<time>2026-05-08T05:38:52Z</time></trkpt>
<trkpt lat="40.631147" lon="-8.031006">
<ele>436</ele>
<time>2026-05-08T05:38:56Z</time></trkpt>
<trkpt lat="40.631147" lon="-8.031006">
<ele>436</ele>
<time>2026-05-08T05:38:56Z</time></trkpt>
<trkpt lat="40.631543" lon="-8.030513">
<ele>434</ele>
<time>2026-05-08T05:39:07Z</time></trkpt>
<trkpt lat="40.63189" lon="-8.030276">
<ele>432</ele>
<time>2026-05-08T05:39:15Z</time></trkpt>
<trkpt lat="40.632022" lon="-8.030186">
<ele>432</ele>
<time>2026-05-08T05:39:18Z</time></trkpt>
<trkpt lat="40.633091" lon="-8.029506">
<ele>428</ele>
<time>2026-05-08T05:39:42Z</time></trkpt>
<trkpt lat="40.634611" lon="-8.02863">
<ele>424</ele>
<time>2026-05-08T05:40:15Z</time></trkpt>
<trkpt lat="40.634708" lon="-8.028547">
<ele>423</ele>
<time>2026-05-08T05:40:17Z</time></trkpt>
<trkpt lat="40.634771" lon="-8.028425">
<ele>423</ele>
<time>2026-05-08T05:40:20Z</time></trkpt>
<trkpt lat="40.634868" lon="-8.028001">
<ele>422</ele>
<time>2026-05-08T05:40:26Z</time></trkpt>
<trkpt lat="40.634973" lon="-8.027799">
<ele>422</ele>
<time>2026-05-08T05:40:30Z</time></trkpt>
<trkpt lat="40.636401" lon="-8.02643">
<ele>422</ele>
<time>2026-05-08T05:41:06Z</time></trkpt>
<trkpt lat="40.637862" lon="-8.025474">
<ele>429</ele>
<time>2026-05-08T05:41:38Z</time></trkpt>
<trkpt lat="40.637994" lon="-8.025367">
<ele>430</ele>
<time>2026-05-08T05:41:41Z</time></trkpt>
<trkpt lat="40.638076" lon="-8.025232">
<ele>431</ele>
<time>2026-05-08T05:41:44Z</time></trkpt>
<trkpt lat="40.638254" lon="-8.024784">
<ele>434</ele>
<time>2026-05-08T05:41:52Z</time></trkpt>
<trkpt lat="40.63827" lon="-8.024508">
<ele>436</ele>
<time>2026-05-08T05:41:56Z</time></trkpt>
<trkpt lat="40.638471" lon="-8.023784">
<ele>440</ele>
<time>2026-05-08T05:42:08Z</time></trkpt>
<trkpt lat="40.638593" lon="-8.0235">
<ele>442</ele>
<time>2026-05-08T05:42:13Z</time></trkpt>
<trkpt lat="40.638737" lon="-8.023321">
<ele>443</ele>
<time>2026-05-08T05:42:17Z</time></trkpt>
<trkpt lat="40.640367" lon="-8.021686">
<ele>445</ele>
<time>2026-05-08T05:42:58Z</time></trkpt>
<trkpt lat="40.64121" lon="-8.020847">
<ele>440</ele>
<time>2026-05-08T05:43:19Z</time></trkpt>
<trkpt lat="40.641422" lon="-8.020601">
<ele>439</ele>
<time>2026-05-08T05:43:24Z</time></trkpt>
<trkpt lat="40.642081" lon="-8.019789">
<ele>442</ele>
<time>2026-05-08T05:43:42Z</time></trkpt>
<trkpt lat="40.642347" lon="-8.019456">
<ele>444</ele>
<time>2026-05-08T05:43:50Z</time></trkpt>
<trkpt lat="40.6424" lon="-8.019391">
<ele>445</ele>
<time>2026-05-08T05:43:51Z</time></trkpt>
<trkpt lat="40.64263" lon="-8.019047">
<ele>447</ele>
<time>2026-05-08T05:43:58Z</time></trkpt>
<trkpt lat="40.642861" lon="-8.018408">
<ele>447</ele>
<time>2026-05-08T05:44:09Z</time></trkpt>
<trkpt lat="40.643223" lon="-8.017399">
<ele>442</ele>
<time>2026-05-08T05:44:26Z</time></trkpt>
<trkpt lat="40.643426" lon="-8.016671">
<ele>438</ele>
<time>2026-05-08T05:44:38Z</time></trkpt>
<trkpt lat="40.643521" lon="-8.016239">
<ele>437</ele>
<time>2026-05-08T05:44:45Z</time></trkpt>
<trkpt lat="40.643541" lon="-8.016057">
<ele>437</ele>
<time>2026-05-08T05:44:47Z</time></trkpt>
<trkpt lat="40.643577" lon="-8.015724">
<ele>436</ele>
<time>2026-05-08T05:44:52Z</time></trkpt>
<trkpt lat="40.643577" lon="-8.015527">
<ele>435</ele>
<time>2026-05-08T05:44:55Z</time></trkpt>
<trkpt lat="40.643557" lon="-8.015446">
<ele>435</ele>
<time>2026-05-08T05:44:57Z</time></trkpt>
<trkpt lat="40.643538" lon="-8.015368">
<ele>434</ele>
<time>2026-05-08T05:44:58Z</time></trkpt>
<trkpt lat="40.643441" lon="-8.015191">
<ele>432</ele>
<time>2026-05-08T05:45:01Z</time></trkpt>
<trkpt lat="40.643095" lon="-8.014773">
<ele>427</ele>
<time>2026-05-08T05:45:11Z</time></trkpt>
<trkpt lat="40.642687" lon="-8.01428">
<ele>423</ele>
<time>2026-05-08T05:45:22Z</time></trkpt>
<trkpt lat="40.642519" lon="-8.014077">
<ele>423</ele>
<time>2026-05-08T05:45:26Z</time></trkpt>
<trkpt lat="40.642509" lon="-8.014064">
<ele>423</ele>
<time>2026-05-08T05:45:27Z</time></trkpt>
<trkpt lat="40.642381" lon="-8.013913">
<ele>424</ele>
<time>2026-05-08T05:45:30Z</time></trkpt>
<trkpt lat="40.642345" lon="-8.013817">
<ele>425</ele>
<time>2026-05-08T05:45:32Z</time></trkpt>
<trkpt lat="40.642346" lon="-8.013713">
<ele>425</ele>
<time>2026-05-08T05:45:33Z</time></trkpt>
<trkpt lat="40.642444" lon="-8.013278">
<ele>425</ele>
<time>2026-05-08T05:45:40Z</time></trkpt>
<trkpt lat="40.642443" lon="-8.013119">
<ele>424</ele>
<time>2026-05-08T05:45:43Z</time></trkpt>
<trkpt lat="40.642412" lon="-8.012966">
<ele>423</ele>
<time>2026-05-08T05:45:45Z</time></trkpt>
<trkpt lat="40.642245" lon="-8.012444">
<ele>424</ele>
<time>2026-05-08T05:45:54Z</time></trkpt>
<trkpt lat="40.642217" lon="-8.012261">
<ele>423</ele>
<time>2026-05-08T05:45:57Z</time></trkpt>
<trkpt lat="40.642184" lon="-8.011715">
<ele>420</ele>
<time>2026-05-08T05:46:05Z</time></trkpt>
<trkpt lat="40.642203" lon="-8.011499">
<ele>420</ele>
<time>2026-05-08T05:46:08Z</time></trkpt>
<trkpt lat="40.642282" lon="-8.011321">
<ele>420</ele>
<time>2026-05-08T05:46:11Z</time></trkpt>
<trkpt lat="40.642344" lon="-8.011264">
<ele>419</ele>
<time>2026-05-08T05:46:13Z</time></trkpt>
<trkpt lat="40.642854" lon="-8.011094">
<ele>416</ele>
<time>2026-05-08T05:46:23Z</time></trkpt>
<trkpt lat="40.642854" lon="-8.011094">
<ele>416</ele>
<time>2026-05-08T05:46:23Z</time></trkpt>
<trkpt lat="40.643253" lon="-8.010961">
<ele>415</ele>
<time>2026-05-08T05:46:32Z</time></trkpt>
<trkpt lat="40.643742" lon="-8.010721">
<ele>413</ele>
<time>2026-05-08T05:46:42Z</time></trkpt>
<trkpt lat="40.644017" lon="-8.010581">
<ele>413</ele>
<time>2026-05-08T05:46:48Z</time></trkpt>
<trkpt lat="40.644206" lon="-8.010395">
<ele>413</ele>
<time>2026-05-08T05:46:53Z</time></trkpt>
<trkpt lat="40.644411" lon="-8.010091">
<ele>414</ele>
<time>2026-05-08T05:46:59Z</time></trkpt>
<trkpt lat="40.644505" lon="-8.009856">
<ele>414</ele>
<time>2026-05-08T05:47:03Z</time></trkpt>
<trkpt lat="40.644742" lon="-8.00904">
<ele>413</ele>
<time>2026-05-08T05:47:16Z</time></trkpt>
<trkpt lat="40.644829" lon="-8.008688">
<ele>410</ele>
<time>2026-05-08T05:47:22Z</time></trkpt>
<trkpt lat="40.644854" lon="-8.008448">
<ele>409</ele>
<time>2026-05-08T05:47:26Z</time></trkpt>
<trkpt lat="40.64485" lon="-8.00825">
<ele>408</ele>
<time>2026-05-08T05:47:29Z</time></trkpt>
<trkpt lat="40.644759" lon="-8.007636">
<ele>404</ele>
<time>2026-05-08T05:47:38Z</time></trkpt>
<trkpt lat="40.644741" lon="-8.007352">
<ele>404</ele>
<time>2026-05-08T05:47:42Z</time></trkpt>
<trkpt lat="40.644782" lon="-8.007132">
<ele>404</ele>
<time>2026-05-08T05:47:46Z</time></trkpt>
<trkpt lat="40.64487" lon="-8.006912">
<ele>402</ele>
<time>2026-05-08T05:47:50Z</time></trkpt>
<trkpt lat="40.645029" lon="-8.006699">
<ele>401</ele>
<time>2026-05-08T05:47:54Z</time></trkpt>
<trkpt lat="40.64511" lon="-8.006629">
<ele>400</ele>
<time>2026-05-08T05:47:56Z</time></trkpt>
<trkpt lat="40.645203" lon="-8.00657">
<ele>400</ele>
<time>2026-05-08T05:47:58Z</time></trkpt>
<trkpt lat="40.645496" lon="-8.006489">
<ele>398</ele>
<time>2026-05-08T05:48:04Z</time></trkpt>
<trkpt lat="40.645711" lon="-8.006369">
<ele>397</ele>
<time>2026-05-08T05:48:09Z</time></trkpt>
<trkpt lat="40.645876" lon="-8.006243">
<ele>397</ele>
<time>2026-05-08T05:48:13Z</time></trkpt>
<trkpt lat="40.646374" lon="-8.005717">
<ele>398</ele>
<time>2026-05-08T05:48:25Z</time></trkpt>
<trkpt lat="40.646613" lon="-8.005431">
<ele>398</ele>
<time>2026-05-08T05:48:32Z</time></trkpt>
<trkpt lat="40.64679" lon="-8.005163">
<ele>398</ele>
<time>2026-05-08T05:48:37Z</time></trkpt>
<trkpt lat="40.647094" lon="-8.004647">
<ele>398</ele>
<time>2026-05-08T05:48:47Z</time></trkpt>
<trkpt lat="40.647417" lon="-8.004273">
<ele>393</ele>
<time>2026-05-08T05:48:56Z</time></trkpt>
<trkpt lat="40.647687" lon="-8.004051">
<ele>390</ele>
<time>2026-05-08T05:49:02Z</time></trkpt>
<trkpt lat="40.647734" lon="-8.00402">
<ele>389</ele>
<time>2026-05-08T05:49:03Z</time></trkpt>
<trkpt lat="40.647928" lon="-8.003941">
<ele>386</ele>
<time>2026-05-08T05:49:07Z</time></trkpt>
<trkpt lat="40.64855" lon="-8.003742">
<ele>378</ele>
<time>2026-05-08T05:49:20Z</time></trkpt>
<trkpt lat="40.650238" lon="-8.003201">
<ele>374</ele>
<time>2026-05-08T05:49:55Z</time></trkpt>
<trkpt lat="40.650413" lon="-8.003122">
<ele>375</ele>
<time>2026-05-08T05:49:59Z</time></trkpt>
<trkpt lat="40.650559" lon="-8.003008">
<ele>375</ele>
<time>2026-05-08T05:50:02Z</time></trkpt>
<trkpt lat="40.650674" lon="-8.002878">
<ele>374</ele>
<time>2026-05-08T05:50:05Z</time></trkpt>
<trkpt lat="40.650802" lon="-8.00265">
<ele>374</ele>
<time>2026-05-08T05:50:09Z</time></trkpt>
<trkpt lat="40.650896" lon="-8.002401">
<ele>373</ele>
<time>2026-05-08T05:50:14Z</time></trkpt>
<trkpt lat="40.650942" lon="-8.002208">
<ele>373</ele>
<time>2026-05-08T05:50:17Z</time></trkpt>
<trkpt lat="40.650968" lon="-8.001593">
<ele>372</ele>
<time>2026-05-08T05:50:26Z</time></trkpt>
<trkpt lat="40.651005" lon="-8.001356">
<ele>371</ele>
<time>2026-05-08T05:50:30Z</time></trkpt>
<trkpt lat="40.651321" lon="-8.000534">
<ele>367</ele>
<time>2026-05-08T05:50:44Z</time></trkpt>
<trkpt lat="40.651401" lon="-8.000155">
<ele>366</ele>
<time>2026-05-08T05:50:50Z</time></trkpt>
<trkpt lat="40.651378" lon="-8.000036">
<ele>366</ele>
<time>2026-05-08T05:50:52Z</time></trkpt>
<trkpt lat="40.651416" lon="-7.999923">
<ele>366</ele>
<time>2026-05-08T05:50:54Z</time></trkpt>
<trkpt lat="40.651454" lon="-7.999885">
<ele>366</ele>
<time>2026-05-08T05:50:54Z</time></trkpt>
<trkpt lat="40.651547" lon="-7.999865">
<ele>366</ele>
<time>2026-05-08T05:50:56Z</time></trkpt>
<trkpt lat="40.651693" lon="-7.999641">
<ele>366</ele>
<time>2026-05-08T05:51:01Z</time></trkpt>
<trkpt lat="40.651781" lon="-7.999417">
<ele>366</ele>
<time>2026-05-08T05:51:05Z</time></trkpt>
<trkpt lat="40.651823" lon="-7.999312">
<ele>366</ele>
<time>2026-05-08T05:51:06Z</time></trkpt>
<trkpt lat="40.652243" lon="-7.99828">
<ele>370</ele>
<time>2026-05-08T05:51:24Z</time></trkpt>
<trkpt lat="40.652887" lon="-7.996737">
<ele>376</ele>
<time>2026-05-08T05:51:51Z</time></trkpt>
<trkpt lat="40.654021" lon="-7.993943">
<ele>376</ele>
<time>2026-05-08T05:52:39Z</time></trkpt>
<trkpt lat="40.654232" lon="-7.993422">
<ele>375</ele>
<time>2026-05-08T05:52:48Z</time></trkpt>
<trkpt lat="40.654517" lon="-7.992719">
<ele>374</ele>
<time>2026-05-08T05:53:00Z</time></trkpt>
<trkpt lat="40.654561" lon="-7.992513">
<ele>374</ele>
<time>2026-05-08T05:53:04Z</time></trkpt>
<trkpt lat="40.654648" lon="-7.99185">
<ele>373</ele>
<time>2026-05-08T05:53:14Z</time></trkpt>
<trkpt lat="40.654658" lon="-7.99175">
<ele>373</ele>
<time>2026-05-08T05:53:15Z</time></trkpt>
<trkpt lat="40.654718" lon="-7.991053">
<ele>378</ele>
<time>2026-05-08T05:53:26Z</time></trkpt>
<trkpt lat="40.654741" lon="-7.990735">
<ele>381</ele>
<time>2026-05-08T05:53:31Z</time></trkpt>
<trkpt lat="40.654752" lon="-7.990601">
<ele>383</ele>
<time>2026-05-08T05:53:33Z</time></trkpt>
<trkpt lat="40.654804" lon="-7.99008">
<ele>390</ele>
<time>2026-05-08T05:53:41Z</time></trkpt>
<trkpt lat="40.654905" lon="-7.989314">
<ele>393</ele>
<time>2026-05-08T05:53:53Z</time></trkpt>
<trkpt lat="40.654966" lon="-7.988887">
<ele>393</ele>
<time>2026-05-08T05:53:59Z</time></trkpt>
<trkpt lat="40.655043" lon="-7.988565">
<ele>393</ele>
<time>2026-05-08T05:54:04Z</time></trkpt>
<trkpt lat="40.655161" lon="-7.988271">
<ele>393</ele>
<time>2026-05-08T05:54:10Z</time></trkpt>
<trkpt lat="40.655325" lon="-7.987942">
<ele>392</ele>
<time>2026-05-08T05:54:15Z</time></trkpt>
<trkpt lat="40.655247" lon="-7.987801">
<ele>394</ele>
<time>2026-05-08T05:54:18Z</time></trkpt>
<trkpt lat="40.655247" lon="-7.987801">
<ele>394</ele>
<time>2026-05-08T05:54:18Z</time></trkpt>
<trkpt lat="40.655215" lon="-7.987743">
<ele>394</ele>
<time>2026-05-08T05:54:19Z</time></trkpt>
<trkpt lat="40.655314" lon="-7.987547">
<ele>394</ele>
<time>2026-05-08T05:54:23Z</time></trkpt>
<trkpt lat="40.655496" lon="-7.987608">
<ele>392</ele>
<time>2026-05-08T05:54:27Z</time></trkpt>
<trkpt lat="40.655531" lon="-7.987539">
<ele>391</ele>
<time>2026-05-08T05:54:28Z</time></trkpt>
<trkpt lat="40.655624" lon="-7.987345">
<ele>392</ele>
<time>2026-05-08T05:54:31Z</time></trkpt>
<trkpt lat="40.655695" lon="-7.987138">
<ele>393</ele>
<time>2026-05-08T05:54:35Z</time></trkpt>
<trkpt lat="40.655837" lon="-7.986703">
<ele>396</ele>
<time>2026-05-08T05:54:42Z</time></trkpt>
<trkpt lat="40.655877" lon="-7.986468">
<ele>398</ele>
<time>2026-05-08T05:54:46Z</time></trkpt>
<trkpt lat="40.655906" lon="-7.985768">
<ele>405</ele>
<time>2026-05-08T05:54:56Z</time></trkpt>
<trkpt lat="40.655896" lon="-7.984609">
<ele>407</ele>
<time>2026-05-08T05:55:14Z</time></trkpt>
<trkpt lat="40.655906" lon="-7.98434">
<ele>408</ele>
<time>2026-05-08T05:55:18Z</time></trkpt>
<trkpt lat="40.655945" lon="-7.984031">
<ele>409</ele>
<time>2026-05-08T05:55:23Z</time></trkpt>
<trkpt lat="40.65603" lon="-7.983616">
<ele>411</ele>
<time>2026-05-08T05:55:29Z</time></trkpt>
<trkpt lat="40.656112" lon="-7.983331">
<ele>412</ele>
<time>2026-05-08T05:55:34Z</time></trkpt>
<trkpt lat="40.656216" lon="-7.983051">
<ele>413</ele>
<time>2026-05-08T05:55:39Z</time></trkpt>
<trkpt lat="40.656358" lon="-7.982764">
<ele>414</ele>
<time>2026-05-08T05:55:44Z</time></trkpt>
<trkpt lat="40.656585" lon="-7.982407">
<ele>414</ele>
<time>2026-05-08T05:55:51Z</time></trkpt>
<trkpt lat="40.657202" lon="-7.981678">
<ele>417</ele>
<time>2026-05-08T05:56:08Z</time></trkpt>
<trkpt lat="40.658162" lon="-7.980603">
<ele>420</ele>
<time>2026-05-08T05:56:33Z</time></trkpt>
<trkpt lat="40.658395" lon="-7.980367">
<ele>422</ele>
<time>2026-05-08T05:56:39Z</time></trkpt>
<trkpt lat="40.659111" lon="-7.979734">
<ele>432</ele>
<time>2026-05-08T05:56:56Z</time></trkpt>
<trkpt lat="40.660331" lon="-7.978629">
<ele>441</ele>
<time>2026-05-08T05:57:26Z</time></trkpt>
<trkpt lat="40.660547" lon="-7.978404">
<ele>443</ele>
<time>2026-05-08T05:57:31Z</time></trkpt>
<trkpt lat="40.66055" lon="-7.978383">
<ele>443</ele>
<time>2026-05-08T05:57:31Z</time></trkpt>
<trkpt lat="40.660606" lon="-7.978247">
<ele>443</ele>
<time>2026-05-08T05:57:34Z</time></trkpt>
<trkpt lat="40.660618" lon="-7.978187">
<ele>443</ele>
<time>2026-05-08T05:57:35Z</time></trkpt>
<trkpt lat="40.66063" lon="-7.978001">
<ele>442</ele>
<time>2026-05-08T05:57:38Z</time></trkpt>
<trkpt lat="40.660649" lon="-7.977936">
<ele>442</ele>
<time>2026-05-08T05:57:39Z</time></trkpt>
<trkpt lat="40.66067" lon="-7.977903">
<ele>442</ele>
<time>2026-05-08T05:57:39Z</time></trkpt>
<trkpt lat="40.660718" lon="-7.977872">
<ele>442</ele>
<time>2026-05-08T05:57:40Z</time></trkpt>
<trkpt lat="40.661085" lon="-7.977881">
<ele>446</ele>
<time>2026-05-08T05:57:48Z</time></trkpt>
<trkpt lat="40.661374" lon="-7.977829">
<ele>450</ele>
<time>2026-05-08T05:57:54Z</time></trkpt>
<trkpt lat="40.661647" lon="-7.977685">
<ele>453</ele>
<time>2026-05-08T05:57:59Z</time></trkpt>
<trkpt lat="40.661836" lon="-7.977559">
<ele>454</ele>
<time>2026-05-08T05:58:04Z</time></trkpt>
<trkpt lat="40.662252" lon="-7.977274">
<ele>459</ele>
<time>2026-05-08T05:58:13Z</time></trkpt>
<trkpt lat="40.663016" lon="-7.976725">
<ele>463</ele>
<time>2026-05-08T05:58:31Z</time></trkpt>
<trkpt lat="40.663286" lon="-7.976537">
<ele>464</ele>
<time>2026-05-08T05:58:37Z</time></trkpt>
<trkpt lat="40.663451" lon="-7.976423">
<ele>465</ele>
<time>2026-05-08T05:58:40Z</time></trkpt>
<trkpt lat="40.663635" lon="-7.976302">
<ele>466</ele>
<time>2026-05-08T05:58:45Z</time></trkpt>
<trkpt lat="40.663883" lon="-7.976152">
<ele>467</ele>
<time>2026-05-08T05:58:50Z</time></trkpt>
<trkpt lat="40.664046" lon="-7.976079">
<ele>468</ele>
<time>2026-05-08T05:58:53Z</time></trkpt>
<trkpt lat="40.664358" lon="-7.975999">
<ele>468</ele>
<time>2026-05-08T05:59:00Z</time></trkpt>
<trkpt lat="40.664501" lon="-7.975988">
<ele>467</ele>
<time>2026-05-08T05:59:03Z</time></trkpt>
<trkpt lat="40.664608" lon="-7.975988">
<ele>466</ele>
<time>2026-05-08T05:59:05Z</time></trkpt>
<trkpt lat="40.664787" lon="-7.976002">
<ele>464</ele>
<time>2026-05-08T05:59:08Z</time></trkpt>
<trkpt lat="40.665139" lon="-7.976116">
<ele>458</ele>
<time>2026-05-08T05:59:16Z</time></trkpt>
<trkpt lat="40.665309" lon="-7.976207">
<ele>455</ele>
<time>2026-05-08T05:59:19Z</time></trkpt>
<trkpt lat="40.6655" lon="-7.976365">
<ele>452</ele>
<time>2026-05-08T05:59:24Z</time></trkpt>
<trkpt lat="40.665671" lon="-7.97655">
<ele>450</ele>
<time>2026-05-08T05:59:28Z</time></trkpt>
<trkpt lat="40.665869" lon="-7.976826">
<ele>448</ele>
<time>2026-05-08T05:59:34Z</time></trkpt>
<trkpt lat="40.665995" lon="-7.977047">
<ele>449</ele>
<time>2026-05-08T05:59:38Z</time></trkpt>
<trkpt lat="40.665995" lon="-7.977047">
<ele>449</ele>
<time>2026-05-08T05:59:38Z</time></trkpt>
<trkpt lat="40.666707" lon="-7.978303">
<ele>453</ele>
<time>2026-05-08T06:00:02Z</time></trkpt>
<trkpt lat="40.667015" lon="-7.978713">
<ele>453</ele>
<time>2026-05-08T06:00:11Z</time></trkpt>
<trkpt lat="40.667357" lon="-7.979101">
<ele>451</ele>
<time>2026-05-08T06:00:20Z</time></trkpt>
<trkpt lat="40.668067" lon="-7.979743">
<ele>447</ele>
<time>2026-05-08T06:00:37Z</time></trkpt>
<trkpt lat="40.668255" lon="-7.979914">
<ele>446</ele>
<time>2026-05-08T06:00:42Z</time></trkpt>
<trkpt lat="40.668806" lon="-7.980413">
<ele>435</ele>
<time>2026-05-08T06:00:55Z</time></trkpt>
<trkpt lat="40.669019" lon="-7.980668">
<ele>432</ele>
<time>2026-05-08T06:01:01Z</time></trkpt>
<trkpt lat="40.669194" lon="-7.980903">
<ele>430</ele>
<time>2026-05-08T06:01:06Z</time></trkpt>
<trkpt lat="40.669352" lon="-7.981201">
<ele>430</ele>
<time>2026-05-08T06:01:11Z</time></trkpt>
<trkpt lat="40.669456" lon="-7.981493">
<ele>430</ele>
<time>2026-05-08T06:01:16Z</time></trkpt>
<trkpt lat="40.669505" lon="-7.981652">
<ele>430</ele>
<time>2026-05-08T06:01:19Z</time></trkpt>
<trkpt lat="40.669565" lon="-7.981889">
<ele>431</ele>
<time>2026-05-08T06:01:23Z</time></trkpt>
<trkpt lat="40.669697" lon="-7.982807">
<ele>433</ele>
<time>2026-05-08T06:01:37Z</time></trkpt>
<trkpt lat="40.670009" lon="-7.985451">
<ele>437</ele>
<time>2026-05-08T06:02:18Z</time></trkpt>
<trkpt lat="40.670013" lon="-7.985608">
<ele>436</ele>
<time>2026-05-08T06:02:20Z</time></trkpt>
<trkpt lat="40.670019" lon="-7.985794">
<ele>436</ele>
<time>2026-05-08T06:02:23Z</time></trkpt>
<trkpt lat="40.669962" lon="-7.986157">
<ele>434</ele>
<time>2026-05-08T06:02:28Z</time></trkpt>
<trkpt lat="40.669941" lon="-7.986249">
<ele>434</ele>
<time>2026-05-08T06:02:30Z</time></trkpt>
<trkpt lat="40.669849" lon="-7.986504">
<ele>433</ele>
<time>2026-05-08T06:02:34Z</time></trkpt>
<trkpt lat="40.669653" lon="-7.986797">
<ele>433</ele>
<time>2026-05-08T06:02:40Z</time></trkpt>
<trkpt lat="40.669612" lon="-7.986841">
<ele>433</ele>
<time>2026-05-08T06:02:41Z</time></trkpt>
<trkpt lat="40.669556" lon="-7.986892">
<ele>433</ele>
<time>2026-05-08T06:02:43Z</time></trkpt>
<trkpt lat="40.669179" lon="-7.987258">
<ele>433</ele>
<time>2026-05-08T06:02:52Z</time></trkpt>
<trkpt lat="40.66895" lon="-7.98755">
<ele>434</ele>
<time>2026-05-08T06:02:58Z</time></trkpt>
<trkpt lat="40.668824" lon="-7.987881">
<ele>433</ele>
<time>2026-05-08T06:03:04Z</time></trkpt>
<trkpt lat="40.668706" lon="-7.988273">
<ele>433</ele>
<time>2026-05-08T06:03:10Z</time></trkpt>
<trkpt lat="40.668683" lon="-7.988361">
<ele>432</ele>
<time>2026-05-08T06:03:12Z</time></trkpt>
<trkpt lat="40.668647" lon="-7.988758">
<ele>432</ele>
<time>2026-05-08T06:03:18Z</time></trkpt>
<trkpt lat="40.66866" lon="-7.989056">
<ele>432</ele>
<time>2026-05-08T06:03:22Z</time></trkpt>
<trkpt lat="40.66867" lon="-7.989127">
<ele>432</ele>
<time>2026-05-08T06:03:24Z</time></trkpt>
<trkpt lat="40.66873" lon="-7.989609">
<ele>433</ele>
<time>2026-05-08T06:03:31Z</time></trkpt>
<trkpt lat="40.668734" lon="-7.989645">
<ele>433</ele>
<time>2026-05-08T06:03:31Z</time></trkpt>
<trkpt lat="40.668873" lon="-7.990656">
<ele>435</ele>
<time>2026-05-08T06:03:47Z</time></trkpt>
<trkpt lat="40.66893" lon="-7.991156">
<ele>436</ele>
<time>2026-05-08T06:03:55Z</time></trkpt>
<trkpt lat="40.668923" lon="-7.99174">
<ele>438</ele>
<time>2026-05-08T06:04:04Z</time></trkpt>
<trkpt lat="40.668905" lon="-7.99189">
<ele>438</ele>
<time>2026-05-08T06:04:06Z</time></trkpt>
<trkpt lat="40.668705" lon="-7.992543">
<ele>437</ele>
<time>2026-05-08T06:04:17Z</time></trkpt>
<trkpt lat="40.668429" lon="-7.993256">
<ele>428</ele>
<time>2026-05-08T06:04:29Z</time></trkpt>
<trkpt lat="40.668329" lon="-7.993841">
<ele>421</ele>
<time>2026-05-08T06:04:38Z</time></trkpt>
<trkpt lat="40.668338" lon="-7.994026">
<ele>419</ele>
<time>2026-05-08T06:04:41Z</time></trkpt>
<trkpt lat="40.668396" lon="-7.994414">
<ele>416</ele>
<time>2026-05-08T06:04:47Z</time></trkpt>
<trkpt lat="40.66856" lon="-7.995326">
<ele>410</ele>
<time>2026-05-08T06:05:01Z</time></trkpt>
<trkpt lat="40.668614" lon="-7.995484">
<ele>409</ele>
<time>2026-05-08T06:05:04Z</time></trkpt>
<trkpt lat="40.668715" lon="-7.995648">
<ele>408</ele>
<time>2026-05-08T06:05:07Z</time></trkpt>
<trkpt lat="40.669034" lon="-7.996095">
<ele>405</ele>
<time>2026-05-08T06:05:16Z</time></trkpt>
<trkpt lat="40.669242" lon="-7.996519">
<ele>402</ele>
<time>2026-05-08T06:05:24Z</time></trkpt>
<trkpt lat="40.669242" lon="-7.996519">
<ele>402</ele>
<time>2026-05-08T06:05:24Z</time></trkpt>
<trkpt lat="40.669499" lon="-7.997013">
<ele>400</ele>
<time>2026-05-08T06:05:33Z</time></trkpt>
<trkpt lat="40.669608" lon="-7.99718">
<ele>399</ele>
<time>2026-05-08T06:05:36Z</time></trkpt>
<trkpt lat="40.669859" lon="-7.997496">
<ele>397</ele>
<time>2026-05-08T06:05:43Z</time></trkpt>
<trkpt lat="40.669934" lon="-7.997613">
<ele>397</ele>
<time>2026-05-08T06:05:46Z</time></trkpt>
<trkpt lat="40.669978" lon="-7.997739">
<ele>396</ele>
<time>2026-05-08T06:05:48Z</time></trkpt>
<trkpt lat="40.670031" lon="-7.998103">
<ele>393</ele>
<time>2026-05-08T06:05:53Z</time></trkpt>
<trkpt lat="40.67013" lon="-7.999862">
<ele>395</ele>
<time>2026-05-08T06:06:20Z</time></trkpt>
<trkpt lat="40.670176" lon="-8.000049">
<ele>396</ele>
<time>2026-05-08T06:06:23Z</time></trkpt>
<trkpt lat="40.670401" lon="-8.000596">
<ele>394</ele>
<time>2026-05-08T06:06:33Z</time></trkpt>
<trkpt lat="40.670599" lon="-8.001059">
<ele>393</ele>
<time>2026-05-08T06:06:41Z</time></trkpt>
<trkpt lat="40.670904" lon="-8.001691">
<ele>393</ele>
<time>2026-05-08T06:06:52Z</time></trkpt>
<trkpt lat="40.670989" lon="-8.001631">
<ele>393</ele>
<time>2026-05-08T06:06:54Z</time></trkpt>
<trkpt lat="40.671329" lon="-8.001523">
<ele>393</ele>
<time>2026-05-08T06:07:01Z</time></trkpt>
<trkpt lat="40.671839" lon="-8.001432">
<ele>393</ele>
<time>2026-05-08T06:07:11Z</time></trkpt>
<trkpt lat="40.672802" lon="-8.001427">
<ele>395</ele>
<time>2026-05-08T06:07:31Z</time></trkpt>
<trkpt lat="40.673261" lon="-8.001386">
<ele>394</ele>
<time>2026-05-08T06:07:40Z</time></trkpt>
<trkpt lat="40.673332" lon="-8.001375">
<ele>394</ele>
<time>2026-05-08T06:07:41Z</time></trkpt>
<trkpt lat="40.673464" lon="-8.0013">
<ele>393</ele>
<time>2026-05-08T06:07:44Z</time></trkpt>
<trkpt lat="40.673645" lon="-8.001085">
<ele>392</ele>
<time>2026-05-08T06:07:49Z</time></trkpt>
<trkpt lat="40.673697" lon="-8.000944">
<ele>391</ele>
<time>2026-05-08T06:07:51Z</time></trkpt>
<trkpt lat="40.673729" lon="-8.000731">
<ele>391</ele>
<time>2026-05-08T06:07:55Z</time></trkpt>
<trkpt lat="40.673744" lon="-8.000337">
<ele>391</ele>
<time>2026-05-08T06:08:01Z</time></trkpt>
<trkpt lat="40.673785" lon="-8.00022">
<ele>391</ele>
<time>2026-05-08T06:08:03Z</time></trkpt>
<trkpt lat="40.673866" lon="-8.000119">
<ele>391</ele>
<time>2026-05-08T06:08:05Z</time></trkpt>
<trkpt lat="40.675377" lon="-7.998897">
<ele>397</ele>
<time>2026-05-08T06:08:40Z</time></trkpt>
<trkpt lat="40.675704" lon="-7.998678">
<ele>401</ele>
<time>2026-05-08T06:08:48Z</time></trkpt>
<trkpt lat="40.675972" lon="-7.998558">
<ele>402</ele>
<time>2026-05-08T06:08:53Z</time></trkpt>
<trkpt lat="40.6763" lon="-7.998476">
<ele>403</ele>
<time>2026-05-08T06:09:00Z</time></trkpt>
<trkpt lat="40.677804" lon="-7.998187">
<ele>411</ele>
<time>2026-05-08T06:09:31Z</time></trkpt>
<trkpt lat="40.678246" lon="-7.998101">
<ele>411</ele>
<time>2026-05-08T06:09:40Z</time></trkpt>
<trkpt lat="40.679492" lon="-7.997946">
<ele>415</ele>
<time>2026-05-08T06:10:05Z</time></trkpt>
<trkpt lat="40.679958" lon="-7.997819">
<ele>415</ele>
<time>2026-05-08T06:10:14Z</time></trkpt>
<trkpt lat="40.679958" lon="-7.997819">
<ele>415</ele>
<time>2026-05-08T06:10:14Z</time></trkpt>
<trkpt lat="40.680192" lon="-7.997755">
<ele>416</ele>
<time>2026-05-08T06:10:19Z</time></trkpt>
<trkpt lat="40.68111" lon="-7.997574">
<ele>418</ele>
<time>2026-05-08T06:10:38Z</time></trkpt>
<trkpt lat="40.681621" lon="-7.997485">
<ele>418</ele>
<time>2026-05-08T06:10:48Z</time></trkpt>
<trkpt lat="40.682005" lon="-7.997521">
<ele>420</ele>
<time>2026-05-08T06:10:56Z</time></trkpt>
<trkpt lat="40.682646" lon="-7.997658">
<ele>423</ele>
<time>2026-05-08T06:11:09Z</time></trkpt>
<trkpt lat="40.682784" lon="-7.997658">
<ele>424</ele>
<time>2026-05-08T06:11:11Z</time></trkpt>
<trkpt lat="40.68294" lon="-7.997611">
<ele>426</ele>
<time>2026-05-08T06:11:15Z</time></trkpt>
<trkpt lat="40.683513" lon="-7.99728">
<ele>430</ele>
<time>2026-05-08T06:11:27Z</time></trkpt>
<trkpt lat="40.684177" lon="-7.997081">
<ele>433</ele>
<time>2026-05-08T06:11:41Z</time></trkpt>
<trkpt lat="40.684857" lon="-7.996925">
<ele>433</ele>
<time>2026-05-08T06:11:55Z</time></trkpt>
<trkpt lat="40.685068" lon="-7.996916">
<ele>433</ele>
<time>2026-05-08T06:11:59Z</time></trkpt>
<trkpt lat="40.685293" lon="-7.99699">
<ele>434</ele>
<time>2026-05-08T06:12:03Z</time></trkpt>
<trkpt lat="40.686237" lon="-7.997572">
<ele>439</ele>
<time>2026-05-08T06:12:24Z</time></trkpt>
<trkpt lat="40.686311" lon="-7.997591">
<ele>440</ele>
<time>2026-05-08T06:12:26Z</time></trkpt>
<trkpt lat="40.686602" lon="-7.997651">
<ele>441</ele>
<time>2026-05-08T06:12:32Z</time></trkpt>
<trkpt lat="40.686887" lon="-7.99766">
<ele>442</ele>
<time>2026-05-08T06:12:37Z</time></trkpt>
<trkpt lat="40.688216" lon="-7.997357">
<ele>449</ele>
<time>2026-05-08T06:13:04Z</time></trkpt>
<trkpt lat="40.688701" lon="-7.997135">
<ele>452</ele>
<time>2026-05-08T06:13:15Z</time></trkpt>
<trkpt lat="40.689294" lon="-7.996781">
<ele>454</ele>
<time>2026-05-08T06:13:28Z</time></trkpt>
<trkpt lat="40.689987" lon="-7.996311">
<ele>456</ele>
<time>2026-05-08T06:13:43Z</time></trkpt>
<trkpt lat="40.690252" lon="-7.996061">
<ele>457</ele>
<time>2026-05-08T06:13:50Z</time></trkpt>
<trkpt lat="40.690373" lon="-7.995872">
<ele>457</ele>
<time>2026-05-08T06:13:54Z</time></trkpt>
<trkpt lat="40.690454" lon="-7.995681">
<ele>458</ele>
<time>2026-05-08T06:13:57Z</time></trkpt>
<trkpt lat="40.69052" lon="-7.995349">
<ele>459</ele>
<time>2026-05-08T06:14:02Z</time></trkpt>
<trkpt lat="40.690572" lon="-7.994989">
<ele>461</ele>
<time>2026-05-08T06:14:08Z</time></trkpt>
<trkpt lat="40.690686" lon="-7.994002">
<ele>465</ele>
<time>2026-05-08T06:14:23Z</time></trkpt>
<trkpt lat="40.691088" lon="-7.991437">
<ele>472</ele>
<time>2026-05-08T06:15:03Z</time></trkpt>
<trkpt lat="40.69115" lon="-7.99112">
<ele>472</ele>
<time>2026-05-08T06:15:08Z</time></trkpt>
<trkpt lat="40.69135" lon="-7.990718">
<ele>472</ele>
<time>2026-05-08T06:15:15Z</time></trkpt>
<trkpt lat="40.691745" lon="-7.990237">
<ele>474</ele>
<time>2026-05-08T06:15:26Z</time></trkpt>
<trkpt lat="40.691845" lon="-7.990138">
<ele>475</ele>
<time>2026-05-08T06:15:28Z</time></trkpt>
<trkpt lat="40.693442" lon="-7.988552">
<ele>483</ele>
<time>2026-05-08T06:16:08Z</time></trkpt>
<trkpt lat="40.693607" lon="-7.988276">
<ele>485</ele>
<time>2026-05-08T06:16:14Z</time></trkpt>
<trkpt lat="40.693761" lon="-7.987949">
<ele>485</ele>
<time>2026-05-08T06:16:20Z</time></trkpt>
<trkpt lat="40.693915" lon="-7.987686">
<ele>486</ele>
<time>2026-05-08T06:16:25Z</time></trkpt>
<trkpt lat="40.694306" lon="-7.987318">
<ele>489</ele>
<time>2026-05-08T06:16:34Z</time></trkpt>
<trkpt lat="40.694725" lon="-7.986962">
<ele>492</ele>
<time>2026-05-08T06:16:44Z</time></trkpt>
<trkpt lat="40.696676" lon="-7.985327">
<ele>504</ele>
<time>2026-05-08T06:17:31Z</time></trkpt>
<trkpt lat="40.697015" lon="-7.985084">
<ele>506</ele>
<time>2026-05-08T06:17:38Z</time></trkpt>
<trkpt lat="40.697562" lon="-7.984645">
<ele>509</ele>
<time>2026-05-08T06:17:51Z</time></trkpt>
<trkpt lat="40.697674" lon="-7.984574">
<ele>510</ele>
<time>2026-05-08T06:17:54Z</time></trkpt>
<trkpt lat="40.697778" lon="-7.984564">
<ele>511</ele>
<time>2026-05-08T06:17:56Z</time></trkpt>
<trkpt lat="40.69787" lon="-7.984623">
<ele>512</ele>
<time>2026-05-08T06:17:58Z</time></trkpt>
<trkpt lat="40.698029" lon="-7.984863">
<ele>513</ele>
<time>2026-05-08T06:18:03Z</time></trkpt>
<trkpt lat="40.698169" lon="-7.98499">
<ele>513</ele>
<time>2026-05-08T06:18:06Z</time></trkpt>
<trkpt lat="40.698332" lon="-7.985084">
<ele>515</ele>
<time>2026-05-08T06:18:10Z</time></trkpt>
<trkpt lat="40.698595" lon="-7.985173">
<ele>517</ele>
<time>2026-05-08T06:18:15Z</time></trkpt>
<trkpt lat="40.698682" lon="-7.985232">
<ele>518</ele>
<time>2026-05-08T06:18:17Z</time></trkpt>
<trkpt lat="40.698766" lon="-7.985251">
<ele>518</ele>
<time>2026-05-08T06:18:19Z</time></trkpt>
<trkpt lat="40.699053" lon="-7.985113">
<ele>521</ele>
<time>2026-05-08T06:18:25Z</time></trkpt>
<trkpt lat="40.699292" lon="-7.985021">
<ele>523</ele>
<time>2026-05-08T06:18:30Z</time></trkpt>
<trkpt lat="40.699503" lon="-7.984958">
<ele>524</ele>
<time>2026-05-08T06:18:34Z</time></trkpt>
<trkpt lat="40.699755" lon="-7.98484">
<ele>526</ele>
<time>2026-05-08T06:18:39Z</time></trkpt>
<trkpt lat="40.699943" lon="-7.984561">
<ele>528</ele>
<time>2026-05-08T06:18:45Z</time></trkpt>
<trkpt lat="40.700017" lon="-7.984352">
<ele>529</ele>
<time>2026-05-08T06:18:49Z</time></trkpt>
<trkpt lat="40.700398" lon="-7.983295">
<ele>533</ele>
<time>2026-05-08T06:19:06Z</time></trkpt>
<trkpt lat="40.700447" lon="-7.98293">
<ele>534</ele>
<time>2026-05-08T06:19:12Z</time></trkpt>
<trkpt lat="40.700447" lon="-7.982742">
<ele>534</ele>
<time>2026-05-08T06:19:15Z</time></trkpt>
<trkpt lat="40.700383" lon="-7.981909">
<ele>535</ele>
<time>2026-05-08T06:19:28Z</time></trkpt>
<trkpt lat="40.700336" lon="-7.981249">
<ele>534</ele>
<time>2026-05-08T06:19:38Z</time></trkpt>
<trkpt lat="40.700356" lon="-7.980868">
<ele>533</ele>
<time>2026-05-08T06:19:43Z</time></trkpt>
<trkpt lat="40.70052" lon="-7.980465">
<ele>532</ele>
<time>2026-05-08T06:19:50Z</time></trkpt>
<trkpt lat="40.701211" lon="-7.979465">
<ele>528</ele>
<time>2026-05-08T06:20:11Z</time></trkpt>
<trkpt lat="40.701496" lon="-7.979089">
<ele>526</ele>
<time>2026-05-08T06:20:19Z</time></trkpt>
<trkpt lat="40.70179" lon="-7.978663">
<ele>523</ele>
<time>2026-05-08T06:20:28Z</time></trkpt>
<trkpt lat="40.701926" lon="-7.978505">
<ele>523</ele>
<time>2026-05-08T06:20:31Z</time></trkpt>
<trkpt lat="40.702581" lon="-7.978139">
<ele>520</ele>
<time>2026-05-08T06:20:46Z</time></trkpt>
<trkpt lat="40.702976" lon="-7.977888">
<ele>517</ele>
<time>2026-05-08T06:20:54Z</time></trkpt>
<trkpt lat="40.703416" lon="-7.977652">
<ele>514</ele>
<time>2026-05-08T06:21:04Z</time></trkpt>
<trkpt lat="40.704362" lon="-7.977531">
<ele>512</ele>
<time>2026-05-08T06:21:23Z</time></trkpt>
<trkpt lat="40.704689" lon="-7.977517">
<ele>512</ele>
<time>2026-05-08T06:21:30Z</time></trkpt>
<trkpt lat="40.705152" lon="-7.977464">
<ele>510</ele>
<time>2026-05-08T06:21:39Z</time></trkpt>
<trkpt lat="40.705595" lon="-7.977491">
<ele>505</ele>
<time>2026-05-08T06:21:48Z</time></trkpt>
<trkpt lat="40.706172" lon="-7.977477">
<ele>500</ele>
<time>2026-05-08T06:21:59Z</time></trkpt>
<trkpt lat="40.706789" lon="-7.977426">
<ele>496</ele>
<time>2026-05-08T06:22:12Z</time></trkpt>
<trkpt lat="40.707138" lon="-7.977297">
<ele>492</ele>
<time>2026-05-08T06:22:19Z</time></trkpt>
<trkpt lat="40.70758" lon="-7.977088">
<ele>487</ele>
<time>2026-05-08T06:22:28Z</time></trkpt>
<trkpt lat="40.708357" lon="-7.97713">
<ele>481</ele>
<time>2026-05-08T06:22:44Z</time></trkpt>
<trkpt lat="40.708427" lon="-7.977118">
<ele>481</ele>
<time>2026-05-08T06:22:45Z</time></trkpt>
<trkpt lat="40.70885" lon="-7.976935">
<ele>478</ele>
<time>2026-05-08T06:22:54Z</time></trkpt>
<trkpt lat="40.709144" lon="-7.9769">
<ele>476</ele>
<time>2026-05-08T06:23:00Z</time></trkpt>
<trkpt lat="40.709293" lon="-7.976837">
<ele>475</ele>
<time>2026-05-08T06:23:03Z</time></trkpt>
<trkpt lat="40.709384" lon="-7.976752">
<ele>474</ele>
<time>2026-05-08T06:23:06Z</time></trkpt>
<trkpt lat="40.709972" lon="-7.976669">
<ele>471</ele>
<time>2026-05-08T06:23:17Z</time></trkpt>
<trkpt lat="40.710079" lon="-7.976636">
<ele>471</ele>
<time>2026-05-08T06:23:20Z</time></trkpt>
<trkpt lat="40.710761" lon="-7.97634">
<ele>468</ele>
<time>2026-05-08T06:23:34Z</time></trkpt>
<trkpt lat="40.711181" lon="-7.976102">
<ele>466</ele>
<time>2026-05-08T06:23:43Z</time></trkpt>
<trkpt lat="40.711446" lon="-7.975855">
<ele>465</ele>
<time>2026-05-08T06:23:50Z</time></trkpt>
<trkpt lat="40.711745" lon="-7.975776">
<ele>464</ele>
<time>2026-05-08T06:23:56Z</time></trkpt>
<trkpt lat="40.711853" lon="-7.975703">
<ele>463</ele>
<time>2026-05-08T06:23:58Z</time></trkpt>
<trkpt lat="40.712347" lon="-7.974797">
<ele>459</ele>
<time>2026-05-08T06:24:15Z</time></trkpt>
<trkpt lat="40.712919" lon="-7.974223">
<ele>455</ele>
<time>2026-05-08T06:24:30Z</time></trkpt>
<trkpt lat="40.7141" lon="-7.973091">
<ele>450</ele>
<time>2026-05-08T06:24:59Z</time></trkpt>
<trkpt lat="40.714192" lon="-7.972952">
<ele>449</ele>
<time>2026-05-08T06:25:02Z</time></trkpt>
<trkpt lat="40.714367" lon="-7.972325">
<ele>448</ele>
<time>2026-05-08T06:25:12Z</time></trkpt>
<trkpt lat="40.714486" lon="-7.97164">
<ele>446</ele>
<time>2026-05-08T06:25:23Z</time></trkpt>
<trkpt lat="40.714712" lon="-7.970646">
<ele>448</ele>
<time>2026-05-08T06:25:38Z</time></trkpt>
<trkpt lat="40.7148" lon="-7.970424">
<ele>448</ele>
<time>2026-05-08T06:25:42Z</time></trkpt>
<trkpt lat="40.714979" lon="-7.970325">
<ele>449</ele>
<time>2026-05-08T06:25:46Z</time></trkpt>
<trkpt lat="40.714997" lon="-7.970526">
<ele>449</ele>
<time>2026-05-08T06:25:49Z</time></trkpt>
<trkpt lat="40.715001" lon="-7.970564">
<ele>449</ele>
<time>2026-05-08T06:25:50Z</time></trkpt>
<trkpt lat="40.715145" lon="-7.972199">
<ele>448</ele>
<time>2026-05-08T06:26:15Z</time></trkpt>
<trkpt lat="40.715132" lon="-7.972766">
<ele>448</ele>
<time>2026-05-08T06:26:23Z</time></trkpt>
<trkpt lat="40.715098" lon="-7.973013">
<ele>447</ele>
<time>2026-05-08T06:26:27Z</time></trkpt>
<trkpt lat="40.715098" lon="-7.973013">
<ele>447</ele>
<time>2026-05-08T06:26:27Z</time></trkpt>
<trkpt lat="40.714755" lon="-7.975518">
<ele>448</ele>
<time>2026-05-08T06:27:06Z</time></trkpt>
<trkpt lat="40.714506" lon="-7.977336">
<ele>449</ele>
<time>2026-05-08T06:27:34Z</time></trkpt>
<trkpt lat="40.714481" lon="-7.977472">
<ele>449</ele>
<time>2026-05-08T06:27:36Z</time></trkpt>
<trkpt lat="40.714438" lon="-7.977879">
<ele>448</ele>
<time>2026-05-08T06:27:42Z</time></trkpt>
<trkpt lat="40.714433" lon="-7.978067">
<ele>448</ele>
<time>2026-05-08T06:27:45Z</time></trkpt>
<trkpt lat="40.714447" lon="-7.978256">
<ele>449</ele>
<time>2026-05-08T06:27:48Z</time></trkpt>
<trkpt lat="40.714529" lon="-7.978495">
<ele>449</ele>
<time>2026-05-08T06:27:52Z</time></trkpt>
<trkpt lat="40.714668" lon="-7.978678">
<ele>449</ele>
<time>2026-05-08T06:27:56Z</time></trkpt>
<trkpt lat="40.715168" lon="-7.979105">
<ele>448</ele>
<time>2026-05-08T06:28:08Z</time></trkpt>
<trkpt lat="40.71592" lon="-7.979716">
<ele>445</ele>
<time>2026-05-08T06:28:25Z</time></trkpt>
<trkpt lat="40.716343" lon="-7.980064">
<ele>444</ele>
<time>2026-05-08T06:28:35Z</time></trkpt>
<trkpt lat="40.716527" lon="-7.980228">
<ele>444</ele>
<time>2026-05-08T06:28:40Z</time></trkpt>
<trkpt lat="40.716743" lon="-7.980479">
<ele>444</ele>
<time>2026-05-08T06:28:46Z</time></trkpt>
<trkpt lat="40.716835" lon="-7.98068">
<ele>444</ele>
<time>2026-05-08T06:28:49Z</time></trkpt>
<trkpt lat="40.716882" lon="-7.980867">
<ele>444</ele>
<time>2026-05-08T06:28:52Z</time></trkpt>
<trkpt lat="40.716938" lon="-7.981377">
<ele>445</ele>
<time>2026-05-08T06:29:00Z</time></trkpt>
<trkpt lat="40.71696" lon="-7.981468">
<ele>445</ele>
<time>2026-05-08T06:29:01Z</time></trkpt>
<trkpt lat="40.717061" lon="-7.981753">
<ele>446</ele>
<time>2026-05-08T06:29:06Z</time></trkpt>
<trkpt lat="40.717192" lon="-7.981963">
<ele>446</ele>
<time>2026-05-08T06:29:10Z</time></trkpt>
<trkpt lat="40.717321" lon="-7.98214">
<ele>446</ele>
<time>2026-05-08T06:29:14Z</time></trkpt>
<trkpt lat="40.717962" lon="-7.982887">
<ele>447</ele>
<time>2026-05-08T06:29:31Z</time></trkpt>
<trkpt lat="40.718192" lon="-7.983155">
<ele>448</ele>
<time>2026-05-08T06:29:37Z</time></trkpt>
<trkpt lat="40.718696" lon="-7.983727">
<ele>447</ele>
<time>2026-05-08T06:29:51Z</time></trkpt>
<trkpt lat="40.718808" lon="-7.983861">
<ele>447</ele>
<time>2026-05-08T06:29:54Z</time></trkpt>
<trkpt lat="40.719069" lon="-7.984165">
<ele>447</ele>
<time>2026-05-08T06:30:01Z</time></trkpt>
<trkpt lat="40.719341" lon="-7.984521">
<ele>448</ele>
<time>2026-05-08T06:30:08Z</time></trkpt>
<trkpt lat="40.719513" lon="-7.984807">
<ele>449</ele>
<time>2026-05-08T06:30:14Z</time></trkpt>
<trkpt lat="40.719641" lon="-7.985156">
<ele>447</ele>
<time>2026-05-08T06:30:20Z</time></trkpt>
<trkpt lat="40.719782" lon="-7.985725">
<ele>441</ele>
<time>2026-05-08T06:30:29Z</time></trkpt>
<trkpt lat="40.72071" lon="-7.989973">
<ele>436</ele>
<time>2026-05-08T06:31:36Z</time></trkpt>
<trkpt lat="40.721004" lon="-7.99126">
<ele>438</ele>
<time>2026-05-08T06:31:56Z</time></trkpt>
<trkpt lat="40.721116" lon="-7.991583">
<ele>439</ele>
<time>2026-05-08T06:32:02Z</time></trkpt>
<trkpt lat="40.721195" lon="-7.991707">
<ele>440</ele>
<time>2026-05-08T06:32:04Z</time></trkpt>
<trkpt lat="40.72131" lon="-7.991844">
<ele>440</ele>
<time>2026-05-08T06:32:07Z</time></trkpt>
<trkpt lat="40.721518" lon="-7.99197">
<ele>440</ele>
<time>2026-05-08T06:32:12Z</time></trkpt>
<trkpt lat="40.722255" lon="-7.992278">
<ele>443</ele>
<time>2026-05-08T06:32:27Z</time></trkpt>
<trkpt lat="40.724601" lon="-7.99325">
<ele>433</ele>
<time>2026-05-08T06:33:17Z</time></trkpt>
<trkpt lat="40.726494" lon="-7.994045">
<ele>435</ele>
<time>2026-05-08T06:33:57Z</time></trkpt>
<trkpt lat="40.728119" lon="-7.994723">
<ele>441</ele>
<time>2026-05-08T06:34:31Z</time></trkpt>
<trkpt lat="40.728272" lon="-7.994787">
<ele>442</ele>
<time>2026-05-08T06:34:34Z</time></trkpt>
<trkpt lat="40.729506" lon="-7.995301">
<ele>448</ele>
<time>2026-05-08T06:35:00Z</time></trkpt>
<trkpt lat="40.730186" lon="-7.995585">
<ele>450</ele>
<time>2026-05-08T06:35:14Z</time></trkpt>
<trkpt lat="40.731511" lon="-7.996135">
<ele>450</ele>
<time>2026-05-08T06:35:42Z</time></trkpt>
<trkpt lat="40.731689" lon="-7.996188">
<ele>451</ele>
<time>2026-05-08T06:35:46Z</time></trkpt>
<trkpt lat="40.73207" lon="-7.996195">
<ele>451</ele>
<time>2026-05-08T06:35:53Z</time></trkpt>
<trkpt lat="40.73287" lon="-7.996045">
<ele>454</ele>
<time>2026-05-08T06:36:09Z</time></trkpt>
<trkpt lat="40.733081" lon="-7.996067">
<ele>453</ele>
<time>2026-05-08T06:36:14Z</time></trkpt>
<trkpt lat="40.73327" lon="-7.99616">
<ele>452</ele>
<time>2026-05-08T06:36:18Z</time></trkpt>
<trkpt lat="40.733457" lon="-7.99632">
<ele>450</ele>
<time>2026-05-08T06:36:22Z</time></trkpt>
<trkpt lat="40.733632" lon="-7.996515">
<ele>448</ele>
<time>2026-05-08T06:36:27Z</time></trkpt>
<trkpt lat="40.735443" lon="-7.998748">
<ele>445</ele>
<time>2026-05-08T06:37:16Z</time></trkpt>
<trkpt lat="40.736414" lon="-7.999937">
<ele>437</ele>
<time>2026-05-08T06:37:43Z</time></trkpt>
<trkpt lat="40.736676" lon="-8.000277">
<ele>436</ele>
<time>2026-05-08T06:37:50Z</time></trkpt>
<trkpt lat="40.73683" lon="-8.00058">
<ele>434</ele>
<time>2026-05-08T06:37:56Z</time></trkpt>
<trkpt lat="40.736906" lon="-8.000874">
<ele>433</ele>
<time>2026-05-08T06:38:01Z</time></trkpt>
<trkpt lat="40.736925" lon="-8.003615">
<ele>426</ele>
<time>2026-05-08T06:38:42Z</time></trkpt>
<trkpt lat="40.736982" lon="-8.00395">
<ele>423</ele>
<time>2026-05-08T06:38:47Z</time></trkpt>
<trkpt lat="40.737059" lon="-8.004146">
<ele>422</ele>
<time>2026-05-08T06:38:51Z</time></trkpt>
<trkpt lat="40.737229" lon="-8.004354">
<ele>419</ele>
<time>2026-05-08T06:38:55Z</time></trkpt>
<trkpt lat="40.737559" lon="-8.004623">
<ele>417</ele>
<time>2026-05-08T06:39:03Z</time></trkpt>
<trkpt lat="40.737981" lon="-8.005002">
<ele>418</ele>
<time>2026-05-08T06:39:13Z</time></trkpt>
<trkpt lat="40.738418" lon="-8.005746">
<ele>417</ele>
<time>2026-05-08T06:39:28Z</time></trkpt>
<trkpt lat="40.738616" lon="-8.005904">
<ele>414</ele>
<time>2026-05-08T06:39:32Z</time></trkpt>
<trkpt lat="40.73885" lon="-8.0059">
<ele>413</ele>
<time>2026-05-08T06:39:37Z</time></trkpt>
<trkpt lat="40.739133" lon="-8.005761">
<ele>415</ele>
<time>2026-05-08T06:39:43Z</time></trkpt>
<trkpt lat="40.73941" lon="-8.005655">
<ele>414</ele>
<time>2026-05-08T06:39:49Z</time></trkpt>
<trkpt lat="40.739621" lon="-8.005699">
<ele>412</ele>
<time>2026-05-08T06:39:53Z</time></trkpt>
<trkpt lat="40.739828" lon="-8.005831">
<ele>408</ele>
<time>2026-05-08T06:39:58Z</time></trkpt>
<trkpt lat="40.740118" lon="-8.006137">
<ele>404</ele>
<time>2026-05-08T06:40:05Z</time></trkpt>
<trkpt lat="40.740347" lon="-8.006424">
<ele>403</ele>
<time>2026-05-08T06:40:12Z</time></trkpt>
<trkpt lat="40.740489" lon="-8.006697">
<ele>402</ele>
<time>2026-05-08T06:40:17Z</time></trkpt>
<trkpt lat="40.740657" lon="-8.007085">
<ele>401</ele>
<time>2026-05-08T06:40:23Z</time></trkpt>
<trkpt lat="40.740844" lon="-8.007442">
<ele>400</ele>
<time>2026-05-08T06:40:30Z</time></trkpt>
<trkpt lat="40.741039" lon="-8.007714">
<ele>398</ele>
<time>2026-05-08T06:40:36Z</time></trkpt>
<trkpt lat="40.741995" lon="-8.008608">
<ele>392</ele>
<time>2026-05-08T06:40:59Z</time></trkpt>
<trkpt lat="40.743216" lon="-8.009703">
<ele>385</ele>
<time>2026-05-08T06:41:29Z</time></trkpt>
<trkpt lat="40.743365" lon="-8.00976">
<ele>384</ele>
<time>2026-05-08T06:41:32Z</time></trkpt>
<trkpt lat="40.743541" lon="-8.009737">
<ele>385</ele>
<time>2026-05-08T06:41:35Z</time></trkpt>
<trkpt lat="40.743768" lon="-8.009554">
<ele>390</ele>
<time>2026-05-08T06:41:41Z</time></trkpt>
<trkpt lat="40.744009" lon="-8.009388">
<ele>393</ele>
<time>2026-05-08T06:41:46Z</time></trkpt>
<trkpt lat="40.744212" lon="-8.009316">
<ele>394</ele>
<time>2026-05-08T06:41:50Z</time></trkpt>
<trkpt lat="40.744405" lon="-8.009286">
<ele>394</ele>
<time>2026-05-08T06:41:54Z</time></trkpt>
<trkpt lat="40.744599" lon="-8.009313">
<ele>393</ele>
<time>2026-05-08T06:41:58Z</time></trkpt>
<trkpt lat="40.744782" lon="-8.009373">
<ele>391</ele>
<time>2026-05-08T06:42:02Z</time></trkpt>
<trkpt lat="40.744872" lon="-8.0095">
<ele>390</ele>
<time>2026-05-08T06:42:05Z</time></trkpt>
<trkpt lat="40.744921" lon="-8.009599">
<ele>389</ele>
<time>2026-05-08T06:42:06Z</time></trkpt>
<trkpt lat="40.744942" lon="-8.009788">
<ele>388</ele>
<time>2026-05-08T06:42:09Z</time></trkpt>
<trkpt lat="40.744907" lon="-8.0099">
<ele>387</ele>
<time>2026-05-08T06:42:11Z</time></trkpt>
<trkpt lat="40.744829" lon="-8.010032">
<ele>387</ele>
<time>2026-05-08T06:42:14Z</time></trkpt>
<trkpt lat="40.744696" lon="-8.010177">
<ele>388</ele>
<time>2026-05-08T06:42:17Z</time></trkpt>
<trkpt lat="40.743561" lon="-8.011134">
<ele>371</ele>
<time>2026-05-08T06:42:44Z</time></trkpt>
<trkpt lat="40.743398" lon="-8.011316">
<ele>369</ele>
<time>2026-05-08T06:42:48Z</time></trkpt>
<trkpt lat="40.742261" lon="-8.013183">
<ele>357</ele>
<time>2026-05-08T06:43:25Z</time></trkpt>
<trkpt lat="40.742145" lon="-8.013419">
<ele>357</ele>
<time>2026-05-08T06:43:29Z</time></trkpt>
<trkpt lat="40.742058" lon="-8.013836">
<ele>360</ele>
<time>2026-05-08T06:43:36Z</time></trkpt>
<trkpt lat="40.741947" lon="-8.014099">
<ele>361</ele>
<time>2026-05-08T06:43:40Z</time></trkpt>
<trkpt lat="40.741755" lon="-8.01429">
<ele>358</ele>
<time>2026-05-08T06:43:45Z</time></trkpt>
<trkpt lat="40.741522" lon="-8.014467">
<ele>356</ele>
<time>2026-05-08T06:43:50Z</time></trkpt>
<trkpt lat="40.741319" lon="-8.014524">
<ele>354</ele>
<time>2026-05-08T06:43:55Z</time></trkpt>
<trkpt lat="40.740897" lon="-8.014456">
<ele>347</ele>
<time>2026-05-08T06:44:03Z</time></trkpt>
<trkpt lat="40.74067" lon="-8.014537">
<ele>344</ele>
<time>2026-05-08T06:44:08Z</time></trkpt>
<trkpt lat="40.74048" lon="-8.014722">
<ele>343</ele>
<time>2026-05-08T06:44:12Z</time></trkpt>
<trkpt lat="40.740174" lon="-8.015153">
<ele>340</ele>
<time>2026-05-08T06:44:21Z</time></trkpt>
<trkpt lat="40.739976" lon="-8.015483">
<ele>339</ele>
<time>2026-05-08T06:44:28Z</time></trkpt>
<trkpt lat="40.73991" lon="-8.015699">
<ele>339</ele>
<time>2026-05-08T06:44:31Z</time></trkpt>
<trkpt lat="40.73991" lon="-8.015916">
<ele>339</ele>
<time>2026-05-08T06:44:35Z</time></trkpt>
<trkpt lat="40.739991" lon="-8.016318">
<ele>338</ele>
<time>2026-05-08T06:44:41Z</time></trkpt>
<trkpt lat="40.740448" lon="-8.018049">
<ele>330</ele>
<time>2026-05-08T06:45:09Z</time></trkpt>
<trkpt lat="40.740474" lon="-8.018186">
<ele>329</ele>
<time>2026-05-08T06:45:11Z</time></trkpt>
<trkpt lat="40.740471" lon="-8.018451">
<ele>327</ele>
<time>2026-05-08T06:45:15Z</time></trkpt>
<trkpt lat="40.740406" lon="-8.018642">
<ele>327</ele>
<time>2026-05-08T06:45:18Z</time></trkpt>
<trkpt lat="40.740181" lon="-8.019017">
<ele>325</ele>
<time>2026-05-08T06:45:25Z</time></trkpt>
<trkpt lat="40.740104" lon="-8.019146">
<ele>324</ele>
<time>2026-05-08T06:45:28Z</time></trkpt>
<trkpt lat="40.739967" lon="-8.019384">
<ele>322</ele>
<time>2026-05-08T06:45:32Z</time></trkpt>
<trkpt lat="40.739914" lon="-8.01955">
<ele>321</ele>
<time>2026-05-08T06:45:35Z</time></trkpt>
<trkpt lat="40.7398085" lon="-8.0206864">
<ele>316</ele>
<time>2026-05-08T06:45:53Z</time></trkpt>
<trkpt lat="40.739722" lon="-8.021724">
<ele>316</ele>
<time>2026-05-08T06:46:08Z</time></trkpt>
<trkpt lat="40.739722" lon="-8.021724">
<ele>316</ele>
<time>2026-05-08T06:46:08Z</time></trkpt>
<trkpt lat="40.739604" lon="-8.023139">
<ele>315</ele>
<time>2026-05-08T06:46:30Z</time></trkpt>
<trkpt lat="40.739648" lon="-8.023468">
<ele>314</ele>
<time>2026-05-08T06:46:35Z</time></trkpt>
<trkpt lat="40.739774" lon="-8.023727">
<ele>313</ele>
<time>2026-05-08T06:46:40Z</time></trkpt>
<trkpt lat="40.74017" lon="-8.024225">
<ele>312</ele>
<time>2026-05-08T06:46:51Z</time></trkpt>
<trkpt lat="40.74065" lon="-8.02474">
<ele>308</ele>
<time>2026-05-08T06:47:03Z</time></trkpt>
<trkpt lat="40.740822" lon="-8.024848">
<ele>309</ele>
<time>2026-05-08T06:47:07Z</time></trkpt>
<trkpt lat="40.740923" lon="-8.024885">
<ele>308</ele>
<time>2026-05-08T06:47:09Z</time></trkpt>
<trkpt lat="40.741333" lon="-8.024974">
<ele>308</ele>
<time>2026-05-08T06:47:17Z</time></trkpt>
<trkpt lat="40.741626" lon="-8.024994">
<ele>308</ele>
<time>2026-05-08T06:47:23Z</time></trkpt>
<trkpt lat="40.741876" lon="-8.025046">
<ele>310</ele>
<time>2026-05-08T06:47:28Z</time></trkpt>
<trkpt lat="40.742048" lon="-8.025163">
<ele>310</ele>
<time>2026-05-08T06:47:32Z</time></trkpt>
<trkpt lat="40.742226" lon="-8.025322">
<ele>309</ele>
<time>2026-05-08T06:47:36Z</time></trkpt>
<trkpt lat="40.742435" lon="-8.025474">
<ele>308</ele>
<time>2026-05-08T06:47:41Z</time></trkpt>
<trkpt lat="40.742598" lon="-8.025534">
<ele>308</ele>
<time>2026-05-08T06:47:45Z</time></trkpt>
<trkpt lat="40.743372" lon="-8.025526">
<ele>315</ele>
<time>2026-05-08T06:48:00Z</time></trkpt>
<trkpt lat="40.743533" lon="-8.025566">
<ele>318</ele>
<time>2026-05-08T06:48:03Z</time></trkpt>
<trkpt lat="40.74364" lon="-8.025656">
<ele>319</ele>
<time>2026-05-08T06:48:06Z</time></trkpt>
<trkpt lat="40.743714" lon="-8.025813">
<ele>319</ele>
<time>2026-05-08T06:48:09Z</time></trkpt>
<trkpt lat="40.743718" lon="-8.025988">
<ele>317</ele>
<time>2026-05-08T06:48:11Z</time></trkpt>
<trkpt lat="40.743651" lon="-8.026189">
<ele>314</ele>
<time>2026-05-08T06:48:15Z</time></trkpt>
<trkpt lat="40.743566" lon="-8.026341">
<ele>311</ele>
<time>2026-05-08T06:48:18Z</time></trkpt>
<trkpt lat="40.743416" lon="-8.026679">
<ele>306</ele>
<time>2026-05-08T06:48:24Z</time></trkpt>
<trkpt lat="40.743407" lon="-8.02686">
<ele>305</ele>
<time>2026-05-08T06:48:26Z</time></trkpt>
<trkpt lat="40.743449" lon="-8.027036">
<ele>305</ele>
<time>2026-05-08T06:48:29Z</time></trkpt>
<trkpt lat="40.743633" lon="-8.027346">
<ele>305</ele>
<time>2026-05-08T06:48:35Z</time></trkpt>
<trkpt lat="40.74398" lon="-8.027854">
<ele>302</ele>
<time>2026-05-08T06:48:46Z</time></trkpt>
<trkpt lat="40.744146" lon="-8.028033">
<ele>301</ele>
<time>2026-05-08T06:48:50Z</time></trkpt>
<trkpt lat="40.744702" lon="-8.02844">
<ele>304</ele>
<time>2026-05-08T06:49:03Z</time></trkpt>
<trkpt lat="40.744794" lon="-8.02854">
<ele>305</ele>
<time>2026-05-08T06:49:05Z</time></trkpt>
<trkpt lat="40.744865" lon="-8.028674">
<ele>305</ele>
<time>2026-05-08T06:49:07Z</time></trkpt>
<trkpt lat="40.744892" lon="-8.028865">
<ele>305</ele>
<time>2026-05-08T06:49:10Z</time></trkpt>
<trkpt lat="40.744894" lon="-8.029031">
<ele>305</ele>
<time>2026-05-08T06:49:13Z</time></trkpt>
<trkpt lat="40.744738" lon="-8.030509">
<ele>299</ele>
<time>2026-05-08T06:49:36Z</time></trkpt>
<trkpt lat="40.744688" lon="-8.030843">
<ele>299</ele>
<time>2026-05-08T06:49:41Z</time></trkpt>
<trkpt lat="40.744616" lon="-8.031151">
<ele>299</ele>
<time>2026-05-08T06:49:46Z</time></trkpt>
<trkpt lat="40.744293" lon="-8.032189">
<ele>294</ele>
<time>2026-05-08T06:50:03Z</time></trkpt>
<trkpt lat="40.744161" lon="-8.032679">
<ele>291</ele>
<time>2026-05-08T06:50:11Z</time></trkpt>
<trkpt lat="40.743398" lon="-8.035804">
<ele>282</ele>
<time>2026-05-08T06:51:00Z</time></trkpt>
<trkpt lat="40.743385" lon="-8.035855">
<ele>282</ele>
<time>2026-05-08T06:51:01Z</time></trkpt>
<trkpt lat="40.743048" lon="-8.037232">
<ele>273</ele>
<time>2026-05-08T06:51:23Z</time></trkpt>
<trkpt lat="40.743027" lon="-8.037418">
<ele>272</ele>
<time>2026-05-08T06:51:26Z</time></trkpt>
<trkpt lat="40.74304" lon="-8.037592">
<ele>271</ele>
<time>2026-05-08T06:51:29Z</time></trkpt>
<trkpt lat="40.743083" lon="-8.037744">
<ele>271</ele>
<time>2026-05-08T06:51:31Z</time></trkpt>
<trkpt lat="40.743154" lon="-8.03787">
<ele>270</ele>
<time>2026-05-08T06:51:34Z</time></trkpt>
<trkpt lat="40.743841" lon="-8.038706">
<ele>265</ele>
<time>2026-05-08T06:51:52Z</time></trkpt>
<trkpt lat="40.744061" lon="-8.038873">
<ele>263</ele>
<time>2026-05-08T06:51:57Z</time></trkpt>
<trkpt lat="40.744231" lon="-8.03895">
<ele>262</ele>
<time>2026-05-08T06:52:01Z</time></trkpt>
<trkpt lat="40.744453" lon="-8.038994">
<ele>262</ele>
<time>2026-05-08T06:52:05Z</time></trkpt>
<trkpt lat="40.744971" lon="-8.039046">
<ele>262</ele>
<time>2026-05-08T06:52:16Z</time></trkpt>
<trkpt lat="40.745177" lon="-8.039102">
<ele>264</ele>
<time>2026-05-08T06:52:20Z</time></trkpt>
<trkpt lat="40.745438" lon="-8.039311">
<ele>265</ele>
<time>2026-05-08T06:52:26Z</time></trkpt>
<trkpt lat="40.745773" lon="-8.039821">
<ele>263</ele>
<time>2026-05-08T06:52:36Z</time></trkpt>
<trkpt lat="40.746088" lon="-8.040337">
<ele>260</ele>
<time>2026-05-08T06:52:46Z</time></trkpt>
<trkpt lat="40.746575" lon="-8.041317">
<ele>254</ele>
<time>2026-05-08T06:53:04Z</time></trkpt>
<trkpt lat="40.746673" lon="-8.041469">
<ele>253</ele>
<time>2026-05-08T06:53:07Z</time></trkpt>
<trkpt lat="40.746771" lon="-8.041573">
<ele>252</ele>
<time>2026-05-08T06:53:10Z</time></trkpt>
<trkpt lat="40.746877" lon="-8.041645">
<ele>251</ele>
<time>2026-05-08T06:53:12Z</time></trkpt>
<trkpt lat="40.747055" lon="-8.041706">
<ele>251</ele>
<time>2026-05-08T06:53:16Z</time></trkpt>
<trkpt lat="40.747974" lon="-8.041864">
<ele>252</ele>
<time>2026-05-08T06:53:34Z</time></trkpt>
<trkpt lat="40.748131" lon="-8.041997">
<ele>251</ele>
<time>2026-05-08T06:53:38Z</time></trkpt>
<trkpt lat="40.748179" lon="-8.0421">
<ele>250</ele>
<time>2026-05-08T06:53:40Z</time></trkpt>
<trkpt lat="40.74821" lon="-8.042218">
<ele>250</ele>
<time>2026-05-08T06:53:42Z</time></trkpt>
<trkpt lat="40.748196" lon="-8.042486">
<ele>247</ele>
<time>2026-05-08T06:53:46Z</time></trkpt>
<trkpt lat="40.748147" lon="-8.042668">
<ele>245</ele>
<time>2026-05-08T06:53:49Z</time></trkpt>
<trkpt lat="40.748042" lon="-8.043053">
<ele>242</ele>
<time>2026-05-08T06:53:55Z</time></trkpt>
<trkpt lat="40.748014" lon="-8.043269">
<ele>241</ele>
<time>2026-05-08T06:53:58Z</time></trkpt>
<trkpt lat="40.748025" lon="-8.043414">
<ele>240</ele>
<time>2026-05-08T06:54:01Z</time></trkpt>
<trkpt lat="40.748071" lon="-8.043581">
<ele>239</ele>
<time>2026-05-08T06:54:03Z</time></trkpt>
<trkpt lat="40.748131" lon="-8.043726">
<ele>238</ele>
<time>2026-05-08T06:54:06Z</time></trkpt>
<trkpt lat="40.748793" lon="-8.044693">
<ele>235</ele>
<time>2026-05-08T06:54:26Z</time></trkpt>
<trkpt lat="40.748929" lon="-8.044815">
<ele>235</ele>
<time>2026-05-08T06:54:29Z</time></trkpt>
<trkpt lat="40.749139" lon="-8.044895">
<ele>236</ele>
<time>2026-05-08T06:54:33Z</time></trkpt>
<trkpt lat="40.749246" lon="-8.044887">
<ele>236</ele>
<time>2026-05-08T06:54:36Z</time></trkpt>
<trkpt lat="40.749391" lon="-8.044836">
<ele>235</ele>
<time>2026-05-08T06:54:39Z</time></trkpt>
<trkpt lat="40.750186" lon="-8.044409">
<ele>234</ele>
<time>2026-05-08T06:54:56Z</time></trkpt>
<trkpt lat="40.750485" lon="-8.044248">
<ele>234</ele>
<time>2026-05-08T06:55:02Z</time></trkpt>
<trkpt lat="40.750591" lon="-8.044245">
<ele>234</ele>
<time>2026-05-08T06:55:04Z</time></trkpt>
<trkpt lat="40.750745" lon="-8.0443">
<ele>233</ele>
<time>2026-05-08T06:55:08Z</time></trkpt>
<trkpt lat="40.750834" lon="-8.044381">
<ele>231</ele>
<time>2026-05-08T06:55:10Z</time></trkpt>
<trkpt lat="40.751977" lon="-8.046045">
<ele>237</ele>
<time>2026-05-08T06:55:44Z</time></trkpt>
<trkpt lat="40.75211" lon="-8.046312">
<ele>238</ele>
<time>2026-05-08T06:55:49Z</time></trkpt>
<trkpt lat="40.752206" lon="-8.046601">
<ele>238</ele>
<time>2026-05-08T06:55:53Z</time></trkpt>
<trkpt lat="40.752252" lon="-8.046851">
<ele>239</ele>
<time>2026-05-08T06:55:57Z</time></trkpt>
<trkpt lat="40.75227" lon="-8.047085">
<ele>239</ele>
<time>2026-05-08T06:56:01Z</time></trkpt>
<trkpt lat="40.752268" lon="-8.047338">
<ele>240</ele>
<time>2026-05-08T06:56:05Z</time></trkpt>
<trkpt lat="40.752213" lon="-8.047887">
<ele>240</ele>
<time>2026-05-08T06:56:13Z</time></trkpt>
<trkpt lat="40.752185" lon="-8.048189">
<ele>240</ele>
<time>2026-05-08T06:56:18Z</time></trkpt>
<trkpt lat="40.752079" lon="-8.049304">
<ele>242</ele>
<time>2026-05-08T06:56:35Z</time></trkpt>
<trkpt lat="40.752111" lon="-8.049518">
<ele>242</ele>
<time>2026-05-08T06:56:38Z</time></trkpt>
<trkpt lat="40.752163" lon="-8.04968">
<ele>242</ele>
<time>2026-05-08T06:56:41Z</time></trkpt>
<trkpt lat="40.752205" lon="-8.049707">
<ele>242</ele>
<time>2026-05-08T06:56:42Z</time></trkpt>
<trkpt lat="40.752257" lon="-8.049808">
<ele>243</ele>
<time>2026-05-08T06:56:44Z</time></trkpt>
<trkpt lat="40.752249" lon="-8.04993">
<ele>243</ele>
<time>2026-05-08T06:56:45Z</time></trkpt>
<trkpt lat="40.752184" lon="-8.050016">
<ele>241</ele>
<time>2026-05-08T06:56:47Z</time></trkpt>
<trkpt lat="40.752104" lon="-8.050245">
<ele>237</ele>
<time>2026-05-08T06:56:51Z</time></trkpt>
<trkpt lat="40.7521026" lon="-8.0502856">
<ele>237</ele>
<time>2026-05-08T06:56:52Z</time></trkpt>
<trkpt lat="40.752099" lon="-8.050391">
<ele>235</ele>
<time>2026-05-08T06:56:53Z</time></trkpt>
<trkpt lat="40.752123" lon="-8.050566">
<ele>234</ele>
<time>2026-05-08T06:56:56Z</time></trkpt>
<trkpt lat="40.752174" lon="-8.050734">
<ele>233</ele>
<time>2026-05-08T06:56:59Z</time></trkpt>
<trkpt lat="40.752274" lon="-8.05093">
<ele>233</ele>
<time>2026-05-08T06:57:02Z</time></trkpt>
<trkpt lat="40.752414" lon="-8.051104">
<ele>231</ele>
<time>2026-05-08T06:57:06Z</time></trkpt>
<trkpt lat="40.752569" lon="-8.051229">
<ele>231</ele>
<time>2026-05-08T06:57:10Z</time></trkpt>
<trkpt lat="40.75339" lon="-8.051685">
<ele>229</ele>
<time>2026-05-08T06:57:28Z</time></trkpt>
<trkpt lat="40.753646" lon="-8.051898">
<ele>227</ele>
<time>2026-05-08T06:57:34Z</time></trkpt>
<trkpt lat="40.753806" lon="-8.052097">
<ele>224</ele>
<time>2026-05-08T06:57:38Z</time></trkpt>
<trkpt lat="40.753949" lon="-8.052324">
<ele>222</ele>
<time>2026-05-08T06:57:43Z</time></trkpt>
<trkpt lat="40.75448" lon="-8.053496">
<ele>213</ele>
<time>2026-05-08T06:58:03Z</time></trkpt>
<trkpt lat="40.754688" lon="-8.053883">
<ele>214</ele>
<time>2026-05-08T06:58:11Z</time></trkpt>
<trkpt lat="40.755175" lon="-8.054614">
<ele>210</ele>
<time>2026-05-08T06:58:25Z</time></trkpt>
<trkpt lat="40.755295" lon="-8.054818">
<ele>209</ele>
<time>2026-05-08T06:58:29Z</time></trkpt>
<trkpt lat="40.755421" lon="-8.055078">
<ele>207</ele>
<time>2026-05-08T06:58:34Z</time></trkpt>
<trkpt lat="40.755575" lon="-8.055523">
<ele>206</ele>
<time>2026-05-08T06:58:41Z</time></trkpt>
<trkpt lat="40.755807" lon="-8.056468">
<ele>202</ele>
<time>2026-05-08T06:58:56Z</time></trkpt>
<trkpt lat="40.755907" lon="-8.056666">
<ele>200</ele>
<time>2026-05-08T06:59:00Z</time></trkpt>
<trkpt lat="40.756037" lon="-8.056805">
<ele>197</ele>
<time>2026-05-08T06:59:03Z</time></trkpt>
<trkpt lat="40.756214" lon="-8.056892">
<ele>194</ele>
<time>2026-05-08T06:59:07Z</time></trkpt>
<trkpt lat="40.756363" lon="-8.056925">
<ele>192</ele>
<time>2026-05-08T06:59:10Z</time></trkpt>
<trkpt lat="40.756515" lon="-8.056883">
<ele>192</ele>
<time>2026-05-08T06:59:13Z</time></trkpt>
<trkpt lat="40.756655" lon="-8.056814">
<ele>192</ele>
<time>2026-05-08T06:59:16Z</time></trkpt>
<trkpt lat="40.757056" lon="-8.056393">
<ele>189</ele>
<time>2026-05-08T06:59:27Z</time></trkpt>
<trkpt lat="40.757204" lon="-8.056211">
<ele>188</ele>
<time>2026-05-08T06:59:31Z</time></trkpt>
<trkpt lat="40.757236" lon="-8.056135">
<ele>188</ele>
<time>2026-05-08T06:59:32Z</time></trkpt>
<trkpt lat="40.757357" lon="-8.056026">
<ele>186</ele>
<time>2026-05-08T06:59:35Z</time></trkpt>
<trkpt lat="40.757431" lon="-8.056015">
<ele>184</ele>
<time>2026-05-08T06:59:36Z</time></trkpt>
<trkpt lat="40.757478" lon="-8.056065">
<ele>183</ele>
<time>2026-05-08T06:59:38Z</time></trkpt>
<trkpt lat="40.757489" lon="-8.056143">
<ele>182</ele>
<time>2026-05-08T06:59:39Z</time></trkpt>
<trkpt lat="40.757479" lon="-8.05618">
<ele>181</ele>
<time>2026-05-08T06:59:39Z</time></trkpt>
<trkpt lat="40.757368" lon="-8.056336">
<ele>182</ele>
<time>2026-05-08T06:59:43Z</time></trkpt>
<trkpt lat="40.757333" lon="-8.056361">
<ele>183</ele>
<time>2026-05-08T06:59:43Z</time></trkpt>
<trkpt lat="40.757206" lon="-8.056536">
<ele>184</ele>
<time>2026-05-08T06:59:47Z</time></trkpt>
<trkpt lat="40.756937" lon="-8.056802">
<ele>187</ele>
<time>2026-05-08T06:59:54Z</time></trkpt>
<trkpt lat="40.75682" lon="-8.056961">
<ele>187</ele>
<time>2026-05-08T06:59:57Z</time></trkpt>
<trkpt lat="40.756508" lon="-8.057623">
<ele>179</ele>
<time>2026-05-08T07:00:09Z</time></trkpt>
<trkpt lat="40.756347" lon="-8.05785">
<ele>176</ele>
<time>2026-05-08T07:00:14Z</time></trkpt>
<trkpt lat="40.756307" lon="-8.0578882">
<ele>176</ele>
<time>2026-05-08T07:00:15Z</time></trkpt>
<trkpt lat="40.755998" lon="-8.058183">
<ele>172</ele>
<time>2026-05-08T07:00:22Z</time></trkpt>
<trkpt lat="40.755942" lon="-8.058337">
<ele>169</ele>
<time>2026-05-08T07:00:25Z</time></trkpt>
<trkpt lat="40.75581" lon="-8.059347">
<ele>165</ele>
<time>2026-05-08T07:00:41Z</time></trkpt>
<trkpt lat="40.755765" lon="-8.059485">
<ele>164</ele>
<time>2026-05-08T07:00:43Z</time></trkpt>
<trkpt lat="40.7552456" lon="-8.0602277">
<ele>163</ele>
<time>2026-05-08T07:00:58Z</time></trkpt>
<trkpt lat="40.754893" lon="-8.060732">
<ele>163</ele>
<time>2026-05-08T07:01:09Z</time></trkpt>
<trkpt lat="40.754793" lon="-8.060834">
<ele>163</ele>
<time>2026-05-08T07:01:11Z</time></trkpt>
<trkpt lat="40.754701" lon="-8.060875">
<ele>164</ele>
<time>2026-05-08T07:01:13Z</time></trkpt>
<trkpt lat="40.754603" lon="-8.060884">
<ele>165</ele>
<time>2026-05-08T07:01:15Z</time></trkpt>
<trkpt lat="40.754106" lon="-8.060762">
<ele>169</ele>
<time>2026-05-08T07:01:25Z</time></trkpt>
<trkpt lat="40.754004" lon="-8.060764">
<ele>171</ele>
<time>2026-05-08T07:01:27Z</time></trkpt>
<trkpt lat="40.75368" lon="-8.061017">
<ele>172</ele>
<time>2026-05-08T07:01:35Z</time></trkpt>
<trkpt lat="40.753562" lon="-8.061058">
<ele>173</ele>
<time>2026-05-08T07:01:37Z</time></trkpt>
<trkpt lat="40.753401" lon="-8.061084">
<ele>174</ele>
<time>2026-05-08T07:01:40Z</time></trkpt>
<trkpt lat="40.753394" lon="-8.061138">
<ele>173</ele>
<time>2026-05-08T07:01:41Z</time></trkpt>
<trkpt lat="40.75337" lon="-8.061183">
<ele>173</ele>
<time>2026-05-08T07:01:42Z</time></trkpt>
<trkpt lat="40.753185" lon="-8.061268">
<ele>173</ele>
<time>2026-05-08T07:01:46Z</time></trkpt>
<trkpt lat="40.753089" lon="-8.061288">
<ele>173</ele>
<time>2026-05-08T07:01:48Z</time></trkpt>
<trkpt lat="40.752784" lon="-8.061277">
<ele>174</ele>
<time>2026-05-08T07:01:54Z</time></trkpt>
<trkpt lat="40.752556" lon="-8.061245">
<ele>175</ele>
<time>2026-05-08T07:01:59Z</time></trkpt>
<trkpt lat="40.751924" lon="-8.061065">
<ele>179</ele>
<time>2026-05-08T07:02:12Z</time></trkpt>
<trkpt lat="40.751719" lon="-8.061033">
<ele>180</ele>
<time>2026-05-08T07:02:16Z</time></trkpt>
<trkpt lat="40.75151" lon="-8.061025">
<ele>180</ele>
<time>2026-05-08T07:02:20Z</time></trkpt>
<trkpt lat="40.751114" lon="-8.061063">
<ele>181</ele>
<time>2026-05-08T07:02:28Z</time></trkpt>
<trkpt lat="40.750781" lon="-8.061055">
<ele>182</ele>
<time>2026-05-08T07:02:35Z</time></trkpt>
<trkpt lat="40.750604" lon="-8.061015">
<ele>182</ele>
<time>2026-05-08T07:02:38Z</time></trkpt>
<trkpt lat="40.750046" lon="-8.060729">
<ele>185</ele>
<time>2026-05-08T07:02:50Z</time></trkpt>
<trkpt lat="40.750009" lon="-8.060741">
<ele>185</ele>
<time>2026-05-08T07:02:51Z</time></trkpt>
<trkpt lat="40.749963" lon="-8.06069">
<ele>185</ele>
<time>2026-05-08T07:02:52Z</time></trkpt>
<trkpt lat="40.749881" lon="-8.060726">
<ele>185</ele>
<time>2026-05-08T07:02:54Z</time></trkpt>
<trkpt lat="40.749559" lon="-8.060767">
<ele>184</ele>
<time>2026-05-08T07:03:00Z</time></trkpt>
<trkpt lat="40.74942" lon="-8.060757">
<ele>184</ele>
<time>2026-05-08T07:03:03Z</time></trkpt>
<trkpt lat="40.748403" lon="-8.060577">
<ele>186</ele>
<time>2026-05-08T07:03:24Z</time></trkpt>
<trkpt lat="40.748269" lon="-8.060595">
<ele>185</ele>
<time>2026-05-08T07:03:26Z</time></trkpt>
<trkpt lat="40.74744" lon="-8.060988">
<ele>182</ele>
<time>2026-05-08T07:03:44Z</time></trkpt>
<trkpt lat="40.747147" lon="-8.061079">
<ele>181</ele>
<time>2026-05-08T07:03:50Z</time></trkpt>
<trkpt lat="40.747038" lon="-8.061079">
<ele>180</ele>
<time>2026-05-08T07:03:52Z</time></trkpt>
<trkpt lat="40.746753" lon="-8.060998">
<ele>181</ele>
<time>2026-05-08T07:03:58Z</time></trkpt>
<trkpt lat="40.746404" lon="-8.06102">
<ele>182</ele>
<time>2026-05-08T07:04:05Z</time></trkpt>
<trkpt lat="40.746225" lon="-8.061052">
<ele>182</ele>
<time>2026-05-08T07:04:09Z</time></trkpt>
<trkpt lat="40.745948" lon="-8.061228">
<ele>181</ele>
<time>2026-05-08T07:04:15Z</time></trkpt>
<trkpt lat="40.745948" lon="-8.061228">
<ele>181</ele>
<time>2026-05-08T07:04:15Z</time></trkpt>
<trkpt lat="40.745676" lon="-8.061374">
<ele>181</ele>
<time>2026-05-08T07:04:21Z</time></trkpt>
<trkpt lat="40.7454228" lon="-8.0614839">
<ele>182</ele>
<time>2026-05-08T07:04:26Z</time></trkpt>
<trkpt lat="40.744985" lon="-8.061674">
<ele>182</ele>
<time>2026-05-08T07:04:35Z</time></trkpt>
<trkpt lat="40.744571" lon="-8.061964">
<ele>182</ele>
<time>2026-05-08T07:04:45Z</time></trkpt>
<trkpt lat="40.744416" lon="-8.062023">
<ele>182</ele>
<time>2026-05-08T07:04:48Z</time></trkpt>
<trkpt lat="40.744095" lon="-8.062098">
<ele>184</ele>
<time>2026-05-08T07:04:55Z</time></trkpt>
<trkpt lat="40.743734" lon="-8.062098">
<ele>188</ele>
<time>2026-05-08T07:05:02Z</time></trkpt>
<trkpt lat="40.743516" lon="-8.062152">
<ele>190</ele>
<time>2026-05-08T07:05:06Z</time></trkpt>
<trkpt lat="40.742551" lon="-8.062495">
<ele>191</ele>
<time>2026-05-08T07:05:26Z</time></trkpt>
<trkpt lat="40.742092" lon="-8.06257">
<ele>194</ele>
<time>2026-05-08T07:05:36Z</time></trkpt>
<trkpt lat="40.7416" lon="-8.062581">
<ele>199</ele>
<time>2026-05-08T07:05:45Z</time></trkpt>
<trkpt lat="40.740653" lon="-8.062511">
<ele>210</ele>
<time>2026-05-08T07:06:04Z</time></trkpt>
<trkpt lat="40.740494" lon="-8.062516">
<ele>212</ele>
<time>2026-05-08T07:06:08Z</time></trkpt>
<trkpt lat="40.740384" lon="-8.062543">
<ele>213</ele>
<time>2026-05-08T07:06:10Z</time></trkpt>
<trkpt lat="40.738356" lon="-8.063514">
<ele>226</ele>
<time>2026-05-08T07:06:53Z</time></trkpt>
<trkpt lat="40.738104" lon="-8.063664">
<ele>224</ele>
<time>2026-05-08T07:06:59Z</time></trkpt>
<trkpt lat="40.737698" lon="-8.06382">
<ele>223</ele>
<time>2026-05-08T07:07:07Z</time></trkpt>
<trkpt lat="40.736917" lon="-8.064018">
<ele>219</ele>
<time>2026-05-08T07:07:23Z</time></trkpt>
<trkpt lat="40.736744" lon="-8.064104">
<ele>218</ele>
<time>2026-05-08T07:07:27Z</time></trkpt>
<trkpt lat="40.736519" lon="-8.064287">
<ele>216</ele>
<time>2026-05-08T07:07:32Z</time></trkpt>
<trkpt lat="40.736334" lon="-8.064673">
<ele>213</ele>
<time>2026-05-08T07:07:39Z</time></trkpt>
<trkpt lat="40.736214" lon="-8.064877">
<ele>213</ele>
<time>2026-05-08T07:07:43Z</time></trkpt>
<trkpt lat="40.736011" lon="-8.065011">
<ele>215</ele>
<time>2026-05-08T07:07:47Z</time></trkpt>
<trkpt lat="40.735771" lon="-8.065059">
<ele>218</ele>
<time>2026-05-08T07:07:52Z</time></trkpt>
<trkpt lat="40.735312" lon="-8.06492">
<ele>221</ele>
<time>2026-05-08T07:08:02Z</time></trkpt>
<trkpt lat="40.733735" lon="-8.064238">
<ele>232</ele>
<time>2026-05-08T07:08:35Z</time></trkpt>
<trkpt lat="40.733619" lon="-8.064212">
<ele>232</ele>
<time>2026-05-08T07:08:37Z</time></trkpt>
<trkpt lat="40.733414" lon="-8.064244">
<ele>232</ele>
<time>2026-05-08T07:08:41Z</time></trkpt>
<trkpt lat="40.731023" lon="-8.064935">
<ele>213</ele>
<time>2026-05-08T07:09:31Z</time></trkpt>
<trkpt lat="40.730554" lon="-8.065075">
<ele>212</ele>
<time>2026-05-08T07:09:40Z</time></trkpt>
<trkpt lat="40.730397" lon="-8.065054">
<ele>212</ele>
<time>2026-05-08T07:09:43Z</time></trkpt>
<trkpt lat="40.730218" lon="-8.065">
<ele>213</ele>
<time>2026-05-08T07:09:47Z</time></trkpt>
<trkpt lat="40.730011" lon="-8.064877">
<ele>214</ele>
<time>2026-05-08T07:09:52Z</time></trkpt>
<trkpt lat="40.729377" lon="-8.064281">
<ele>221</ele>
<time>2026-05-08T07:10:07Z</time></trkpt>
<trkpt lat="40.729263" lon="-8.064104">
<ele>223</ele>
<time>2026-05-08T07:10:11Z</time></trkpt>
<trkpt lat="40.729068" lon="-8.063922">
<ele>226</ele>
<time>2026-05-08T07:10:15Z</time></trkpt>
<trkpt lat="40.728846" lon="-8.063831">
<ele>228</ele>
<time>2026-05-08T07:10:20Z</time></trkpt>
<trkpt lat="40.728322" lon="-8.063729">
<ele>232</ele>
<time>2026-05-08T07:10:31Z</time></trkpt>
<trkpt lat="40.728068" lon="-8.063702">
<ele>234</ele>
<time>2026-05-08T07:10:36Z</time></trkpt>
<trkpt lat="40.727864" lon="-8.063723">
<ele>235</ele>
<time>2026-05-08T07:10:40Z</time></trkpt>
<trkpt lat="40.727629" lon="-8.063856">
<ele>233</ele>
<time>2026-05-08T07:10:45Z</time></trkpt>
<trkpt lat="40.727444" lon="-8.064018">
<ele>230</ele>
<time>2026-05-08T07:10:49Z</time></trkpt>
<trkpt lat="40.727153" lon="-8.064341">
<ele>227</ele>
<time>2026-05-08T07:10:57Z</time></trkpt>
<trkpt lat="40.726881" lon="-8.064716">
<ele>225</ele>
<time>2026-05-08T07:11:05Z</time></trkpt>
<trkpt lat="40.726643" lon="-8.065179">
<ele>222</ele>
<time>2026-05-08T07:11:13Z</time></trkpt>
<trkpt lat="40.72635" lon="-8.065736">
<ele>218</ele>
<time>2026-05-08T07:11:24Z</time></trkpt>
<trkpt lat="40.726234" lon="-8.065904">
<ele>218</ele>
<time>2026-05-08T07:11:27Z</time></trkpt>
<trkpt lat="40.726234" lon="-8.065904">
<ele>218</ele>
<time>2026-05-08T07:11:27Z</time></trkpt>
<trkpt lat="40.726018" lon="-8.066147">
<ele>219</ele>
<time>2026-05-08T07:11:33Z</time></trkpt>
<trkpt lat="40.725954" lon="-8.066216">
<ele>219</ele>
<time>2026-05-08T07:11:35Z</time></trkpt>
<trkpt lat="40.724641" lon="-8.067578">
<ele>235</ele>
<time>2026-05-08T07:12:08Z</time></trkpt>
<trkpt lat="40.724593" lon="-8.067685">
<ele>235</ele>
<time>2026-05-08T07:12:10Z</time></trkpt>
<trkpt lat="40.724561" lon="-8.067756">
<ele>236</ele>
<time>2026-05-08T07:12:11Z</time></trkpt>
<trkpt lat="40.724542" lon="-8.067946">
<ele>238</ele>
<time>2026-05-08T07:12:14Z</time></trkpt>
<trkpt lat="40.724594" lon="-8.068119">
<ele>240</ele>
<time>2026-05-08T07:12:17Z</time></trkpt>
<trkpt lat="40.724682" lon="-8.068242">
<ele>242</ele>
<time>2026-05-08T07:12:19Z</time></trkpt>
<trkpt lat="40.724816" lon="-8.068328">
<ele>243</ele>
<time>2026-05-08T07:12:22Z</time></trkpt>
<trkpt lat="40.72513" lon="-8.068453">
<ele>246</ele>
<time>2026-05-08T07:12:29Z</time></trkpt>
<trkpt lat="40.725388" lon="-8.068601">
<ele>249</ele>
<time>2026-05-08T07:12:35Z</time></trkpt>
<trkpt lat="40.725495" lon="-8.06871">
<ele>250</ele>
<time>2026-05-08T07:12:37Z</time></trkpt>
<trkpt lat="40.725538" lon="-8.068826">
<ele>253</ele>
<time>2026-05-08T07:12:39Z</time></trkpt>
<trkpt lat="40.725554" lon="-8.068996">
<ele>256</ele>
<time>2026-05-08T07:12:42Z</time></trkpt>
<trkpt lat="40.725519" lon="-8.069173">
<ele>259</ele>
<time>2026-05-08T07:12:45Z</time></trkpt>
<trkpt lat="40.725447" lon="-8.069317">
<ele>261</ele>
<time>2026-05-08T07:12:47Z</time></trkpt>
<trkpt lat="40.724965" lon="-8.06996">
<ele>271</ele>
<time>2026-05-08T07:13:01Z</time></trkpt>
<trkpt lat="40.724808" lon="-8.070216">
<ele>271</ele>
<time>2026-05-08T07:13:06Z</time></trkpt>
<trkpt lat="40.724073" lon="-8.071709">
<ele>275</ele>
<time>2026-05-08T07:13:33Z</time></trkpt>
<trkpt lat="40.723986" lon="-8.071903">
<ele>276</ele>
<time>2026-05-08T07:13:37Z</time></trkpt>
<trkpt lat="40.723938" lon="-8.072064">
<ele>277</ele>
<time>2026-05-08T07:13:39Z</time></trkpt>
<trkpt lat="40.723924" lon="-8.072362">
<ele>278</ele>
<time>2026-05-08T07:13:44Z</time></trkpt>
<trkpt lat="40.723941" lon="-8.072512">
<ele>279</ele>
<time>2026-05-08T07:13:46Z</time></trkpt>
<trkpt lat="40.72405" lon="-8.072807">
<ele>281</ele>
<time>2026-05-08T07:13:51Z</time></trkpt>
<trkpt lat="40.724128" lon="-8.072921">
<ele>282</ele>
<time>2026-05-08T07:13:53Z</time></trkpt>
<trkpt lat="40.724212" lon="-8.072967">
<ele>282</ele>
<time>2026-05-08T07:13:55Z</time></trkpt>
<trkpt lat="40.724308" lon="-8.07298">
<ele>283</ele>
<time>2026-05-08T07:13:57Z</time></trkpt>
<trkpt lat="40.724447" lon="-8.072951">
<ele>283</ele>
<time>2026-05-08T07:14:00Z</time></trkpt>
<trkpt lat="40.725041" lon="-8.07278">
<ele>283</ele>
<time>2026-05-08T07:14:12Z</time></trkpt>
<trkpt lat="40.72515" lon="-8.07276">
<ele>281</ele>
<time>2026-05-08T07:14:14Z</time></trkpt>
<trkpt lat="40.725291" lon="-8.072766">
<ele>280</ele>
<time>2026-05-08T07:14:17Z</time></trkpt>
<trkpt lat="40.72554" lon="-8.07285">
<ele>280</ele>
<time>2026-05-08T07:14:22Z</time></trkpt>
<trkpt lat="40.725643" lon="-8.072931">
<ele>280</ele>
<time>2026-05-08T07:14:25Z</time></trkpt>
<trkpt lat="40.725816" lon="-8.07313">
<ele>281</ele>
<time>2026-05-08T07:14:29Z</time></trkpt>
<trkpt lat="40.725856" lon="-8.073252">
<ele>283</ele>
<time>2026-05-08T07:14:31Z</time></trkpt>
<trkpt lat="40.725883" lon="-8.073376">
<ele>284</ele>
<time>2026-05-08T07:14:33Z</time></trkpt>
<trkpt lat="40.725893" lon="-8.07354">
<ele>285</ele>
<time>2026-05-08T07:14:36Z</time></trkpt>
<trkpt lat="40.725857" lon="-8.073724">
<ele>287</ele>
<time>2026-05-08T07:14:39Z</time></trkpt>
<trkpt lat="40.725678" lon="-8.07414">
<ele>293</ele>
<time>2026-05-08T07:14:46Z</time></trkpt>
<trkpt lat="40.725615" lon="-8.074347">
<ele>294</ele>
<time>2026-05-08T07:14:49Z</time></trkpt>
<trkpt lat="40.725559" lon="-8.074614">
<ele>295</ele>
<time>2026-05-08T07:14:53Z</time></trkpt>
<trkpt lat="40.725372" lon="-8.076275">
<ele>303</ele>
<time>2026-05-08T07:15:19Z</time></trkpt>
<trkpt lat="40.725357" lon="-8.076547">
<ele>304</ele>
<time>2026-05-08T07:15:23Z</time></trkpt>
<trkpt lat="40.725455" lon="-8.077725">
<ele>310</ele>
<time>2026-05-08T07:15:41Z</time></trkpt>
<trkpt lat="40.7255479" lon="-8.0785814">
<ele>310</ele>
<time>2026-05-08T07:15:54Z</time></trkpt>
<trkpt lat="40.7256" lon="-8.079061">
<ele>309</ele>
<time>2026-05-08T07:16:02Z</time></trkpt>
<trkpt lat="40.725587" lon="-8.079401">
<ele>309</ele>
<time>2026-05-08T07:16:07Z</time></trkpt>
<trkpt lat="40.726404" lon="-8.079489">
<ele>308</ele>
<time>2026-05-08T07:16:23Z</time></trkpt>
<trkpt lat="40.7265" lon="-8.079546">
<ele>308</ele>
<time>2026-05-08T07:16:25Z</time></trkpt>
<trkpt lat="40.727088" lon="-8.079993">
<ele>305</ele>
<time>2026-05-08T07:16:39Z</time></trkpt>
<trkpt lat="40.72717" lon="-8.080096">
<ele>305</ele>
<time>2026-05-08T07:16:41Z</time></trkpt>
<trkpt lat="40.727227" lon="-8.080324">
<ele>305</ele>
<time>2026-05-08T07:16:45Z</time></trkpt>
<trkpt lat="40.727193" lon="-8.080797">
<ele>306</ele>
<time>2026-05-08T07:16:52Z</time></trkpt>
<trkpt lat="40.727182" lon="-8.081245">
<ele>304</ele>
<time>2026-05-08T07:16:59Z</time></trkpt>
<trkpt lat="40.727216" lon="-8.081958">
<ele>300</ele>
<time>2026-05-08T07:17:10Z</time></trkpt>
<trkpt lat="40.727236" lon="-8.082218">
<ele>299</ele>
<time>2026-05-08T07:17:14Z</time></trkpt>
<trkpt lat="40.727233" lon="-8.082371">
<ele>298</ele>
<time>2026-05-08T07:17:16Z</time></trkpt>
<trkpt lat="40.72717" lon="-8.082589">
<ele>296</ele>
<time>2026-05-08T07:17:20Z</time></trkpt>
<trkpt lat="40.727114" lon="-8.082681">
<ele>295</ele>
<time>2026-05-08T07:17:21Z</time></trkpt>
<trkpt lat="40.72705" lon="-8.082736">
<ele>294</ele>
<time>2026-05-08T07:17:23Z</time></trkpt>
<trkpt lat="40.726964" lon="-8.082766">
<ele>294</ele>
<time>2026-05-08T07:17:25Z</time></trkpt>
<trkpt lat="40.726006" lon="-8.082686">
<ele>294</ele>
<time>2026-05-08T07:17:44Z</time></trkpt>
<trkpt lat="40.725913" lon="-8.082699">
<ele>293</ele>
<time>2026-05-08T07:17:46Z</time></trkpt>
<trkpt lat="40.725869" lon="-8.082729">
<ele>293</ele>
<time>2026-05-08T07:17:47Z</time></trkpt>
<trkpt lat="40.725869" lon="-8.082729">
<ele>293</ele>
<time>2026-05-08T07:17:47Z</time></trkpt>
<trkpt lat="40.72579" lon="-8.082785">
<ele>292</ele>
<time>2026-05-08T07:17:49Z</time></trkpt>
<trkpt lat="40.725732" lon="-8.082883">
<ele>291</ele>
<time>2026-05-08T07:17:50Z</time></trkpt>
<trkpt lat="40.725698" lon="-8.083003">
<ele>290</ele>
<time>2026-05-08T07:17:52Z</time></trkpt>
<trkpt lat="40.725635" lon="-8.084186">
<ele>289</ele>
<time>2026-05-08T07:18:10Z</time></trkpt>
<trkpt lat="40.725643" lon="-8.0843">
<ele>290</ele>
<time>2026-05-08T07:18:12Z</time></trkpt>
<trkpt lat="40.725679" lon="-8.084413">
<ele>291</ele>
<time>2026-05-08T07:18:14Z</time></trkpt>
<trkpt lat="40.725736" lon="-8.084488">
<ele>291</ele>
<time>2026-05-08T07:18:16Z</time></trkpt>
<trkpt lat="40.725791" lon="-8.08453">
<ele>292</ele>
<time>2026-05-08T07:18:17Z</time></trkpt>
<trkpt lat="40.72605" lon="-8.084639">
<ele>291</ele>
<time>2026-05-08T07:18:22Z</time></trkpt>
<trkpt lat="40.726129" lon="-8.084699">
<ele>291</ele>
<time>2026-05-08T07:18:24Z</time></trkpt>
<trkpt lat="40.726182" lon="-8.084785">
<ele>291</ele>
<time>2026-05-08T07:18:26Z</time></trkpt>
<trkpt lat="40.726217" lon="-8.084897">
<ele>292</ele>
<time>2026-05-08T07:18:28Z</time></trkpt>
<trkpt lat="40.726223" lon="-8.085033">
<ele>293</ele>
<time>2026-05-08T07:18:30Z</time></trkpt>
<trkpt lat="40.726211" lon="-8.085308">
<ele>293</ele>
<time>2026-05-08T07:18:34Z</time></trkpt>
<trkpt lat="40.726175" lon="-8.085619">
<ele>294</ele>
<time>2026-05-08T07:18:39Z</time></trkpt>
<trkpt lat="40.726068" lon="-8.086085">
<ele>295</ele>
<time>2026-05-08T07:18:46Z</time></trkpt>
<trkpt lat="40.725751" lon="-8.087268">
<ele>293</ele>
<time>2026-05-08T07:19:05Z</time></trkpt>
<trkpt lat="40.725683" lon="-8.087464">
<ele>293</ele>
<time>2026-05-08T07:19:08Z</time></trkpt>
<trkpt lat="40.725006" lon="-8.089421">
<ele>301</ele>
<time>2026-05-08T07:19:41Z</time></trkpt>
<trkpt lat="40.724981" lon="-8.089536">
<ele>303</ele>
<time>2026-05-08T07:19:43Z</time></trkpt>
<trkpt lat="40.72497" lon="-8.089696">
<ele>304</ele>
<time>2026-05-08T07:19:45Z</time></trkpt>
<trkpt lat="40.725008" lon="-8.089984">
<ele>305</ele>
<time>2026-05-08T07:19:50Z</time></trkpt>
<trkpt lat="40.725331" lon="-8.090849">
<ele>305</ele>
<time>2026-05-08T07:20:04Z</time></trkpt>
<trkpt lat="40.725393" lon="-8.091082">
<ele>306</ele>
<time>2026-05-08T07:20:08Z</time></trkpt>
<trkpt lat="40.725585" lon="-8.092491">
<ele>317</ele>
<time>2026-05-08T07:20:30Z</time></trkpt>
<trkpt lat="40.725674" lon="-8.093623">
<ele>327</ele>
<time>2026-05-08T07:20:47Z</time></trkpt>
<trkpt lat="40.725644" lon="-8.093893">
<ele>330</ele>
<time>2026-05-08T07:20:51Z</time></trkpt>
<trkpt lat="40.725323" lon="-8.095692">
<ele>341</ele>
<time>2026-05-08T07:21:19Z</time></trkpt>
<trkpt lat="40.724943" lon="-8.097117">
<ele>341</ele>
<time>2026-05-08T07:21:42Z</time></trkpt>
<trkpt lat="40.724821" lon="-8.097713">
<ele>333</ele>
<time>2026-05-08T07:21:52Z</time></trkpt>
<trkpt lat="40.724351" lon="-8.099284">
<ele>329</ele>
<time>2026-05-08T07:22:17Z</time></trkpt>
<trkpt lat="40.724309" lon="-8.099721">
<ele>326</ele>
<time>2026-05-08T07:22:24Z</time></trkpt>
<trkpt lat="40.724337" lon="-8.100244">
<ele>324</ele>
<time>2026-05-08T07:22:32Z</time></trkpt>
<trkpt lat="40.724582" lon="-8.101383">
<ele>318</ele>
<time>2026-05-08T07:22:50Z</time></trkpt>
<trkpt lat="40.724588" lon="-8.101626">
<ele>317</ele>
<time>2026-05-08T07:22:54Z</time></trkpt>
<trkpt lat="40.724571" lon="-8.101856">
<ele>316</ele>
<time>2026-05-08T07:22:57Z</time></trkpt>
<trkpt lat="40.724444" lon="-8.102606">
<ele>317</ele>
<time>2026-05-08T07:23:09Z</time></trkpt>
<trkpt lat="40.724416" lon="-8.103256">
<ele>312</ele>
<time>2026-05-08T07:23:19Z</time></trkpt>
<trkpt lat="40.724394" lon="-8.103399">
<ele>310</ele>
<time>2026-05-08T07:23:21Z</time></trkpt>
<trkpt lat="40.724347" lon="-8.103506">
<ele>310</ele>
<time>2026-05-08T07:23:23Z</time></trkpt>
<trkpt lat="40.724274" lon="-8.103596">
<ele>311</ele>
<time>2026-05-08T07:23:25Z</time></trkpt>
<trkpt lat="40.72374" lon="-8.104186">
<ele>310</ele>
<time>2026-05-08T07:23:39Z</time></trkpt>
<trkpt lat="40.723648" lon="-8.104261">
<ele>309</ele>
<time>2026-05-08T07:23:41Z</time></trkpt>
<trkpt lat="40.723" lon="-8.104507">
<ele>315</ele>
<time>2026-05-08T07:23:54Z</time></trkpt>
<trkpt lat="40.722931" lon="-8.104545">
<ele>316</ele>
<time>2026-05-08T07:23:56Z</time></trkpt>
<trkpt lat="40.722852" lon="-8.10462">
<ele>315</ele>
<time>2026-05-08T07:23:58Z</time></trkpt>
<trkpt lat="40.722491" lon="-8.105267">
<ele>312</ele>
<time>2026-05-08T07:24:10Z</time></trkpt>
<trkpt lat="40.722491" lon="-8.105267">
<ele>312</ele>
<time>2026-05-08T07:24:10Z</time></trkpt>
<trkpt lat="40.722349" lon="-8.105521">
<ele>312</ele>
<time>2026-05-08T07:24:15Z</time></trkpt>
<trkpt lat="40.722256" lon="-8.105761">
<ele>313</ele>
<time>2026-05-08T07:24:19Z</time></trkpt>
<trkpt lat="40.722235" lon="-8.105995">
<ele>313</ele>
<time>2026-05-08T07:24:23Z</time></trkpt>
<trkpt lat="40.722283" lon="-8.106212">
<ele>311</ele>
<time>2026-05-08T07:24:26Z</time></trkpt>
<trkpt lat="40.7223348" lon="-8.1063029">
<ele>310</ele>
<time>2026-05-08T07:24:28Z</time></trkpt>
<trkpt lat="40.722397" lon="-8.106412">
<ele>309</ele>
<time>2026-05-08T07:24:30Z</time></trkpt>
<trkpt lat="40.722787" lon="-8.106817">
<ele>300</ele>
<time>2026-05-08T07:24:40Z</time></trkpt>
<trkpt lat="40.722861" lon="-8.106922">
<ele>299</ele>
<time>2026-05-08T07:24:42Z</time></trkpt>
<trkpt lat="40.722922" lon="-8.107051">
<ele>298</ele>
<time>2026-05-08T07:24:44Z</time></trkpt>
<trkpt lat="40.722955" lon="-8.107164">
<ele>298</ele>
<time>2026-05-08T07:24:46Z</time></trkpt>
<trkpt lat="40.722966" lon="-8.107277">
<ele>298</ele>
<time>2026-05-08T07:24:48Z</time></trkpt>
<trkpt lat="40.72293" lon="-8.10754">
<ele>299</ele>
<time>2026-05-08T07:24:52Z</time></trkpt>
<trkpt lat="40.723055" lon="-8.107629">
<ele>298</ele>
<time>2026-05-08T07:24:55Z</time></trkpt>
<trkpt lat="40.723111" lon="-8.107701">
<ele>297</ele>
<time>2026-05-08T07:24:56Z</time></trkpt>
<trkpt lat="40.723581" lon="-8.108884">
<ele>285</ele>
<time>2026-05-08T07:25:17Z</time></trkpt>
<trkpt lat="40.723627" lon="-8.109012">
<ele>283</ele>
<time>2026-05-08T07:25:19Z</time></trkpt>
<trkpt lat="40.723863" lon="-8.108905">
<ele>280</ele>
<time>2026-05-08T07:25:24Z</time></trkpt>
<trkpt lat="40.723917" lon="-8.108861">
<ele>279</ele>
<time>2026-05-08T07:25:25Z</time></trkpt>
<trkpt lat="40.723938" lon="-8.108794">
<ele>279</ele>
<time>2026-05-08T07:25:26Z</time></trkpt>
<trkpt lat="40.723927" lon="-8.108663">
<ele>280</ele>
<time>2026-05-08T07:25:28Z</time></trkpt>
<trkpt lat="40.723778" lon="-8.10853">
<ele>283</ele>
<time>2026-05-08T07:25:32Z</time></trkpt>
<trkpt lat="40.723878" lon="-8.108388">
<ele>282</ele>
<time>2026-05-08T07:25:35Z</time></trkpt>
<trkpt lat="40.723968" lon="-8.108107">
<ele>282</ele>
<time>2026-05-08T07:25:39Z</time></trkpt>
<trkpt lat="40.723995" lon="-8.107919">
<ele>283</ele>
<time>2026-05-08T07:25:42Z</time></trkpt>
<trkpt lat="40.723996" lon="-8.107701">
<ele>284</ele>
<time>2026-05-08T07:25:46Z</time></trkpt>
<trkpt lat="40.723958" lon="-8.10748">
<ele>285</ele>
<time>2026-05-08T07:25:49Z</time></trkpt>
<trkpt lat="40.723887" lon="-8.10727">
<ele>284</ele>
<time>2026-05-08T07:25:52Z</time></trkpt>
<trkpt lat="40.723804" lon="-8.107142">
<ele>284</ele>
<time>2026-05-08T07:25:55Z</time></trkpt>
<trkpt lat="40.723599" lon="-8.106892">
<ele>285</ele>
<time>2026-05-08T07:26:01Z</time></trkpt>
<trkpt lat="40.723151" lon="-8.106546">
<ele>291</ele>
<time>2026-05-08T07:26:11Z</time></trkpt>
<trkpt lat="40.723012" lon="-8.10636">
<ele>293</ele>
<time>2026-05-08T07:26:15Z</time></trkpt>
<trkpt lat="40.722985" lon="-8.1062">
<ele>293</ele>
<time>2026-05-08T07:26:17Z</time></trkpt>
<trkpt lat="40.723002" lon="-8.106112">
<ele>292</ele>
<time>2026-05-08T07:26:19Z</time></trkpt>
<trkpt lat="40.723052" lon="-8.106022">
<ele>290</ele>
<time>2026-05-08T07:26:21Z</time></trkpt>
<trkpt lat="40.723145" lon="-8.105972">
<ele>287</ele>
<time>2026-05-08T07:26:23Z</time></trkpt>
<trkpt lat="40.723256" lon="-8.10597">
<ele>284</ele>
<time>2026-05-08T07:26:25Z</time></trkpt>
<trkpt lat="40.723435" lon="-8.106017">
<ele>280</ele>
<time>2026-05-08T07:26:28Z</time></trkpt>
<trkpt lat="40.723579" lon="-8.106055">
<ele>278</ele>
<time>2026-05-08T07:26:31Z</time></trkpt>
<trkpt lat="40.723736" lon="-8.10605">
<ele>274</ele>
<time>2026-05-08T07:26:35Z</time></trkpt>
<trkpt lat="40.723766" lon="-8.10605">
<ele>274</ele>
<time>2026-05-08T07:26:35Z</time></trkpt>
<trkpt lat="40.723998" lon="-8.105926">
<ele>268</ele>
<time>2026-05-08T07:26:40Z</time></trkpt>
<trkpt lat="40.724123" lon="-8.105765">
<ele>266</ele>
<time>2026-05-08T07:26:44Z</time></trkpt>
<trkpt lat="40.724168" lon="-8.105669">
<ele>266</ele>
<time>2026-05-08T07:26:45Z</time></trkpt>
<trkpt lat="40.724247" lon="-8.105628">
<ele>264</ele>
<time>2026-05-08T07:26:47Z</time></trkpt>
<trkpt lat="40.724446" lon="-8.105397">
<ele>262</ele>
<time>2026-05-08T07:26:52Z</time></trkpt>
<trkpt lat="40.724574" lon="-8.105275">
<ele>261</ele>
<time>2026-05-08T07:26:56Z</time></trkpt>
<trkpt lat="40.724743" lon="-8.105128">
<ele>259</ele>
<time>2026-05-08T07:27:00Z</time></trkpt>
<trkpt lat="40.72485" lon="-8.105063">
<ele>257</ele>
<time>2026-05-08T07:27:02Z</time></trkpt>
<trkpt lat="40.72485" lon="-8.105063">
<ele>257</ele>
<time>2026-05-08T07:27:02Z</time></trkpt>
<trkpt lat="40.725174" lon="-8.104865">
<ele>254</ele>
<time>2026-05-08T07:27:09Z</time></trkpt>
<trkpt lat="40.725332" lon="-8.104729">
<ele>253</ele>
<time>2026-05-08T07:27:13Z</time></trkpt>
<trkpt lat="40.725507" lon="-8.104564">
<ele>252</ele>
<time>2026-05-08T07:27:17Z</time></trkpt>
<trkpt lat="40.725778" lon="-8.104191">
<ele>250</ele>
<time>2026-05-08T07:27:25Z</time></trkpt>
<trkpt lat="40.725855" lon="-8.103998">
<ele>249</ele>
<time>2026-05-08T07:27:28Z</time></trkpt>
<trkpt lat="40.725876" lon="-8.103744">
<ele>249</ele>
<time>2026-05-08T07:27:32Z</time></trkpt>
<trkpt lat="40.725789" lon="-8.103017">
<ele>255</ele>
<time>2026-05-08T07:27:43Z</time></trkpt>
<trkpt lat="40.725813" lon="-8.102844">
<ele>256</ele>
<time>2026-05-08T07:27:46Z</time></trkpt>
<trkpt lat="40.725932" lon="-8.102656">
<ele>256</ele>
<time>2026-05-08T07:27:50Z</time></trkpt>
<trkpt lat="40.726046" lon="-8.102606">
<ele>255</ele>
<time>2026-05-08T07:27:52Z</time></trkpt>
<trkpt lat="40.72617" lon="-8.102626">
<ele>254</ele>
<time>2026-05-08T07:27:55Z</time></trkpt>
<trkpt lat="40.726843" lon="-8.103208">
<ele>240</ele>
<time>2026-05-08T07:28:11Z</time></trkpt>
<trkpt lat="40.72694" lon="-8.103264">
<ele>238</ele>
<time>2026-05-08T07:28:13Z</time></trkpt>
<trkpt lat="40.727022" lon="-8.103286">
<ele>236</ele>
<time>2026-05-08T07:28:15Z</time></trkpt>
<trkpt lat="40.727236" lon="-8.10329">
<ele>234</ele>
<time>2026-05-08T07:28:19Z</time></trkpt>
<trkpt lat="40.72744" lon="-8.103182">
<ele>232</ele>
<time>2026-05-08T07:28:23Z</time></trkpt>
<trkpt lat="40.727534" lon="-8.103">
<ele>232</ele>
<time>2026-05-08T07:28:27Z</time></trkpt>
<trkpt lat="40.727573" lon="-8.10278">
<ele>232</ele>
<time>2026-05-08T07:28:30Z</time></trkpt>
<trkpt lat="40.727476" lon="-8.10181">
<ele>241</ele>
<time>2026-05-08T07:28:45Z</time></trkpt>
<trkpt lat="40.727501" lon="-8.101596">
<ele>242</ele>
<time>2026-05-08T07:28:48Z</time></trkpt>
<trkpt lat="40.727761" lon="-8.100684">
<ele>237</ele>
<time>2026-05-08T07:29:03Z</time></trkpt>
<trkpt lat="40.727775" lon="-8.09897">
<ele>233</ele>
<time>2026-05-08T07:29:29Z</time></trkpt>
<trkpt lat="40.727789" lon="-8.098313">
<ele>229</ele>
<time>2026-05-08T07:29:39Z</time></trkpt>
<trkpt lat="40.72783" lon="-8.098151">
<ele>229</ele>
<time>2026-05-08T07:29:42Z</time></trkpt>
<trkpt lat="40.727885" lon="-8.098013">
<ele>229</ele>
<time>2026-05-08T07:29:44Z</time></trkpt>
<trkpt lat="40.728072" lon="-8.097832">
<ele>226</ele>
<time>2026-05-08T07:29:49Z</time></trkpt>
<trkpt lat="40.729405" lon="-8.096695">
<ele>217</ele>
<time>2026-05-08T07:30:20Z</time></trkpt>
<trkpt lat="40.729549" lon="-8.096617">
<ele>217</ele>
<time>2026-05-08T07:30:24Z</time></trkpt>
<trkpt lat="40.729707" lon="-8.096594">
<ele>217</ele>
<time>2026-05-08T07:30:27Z</time></trkpt>
<trkpt lat="40.73022" lon="-8.096617">
<ele>212</ele>
<time>2026-05-08T07:30:37Z</time></trkpt>
<trkpt lat="40.73022" lon="-8.096617">
<ele>212</ele>
<time>2026-05-08T07:30:37Z</time></trkpt>
<trkpt lat="40.73063" lon="-8.096636">
<ele>208</ele>
<time>2026-05-08T07:30:45Z</time></trkpt>
<trkpt lat="40.731272" lon="-8.096441">
<ele>210</ele>
<time>2026-05-08T07:30:58Z</time></trkpt>
<trkpt lat="40.731415" lon="-8.096448">
<ele>210</ele>
<time>2026-05-08T07:31:01Z</time></trkpt>
<trkpt lat="40.732298" lon="-8.096703">
<ele>203</ele>
<time>2026-05-08T07:31:19Z</time></trkpt>
<trkpt lat="40.732437" lon="-8.096659">
<ele>204</ele>
<time>2026-05-08T07:31:22Z</time></trkpt>
<trkpt lat="40.732579" lon="-8.096542">
<ele>205</ele>
<time>2026-05-08T07:31:26Z</time></trkpt>
<trkpt lat="40.732737" lon="-8.096294">
<ele>207</ele>
<time>2026-05-08T07:31:31Z</time></trkpt>
<trkpt lat="40.732836" lon="-8.096214">
<ele>207</ele>
<time>2026-05-08T07:31:33Z</time></trkpt>
<trkpt lat="40.733137" lon="-8.096241">
<ele>200</ele>
<time>2026-05-08T07:31:39Z</time></trkpt>
<trkpt lat="40.733281" lon="-8.096233">
<ele>197</ele>
<time>2026-05-08T07:31:42Z</time></trkpt>
<trkpt lat="40.733393" lon="-8.096157">
<ele>195</ele>
<time>2026-05-08T07:31:44Z</time></trkpt>
<trkpt lat="40.733483" lon="-8.095985">
<ele>195</ele>
<time>2026-05-08T07:31:48Z</time></trkpt>
<trkpt lat="40.733517" lon="-8.09581">
<ele>197</ele>
<time>2026-05-08T07:31:50Z</time></trkpt>
<trkpt lat="40.733526" lon="-8.095313">
<ele>203</ele>
<time>2026-05-08T07:31:58Z</time></trkpt>
<trkpt lat="40.733587" lon="-8.095151">
<ele>204</ele>
<time>2026-05-08T07:32:01Z</time></trkpt>
<trkpt lat="40.733704" lon="-8.095082">
<ele>202</ele>
<time>2026-05-08T07:32:03Z</time></trkpt>
<trkpt lat="40.734702" lon="-8.094924">
<ele>189</ele>
<time>2026-05-08T07:32:23Z</time></trkpt>
<trkpt lat="40.735221" lon="-8.094821">
<ele>187</ele>
<time>2026-05-08T07:32:34Z</time></trkpt>
<trkpt lat="40.735509" lon="-8.094699">
<ele>188</ele>
<time>2026-05-08T07:32:40Z</time></trkpt>
<trkpt lat="40.735848" lon="-8.094501">
<ele>189</ele>
<time>2026-05-08T07:32:47Z</time></trkpt>
<trkpt lat="40.736149" lon="-8.094208">
<ele>190</ele>
<time>2026-05-08T07:32:55Z</time></trkpt>
<trkpt lat="40.736361" lon="-8.0938856">
<ele>191</ele>
<time>2026-05-08T07:33:01Z</time></trkpt>
<trkpt lat="40.736395" lon="-8.093834">
<ele>191</ele>
<time>2026-05-08T07:33:02Z</time></trkpt>
<trkpt lat="40.736805" lon="-8.093169">
<ele>192</ele>
<time>2026-05-08T07:33:15Z</time></trkpt>
<trkpt lat="40.737299" lon="-8.092439">
<ele>190</ele>
<time>2026-05-08T07:33:30Z</time></trkpt>
<trkpt lat="40.737521" lon="-8.092075">
<ele>189</ele>
<time>2026-05-08T07:33:37Z</time></trkpt>
<trkpt lat="40.737622" lon="-8.09178">
<ele>191</ele>
<time>2026-05-08T07:33:42Z</time></trkpt>
<trkpt lat="40.737648" lon="-8.091468">
<ele>192</ele>
<time>2026-05-08T07:33:47Z</time></trkpt>
<trkpt lat="40.737612" lon="-8.091153">
<ele>193</ele>
<time>2026-05-08T07:33:52Z</time></trkpt>
<trkpt lat="40.737504" lon="-8.090852">
<ele>195</ele>
<time>2026-05-08T07:33:57Z</time></trkpt>
<trkpt lat="40.736925" lon="-8.089755">
<ele>204</ele>
<time>2026-05-08T07:34:17Z</time></trkpt>
<trkpt lat="40.736561" lon="-8.089265">
<ele>207</ele>
<time>2026-05-08T07:34:28Z</time></trkpt>
<trkpt lat="40.736077" lon="-8.088821">
<ele>207</ele>
<time>2026-05-08T07:34:39Z</time></trkpt>
<trkpt lat="40.735926" lon="-8.088615">
<ele>207</ele>
<time>2026-05-08T07:34:44Z</time></trkpt>
<trkpt lat="40.735796" lon="-8.088321">
<ele>205</ele>
<time>2026-05-08T07:34:49Z</time></trkpt>
<trkpt lat="40.735785" lon="-8.088259">
<ele>205</ele>
<time>2026-05-08T07:34:50Z</time></trkpt>
<trkpt lat="40.735751" lon="-8.088053">
<ele>207</ele>
<time>2026-05-08T07:34:53Z</time></trkpt>
<trkpt lat="40.735765" lon="-8.08776">
<ele>208</ele>
<time>2026-05-08T07:34:58Z</time></trkpt>
<trkpt lat="40.736102" lon="-8.085842">
<ele>196</ele>
<time>2026-05-08T07:35:27Z</time></trkpt>
<trkpt lat="40.736216" lon="-8.085472">
<ele>198</ele>
<time>2026-05-08T07:35:33Z</time></trkpt>
<trkpt lat="40.736357" lon="-8.085263">
<ele>198</ele>
<time>2026-05-08T07:35:38Z</time></trkpt>
<trkpt lat="40.736516" lon="-8.08513">
<ele>198</ele>
<time>2026-05-08T07:35:41Z</time></trkpt>
<trkpt lat="40.736714" lon="-8.085053">
<ele>197</ele>
<time>2026-05-08T07:35:46Z</time></trkpt>
<trkpt lat="40.736895" lon="-8.085024">
<ele>196</ele>
<time>2026-05-08T07:35:49Z</time></trkpt>
<trkpt lat="40.738057" lon="-8.085108">
<ele>185</ele>
<time>2026-05-08T07:36:13Z</time></trkpt>
<trkpt lat="40.738378" lon="-8.085046">
<ele>184</ele>
<time>2026-05-08T07:36:19Z</time></trkpt>
<trkpt lat="40.738647" lon="-8.08493">
<ele>183</ele>
<time>2026-05-08T07:36:25Z</time></trkpt>
<trkpt lat="40.738878" lon="-8.084781">
<ele>183</ele>
<time>2026-05-08T07:36:30Z</time></trkpt>
<trkpt lat="40.73915" lon="-8.084543">
<ele>183</ele>
<time>2026-05-08T07:36:36Z</time></trkpt>
<trkpt lat="40.739395" lon="-8.084236">
<ele>182</ele>
<time>2026-05-08T07:36:43Z</time></trkpt>
<trkpt lat="40.740011" lon="-8.083148">
<ele>181</ele>
<time>2026-05-08T07:37:04Z</time></trkpt>
<trkpt lat="40.740236" lon="-8.08285">
<ele>181</ele>
<time>2026-05-08T07:37:10Z</time></trkpt>
<trkpt lat="40.740473" lon="-8.082615">
<ele>180</ele>
<time>2026-05-08T07:37:16Z</time></trkpt>
<trkpt lat="40.740742" lon="-8.082455">
<ele>179</ele>
<time>2026-05-08T07:37:22Z</time></trkpt>
<trkpt lat="40.740957" lon="-8.082364">
<ele>179</ele>
<time>2026-05-08T07:37:27Z</time></trkpt>
<trkpt lat="40.7411664" lon="-8.082329">
<ele>179</ele>
<time>2026-05-08T07:37:31Z</time></trkpt>
<trkpt lat="40.741238" lon="-8.082317">
<ele>179</ele>
<time>2026-05-08T07:37:32Z</time></trkpt>
<trkpt lat="40.741326" lon="-8.082284">
<ele>179</ele>
<time>2026-05-08T07:37:34Z</time></trkpt>
<trkpt lat="40.741424" lon="-8.08228">
<ele>179</ele>
<time>2026-05-08T07:37:36Z</time></trkpt>
<trkpt lat="40.741757" lon="-8.082353">
<ele>177</ele>
<time>2026-05-08T07:37:43Z</time></trkpt>
<trkpt lat="40.742095" lon="-8.082505">
<ele>174</ele>
<time>2026-05-08T07:37:50Z</time></trkpt>
<trkpt lat="40.742235" lon="-8.082581">
<ele>174</ele>
<time>2026-05-08T07:37:53Z</time></trkpt>
<trkpt lat="40.742283" lon="-8.082605">
<ele>174</ele>
<time>2026-05-08T07:37:54Z</time></trkpt>
<trkpt lat="40.742453" lon="-8.082688">
<ele>173</ele>
<time>2026-05-08T07:37:58Z</time></trkpt>
<trkpt lat="40.742955" lon="-8.082945">
<ele>172</ele>
<time>2026-05-08T07:38:08Z</time></trkpt>
<trkpt lat="40.743286" lon="-8.083155">
<ele>171</ele>
<time>2026-05-08T07:38:16Z</time></trkpt>
<trkpt lat="40.744207" lon="-8.083621">
<ele>160</ele>
<time>2026-05-08T07:38:36Z</time></trkpt>
<trkpt lat="40.745268" lon="-8.084157">
<ele>150</ele>
<time>2026-05-08T07:38:58Z</time></trkpt>
<trkpt lat="40.745917" lon="-8.0844">
<ele>154</ele>
<time>2026-05-08T07:39:12Z</time></trkpt>
<trkpt lat="40.746173" lon="-8.084461">
<ele>155</ele>
<time>2026-05-08T07:39:17Z</time></trkpt>
<trkpt lat="40.746241" lon="-8.084427">
<ele>155</ele>
<time>2026-05-08T07:39:19Z</time></trkpt>
<trkpt lat="40.746306" lon="-8.084467">
<ele>156</ele>
<time>2026-05-08T07:39:20Z</time></trkpt>
<trkpt lat="40.746321" lon="-8.084495">
<ele>156</ele>
<time>2026-05-08T07:39:21Z</time></trkpt>
<trkpt lat="40.746719" lon="-8.08447">
<ele>158</ele>
<time>2026-05-08T07:39:29Z</time></trkpt>
<trkpt lat="40.747229" lon="-8.084309">
<ele>160</ele>
<time>2026-05-08T07:39:39Z</time></trkpt>
<trkpt lat="40.747435" lon="-8.084131">
<ele>161</ele>
<time>2026-05-08T07:39:44Z</time></trkpt>
<trkpt lat="40.747637" lon="-8.083923">
<ele>162</ele>
<time>2026-05-08T07:39:49Z</time></trkpt>
<trkpt lat="40.747788" lon="-8.083706">
<ele>163</ele>
<time>2026-05-08T07:39:54Z</time></trkpt>
<trkpt lat="40.747913" lon="-8.083481">
<ele>163</ele>
<time>2026-05-08T07:39:58Z</time></trkpt>
<trkpt lat="40.748029" lon="-8.08322">
<ele>163</ele>
<time>2026-05-08T07:40:02Z</time></trkpt>
<trkpt lat="40.748176" lon="-8.082709">
<ele>163</ele>
<time>2026-05-08T07:40:11Z</time></trkpt>
<trkpt lat="40.749159" lon="-8.07701">
<ele>168</ele>
<time>2026-05-08T07:41:39Z</time></trkpt>
<trkpt lat="40.749159" lon="-8.07701">
<ele>168</ele>
<time>2026-05-08T07:41:39Z</time></trkpt>
<trkpt lat="40.7493" lon="-8.076228">
<ele>169</ele>
<time>2026-05-08T07:41:52Z</time></trkpt>
<trkpt lat="40.749298" lon="-8.076052">
<ele>168</ele>
<time>2026-05-08T07:41:54Z</time></trkpt>
<trkpt lat="40.749288" lon="-8.076012">
<ele>168</ele>
<time>2026-05-08T07:41:55Z</time></trkpt>
<trkpt lat="40.74928" lon="-8.075981">
<ele>168</ele>
<time>2026-05-08T07:41:55Z</time></trkpt>
<trkpt lat="40.749319" lon="-8.075749">
<ele>168</ele>
<time>2026-05-08T07:41:59Z</time></trkpt>
<trkpt lat="40.749343" lon="-8.075697">
<ele>169</ele>
<time>2026-05-08T07:42:00Z</time></trkpt>
<trkpt lat="40.749413" lon="-8.075502">
<ele>169</ele>
<time>2026-05-08T07:42:03Z</time></trkpt>
<trkpt lat="40.74955" lon="-8.0749">
<ele>171</ele>
<time>2026-05-08T07:42:13Z</time></trkpt>
<trkpt lat="40.749678" lon="-8.07459">
<ele>174</ele>
<time>2026-05-08T07:42:18Z</time></trkpt>
<trkpt lat="40.750893" lon="-8.0726">
<ele>177</ele>
<time>2026-05-08T07:42:57Z</time></trkpt>
<trkpt lat="40.752043" lon="-8.070677">
<ele>187</ele>
<time>2026-05-08T07:43:34Z</time></trkpt>
<trkpt lat="40.752181" lon="-8.070503">
<ele>188</ele>
<time>2026-05-08T07:43:38Z</time></trkpt>
<trkpt lat="40.7528444" lon="-8.0698657">
<ele>191</ele>
<time>2026-05-08T07:43:54Z</time></trkpt>
<trkpt lat="40.752844" lon="-8.069866">
<ele>191</ele>
<time>2026-05-08T07:43:54Z</time></trkpt>
<trkpt lat="40.753147" lon="-8.069575">
<ele>191</ele>
<time>2026-05-08T07:44:02Z</time></trkpt>
<trkpt lat="40.7532087" lon="-8.0695572">
<ele>192</ele>
<time>2026-05-08T07:44:03Z</time></trkpt>
<trkpt lat="40.7532735" lon="-8.0695385">
<ele>192</ele>
<time>2026-05-08T07:44:04Z</time></trkpt>
<trkpt lat="40.7533548" lon="-8.0695412">
<ele>192</ele>
<time>2026-05-08T07:44:06Z</time></trkpt>
<trkpt lat="40.7534482" lon="-8.0695841">
<ele>192</ele>
<time>2026-05-08T07:44:08Z</time></trkpt>
<trkpt lat="40.7536235" lon="-8.0696737">
<ele>193</ele>
<time>2026-05-08T07:44:12Z</time></trkpt>
<trkpt lat="40.754152" lon="-8.069955">
<ele>195</ele>
<time>2026-05-08T07:44:23Z</time></trkpt>
<trkpt lat="40.754187" lon="-8.069887">
<ele>195</ele>
<time>2026-05-08T07:44:25Z</time></trkpt>
<trkpt lat="40.754215" lon="-8.069866">
<ele>195</ele>
<time>2026-05-08T07:44:25Z</time></trkpt>
<trkpt lat="40.754278" lon="-8.069862">
<ele>195</ele>
<time>2026-05-08T07:44:26Z</time></trkpt>
<trkpt lat="40.754332" lon="-8.069906">
<ele>196</ele>
<time>2026-05-08T07:44:28Z</time></trkpt>
<trkpt lat="40.754356" lon="-8.069977">
<ele>195</ele>
<time>2026-05-08T07:44:29Z</time></trkpt>
<trkpt lat="40.754347" lon="-8.070053">
<ele>196</ele>
<time>2026-05-08T07:44:30Z</time></trkpt>
<trkpt lat="40.755211" lon="-8.070507">
<ele>199</ele>
<time>2026-05-08T07:44:49Z</time></trkpt>
<trkpt lat="40.755381" lon="-8.070544">
<ele>200</ele>
<time>2026-05-08T07:44:52Z</time></trkpt>
<trkpt lat="40.755604" lon="-8.070505">
<ele>201</ele>
<time>2026-05-08T07:44:57Z</time></trkpt>
<trkpt lat="40.755935" lon="-8.070339">
<ele>201</ele>
<time>2026-05-08T07:45:04Z</time></trkpt>
<trkpt lat="40.755932" lon="-8.070228">
<ele>201</ele>
<time>2026-05-08T07:45:05Z</time></trkpt>
<trkpt lat="40.755951" lon="-8.070178">
<ele>201</ele>
<time>2026-05-08T07:45:06Z</time></trkpt>
<trkpt lat="40.756022" lon="-8.070117">
<ele>201</ele>
<time>2026-05-08T07:45:08Z</time></trkpt>
<trkpt lat="40.756065" lon="-8.070114">
<ele>202</ele>
<time>2026-05-08T07:45:09Z</time></trkpt>
<trkpt lat="40.756135" lon="-8.070156">
<ele>202</ele>
<time>2026-05-08T07:45:10Z</time></trkpt>
<trkpt lat="40.756159" lon="-8.070196">
<ele>202</ele>
<time>2026-05-08T07:45:11Z</time></trkpt>
<trkpt lat="40.756306" lon="-8.070126">
<ele>203</ele>
<time>2026-05-08T07:45:14Z</time></trkpt>
<trkpt lat="40.758518" lon="-8.068837">
<ele>219</ele>
<time>2026-05-08T07:46:03Z</time></trkpt>
<trkpt lat="40.758782" lon="-8.068612">
<ele>221</ele>
<time>2026-05-08T07:46:09Z</time></trkpt>
<trkpt lat="40.759159" lon="-8.068186">
<ele>222</ele>
<time>2026-05-08T07:46:19Z</time></trkpt>
<trkpt lat="40.759793" lon="-8.067614">
<ele>217</ele>
<time>2026-05-08T07:46:34Z</time></trkpt>
<trkpt lat="40.759983" lon="-8.067463">
<ele>215</ele>
<time>2026-05-08T07:46:39Z</time></trkpt>
<trkpt lat="40.760489" lon="-8.067138">
<ele>213</ele>
<time>2026-05-08T07:46:50Z</time></trkpt>
<trkpt lat="40.760489" lon="-8.067138">
<ele>213</ele>
<time>2026-05-08T07:46:50Z</time></trkpt>
<trkpt lat="40.761199" lon="-8.066626">
<ele>213</ele>
<time>2026-05-08T07:47:06Z</time></trkpt>
<trkpt lat="40.761199" lon="-8.066626">
<ele>213</ele>
<time>2026-05-08T07:47:06Z</time></trkpt>
<trkpt lat="40.7613551" lon="-8.0665555">
<ele>214</ele>
<time>2026-05-08T07:47:10Z</time></trkpt>
<trkpt lat="40.7615591" lon="-8.0664861">
<ele>215</ele>
<time>2026-05-08T07:47:14Z</time></trkpt>
<trkpt lat="40.7616564" lon="-8.0664727">
<ele>215</ele>
<time>2026-05-08T07:47:16Z</time></trkpt>
<trkpt lat="40.7618249" lon="-8.0664298">
<ele>216</ele>
<time>2026-05-08T07:47:19Z</time></trkpt>
<trkpt lat="40.7619631" lon="-8.0664244">
<ele>217</ele>
<time>2026-05-08T07:47:22Z</time></trkpt>
<trkpt lat="40.7620769" lon="-8.0663949">
<ele>217</ele>
<time>2026-05-08T07:47:24Z</time></trkpt>
<trkpt lat="40.7623587" lon="-8.0663281">
<ele>219</ele>
<time>2026-05-08T07:47:30Z</time></trkpt>
<trkpt lat="40.762655" lon="-8.066257">
<ele>221</ele>
<time>2026-05-08T07:47:36Z</time></trkpt>
<trkpt lat="40.762833" lon="-8.066168">
<ele>222</ele>
<time>2026-05-08T07:47:40Z</time></trkpt>
<trkpt lat="40.763067" lon="-8.065954">
<ele>223</ele>
<time>2026-05-08T07:47:46Z</time></trkpt>
<trkpt lat="40.763248" lon="-8.065708">
<ele>224</ele>
<time>2026-05-08T07:47:51Z</time></trkpt>
<trkpt lat="40.7635026" lon="-8.0652528">
<ele>227</ele>
<time>2026-05-08T07:47:59Z</time></trkpt>
<trkpt lat="40.7636115" lon="-8.0649927">
<ele>228</ele>
<time>2026-05-08T07:48:04Z</time></trkpt>
<trkpt lat="40.7636941" lon="-8.0648339">
<ele>228</ele>
<time>2026-05-08T07:48:07Z</time></trkpt>
<trkpt lat="40.7637631" lon="-8.0648178">
<ele>228</ele>
<time>2026-05-08T07:48:08Z</time></trkpt>
<trkpt lat="40.763885" lon="-8.0647588">
<ele>229</ele>
<time>2026-05-08T07:48:11Z</time></trkpt>
<trkpt lat="40.7641004" lon="-8.0646023">
<ele>230</ele>
<time>2026-05-08T07:48:16Z</time></trkpt>
<trkpt lat="40.7642148" lon="-8.0645023">
<ele>230</ele>
<time>2026-05-08T07:48:19Z</time></trkpt>
<trkpt lat="40.764302" lon="-8.064426">
<ele>231</ele>
<time>2026-05-08T07:48:21Z</time></trkpt>
<trkpt lat="40.76454" lon="-8.064226">
<ele>231</ele>
<time>2026-05-08T07:48:26Z</time></trkpt>
</trkseg>
</trk>
</gpx>